<?xml version='1.0' encoding='UTF-8'?><gpx version="1.1" creator="JPX - https://github.com/jenetics/jpx" xmlns="http://www.topografix.com/GPX/1/1"><trk><trkseg><trkpt lat="45.024280662699134" lon="7.523294142132589"><ele>286.0</ele><time>2026-04-19T08:01:31Z</time></trkpt><trkpt lat="45.02426800356711" lon="7.5232025310995345"><ele>286.0</ele><time>2026-04-19T08:01:48.001Z</time></trkpt><trkpt lat="45.02426730637825" lon="7.52309081157446"><ele>286.0</ele><time>2026-04-19T08:01:50.001Z</time></trkpt><trkpt lat="45.02428328598436" lon="7.522979438503614"><ele>286.0</ele><time>2026-04-19T08:01:52.001Z</time></trkpt><trkpt lat="45.0242949170073" lon="7.5228342541046835"><ele>286.0</ele><time>2026-04-19T08:01:54.001Z</time></trkpt><trkpt lat="45.02430488551725" lon="7.522650794579501"><ele>286.0</ele><time>2026-04-19T08:01:56.001Z</time></trkpt><trkpt lat="45.02431820318643" lon="7.522545068227052"><ele>286.0</ele><time>2026-04-19T08:01:57.001Z</time></trkpt><trkpt lat="45.02432418823403" lon="7.5224259521101695"><ele>286.0</ele><time>2026-04-19T08:01:58.001Z</time></trkpt><trkpt lat="45.02434318132408" lon="7.522298618237501"><ele>286.0</ele><time>2026-04-19T08:01:59.001Z</time></trkpt><trkpt lat="45.02435295086014" lon="7.522165613934372"><ele>286.0</ele><time>2026-04-19T08:02:00.001Z</time></trkpt><trkpt lat="45.02435994895278" lon="7.522039897648375"><ele>286.0</ele><time>2026-04-19T08:02:01.001Z</time></trkpt><trkpt lat="45.024371282761464" lon="7.521901305166067"><ele>286.0</ele><time>2026-04-19T08:02:02.001Z</time></trkpt><trkpt lat="45.02437889870766" lon="7.5217446673317925"><ele>286.0</ele><time>2026-04-19T08:02:03.001Z</time></trkpt><trkpt lat="45.02439628148276" lon="7.5215782711442385"><ele>286.0</ele><time>2026-04-19T08:02:04.001Z</time></trkpt><trkpt lat="45.02442050821133" lon="7.521407401627512"><ele>286.0</ele><time>2026-04-19T08:02:05.001Z</time></trkpt><trkpt lat="45.02445815557939" lon="7.5212348709940935"><ele>286.25</ele><time>2026-04-19T08:02:06.001Z</time></trkpt><trkpt lat="45.024501259813626" lon="7.521058578933678"><ele>286.5</ele><time>2026-04-19T08:02:07.001Z</time></trkpt><trkpt lat="45.02453945186145" lon="7.520896211813776"><ele>286.75</ele><time>2026-04-19T08:02:08.001Z</time></trkpt><trkpt lat="45.024565462534994" lon="7.520721204904611"><ele>287.0</ele><time>2026-04-19T08:02:09.001Z</time></trkpt><trkpt lat="45.02460574114417" lon="7.52055681283666"><ele>287.25</ele><time>2026-04-19T08:02:10.001Z</time></trkpt><trkpt lat="45.02464291536525" lon="7.520381882587128"><ele>287.5</ele><time>2026-04-19T08:02:11.001Z</time></trkpt><trkpt lat="45.02468056483454" lon="7.52021152415542"><ele>287.75</ele><time>2026-04-19T08:02:12.001Z</time></trkpt><trkpt lat="45.02471357243233" lon="7.520041630380351"><ele>288.0</ele><time>2026-04-19T08:02:13.001Z</time></trkpt><trkpt lat="45.02474702848298" lon="7.519872164880736"><ele>288.0</ele><time>2026-04-19T08:02:14.001Z</time></trkpt><trkpt lat="45.02477848587174" lon="7.519688401217586"><ele>288.0</ele><time>2026-04-19T08:02:15.001Z</time></trkpt><trkpt lat="45.024818363121604" lon="7.519505737207284"><ele>288.0</ele><time>2026-04-19T08:02:16.001Z</time></trkpt><trkpt lat="45.024857275181596" lon="7.5193151937647915"><ele>288.0</ele><time>2026-04-19T08:02:17.001Z</time></trkpt><trkpt lat="45.02487737073261" lon="7.519152139290862"><ele>288.0</ele><time>2026-04-19T08:02:18.001Z</time></trkpt><trkpt lat="45.02491379436863" lon="7.518923741983351"><ele>288.0</ele><time>2026-04-19T08:02:19.001Z</time></trkpt><trkpt lat="45.024947617787525" lon="7.518676397642182"><ele>288.0</ele><time>2026-04-19T08:02:20.001Z</time></trkpt><trkpt lat="45.0249667580403" lon="7.518483313666254"><ele>288.0</ele><time>2026-04-19T08:02:21.001Z</time></trkpt><trkpt lat="45.024993604522564" lon="7.518271646126366"><ele>288.0</ele><time>2026-04-19T08:02:22.001Z</time></trkpt><trkpt lat="45.0250201399963" lon="7.5180686783841075"><ele>288.0</ele><time>2026-04-19T08:02:23.001Z</time></trkpt><trkpt lat="45.02504570074994" lon="7.517870952382994"><ele>288.0</ele><time>2026-04-19T08:02:24.001Z</time></trkpt><trkpt lat="45.025066127382004" lon="7.517668374500053"><ele>288.0</ele><time>2026-04-19T08:02:25.001Z</time></trkpt><trkpt lat="45.02508256003259" lon="7.517464852835676"><ele>288.0</ele><time>2026-04-19T08:02:26.001Z</time></trkpt><trkpt lat="45.0251066453631" lon="7.517269013681779"><ele>288.0</ele><time>2026-04-19T08:02:27.001Z</time></trkpt><trkpt lat="45.02513221550767" lon="7.517071308880919"><ele>288.0</ele><time>2026-04-19T08:02:28.001Z</time></trkpt><trkpt lat="45.025165733484855" lon="7.516894966449408"><ele>288.25</ele><time>2026-04-19T08:02:29.001Z</time></trkpt><trkpt lat="45.02521359396346" lon="7.516728980479942"><ele>288.5</ele><time>2026-04-19T08:02:30.001Z</time></trkpt><trkpt lat="45.025294006848405" lon="7.516594553391133"><ele>288.75</ele><time>2026-04-19T08:02:31.001Z</time></trkpt><trkpt lat="45.025379301371274" lon="7.516452513089381"><ele>289.0</ele><time>2026-04-19T08:02:32.001Z</time></trkpt><trkpt lat="45.0254563056724" lon="7.516293950269341"><ele>289.5</ele><time>2026-04-19T08:02:33.001Z</time></trkpt><trkpt lat="45.02553644826785" lon="7.516164363462989"><ele>290.0</ele><time>2026-04-19T08:02:34.001Z</time></trkpt><trkpt lat="45.02562230127026" lon="7.516032558537204"><ele>290.5</ele><time>2026-04-19T08:02:35.001Z</time></trkpt><trkpt lat="45.025705101095696" lon="7.5158877927877565"><ele>291.0</ele><time>2026-04-19T08:02:36.001Z</time></trkpt><trkpt lat="45.02578023354752" lon="7.515744636592212"><ele>291.0</ele><time>2026-04-19T08:02:37.001Z</time></trkpt><trkpt lat="45.02584480760883" lon="7.515622354409354"><ele>291.0</ele><time>2026-04-19T08:02:38.001Z</time></trkpt><trkpt lat="45.02589655395302" lon="7.515511894637861"><ele>291.0</ele><time>2026-04-19T08:02:39.001Z</time></trkpt><trkpt lat="45.02594002371495" lon="7.515411008545061"><ele>291.0</ele><time>2026-04-19T08:02:40Z</time></trkpt><trkpt lat="45.02595441262991" lon="7.515312229189853"><ele>291.0</ele><time>2026-04-19T08:02:41Z</time></trkpt><trkpt lat="45.025930179758525" lon="7.515209009714183"><ele>291.0</ele><time>2026-04-19T08:02:42Z</time></trkpt><trkpt lat="45.02588793846631" lon="7.515094630157639"><ele>291.25</ele><time>2026-04-19T08:02:43Z</time></trkpt><trkpt lat="45.02579476949986" lon="7.515007614375213"><ele>291.5</ele><time>2026-04-19T08:02:44Z</time></trkpt><trkpt lat="45.025701113300066" lon="7.514917224433905"><ele>291.75</ele><time>2026-04-19T08:02:45Z</time></trkpt><trkpt lat="45.02560057651726" lon="7.514838026957327"><ele>292.0</ele><time>2026-04-19T08:02:46Z</time></trkpt><trkpt lat="45.02549106402609" lon="7.514739397811983"><ele>292.0</ele><time>2026-04-19T08:02:47Z</time></trkpt><trkpt lat="45.02537998796706" lon="7.514632759464726"><ele>292.0</ele><time>2026-04-19T08:02:48Z</time></trkpt><trkpt lat="45.025268241472304" lon="7.514529681608632"><ele>292.0</ele><time>2026-04-19T08:02:49Z</time></trkpt><trkpt lat="45.02516324827377" lon="7.51442594647238"><ele>292.0</ele><time>2026-04-19T08:02:50Z</time></trkpt><trkpt lat="45.0250576942228" lon="7.514340852467297"><ele>291.5</ele><time>2026-04-19T08:02:51Z</time></trkpt><trkpt lat="45.02496665890608" lon="7.514262812555716"><ele>291.0</ele><time>2026-04-19T08:02:52Z</time></trkpt><trkpt lat="45.02488631264809" lon="7.514197033971275"><ele>290.5</ele><time>2026-04-19T08:02:53Z</time></trkpt><trkpt lat="45.024814399787324" lon="7.514128934894668"><ele>290.0</ele><time>2026-04-19T08:02:54Z</time></trkpt><trkpt lat="45.02475137027144" lon="7.514070960068871"><ele>289.5</ele><time>2026-04-19T08:02:55Z</time></trkpt><trkpt lat="45.024691381916924" lon="7.514008734493273"><ele>289.0</ele><time>2026-04-19T08:02:56Z</time></trkpt><trkpt lat="45.024637519689676" lon="7.51395775637372"><ele>289.0</ele><time>2026-04-19T08:02:57Z</time></trkpt><trkpt lat="45.024584818467126" lon="7.513907811778403"><ele>289.0</ele><time>2026-04-19T08:02:58Z</time></trkpt><trkpt lat="45.02452084553451" lon="7.513861861485996"><ele>289.0</ele><time>2026-04-19T08:02:59Z</time></trkpt><trkpt lat="45.024458724497904" lon="7.513813218209757"><ele>289.0</ele><time>2026-04-19T08:03:00Z</time></trkpt><trkpt lat="45.024365338693784" lon="7.513721929985632"><ele>289.0</ele><time>2026-04-19T08:03:02Z</time></trkpt><trkpt lat="45.02431906845471" lon="7.513619170181003"><ele>289.0</ele><time>2026-04-19T08:03:04Z</time></trkpt><trkpt lat="45.02436530263273" lon="7.513460830007608"><ele>289.3333333333333</ele><time>2026-04-19T08:03:06Z</time></trkpt><trkpt lat="45.02437830101124" lon="7.51335579524795"><ele>289.66666666666663</ele><time>2026-04-19T08:03:07Z</time></trkpt><trkpt lat="45.02437493574057" lon="7.51324343615217"><ele>290.0</ele><time>2026-04-19T08:03:08Z</time></trkpt><trkpt lat="45.02439028264585" lon="7.513127276246833"><ele>290.3333333333333</ele><time>2026-04-19T08:03:09Z</time></trkpt><trkpt lat="45.02440115377142" lon="7.513014765310737"><ele>290.6666666666667</ele><time>2026-04-19T08:03:10Z</time></trkpt><trkpt lat="45.02441107430218" lon="7.512892232747032"><ele>291.0</ele><time>2026-04-19T08:03:11Z</time></trkpt><trkpt lat="45.02441427968742" lon="7.512771245752948"><ele>291.3333333333333</ele><time>2026-04-19T08:03:12Z</time></trkpt><trkpt lat="45.024414652986856" lon="7.5126543298683375"><ele>291.6666666666667</ele><time>2026-04-19T08:03:13Z</time></trkpt><trkpt lat="45.02440800854621" lon="7.5125412886916125"><ele>292.0</ele><time>2026-04-19T08:03:14Z</time></trkpt><trkpt lat="45.024412270041886" lon="7.512443465092154"><ele>292.33333333333337</ele><time>2026-04-19T08:03:15Z</time></trkpt><trkpt lat="45.02441244578676" lon="7.51235150251645"><ele>292.6666666666667</ele><time>2026-04-19T08:03:16Z</time></trkpt><trkpt lat="45.02441042328362" lon="7.512258467070843"><ele>293.0</ele><time>2026-04-19T08:03:17Z</time></trkpt><trkpt lat="45.02440877416288" lon="7.512103551742362"><ele>292.25</ele><time>2026-04-19T08:03:19Z</time></trkpt><trkpt lat="45.02439646584454" lon="7.511935913544427"><ele>291.5</ele><time>2026-04-19T08:03:21Z</time></trkpt><trkpt lat="45.02439167059968" lon="7.511764895458645"><ele>290.75</ele><time>2026-04-19T08:03:23Z</time></trkpt><trkpt lat="45.02438965668747" lon="7.511675872980146"><ele>290.0</ele><time>2026-04-19T08:03:24Z</time></trkpt><trkpt lat="45.02439026399728" lon="7.511429688217073"><ele>290.0</ele><time>2026-04-19T08:03:27Z</time></trkpt><trkpt lat="45.024407466168526" lon="7.511342572091105"><ele>290.0</ele><time>2026-04-19T08:03:28Z</time></trkpt><trkpt lat="45.02440877947989" lon="7.511229488982514"><ele>290.0</ele><time>2026-04-19T08:03:30Z</time></trkpt><trkpt lat="45.02441028432977" lon="7.511099909827442"><ele>290.0</ele><time>2026-04-19T08:03:46.001Z</time></trkpt><trkpt lat="45.02441256875875" lon="7.51090319751087"><ele>290.0</ele><time>2026-04-19T08:03:48.001Z</time></trkpt><trkpt lat="45.024307974776804" lon="7.5107873967127405"><ele>290.0</ele><time>2026-04-19T08:03:49.001Z</time></trkpt><trkpt lat="45.024289053597634" lon="7.510663313267405"><ele>290.0</ele><time>2026-04-19T08:03:50.001Z</time></trkpt><trkpt lat="45.0242627711357" lon="7.510525853890019"><ele>290.0</ele><time>2026-04-19T08:03:51.001Z</time></trkpt><trkpt lat="45.02423467187488" lon="7.510395573651165"><ele>290.0</ele><time>2026-04-19T08:03:52.001Z</time></trkpt><trkpt lat="45.02419957370062" lon="7.510236887312101"><ele>290.0</ele><time>2026-04-19T08:03:53.001Z</time></trkpt><trkpt lat="45.02418157599058" lon="7.510089928306066"><ele>290.0</ele><time>2026-04-19T08:03:54.001Z</time></trkpt><trkpt lat="45.02417704505315" lon="7.509954326420594"><ele>290.0</ele><time>2026-04-19T08:03:55.001Z</time></trkpt><trkpt lat="45.02419666318624" lon="7.5098671854998225"><ele>290.0</ele><time>2026-04-19T08:03:56.001Z</time></trkpt><trkpt lat="45.02428761110387" lon="7.509751704544598"><ele>290.0</ele><time>2026-04-19T08:03:58.001Z</time></trkpt><trkpt lat="45.0242912206686" lon="7.509580059384028"><ele>290.0</ele><time>2026-04-19T08:04:00.001Z</time></trkpt><trkpt lat="45.02429996994396" lon="7.509462590851433"><ele>290.4</ele><time>2026-04-19T08:04:01.001Z</time></trkpt><trkpt lat="45.02433377566569" lon="7.509345902018167"><ele>290.8</ele><time>2026-04-19T08:04:02.001Z</time></trkpt><trkpt lat="45.02436917902299" lon="7.509229128392845"><ele>291.2</ele><time>2026-04-19T08:04:03.001Z</time></trkpt><trkpt lat="45.02441096079128" lon="7.509113231353231"><ele>291.6</ele><time>2026-04-19T08:04:04.001Z</time></trkpt><trkpt lat="45.02447241147397" lon="7.5089867634516825"><ele>292.0</ele><time>2026-04-19T08:04:05.001Z</time></trkpt><trkpt lat="45.02451939415286" lon="7.508874732349765"><ele>292.0</ele><time>2026-04-19T08:04:06.001Z</time></trkpt><trkpt lat="45.0245730360165" lon="7.508764609286991"><ele>292.0</ele><time>2026-04-19T08:04:07.001Z</time></trkpt><trkpt lat="45.024614556754365" lon="7.508674500690402"><ele>292.0</ele><time>2026-04-19T08:04:08.001Z</time></trkpt><trkpt lat="45.02461942970727" lon="7.50855662019912"><ele>292.0</ele><time>2026-04-19T08:04:10.001Z</time></trkpt><trkpt lat="45.024571973808904" lon="7.5084195300994505"><ele>292.0</ele><time>2026-04-19T08:04:12.001Z</time></trkpt><trkpt lat="45.02461459513638" lon="7.5083239641635675"><ele>292.0</ele><time>2026-04-19T08:04:13.001Z</time></trkpt><trkpt lat="45.024660346521394" lon="7.508239169097836"><ele>292.16666666666663</ele><time>2026-04-19T08:04:14.001Z</time></trkpt><trkpt lat="45.024696389360294" lon="7.508142359124117"><ele>292.3333333333333</ele><time>2026-04-19T08:04:15.001Z</time></trkpt><trkpt lat="45.024735715743105" lon="7.508030774055454"><ele>292.5</ele><time>2026-04-19T08:04:16.001Z</time></trkpt><trkpt lat="45.024780538708065" lon="7.507931640142879"><ele>292.6666666666667</ele><time>2026-04-19T08:04:17.001Z</time></trkpt><trkpt lat="45.02480080516416" lon="7.5078161985261636"><ele>292.83333333333337</ele><time>2026-04-19T08:04:18.001Z</time></trkpt><trkpt lat="45.02481370636009" lon="7.507717314753226"><ele>293.0</ele><time>2026-04-19T08:04:19.001Z</time></trkpt><trkpt lat="45.024884173637425" lon="7.507634079565232"><ele>293.0</ele><time>2026-04-19T08:04:21.001Z</time></trkpt><trkpt lat="45.02487930218992" lon="7.507492302685129"><ele>293.0</ele><time>2026-04-19T08:04:23.001Z</time></trkpt><trkpt lat="45.02485164314477" lon="7.507370229777365"><ele>293.0</ele><time>2026-04-19T08:04:24.001Z</time></trkpt><trkpt lat="45.024832256373976" lon="7.50724975376772"><ele>293.0</ele><time>2026-04-19T08:04:25.001Z</time></trkpt><trkpt lat="45.024808402158015" lon="7.5071128437225285"><ele>293.0</ele><time>2026-04-19T08:04:26.001Z</time></trkpt><trkpt lat="45.02478348617332" lon="7.506976493445016"><ele>292.83333333333337</ele><time>2026-04-19T08:04:27.001Z</time></trkpt><trkpt lat="45.02475365777062" lon="7.506853858531902"><ele>292.6666666666667</ele><time>2026-04-19T08:04:28.001Z</time></trkpt><trkpt lat="45.024733922724444" lon="7.5067687196819755"><ele>292.5</ele><time>2026-04-19T08:04:29.001Z</time></trkpt><trkpt lat="45.02468383373866" lon="7.506619653457553"><ele>292.3333333333333</ele><time>2026-04-19T08:04:31.002Z</time></trkpt><trkpt lat="45.024664674945505" lon="7.506521437068517"><ele>292.16666666666663</ele><time>2026-04-19T08:04:32.002Z</time></trkpt><trkpt lat="45.02463988615817" lon="7.506429373647887"><ele>292.0</ele><time>2026-04-19T08:04:33.002Z</time></trkpt><trkpt lat="45.02460723787736" lon="7.506318479432252"><ele>292.3333333333333</ele><time>2026-04-19T08:04:34.002Z</time></trkpt><trkpt lat="45.024560823471965" lon="7.506222015497627"><ele>292.66666666666663</ele><time>2026-04-19T08:04:35.002Z</time></trkpt><trkpt lat="45.024513921188856" lon="7.5061193976581855"><ele>293.0</ele><time>2026-04-19T08:04:36.002Z</time></trkpt><trkpt lat="45.02447439931439" lon="7.505998740828764"><ele>293.3333333333333</ele><time>2026-04-19T08:04:37.002Z</time></trkpt><trkpt lat="45.024427434475825" lon="7.505891411734426"><ele>293.6666666666667</ele><time>2026-04-19T08:04:38.002Z</time></trkpt><trkpt lat="45.02439526993672" lon="7.505791917575659"><ele>294.0</ele><time>2026-04-19T08:04:39.002Z</time></trkpt><trkpt lat="45.02436099476069" lon="7.505707647149138"><ele>294.0</ele><time>2026-04-19T08:04:40.002Z</time></trkpt><trkpt lat="45.024320287821446" lon="7.505607589621019"><ele>294.0</ele><time>2026-04-19T08:04:41.002Z</time></trkpt><trkpt lat="45.02427873997584" lon="7.505504114953166"><ele>294.0</ele><time>2026-04-19T08:04:42.002Z</time></trkpt><trkpt lat="45.02423597158787" lon="7.505411452347138"><ele>294.0</ele><time>2026-04-19T08:04:43.002Z</time></trkpt><trkpt lat="45.0241920636823" lon="7.505315388283844"><ele>294.0</ele><time>2026-04-19T08:04:44.002Z</time></trkpt><trkpt lat="45.024158479685376" lon="7.505226870933098"><ele>294.0</ele><time>2026-04-19T08:04:45.002Z</time></trkpt><trkpt lat="45.02412896862181" lon="7.505133831918214"><ele>293.8333333333333</ele><time>2026-04-19T08:04:45.998Z</time></trkpt><trkpt lat="45.02409236463117" lon="7.50503874300529"><ele>293.6666666666667</ele><time>2026-04-19T08:04:46.998Z</time></trkpt><trkpt lat="45.02404459618939" lon="7.5049354179222165"><ele>293.5</ele><time>2026-04-19T08:04:47.998Z</time></trkpt><trkpt lat="45.02399741093834" lon="7.50482495041307"><ele>293.33333333333337</ele><time>2026-04-19T08:04:48.998Z</time></trkpt><trkpt lat="45.02395235080306" lon="7.504708078362259"><ele>293.1666666666667</ele><time>2026-04-19T08:04:49.998Z</time></trkpt><trkpt lat="45.02391552648338" lon="7.504595662641318"><ele>293.0</ele><time>2026-04-19T08:04:50.998Z</time></trkpt><trkpt lat="45.02390991321377" lon="7.504480173684595"><ele>293.0</ele><time>2026-04-19T08:04:51.998Z</time></trkpt><trkpt lat="45.023917899607376" lon="7.504358018367937"><ele>293.0</ele><time>2026-04-19T08:04:52.999Z</time></trkpt><trkpt lat="45.02391451360643" lon="7.504210644186737"><ele>293.0</ele><time>2026-04-19T08:04:53.999Z</time></trkpt><trkpt lat="45.02390498942944" lon="7.504056305866698"><ele>293.0</ele><time>2026-04-19T08:04:54.999Z</time></trkpt><trkpt lat="45.02388800613917" lon="7.503893011624708"><ele>293.0</ele><time>2026-04-19T08:04:55.999Z</time></trkpt><trkpt lat="45.02386252301033" lon="7.503726434468197"><ele>293.0</ele><time>2026-04-19T08:04:56.999Z</time></trkpt><trkpt lat="45.023847014201515" lon="7.5035618381533595"><ele>293.0</ele><time>2026-04-19T08:04:57.999Z</time></trkpt><trkpt lat="45.02383551284888" lon="7.503403292334567"><ele>293.0</ele><time>2026-04-19T08:04:58.999Z</time></trkpt><trkpt lat="45.02383333604134" lon="7.503256420252894"><ele>293.0</ele><time>2026-04-19T08:04:59.999Z</time></trkpt><trkpt lat="45.02382084499208" lon="7.503129081662199"><ele>293.0</ele><time>2026-04-19T08:05:00.999Z</time></trkpt><trkpt lat="45.023865860083944" lon="7.503007808787299"><ele>293.4</ele><time>2026-04-19T08:05:02.999Z</time></trkpt><trkpt lat="45.0239602564746" lon="7.502843686075989"><ele>293.8</ele><time>2026-04-19T08:05:04.999Z</time></trkpt><trkpt lat="45.024011637607714" lon="7.502721092450217"><ele>294.2</ele><time>2026-04-19T08:05:05.999Z</time></trkpt><trkpt lat="45.024059118815515" lon="7.502591625280991"><ele>294.6</ele><time>2026-04-19T08:05:06.999Z</time></trkpt><trkpt lat="45.024095653553196" lon="7.502497696075146"><ele>295.0</ele><time>2026-04-19T08:05:07.999Z</time></trkpt><trkpt lat="45.02417072008884" lon="7.50239584110431"><ele>295.5</ele><time>2026-04-19T08:05:09.999Z</time></trkpt><trkpt lat="45.02424153748372" lon="7.502339736449107"><ele>296.0</ele><time>2026-04-19T08:05:11Z</time></trkpt><trkpt lat="45.024297503332036" lon="7.502266684843097"><ele>296.5</ele><time>2026-04-19T08:05:12Z</time></trkpt><trkpt lat="45.024315596859125" lon="7.502172191148061"><ele>297.0</ele><time>2026-04-19T08:05:13Z</time></trkpt><trkpt lat="45.02433564222915" lon="7.501994894008733"><ele>297.5</ele><time>2026-04-19T08:05:15Z</time></trkpt><trkpt lat="45.02434516363871" lon="7.50187806536748"><ele>298.0</ele><time>2026-04-19T08:05:16Z</time></trkpt><trkpt lat="45.024351352001" lon="7.501764523744746"><ele>298.0</ele><time>2026-04-19T08:05:17Z</time></trkpt><trkpt lat="45.02432780236909" lon="7.501674801184241"><ele>298.0</ele><time>2026-04-19T08:05:18Z</time></trkpt><trkpt lat="45.024386904791335" lon="7.501505260352461"><ele>298.0</ele><time>2026-04-19T08:05:20Z</time></trkpt><trkpt lat="45.02443752401598" lon="7.501387477640499"><ele>298.0</ele><time>2026-04-19T08:05:21Z</time></trkpt><trkpt lat="45.02448074888188" lon="7.501258163511511"><ele>298.0</ele><time>2026-04-19T08:05:22Z</time></trkpt><trkpt lat="45.02452944815661" lon="7.501151785941698"><ele>297.6</ele><time>2026-04-19T08:05:23Z</time></trkpt><trkpt lat="45.02456605514519" lon="7.501004343664429"><ele>297.20000000000005</ele><time>2026-04-19T08:05:24Z</time></trkpt><trkpt lat="45.024595005704455" lon="7.500890538204283"><ele>296.8</ele><time>2026-04-19T08:05:25Z</time></trkpt><trkpt lat="45.024606919286015" lon="7.50079336948094"><ele>296.40000000000003</ele><time>2026-04-19T08:05:26Z</time></trkpt><trkpt lat="45.024690618329366" lon="7.500612338167991"><ele>296.0</ele><time>2026-04-19T08:05:28Z</time></trkpt><trkpt lat="45.024716713040085" lon="7.500507206049626"><ele>295.83333333333337</ele><time>2026-04-19T08:05:29Z</time></trkpt><trkpt lat="45.02469797624774" lon="7.500406118696506"><ele>295.6666666666667</ele><time>2026-04-19T08:05:30Z</time></trkpt><trkpt lat="45.024627129616725" lon="7.500392354274951"><ele>295.5</ele><time>2026-04-19T08:05:31Z</time></trkpt><trkpt lat="45.02455404514006" lon="7.500327389841971"><ele>295.3333333333333</ele><time>2026-04-19T08:05:33Z</time></trkpt><trkpt lat="45.02451662759514" lon="7.500183946027641"><ele>295.16666666666663</ele><time>2026-04-19T08:05:36Z</time></trkpt><trkpt lat="45.02451668373083" lon="7.5000717984706915"><ele>295.0</ele><time>2026-04-19T08:05:38Z</time></trkpt><trkpt lat="45.02451284347908" lon="7.499968528019483"><ele>295.0</ele><time>2026-04-19T08:05:40.001Z</time></trkpt><trkpt lat="45.02451426329887" lon="7.499832100885561"><ele>295.0</ele><time>2026-04-19T08:05:42.001Z</time></trkpt><trkpt lat="45.024549423695554" lon="7.499691563432993"><ele>295.0</ele><time>2026-04-19T08:05:44.001Z</time></trkpt><trkpt lat="45.02457161552889" lon="7.499607098040505"><ele>295.0</ele><time>2026-04-19T08:05:45.001Z</time></trkpt><trkpt lat="45.02460179395584" lon="7.49950757599078"><ele>295.0</ele><time>2026-04-19T08:05:46.001Z</time></trkpt><trkpt lat="45.024615021043" lon="7.499403704361877"><ele>295.0</ele><time>2026-04-19T08:05:47.001Z</time></trkpt><trkpt lat="45.02462131661206" lon="7.499285103919299"><ele>295.0</ele><time>2026-04-19T08:05:48.001Z</time></trkpt><trkpt lat="45.0246419696454" lon="7.499169642841143"><ele>295.0</ele><time>2026-04-19T08:05:49.001Z</time></trkpt><trkpt lat="45.02466410781053" lon="7.499053585566159"><ele>295.0</ele><time>2026-04-19T08:05:50.001Z</time></trkpt><trkpt lat="45.02473557203391" lon="7.498987998994172"><ele>295.0</ele><time>2026-04-19T08:05:52.001Z</time></trkpt><trkpt lat="45.02480923772523" lon="7.498986735802596"><ele>295.0</ele><time>2026-04-19T08:05:53.001Z</time></trkpt><trkpt lat="45.024909955566855" lon="7.49900737840507"><ele>295.0</ele><time>2026-04-19T08:05:55.001Z</time></trkpt><trkpt lat="45.02493658584971" lon="7.498886682435645"><ele>295.0</ele><time>2026-04-19T08:05:57.001Z</time></trkpt><trkpt lat="45.02496789008473" lon="7.49880122507475"><ele>295.0</ele><time>2026-04-19T08:05:58.001Z</time></trkpt><trkpt lat="45.02498256704805" lon="7.498704904721058"><ele>295.0</ele><time>2026-04-19T08:05:59.001Z</time></trkpt><trkpt lat="45.02505269954745" lon="7.4985276505946485"><ele>295.0</ele><time>2026-04-19T08:06:01.001Z</time></trkpt><trkpt lat="45.025077443034924" lon="7.498410063349331"><ele>295.0</ele><time>2026-04-19T08:06:02.001Z</time></trkpt><trkpt lat="45.025103545498055" lon="7.498284509575362"><ele>295.6</ele><time>2026-04-19T08:06:03.001Z</time></trkpt><trkpt lat="45.02513686210908" lon="7.498157537587238"><ele>296.2</ele><time>2026-04-19T08:06:04.001Z</time></trkpt><trkpt lat="45.02517322571103" lon="7.498032628320839"><ele>296.8</ele><time>2026-04-19T08:06:05.001Z</time></trkpt><trkpt lat="45.02520559404811" lon="7.497907013872712"><ele>297.4</ele><time>2026-04-19T08:06:06.001Z</time></trkpt><trkpt lat="45.025234813578415" lon="7.497799955222226"><ele>298.0</ele><time>2026-04-19T08:06:07.001Z</time></trkpt><trkpt lat="45.0252699135504" lon="7.49768941528149"><ele>298.3333333333333</ele><time>2026-04-19T08:06:08.001Z</time></trkpt><trkpt lat="45.0253023674068" lon="7.497563767129609"><ele>298.66666666666663</ele><time>2026-04-19T08:06:09.001Z</time></trkpt><trkpt lat="45.025323434364154" lon="7.497427485039131"><ele>299.0</ele><time>2026-04-19T08:06:10.001Z</time></trkpt><trkpt lat="45.02534238912682" lon="7.497302940721348"><ele>299.3333333333333</ele><time>2026-04-19T08:06:11.001Z</time></trkpt><trkpt lat="45.025352918713" lon="7.497187510673666"><ele>299.6666666666667</ele><time>2026-04-19T08:06:12.001Z</time></trkpt><trkpt lat="45.02536306139824" lon="7.497071823653004"><ele>300.0</ele><time>2026-04-19T08:06:13.001Z</time></trkpt><trkpt lat="45.02537904518751" lon="7.496961809358526"><ele>300.3333333333333</ele><time>2026-04-19T08:06:14.001Z</time></trkpt><trkpt lat="45.02539721041511" lon="7.496867518168401"><ele>300.6666666666667</ele><time>2026-04-19T08:06:15.001Z</time></trkpt><trkpt lat="45.025426660262724" lon="7.496775780461656"><ele>301.0</ele><time>2026-04-19T08:06:16.001Z</time></trkpt><trkpt lat="45.025467660343395" lon="7.496687614431276"><ele>301.33333333333337</ele><time>2026-04-19T08:06:17.001Z</time></trkpt><trkpt lat="45.02552250338815" lon="7.496609777277805"><ele>301.6666666666667</ele><time>2026-04-19T08:06:18.002Z</time></trkpt><trkpt lat="45.0256029394444" lon="7.496520181016175"><ele>302.0</ele><time>2026-04-19T08:06:20.002Z</time></trkpt><trkpt lat="45.02566228904634" lon="7.496474011665643"><ele>302.0</ele><time>2026-04-19T08:06:22.002Z</time></trkpt><trkpt lat="45.0257221388745" lon="7.496418822961932"><ele>302.0</ele><time>2026-04-19T08:06:25.002Z</time></trkpt><trkpt lat="45.02575181553433" lon="7.49629577731234"><ele>302.0</ele><time>2026-04-19T08:06:27.002Z</time></trkpt><trkpt lat="45.02577167281964" lon="7.496116325660514"><ele>302.0</ele><time>2026-04-19T08:06:29.002Z</time></trkpt><trkpt lat="45.025786371864086" lon="7.496009204223134"><ele>302.0</ele><time>2026-04-19T08:06:30.002Z</time></trkpt><trkpt lat="45.02580263514541" lon="7.495904744711816"><ele>302.0</ele><time>2026-04-19T08:06:31.002Z</time></trkpt><trkpt lat="45.02581477294013" lon="7.495781906018119"><ele>302.0</ele><time>2026-04-19T08:06:32.002Z</time></trkpt><trkpt lat="45.025833816718645" lon="7.495658083727774"><ele>302.0</ele><time>2026-04-19T08:06:33.002Z</time></trkpt><trkpt lat="45.02587265228274" lon="7.495527812873764"><ele>302.0</ele><time>2026-04-19T08:06:34.002Z</time></trkpt><trkpt lat="45.02589796175318" lon="7.4953930509463875"><ele>302.0</ele><time>2026-04-19T08:06:35.002Z</time></trkpt><trkpt lat="45.02592837792673" lon="7.495271281765063"><ele>302.0</ele><time>2026-04-19T08:06:36.002Z</time></trkpt><trkpt lat="45.02595057252156" lon="7.495163152757472"><ele>302.4</ele><time>2026-04-19T08:06:37.002Z</time></trkpt><trkpt lat="45.02602689100753" lon="7.495085719366548"><ele>302.79999999999995</ele><time>2026-04-19T08:06:38.002Z</time></trkpt><trkpt lat="45.02612034601824" lon="7.495025338898287"><ele>303.2</ele><time>2026-04-19T08:06:39.002Z</time></trkpt><trkpt lat="45.0262210036939" lon="7.4949782055681196"><ele>303.59999999999997</ele><time>2026-04-19T08:06:40.002Z</time></trkpt><trkpt lat="45.02632207356028" lon="7.494926235632755"><ele>304.0</ele><time>2026-04-19T08:06:41.002Z</time></trkpt><trkpt lat="45.026419457412594" lon="7.494873317682395"><ele>304.0</ele><time>2026-04-19T08:06:42.002Z</time></trkpt><trkpt lat="45.02651306737173" lon="7.4948131733724255"><ele>304.0</ele><time>2026-04-19T08:06:43.002Z</time></trkpt><trkpt lat="45.02660995113816" lon="7.494755560860567"><ele>304.0</ele><time>2026-04-19T08:06:44.002Z</time></trkpt><trkpt lat="45.0267086448539" lon="7.49469956057501"><ele>304.0</ele><time>2026-04-19T08:06:45.002Z</time></trkpt><trkpt lat="45.02678697992324" lon="7.494651729991572"><ele>304.0</ele><time>2026-04-19T08:06:46.002Z</time></trkpt><trkpt lat="45.02686486910732" lon="7.494627530864116"><ele>303.5</ele><time>2026-04-19T08:06:48.002Z</time></trkpt><trkpt lat="45.02684194620295" lon="7.494364507904628"><ele>303.0</ele><time>2026-04-19T08:06:50.002Z</time></trkpt><trkpt lat="45.026809202582434" lon="7.494237941787073"><ele>302.5</ele><time>2026-04-19T08:06:51.002Z</time></trkpt><trkpt lat="45.02677729259609" lon="7.4940925453447695"><ele>302.0</ele><time>2026-04-19T08:06:51.999Z</time></trkpt><trkpt lat="45.026748841889635" lon="7.493936956419905"><ele>302.0</ele><time>2026-04-19T08:06:52.999Z</time></trkpt><trkpt lat="45.02671938382047" lon="7.493772509995904"><ele>302.0</ele><time>2026-04-19T08:06:53.999Z</time></trkpt><trkpt lat="45.02668972808342" lon="7.493601682151568"><ele>302.0</ele><time>2026-04-19T08:06:54.999Z</time></trkpt><trkpt lat="45.026654329815756" lon="7.493430086574233"><ele>302.0</ele><time>2026-04-19T08:06:55.999Z</time></trkpt><trkpt lat="45.026610990654" lon="7.493270488914111"><ele>303.25</ele><time>2026-04-19T08:06:56.999Z</time></trkpt><trkpt lat="45.02657547557114" lon="7.493109687588365"><ele>304.5</ele><time>2026-04-19T08:06:57.999Z</time></trkpt><trkpt lat="45.02653991494153" lon="7.492940332303504"><ele>305.75</ele><time>2026-04-19T08:06:58.999Z</time></trkpt><trkpt lat="45.0264899088502" lon="7.492763442113476"><ele>307.0</ele><time>2026-04-19T08:06:59.999Z</time></trkpt><trkpt lat="45.02645222798146" lon="7.492597735700544"><ele>307.0</ele><time>2026-04-19T08:07:00.999Z</time></trkpt><trkpt lat="45.02642043288732" lon="7.492454697064028"><ele>307.0</ele><time>2026-04-19T08:07:01.999Z</time></trkpt><trkpt lat="45.026395225600226" lon="7.492314012732801"><ele>307.0</ele><time>2026-04-19T08:07:02.999Z</time></trkpt><trkpt lat="45.026343548513935" lon="7.492177244811503"><ele>307.0</ele><time>2026-04-19T08:07:03.999Z</time></trkpt><trkpt lat="45.02627798346718" lon="7.492029409113858"><ele>307.0</ele><time>2026-04-19T08:07:04.999Z</time></trkpt><trkpt lat="45.02621967096472" lon="7.491863192692821"><ele>306.5</ele><time>2026-04-19T08:07:05.999Z</time></trkpt><trkpt lat="45.02617220054623" lon="7.49169997247842"><ele>306.0</ele><time>2026-04-19T08:07:06.999Z</time></trkpt><trkpt lat="45.02615083559364" lon="7.491526344329797"><ele>305.5</ele><time>2026-04-19T08:07:07.999Z</time></trkpt><trkpt lat="45.02614246286438" lon="7.491353104245487"><ele>305.0</ele><time>2026-04-19T08:07:08.999Z</time></trkpt><trkpt lat="45.02613430918055" lon="7.491169492246008"><ele>305.0</ele><time>2026-04-19T08:07:09.999Z</time></trkpt><trkpt lat="45.02612854200669" lon="7.490985092638846"><ele>305.0</ele><time>2026-04-19T08:07:10.999Z</time></trkpt><trkpt lat="45.026124815654235" lon="7.490799198463287"><ele>305.0</ele><time>2026-04-19T08:07:11.999Z</time></trkpt><trkpt lat="45.026122497368135" lon="7.490612083205886"><ele>305.0</ele><time>2026-04-19T08:07:12.999Z</time></trkpt><trkpt lat="45.026118717836304" lon="7.490437235949412"><ele>305.4</ele><time>2026-04-19T08:07:14Z</time></trkpt><trkpt lat="45.026141690902016" lon="7.490281801606234"><ele>305.8</ele><time>2026-04-19T08:07:15Z</time></trkpt><trkpt lat="45.0261809300382" lon="7.490120479885725"><ele>306.2</ele><time>2026-04-19T08:07:16Z</time></trkpt><trkpt lat="45.02622743394423" lon="7.489970978187555"><ele>306.6</ele><time>2026-04-19T08:07:17Z</time></trkpt><trkpt lat="45.02624129147551" lon="7.489833144507911"><ele>307.0</ele><time>2026-04-19T08:07:18Z</time></trkpt><trkpt lat="45.0262351096877" lon="7.4897170588995365"><ele>307.0</ele><time>2026-04-19T08:07:19Z</time></trkpt><trkpt lat="45.02622102680318" lon="7.489615894831561"><ele>307.0</ele><time>2026-04-19T08:07:20Z</time></trkpt><trkpt lat="45.02621093374854" lon="7.489524198347212"><ele>307.0</ele><time>2026-04-19T08:07:21Z</time></trkpt><trkpt lat="45.026201711268826" lon="7.489431013313488"><ele>307.0</ele><time>2026-04-19T08:07:22Z</time></trkpt><trkpt lat="45.026193394724366" lon="7.4893348824410015"><ele>307.0</ele><time>2026-04-19T08:07:23Z</time></trkpt><trkpt lat="45.02618943234416" lon="7.489234579104526"><ele>307.0</ele><time>2026-04-19T08:07:24Z</time></trkpt><trkpt lat="45.02619924085928" lon="7.489077637350639"><ele>307.16666666666663</ele><time>2026-04-19T08:07:26Z</time></trkpt><trkpt lat="45.02619025160732" lon="7.488977421118947"><ele>307.3333333333333</ele><time>2026-04-19T08:07:27Z</time></trkpt><trkpt lat="45.02618335097795" lon="7.488877362972517"><ele>307.5</ele><time>2026-04-19T08:07:28Z</time></trkpt><trkpt lat="45.02617148327481" lon="7.48876510660945"><ele>307.6666666666667</ele><time>2026-04-19T08:07:29Z</time></trkpt><trkpt lat="45.02616640664125" lon="7.488647397946743"><ele>307.83333333333337</ele><time>2026-04-19T08:07:30Z</time></trkpt><trkpt lat="45.026165178739156" lon="7.488516122537607"><ele>308.0</ele><time>2026-04-19T08:07:31Z</time></trkpt><trkpt lat="45.026161565954496" lon="7.488377880583941"><ele>308.0</ele><time>2026-04-19T08:07:32Z</time></trkpt><trkpt lat="45.02616026380093" lon="7.4882366270244285"><ele>308.0</ele><time>2026-04-19T08:07:33Z</time></trkpt><trkpt lat="45.02615292927108" lon="7.48807960696449"><ele>308.0</ele><time>2026-04-19T08:07:34Z</time></trkpt><trkpt lat="45.026149327224736" lon="7.487916235635233"><ele>308.0</ele><time>2026-04-19T08:07:35Z</time></trkpt><trkpt lat="45.02614741330313" lon="7.48773952249362"><ele>308.0</ele><time>2026-04-19T08:07:36Z</time></trkpt><trkpt lat="45.026156025672805" lon="7.487578496770496"><ele>308.0</ele><time>2026-04-19T08:07:37Z</time></trkpt><trkpt lat="45.02617727833146" lon="7.48740989461402"><ele>308.0</ele><time>2026-04-19T08:07:38Z</time></trkpt><trkpt lat="45.02619703835564" lon="7.4872443885411055"><ele>308.0</ele><time>2026-04-19T08:07:39Z</time></trkpt><trkpt lat="45.02622011779735" lon="7.487081470182953"><ele>309.0</ele><time>2026-04-19T08:07:40.001Z</time></trkpt><trkpt lat="45.02624857787375" lon="7.486911015665475"><ele>310.0</ele><time>2026-04-19T08:07:41.001Z</time></trkpt><trkpt lat="45.02628252862644" lon="7.486751746116417"><ele>311.0</ele><time>2026-04-19T08:07:42.001Z</time></trkpt><trkpt lat="45.02631632869915" lon="7.48658490496129"><ele>312.0</ele><time>2026-04-19T08:07:43.001Z</time></trkpt><trkpt lat="45.02635673421353" lon="7.48642400810145"><ele>312.0</ele><time>2026-04-19T08:07:44.001Z</time></trkpt><trkpt lat="45.02640246731181" lon="7.4862691393561205"><ele>312.0</ele><time>2026-04-19T08:07:45.001Z</time></trkpt><trkpt lat="45.02643871461805" lon="7.486128000990865"><ele>312.0</ele><time>2026-04-19T08:07:46.001Z</time></trkpt><trkpt lat="45.02645639423738" lon="7.486000920191595"><ele>312.0</ele><time>2026-04-19T08:07:47.001Z</time></trkpt><trkpt lat="45.02645672780529" lon="7.485893103170503"><ele>312.0</ele><time>2026-04-19T08:07:48.001Z</time></trkpt><trkpt lat="45.026436278349316" lon="7.4857615703172735"><ele>313.75</ele><time>2026-04-19T08:07:49.001Z</time></trkpt><trkpt lat="45.02640148758026" lon="7.485627856410623"><ele>315.5</ele><time>2026-04-19T08:07:50.001Z</time></trkpt><trkpt lat="45.02636692164435" lon="7.485465973788958"><ele>317.25</ele><time>2026-04-19T08:07:51.001Z</time></trkpt><trkpt lat="45.02633920353736" lon="7.4852798005590895"><ele>319.0</ele><time>2026-04-19T08:07:52.001Z</time></trkpt><trkpt lat="45.02630430652195" lon="7.485082145711398"><ele>319.0</ele><time>2026-04-19T08:07:53.001Z</time></trkpt><trkpt lat="45.02627608362435" lon="7.484885686267109"><ele>319.0</ele><time>2026-04-19T08:07:54.001Z</time></trkpt><trkpt lat="45.02624705128794" lon="7.4847386189100815"><ele>319.0</ele><time>2026-04-19T08:07:55.001Z</time></trkpt><trkpt lat="45.02621955127305" lon="7.484596799596493"><ele>319.0</ele><time>2026-04-19T08:07:56.001Z</time></trkpt><trkpt lat="45.0261829111951" lon="7.484493379389583"><ele>319.0</ele><time>2026-04-19T08:07:57.001Z</time></trkpt><trkpt lat="45.0261638862822" lon="7.484400948072634"><ele>317.25</ele><time>2026-04-19T08:07:59.001Z</time></trkpt><trkpt lat="45.026127032593735" lon="7.4842167780898015"><ele>315.5</ele><time>2026-04-19T08:08:01.001Z</time></trkpt><trkpt lat="45.026097602016186" lon="7.484076107732048"><ele>313.75</ele><time>2026-04-19T08:08:02.001Z</time></trkpt><trkpt lat="45.02608715080356" lon="7.483938256902538"><ele>312.0</ele><time>2026-04-19T08:08:03.001Z</time></trkpt><trkpt lat="45.02608959627503" lon="7.483771559605994"><ele>311.8</ele><time>2026-04-19T08:08:04.001Z</time></trkpt><trkpt lat="45.026071807406325" lon="7.483576914559762"><ele>311.6</ele><time>2026-04-19T08:08:05.001Z</time></trkpt><trkpt lat="45.02607988360248" lon="7.483441772515822"><ele>311.40000000000003</ele><time>2026-04-19T08:08:06.001Z</time></trkpt><trkpt lat="45.02611030674025" lon="7.48328649614981"><ele>311.2</ele><time>2026-04-19T08:08:08.001Z</time></trkpt><trkpt lat="45.026142176742056" lon="7.48319888683941"><ele>311.0</ele><time>2026-04-19T08:08:09.001Z</time></trkpt><trkpt lat="45.0261723178853" lon="7.483120505759326"><ele>311.0</ele><time>2026-04-19T08:08:10.001Z</time></trkpt><trkpt lat="45.02625333855133" lon="7.483015248284266"><ele>311.0</ele><time>2026-04-19T08:08:11.001Z</time></trkpt><trkpt lat="45.02635481593278" lon="7.482911720770779"><ele>311.0</ele><time>2026-04-19T08:08:12.001Z</time></trkpt><trkpt lat="45.02641782273954" lon="7.482799207837329"><ele>311.0</ele><time>2026-04-19T08:08:13.001Z</time></trkpt><trkpt lat="45.02648042679719" lon="7.48265707930398"><ele>311.2</ele><time>2026-04-19T08:08:14.002Z</time></trkpt><trkpt lat="45.026550523956224" lon="7.482532477508369"><ele>311.40000000000003</ele><time>2026-04-19T08:08:15.002Z</time></trkpt><trkpt lat="45.026614740910524" lon="7.482419409308716"><ele>311.6</ele><time>2026-04-19T08:08:16.002Z</time></trkpt><trkpt lat="45.02667561964346" lon="7.48229256817155"><ele>311.8</ele><time>2026-04-19T08:08:17.002Z</time></trkpt><trkpt lat="45.02672990571595" lon="7.482149795273007"><ele>312.0</ele><time>2026-04-19T08:08:18.002Z</time></trkpt><trkpt lat="45.02677400008134" lon="7.481993961192763"><ele>312.2</ele><time>2026-04-19T08:08:19.002Z</time></trkpt><trkpt lat="45.02682164245347" lon="7.4818364465546185"><ele>312.4</ele><time>2026-04-19T08:08:20.002Z</time></trkpt><trkpt lat="45.02687187627902" lon="7.481688224630258"><ele>312.6</ele><time>2026-04-19T08:08:21.002Z</time></trkpt><trkpt lat="45.02691744900672" lon="7.481560168653872"><ele>312.8</ele><time>2026-04-19T08:08:22.002Z</time></trkpt><trkpt lat="45.026956464824316" lon="7.481465081153934"><ele>313.0</ele><time>2026-04-19T08:08:23.002Z</time></trkpt><trkpt lat="45.02700969347728" lon="7.481366070109337"><ele>313.0</ele><time>2026-04-19T08:08:24.002Z</time></trkpt><trkpt lat="45.02707475885835" lon="7.481284501087017"><ele>313.0</ele><time>2026-04-19T08:08:25.002Z</time></trkpt><trkpt lat="45.02713389980305" lon="7.481243664749462"><ele>313.0</ele><time>2026-04-19T08:08:26.002Z</time></trkpt><trkpt lat="45.02720523674964" lon="7.481217901261128"><ele>313.0</ele><time>2026-04-19T08:08:27.002Z</time></trkpt><trkpt lat="45.027277715733355" lon="7.481184852280313"><ele>313.0</ele><time>2026-04-19T08:08:28.002Z</time></trkpt><trkpt lat="45.0273120528164" lon="7.481053065613163"><ele>313.0</ele><time>2026-04-19T08:08:30.002Z</time></trkpt><trkpt lat="45.02731518606291" lon="7.480937732684189"><ele>313.0</ele><time>2026-04-19T08:08:31.002Z</time></trkpt><trkpt lat="45.02732897217266" lon="7.4807953657973165"><ele>313.0</ele><time>2026-04-19T08:08:32.002Z</time></trkpt><trkpt lat="45.027334707609704" lon="7.480621000021415"><ele>313.0</ele><time>2026-04-19T08:08:33.002Z</time></trkpt><trkpt lat="45.02733614352026" lon="7.480453059662188"><ele>313.0</ele><time>2026-04-19T08:08:34.002Z</time></trkpt><trkpt lat="45.02735571909027" lon="7.4802694117812845"><ele>313.0</ele><time>2026-04-19T08:08:35.002Z</time></trkpt><trkpt lat="45.02738053830762" lon="7.48010176311328"><ele>313.0</ele><time>2026-04-19T08:08:36.002Z</time></trkpt><trkpt lat="45.027410985150254" lon="7.479914326142185"><ele>313.0</ele><time>2026-04-19T08:08:37.002Z</time></trkpt><trkpt lat="45.027444474294704" lon="7.479728479801266"><ele>313.0</ele><time>2026-04-19T08:08:38.002Z</time></trkpt><trkpt lat="45.027474127241106" lon="7.479531662570826"><ele>314.75</ele><time>2026-04-19T08:08:39.002Z</time></trkpt><trkpt lat="45.02750973425631" lon="7.479342648835993"><ele>316.5</ele><time>2026-04-19T08:08:40.002Z</time></trkpt><trkpt lat="45.02758926915371" lon="7.479142375950354"><ele>318.25</ele><time>2026-04-19T08:08:41.002Z</time></trkpt><trkpt lat="45.02761626436201" lon="7.478958203071116"><ele>320.0</ele><time>2026-04-19T08:08:42.002Z</time></trkpt><trkpt lat="45.027644353833224" lon="7.478763237619825"><ele>320.33333333333337</ele><time>2026-04-19T08:08:43.002Z</time></trkpt><trkpt lat="45.02767208330893" lon="7.478565772342412"><ele>320.6666666666667</ele><time>2026-04-19T08:08:44.002Z</time></trkpt><trkpt lat="45.02769965626273" lon="7.478363279278214"><ele>321.0</ele><time>2026-04-19T08:08:45.002Z</time></trkpt><trkpt lat="45.02772709687884" lon="7.478137689267325"><ele>321.0</ele><time>2026-04-19T08:08:46.002Z</time></trkpt><trkpt lat="45.027751108224685" lon="7.477939176412546"><ele>321.0</ele><time>2026-04-19T08:08:47.002Z</time></trkpt><trkpt lat="45.027775314417866" lon="7.477716296385689"><ele>321.0</ele><time>2026-04-19T08:08:48.002Z</time></trkpt><trkpt lat="45.027794058988704" lon="7.477513120154386"><ele>321.0</ele><time>2026-04-19T08:08:49.003Z</time></trkpt><trkpt lat="45.02781177704519" lon="7.477294999883678"><ele>321.0</ele><time>2026-04-19T08:08:50.003Z</time></trkpt><trkpt lat="45.02782815411447" lon="7.477086417698907"><ele>321.0</ele><time>2026-04-19T08:08:51.003Z</time></trkpt><trkpt lat="45.02784179976358" lon="7.476912623292714"><ele>321.0</ele><time>2026-04-19T08:08:52.003Z</time></trkpt><trkpt lat="45.02785463732855" lon="7.476749121142778"><ele>321.0</ele><time>2026-04-19T08:08:53.003Z</time></trkpt><trkpt lat="45.02786986939485" lon="7.476567922671133"><ele>321.0</ele><time>2026-04-19T08:08:54.003Z</time></trkpt><trkpt lat="45.027871338465964" lon="7.4763646908198105"><ele>321.0</ele><time>2026-04-19T08:08:55.003Z</time></trkpt><trkpt lat="45.02790425361658" lon="7.476169164874041"><ele>321.0</ele><time>2026-04-19T08:08:56.003Z</time></trkpt><trkpt lat="45.02791789323036" lon="7.475952458794263"><ele>321.0</ele><time>2026-04-19T08:08:57.003Z</time></trkpt><trkpt lat="45.02794131635735" lon="7.475746233222704"><ele>320.75</ele><time>2026-04-19T08:08:57.999Z</time></trkpt><trkpt lat="45.027964116707" lon="7.475565211787814"><ele>320.5</ele><time>2026-04-19T08:08:58.999Z</time></trkpt><trkpt lat="45.02798516852701" lon="7.475380876523161"><ele>320.25</ele><time>2026-04-19T08:08:59.999Z</time></trkpt><trkpt lat="45.02800647752507" lon="7.4752135930990775"><ele>320.0</ele><time>2026-04-19T08:09:00.999Z</time></trkpt><trkpt lat="45.02803099134762" lon="7.475052553228248"><ele>320.0</ele><time>2026-04-19T08:09:01.999Z</time></trkpt><trkpt lat="45.028068343660536" lon="7.474886018881694"><ele>320.0</ele><time>2026-04-19T08:09:02.999Z</time></trkpt><trkpt lat="45.028114366167024" lon="7.474710673542224"><ele>320.0</ele><time>2026-04-19T08:09:03.999Z</time></trkpt><trkpt lat="45.028173877535274" lon="7.47453842616449"><ele>320.0</ele><time>2026-04-19T08:09:04.999Z</time></trkpt><trkpt lat="45.02823736290718" lon="7.474364821834112"><ele>322.25</ele><time>2026-04-19T08:09:05.999Z</time></trkpt><trkpt lat="45.0283107549707" lon="7.47420304765292"><ele>324.5</ele><time>2026-04-19T08:09:06.999Z</time></trkpt><trkpt lat="45.02837807239061" lon="7.474062162976311"><ele>326.75</ele><time>2026-04-19T08:09:07.999Z</time></trkpt><trkpt lat="45.028450621868245" lon="7.473929697863654"><ele>329.0</ele><time>2026-04-19T08:09:08.999Z</time></trkpt><trkpt lat="45.02852435162734" lon="7.473787338959994"><ele>327.25</ele><time>2026-04-19T08:09:09.999Z</time></trkpt><trkpt lat="45.028620084144876" lon="7.473652843279345"><ele>325.5</ele><time>2026-04-19T08:09:10.999Z</time></trkpt><trkpt lat="45.028693251820734" lon="7.473495506914688"><ele>323.75</ele><time>2026-04-19T08:09:11.999Z</time></trkpt><trkpt lat="45.028766330362316" lon="7.473325572066974"><ele>322.0</ele><time>2026-04-19T08:09:12.999Z</time></trkpt><trkpt lat="45.02883244259516" lon="7.473165948757903"><ele>322.0</ele><time>2026-04-19T08:09:13.999Z</time></trkpt><trkpt lat="45.02888278147148" lon="7.473022021557422"><ele>322.0</ele><time>2026-04-19T08:09:14.999Z</time></trkpt><trkpt lat="45.02894136889662" lon="7.47289632238467"><ele>322.0</ele><time>2026-04-19T08:09:15.999Z</time></trkpt><trkpt lat="45.0289895806529" lon="7.4727788477850785"><ele>322.0</ele><time>2026-04-19T08:09:16.999Z</time></trkpt><trkpt lat="45.02903472761663" lon="7.472663024058153"><ele>322.0</ele><time>2026-04-19T08:09:17.999Z</time></trkpt><trkpt lat="45.02907780009366" lon="7.4725308615208945"><ele>321.66666666666663</ele><time>2026-04-19T08:09:18.999Z</time></trkpt><trkpt lat="45.02913700845272" lon="7.472424891376573"><ele>321.3333333333333</ele><time>2026-04-19T08:09:19.999Z</time></trkpt><trkpt lat="45.02917838709278" lon="7.4722970682335355"><ele>321.0</ele><time>2026-04-19T08:09:20.999Z</time></trkpt><trkpt lat="45.02923656901164" lon="7.472214102972298"><ele>320.6666666666667</ele><time>2026-04-19T08:09:22Z</time></trkpt><trkpt lat="45.029279923091096" lon="7.472127858858329"><ele>320.33333333333337</ele><time>2026-04-19T08:09:23Z</time></trkpt><trkpt lat="45.02932671271931" lon="7.472040306649728"><ele>320.0</ele><time>2026-04-19T08:09:24Z</time></trkpt><trkpt lat="45.02936397367761" lon="7.471948553579267"><ele>320.8</ele><time>2026-04-19T08:09:25Z</time></trkpt><trkpt lat="45.02946392699138" lon="7.471803493237967"><ele>321.6</ele><time>2026-04-19T08:09:27Z</time></trkpt><trkpt lat="45.0295218339282" lon="7.4717112962634396"><ele>322.4</ele><time>2026-04-19T08:09:28Z</time></trkpt><trkpt lat="45.02958449492335" lon="7.471618681788549"><ele>323.2</ele><time>2026-04-19T08:09:29Z</time></trkpt><trkpt lat="45.02966003905322" lon="7.471509503556752"><ele>324.0</ele><time>2026-04-19T08:09:30Z</time></trkpt><trkpt lat="45.02973545616601" lon="7.47138415611259"><ele>322.75</ele><time>2026-04-19T08:09:31Z</time></trkpt><trkpt lat="45.029825744443926" lon="7.4712574367671"><ele>321.5</ele><time>2026-04-19T08:09:32Z</time></trkpt><trkpt lat="45.0299113257375" lon="7.471125990827642"><ele>320.25</ele><time>2026-04-19T08:09:33Z</time></trkpt><trkpt lat="45.0300022420469" lon="7.470998964923457"><ele>319.0</ele><time>2026-04-19T08:09:34Z</time></trkpt><trkpt lat="45.03009387093654" lon="7.470869410547881"><ele>319.5</ele><time>2026-04-19T08:09:35Z</time></trkpt><trkpt lat="45.030191967158835" lon="7.470754477599593"><ele>320.0</ele><time>2026-04-19T08:09:36Z</time></trkpt><trkpt lat="45.03028530116207" lon="7.470610889480028"><ele>320.5</ele><time>2026-04-19T08:09:37Z</time></trkpt><trkpt lat="45.03039404485531" lon="7.470485300546489"><ele>321.0</ele><time>2026-04-19T08:09:38Z</time></trkpt><trkpt lat="45.03049965278667" lon="7.470370026336989"><ele>321.0</ele><time>2026-04-19T08:09:39Z</time></trkpt><trkpt lat="45.03061247325148" lon="7.470251298101301"><ele>321.0</ele><time>2026-04-19T08:09:40Z</time></trkpt><trkpt lat="45.030720610747586" lon="7.470128735408419"><ele>321.0</ele><time>2026-04-19T08:09:41Z</time></trkpt><trkpt lat="45.030828648380336" lon="7.470010674083704"><ele>321.0</ele><time>2026-04-19T08:09:42Z</time></trkpt><trkpt lat="45.0309405866733" lon="7.469887223518396"><ele>321.5</ele><time>2026-04-19T08:09:43Z</time></trkpt><trkpt lat="45.03104659074877" lon="7.469751678503768"><ele>322.0</ele><time>2026-04-19T08:09:44Z</time></trkpt><trkpt lat="45.03114923160303" lon="7.469623161023707"><ele>322.5</ele><time>2026-04-19T08:09:45Z</time></trkpt><trkpt lat="45.031233922512946" lon="7.469502579551299"><ele>323.0</ele><time>2026-04-19T08:09:46.001Z</time></trkpt><trkpt lat="45.0313029062092" lon="7.469388008545999"><ele>323.0</ele><time>2026-04-19T08:09:47.001Z</time></trkpt><trkpt lat="45.031375855082906" lon="7.4692415456093855"><ele>323.0</ele><time>2026-04-19T08:09:48.001Z</time></trkpt><trkpt lat="45.031436433775184" lon="7.4691186591265035"><ele>323.0</ele><time>2026-04-19T08:09:49.001Z</time></trkpt><trkpt lat="45.03147250924202" lon="7.468943184218425"><ele>323.0</ele><time>2026-04-19T08:09:50.001Z</time></trkpt><trkpt lat="45.03151673062803" lon="7.468771507988121"><ele>322.75</ele><time>2026-04-19T08:09:51.001Z</time></trkpt><trkpt lat="45.03156661114368" lon="7.468581272111433"><ele>322.5</ele><time>2026-04-19T08:09:52.001Z</time></trkpt><trkpt lat="45.03162435259798" lon="7.468384366166108"><ele>322.25</ele><time>2026-04-19T08:09:53.001Z</time></trkpt><trkpt lat="45.0316753639007" lon="7.468196707148835"><ele>322.0</ele><time>2026-04-19T08:09:54.001Z</time></trkpt><trkpt lat="45.03172571887699" lon="7.468010156951008"><ele>323.25</ele><time>2026-04-19T08:09:55.001Z</time></trkpt><trkpt lat="45.03176745335672" lon="7.467851399450016"><ele>324.5</ele><time>2026-04-19T08:09:56.001Z</time></trkpt><trkpt lat="45.031812526465245" lon="7.467696521033139"><ele>325.75</ele><time>2026-04-19T08:09:57.001Z</time></trkpt><trkpt lat="45.03185495250188" lon="7.467522412231226"><ele>327.0</ele><time>2026-04-19T08:09:58.001Z</time></trkpt><trkpt lat="45.03190210153019" lon="7.467356827308637"><ele>327.0</ele><time>2026-04-19T08:09:59.001Z</time></trkpt><trkpt lat="45.03196986735301" lon="7.467201624485511"><ele>327.0</ele><time>2026-04-19T08:10:00.001Z</time></trkpt><trkpt lat="45.03204239453752" lon="7.467040827029899"><ele>327.0</ele><time>2026-04-19T08:10:01.001Z</time></trkpt><trkpt lat="45.03211550061111" lon="7.466879738081585"><ele>327.0</ele><time>2026-04-19T08:10:02.001Z</time></trkpt><trkpt lat="45.032184823014646" lon="7.4667128260225315"><ele>327.0</ele><time>2026-04-19T08:10:03.001Z</time></trkpt><trkpt lat="45.03225743241418" lon="7.466544619244175"><ele>327.0</ele><time>2026-04-19T08:10:04.001Z</time></trkpt><trkpt lat="45.032329235204074" lon="7.4663704906091235"><ele>327.0</ele><time>2026-04-19T08:10:05.001Z</time></trkpt><trkpt lat="45.03240409699937" lon="7.4661855993254935"><ele>327.0</ele><time>2026-04-19T08:10:06.001Z</time></trkpt><trkpt lat="45.03247992796212" lon="7.466008219613965"><ele>327.5</ele><time>2026-04-19T08:10:07.001Z</time></trkpt><trkpt lat="45.03255303073921" lon="7.465829344854197"><ele>328.0</ele><time>2026-04-19T08:10:08.001Z</time></trkpt><trkpt lat="45.03263446529442" lon="7.465656582383895"><ele>328.5</ele><time>2026-04-19T08:10:09.001Z</time></trkpt><trkpt lat="45.032723133287035" lon="7.465484005638009"><ele>329.0</ele><time>2026-04-19T08:10:10.001Z</time></trkpt><trkpt lat="45.03278862848338" lon="7.465306365506529"><ele>329.0</ele><time>2026-04-19T08:10:11.001Z</time></trkpt><trkpt lat="45.032866281969135" lon="7.465136123751458"><ele>329.0</ele><time>2026-04-19T08:10:12.001Z</time></trkpt><trkpt lat="45.03293831678212" lon="7.464956640533497"><ele>329.0</ele><time>2026-04-19T08:10:13.001Z</time></trkpt><trkpt lat="45.03301391454645" lon="7.464782099319165"><ele>329.0</ele><time>2026-04-19T08:10:14.001Z</time></trkpt><trkpt lat="45.03309183585526" lon="7.464609412044486"><ele>329.0</ele><time>2026-04-19T08:10:15.001Z</time></trkpt><trkpt lat="45.03316790300182" lon="7.464436580273779"><ele>329.0</ele><time>2026-04-19T08:10:16.001Z</time></trkpt><trkpt lat="45.03324979129121" lon="7.464258266334136"><ele>329.0</ele><time>2026-04-19T08:10:17.001Z</time></trkpt><trkpt lat="45.03332663386534" lon="7.464076553411307"><ele>329.0</ele><time>2026-04-19T08:10:18.002Z</time></trkpt><trkpt lat="45.033403920830374" lon="7.463894864218787"><ele>329.6666666666667</ele><time>2026-04-19T08:10:19.002Z</time></trkpt><trkpt lat="45.033477130326894" lon="7.46371185238574"><ele>330.3333333333333</ele><time>2026-04-19T08:10:20.002Z</time></trkpt><trkpt lat="45.03355540232716" lon="7.463526152336796"><ele>331.0</ele><time>2026-04-19T08:10:21.002Z</time></trkpt><trkpt lat="45.03363044079501" lon="7.463345245513638"><ele>331.0</ele><time>2026-04-19T08:10:22.002Z</time></trkpt><trkpt lat="45.03372508873643" lon="7.46316459128913"><ele>331.0</ele><time>2026-04-19T08:10:23.002Z</time></trkpt><trkpt lat="45.03380823925431" lon="7.462981365566512"><ele>331.0</ele><time>2026-04-19T08:10:24.002Z</time></trkpt><trkpt lat="45.0338964529666" lon="7.462788171264829"><ele>331.0</ele><time>2026-04-19T08:10:25.002Z</time></trkpt><trkpt lat="45.03397831184318" lon="7.462607892196747"><ele>331.0</ele><time>2026-04-19T08:10:26.002Z</time></trkpt><trkpt lat="45.03406146324646" lon="7.462416693721712"><ele>331.0</ele><time>2026-04-19T08:10:27.002Z</time></trkpt><trkpt lat="45.034146563717236" lon="7.462214329414336"><ele>332.0</ele><time>2026-04-19T08:10:28.002Z</time></trkpt><trkpt lat="45.03423030763244" lon="7.462012229457772"><ele>333.0</ele><time>2026-04-19T08:10:29.002Z</time></trkpt><trkpt lat="45.03431158867534" lon="7.461816073060644"><ele>334.0</ele><time>2026-04-19T08:10:30.002Z</time></trkpt><trkpt lat="45.03439538556779" lon="7.461617225252831"><ele>334.0</ele><time>2026-04-19T08:10:31.002Z</time></trkpt><trkpt lat="45.03447983876442" lon="7.461428844820479"><ele>334.0</ele><time>2026-04-19T08:10:32.002Z</time></trkpt><trkpt lat="45.03456321466993" lon="7.461245555456544"><ele>334.0</ele><time>2026-04-19T08:10:33.002Z</time></trkpt><trkpt lat="45.03464014800979" lon="7.461070947587348"><ele>332.66666666666663</ele><time>2026-04-19T08:10:34.002Z</time></trkpt><trkpt lat="45.034715520478564" lon="7.460885104719578"><ele>331.3333333333333</ele><time>2026-04-19T08:10:35.002Z</time></trkpt><trkpt lat="45.034787528298494" lon="7.4606957166403705"><ele>330.0</ele><time>2026-04-19T08:10:36.002Z</time></trkpt><trkpt lat="45.03484723622193" lon="7.460478360322352"><ele>330.6666666666667</ele><time>2026-04-19T08:10:37.002Z</time></trkpt><trkpt lat="45.03490927587613" lon="7.460264624445548"><ele>331.33333333333337</ele><time>2026-04-19T08:10:38.002Z</time></trkpt><trkpt lat="45.03495861737225" lon="7.460035988020914"><ele>332.0</ele><time>2026-04-19T08:10:39.002Z</time></trkpt><trkpt lat="45.0350202861356" lon="7.459823037274117"><ele>335.0</ele><time>2026-04-19T08:10:40.002Z</time></trkpt><trkpt lat="45.035069488505776" lon="7.45958205895394"><ele>338.0</ele><time>2026-04-19T08:10:41.002Z</time></trkpt><trkpt lat="45.035116864056086" lon="7.459334796833109"><ele>341.0</ele><time>2026-04-19T08:10:42.002Z</time></trkpt><trkpt lat="45.035158401201485" lon="7.459110331394073"><ele>341.0</ele><time>2026-04-19T08:10:43.002Z</time></trkpt><trkpt lat="45.035194942176176" lon="7.4588761299898"><ele>341.0</ele><time>2026-04-19T08:10:44.002Z</time></trkpt><trkpt lat="45.03525013969871" lon="7.458633931751468"><ele>341.0</ele><time>2026-04-19T08:10:45.002Z</time></trkpt><trkpt lat="45.03530753457588" lon="7.458390814758608"><ele>340.33333333333337</ele><time>2026-04-19T08:10:46.002Z</time></trkpt><trkpt lat="45.03538200409547" lon="7.4581609657637395"><ele>339.6666666666667</ele><time>2026-04-19T08:10:47.002Z</time></trkpt><trkpt lat="45.03545660527948" lon="7.457943583324242"><ele>339.0</ele><time>2026-04-19T08:10:48.002Z</time></trkpt><trkpt lat="45.03553518825333" lon="7.457732411180349"><ele>338.3333333333333</ele><time>2026-04-19T08:10:49.002Z</time></trkpt><trkpt lat="45.03561503029151" lon="7.457525956787367"><ele>337.66666666666663</ele><time>2026-04-19T08:10:50.002Z</time></trkpt><trkpt lat="45.035681505534974" lon="7.4573255017670625"><ele>337.0</ele><time>2026-04-19T08:10:51.003Z</time></trkpt><trkpt lat="45.03575144207356" lon="7.457151503418763"><ele>336.75</ele><time>2026-04-19T08:10:52.003Z</time></trkpt><trkpt lat="45.03579785824059" lon="7.457008082312292"><ele>336.5</ele><time>2026-04-19T08:10:53.003Z</time></trkpt><trkpt lat="45.035862487820424" lon="7.456835785800388"><ele>336.25</ele><time>2026-04-19T08:10:54.003Z</time></trkpt><trkpt lat="45.03591410878327" lon="7.456661773004583"><ele>336.0</ele><time>2026-04-19T08:10:55.003Z</time></trkpt><trkpt lat="45.035964840449644" lon="7.4564665096767415"><ele>337.0</ele><time>2026-04-19T08:10:56.003Z</time></trkpt><trkpt lat="45.03603040955866" lon="7.456249365636065"><ele>338.0</ele><time>2026-04-19T08:10:57.003Z</time></trkpt><trkpt lat="45.036100557965256" lon="7.456070963760204"><ele>339.0</ele><time>2026-04-19T08:10:58.003Z</time></trkpt><trkpt lat="45.03610315491467" lon="7.4559552529678035"><ele>340.0</ele><time>2026-04-19T08:10:59.003Z</time></trkpt><trkpt lat="45.03613415212792" lon="7.455831603362015"><ele>340.0</ele><time>2026-04-19T08:11:00.003Z</time></trkpt><trkpt lat="45.03615827344111" lon="7.4557203730147"><ele>340.0</ele><time>2026-04-19T08:11:01.003Z</time></trkpt><trkpt lat="45.03618002487131" lon="7.455626015866336"><ele>340.0</ele><time>2026-04-19T08:11:02.003Z</time></trkpt><trkpt lat="45.036208135736864" lon="7.455498319475748"><ele>340.0</ele><time>2026-04-19T08:11:03.999Z</time></trkpt><trkpt lat="45.03623548414203" lon="7.455410406583242"><ele>340.0</ele><time>2026-04-19T08:11:39.001Z</time></trkpt><trkpt lat="45.03612744872813" lon="7.45535327522465"><ele>340.0</ele><time>2026-04-19T08:11:40.001Z</time></trkpt><trkpt lat="45.03605821639168" lon="7.4553403312895155"><ele>340.4</ele><time>2026-04-19T08:11:41.001Z</time></trkpt><trkpt lat="45.035972706334704" lon="7.455307377558005"><ele>340.8</ele><time>2026-04-19T08:11:42.001Z</time></trkpt><trkpt lat="45.03588759003526" lon="7.455252582925372"><ele>341.20000000000005</ele><time>2026-04-19T08:11:43.001Z</time></trkpt><trkpt lat="45.03579793192146" lon="7.455173844828329"><ele>341.6</ele><time>2026-04-19T08:11:44.001Z</time></trkpt><trkpt lat="45.03570160050267" lon="7.455085648650176"><ele>342.0</ele><time>2026-04-19T08:11:45.001Z</time></trkpt><trkpt lat="45.035598719193146" lon="7.45499415283968"><ele>340.0</ele><time>2026-04-19T08:11:46.001Z</time></trkpt><trkpt lat="45.03549039482556" lon="7.45490064290243"><ele>338.0</ele><time>2026-04-19T08:11:47.001Z</time></trkpt><trkpt lat="45.035374669431214" lon="7.45479995723866"><ele>336.0</ele><time>2026-04-19T08:11:48.001Z</time></trkpt><trkpt lat="45.035254920926526" lon="7.454695759231696"><ele>334.0</ele><time>2026-04-19T08:11:49.001Z</time></trkpt><trkpt lat="45.03513268998127" lon="7.454588752920958"><ele>334.0</ele><time>2026-04-19T08:11:50.001Z</time></trkpt><trkpt lat="45.035006543188935" lon="7.454479605955495"><ele>334.0</ele><time>2026-04-19T08:11:51.001Z</time></trkpt><trkpt lat="45.034877569675345" lon="7.4543743261141175"><ele>334.0</ele><time>2026-04-19T08:11:52.001Z</time></trkpt><trkpt lat="45.03474893004066" lon="7.454263979212942"><ele>334.0</ele><time>2026-04-19T08:11:53.001Z</time></trkpt><trkpt lat="45.03461740030092" lon="7.454159010919864"><ele>334.66666666666663</ele><time>2026-04-19T08:11:54.001Z</time></trkpt><trkpt lat="45.03448037807941" lon="7.454063301977886"><ele>335.3333333333333</ele><time>2026-04-19T08:11:55.001Z</time></trkpt><trkpt lat="45.03433998675764" lon="7.453974565289039"><ele>336.0</ele><time>2026-04-19T08:11:56.001Z</time></trkpt><trkpt lat="45.03419153251781" lon="7.453886809550759"><ele>336.3333333333333</ele><time>2026-04-19T08:11:57.001Z</time></trkpt><trkpt lat="45.03404401637501" lon="7.453807030706401"><ele>336.66666666666663</ele><time>2026-04-19T08:11:58.001Z</time></trkpt><trkpt lat="45.03389506979193" lon="7.453732689358967"><ele>337.0</ele><time>2026-04-19T08:11:59.001Z</time></trkpt><trkpt lat="45.03374473156626" lon="7.453664789655258"><ele>338.0</ele><time>2026-04-19T08:12:00.001Z</time></trkpt><trkpt lat="45.03359419337558" lon="7.453592519449445"><ele>339.0</ele><time>2026-04-19T08:12:01.001Z</time></trkpt><trkpt lat="45.0334415309957" lon="7.4535168902464655"><ele>340.0</ele><time>2026-04-19T08:12:02.001Z</time></trkpt><trkpt lat="45.03329272927637" lon="7.453445434859807"><ele>340.0</ele><time>2026-04-19T08:12:03.001Z</time></trkpt><trkpt lat="45.033143906389036" lon="7.453375899817683"><ele>340.0</ele><time>2026-04-19T08:12:04.001Z</time></trkpt><trkpt lat="45.03299810665015" lon="7.453303436202052"><ele>340.0</ele><time>2026-04-19T08:12:05.001Z</time></trkpt><trkpt lat="45.032851144335304" lon="7.4532465483240715"><ele>340.0</ele><time>2026-04-19T08:12:06.001Z</time></trkpt><trkpt lat="45.0327099797273" lon="7.453192854585602"><ele>340.0</ele><time>2026-04-19T08:12:07.002Z</time></trkpt><trkpt lat="45.032577998013714" lon="7.453144485718586"><ele>340.0</ele><time>2026-04-19T08:12:08.002Z</time></trkpt><trkpt lat="45.03245302261948" lon="7.4531049347067775"><ele>340.0</ele><time>2026-04-19T08:12:09.002Z</time></trkpt><trkpt lat="45.032341352267956" lon="7.45307146607533"><ele>340.0</ele><time>2026-04-19T08:12:10.002Z</time></trkpt><trkpt lat="45.03224575854176" lon="7.453041273064573"><ele>340.0</ele><time>2026-04-19T08:12:11.002Z</time></trkpt><trkpt lat="45.0321569465626" lon="7.4530136828405285"><ele>340.0</ele><time>2026-04-19T08:12:12.002Z</time></trkpt><trkpt lat="45.03207499751712" lon="7.452988181132632"><ele>340.0</ele><time>2026-04-19T08:12:13.002Z</time></trkpt><trkpt lat="45.03199463485125" lon="7.452963511568038"><ele>340.0</ele><time>2026-04-19T08:12:14.002Z</time></trkpt><trkpt lat="45.03191372398769" lon="7.4529386812618625"><ele>340.0</ele><time>2026-04-19T08:12:15.002Z</time></trkpt><trkpt lat="45.031831858137615" lon="7.452912640977037"><ele>340.2</ele><time>2026-04-19T08:12:16.002Z</time></trkpt><trkpt lat="45.031748050762005" lon="7.452889292503319"><ele>340.4</ele><time>2026-04-19T08:12:17.002Z</time></trkpt><trkpt lat="45.03165951973595" lon="7.452867775975676"><ele>340.6</ele><time>2026-04-19T08:12:18.002Z</time></trkpt><trkpt lat="45.031567601199356" lon="7.4528328098598235"><ele>340.8</ele><time>2026-04-19T08:12:19.002Z</time></trkpt><trkpt lat="45.031468266534496" lon="7.452807289952192"><ele>341.0</ele><time>2026-04-19T08:12:20.002Z</time></trkpt><trkpt lat="45.03135919122598" lon="7.452791698586896"><ele>340.5</ele><time>2026-04-19T08:12:21.002Z</time></trkpt><trkpt lat="45.03124535589352" lon="7.452776449229028"><ele>340.0</ele><time>2026-04-19T08:12:22.002Z</time></trkpt><trkpt lat="45.0311284294867" lon="7.45276568476268"><ele>339.5</ele><time>2026-04-19T08:12:23.002Z</time></trkpt><trkpt lat="45.031010745517534" lon="7.452750756580987"><ele>339.0</ele><time>2026-04-19T08:12:24.002Z</time></trkpt><trkpt lat="45.03089697568672" lon="7.452733841015507"><ele>339.2</ele><time>2026-04-19T08:12:25.002Z</time></trkpt><trkpt lat="45.03079020886487" lon="7.452702026651298"><ele>339.4</ele><time>2026-04-19T08:12:26.002Z</time></trkpt><trkpt lat="45.03068663203752" lon="7.45266620706314"><ele>339.6</ele><time>2026-04-19T08:12:27.002Z</time></trkpt><trkpt lat="45.03060003308876" lon="7.45261540125002"><ele>339.8</ele><time>2026-04-19T08:12:28.002Z</time></trkpt><trkpt lat="45.03053027571398" lon="7.452528200550482"><ele>340.0</ele><time>2026-04-19T08:12:29.002Z</time></trkpt><trkpt lat="45.030469702783215" lon="7.452461826736932"><ele>340.0</ele><time>2026-04-19T08:12:30.002Z</time></trkpt><trkpt lat="45.03044060737471" lon="7.452334059444585"><ele>340.0</ele><time>2026-04-19T08:12:31.002Z</time></trkpt><trkpt lat="45.03037425110556" lon="7.452246201975029"><ele>340.0</ele><time>2026-04-19T08:12:32.002Z</time></trkpt><trkpt lat="45.03031479302206" lon="7.452150424526652"><ele>340.0</ele><time>2026-04-19T08:12:33.002Z</time></trkpt><trkpt lat="45.030237229340024" lon="7.4520836053031685"><ele>340.0</ele><time>2026-04-19T08:12:34.002Z</time></trkpt><trkpt lat="45.0301411861288" lon="7.452048337695361"><ele>340.0</ele><time>2026-04-19T08:12:35.002Z</time></trkpt><trkpt lat="45.03006283428461" lon="7.452016147415376"><ele>340.0</ele><time>2026-04-19T08:12:36.002Z</time></trkpt><trkpt lat="45.02999009961018" lon="7.452002567678203"><ele>340.0</ele><time>2026-04-19T08:12:37.002Z</time></trkpt><trkpt lat="45.02999344581011" lon="7.451813935687484"><ele>340.0</ele><time>2026-04-19T08:12:41.003Z</time></trkpt><trkpt lat="45.03000913443371" lon="7.451692047378163"><ele>340.0</ele><time>2026-04-19T08:12:42.003Z</time></trkpt><trkpt lat="45.03001217080074" lon="7.451541932845553"><ele>340.0</ele><time>2026-04-19T08:12:43.003Z</time></trkpt><trkpt lat="45.0299930684185" lon="7.451380493165222"><ele>340.0</ele><time>2026-04-19T08:12:44.003Z</time></trkpt><trkpt lat="45.030000135934166" lon="7.451220328086092"><ele>340.0</ele><time>2026-04-19T08:12:45.003Z</time></trkpt><trkpt lat="45.03001854337192" lon="7.451070561885857"><ele>340.0</ele><time>2026-04-19T08:12:46.003Z</time></trkpt><trkpt lat="45.03004558508049" lon="7.450918628870267"><ele>340.0</ele><time>2026-04-19T08:12:47.003Z</time></trkpt><trkpt lat="45.03008478520124" lon="7.450763247787247"><ele>340.25</ele><time>2026-04-19T08:12:48.003Z</time></trkpt><trkpt lat="45.0301154837401" lon="7.450619852762953"><ele>340.5</ele><time>2026-04-19T08:12:49.003Z</time></trkpt><trkpt lat="45.030153921401585" lon="7.45046875844392"><ele>340.75</ele><time>2026-04-19T08:12:50.003Z</time></trkpt><trkpt lat="45.030185681194006" lon="7.450299081099786"><ele>341.0</ele><time>2026-04-19T08:12:51.003Z</time></trkpt><trkpt lat="45.030207968053155" lon="7.4501332883143725"><ele>341.25</ele><time>2026-04-19T08:12:52.003Z</time></trkpt><trkpt lat="45.030226852857865" lon="7.449951860231466"><ele>341.5</ele><time>2026-04-19T08:12:53.003Z</time></trkpt><trkpt lat="45.030243155117965" lon="7.4497569299793405"><ele>341.75</ele><time>2026-04-19T08:12:54.003Z</time></trkpt><trkpt lat="45.030250468725356" lon="7.449573065928837"><ele>342.0</ele><time>2026-04-19T08:12:55.003Z</time></trkpt><trkpt lat="45.0302528401451" lon="7.449414418835771"><ele>342.0</ele><time>2026-04-19T08:12:56.003Z</time></trkpt><trkpt lat="45.030237568761805" lon="7.449270917150573"><ele>342.0</ele><time>2026-04-19T08:12:57.003Z</time></trkpt><trkpt lat="45.030242412936595" lon="7.449139657099591"><ele>342.0</ele><time>2026-04-19T08:12:58.003Z</time></trkpt><trkpt lat="45.03024441211014" lon="7.449014519598215"><ele>342.0</ele><time>2026-04-19T08:12:59.003Z</time></trkpt><trkpt lat="45.030172371243786" lon="7.448896397834863"><ele>342.0</ele><time>2026-04-19T08:13:00.003Z</time></trkpt><trkpt lat="45.030182396903214" lon="7.448765847793142"><ele>342.25</ele><time>2026-04-19T08:13:01.003Z</time></trkpt><trkpt lat="45.0302177777219" lon="7.448619379924507"><ele>342.5</ele><time>2026-04-19T08:13:02.003Z</time></trkpt><trkpt lat="45.03028068024579" lon="7.448477483397327"><ele>342.75</ele><time>2026-04-19T08:13:03.003Z</time></trkpt><trkpt lat="45.03034327825238" lon="7.448324855583328"><ele>343.0</ele><time>2026-04-19T08:13:04.003Z</time></trkpt><trkpt lat="45.03039930375588" lon="7.448152009746205"><ele>343.66666666666663</ele><time>2026-04-19T08:13:05.003Z</time></trkpt><trkpt lat="45.030439545778215" lon="7.447955701365311"><ele>344.3333333333333</ele><time>2026-04-19T08:13:06.003Z</time></trkpt><trkpt lat="45.030471101251194" lon="7.447740007148177"><ele>345.0</ele><time>2026-04-19T08:13:07.003Z</time></trkpt><trkpt lat="45.030491905337534" lon="7.44751726527435"><ele>345.0</ele><time>2026-04-19T08:13:08.003Z</time></trkpt><trkpt lat="45.03050623724134" lon="7.44730428228298"><ele>345.0</ele><time>2026-04-19T08:13:08.999Z</time></trkpt><trkpt lat="45.03052330770971" lon="7.447106355387696"><ele>345.0</ele><time>2026-04-19T08:13:09.999Z</time></trkpt><trkpt lat="45.03055971443598" lon="7.446905608199095"><ele>345.0</ele><time>2026-04-19T08:13:10.999Z</time></trkpt><trkpt lat="45.03062027202614" lon="7.44670893271452"><ele>345.0</ele><time>2026-04-19T08:13:11.999Z</time></trkpt><trkpt lat="45.03069048612872" lon="7.446506092572823"><ele>345.0</ele><time>2026-04-19T08:13:12.999Z</time></trkpt><trkpt lat="45.030762704250414" lon="7.446300937865607"><ele>345.0</ele><time>2026-04-19T08:13:13.999Z</time></trkpt><trkpt lat="45.030835951060766" lon="7.446093909822678"><ele>345.3333333333333</ele><time>2026-04-19T08:13:14.999Z</time></trkpt><trkpt lat="45.03090937062457" lon="7.445889979724927"><ele>345.66666666666663</ele><time>2026-04-19T08:13:15.999Z</time></trkpt><trkpt lat="45.03097906583901" lon="7.445684135516588"><ele>346.0</ele><time>2026-04-19T08:13:17Z</time></trkpt><trkpt lat="45.031032009297185" lon="7.445477384374628"><ele>346.0</ele><time>2026-04-19T08:13:18Z</time></trkpt><trkpt lat="45.03107230620899" lon="7.445260224687818"><ele>346.0</ele><time>2026-04-19T08:13:19Z</time></trkpt><trkpt lat="45.03109208731183" lon="7.445027297120095"><ele>346.0</ele><time>2026-04-19T08:13:20Z</time></trkpt><trkpt lat="45.03110490577746" lon="7.444800886786399"><ele>346.5</ele><time>2026-04-19T08:13:21Z</time></trkpt><trkpt lat="45.03111609947448" lon="7.444594831518977"><ele>347.0</ele><time>2026-04-19T08:13:22Z</time></trkpt><trkpt lat="45.0311341399344" lon="7.44441467233569"><ele>347.5</ele><time>2026-04-19T08:13:23Z</time></trkpt><trkpt lat="45.031157182630054" lon="7.444245362271524"><ele>348.0</ele><time>2026-04-19T08:13:24Z</time></trkpt><trkpt lat="45.03118377557818" lon="7.444086909062816"><ele>348.0</ele><time>2026-04-19T08:13:25Z</time></trkpt><trkpt lat="45.03121309122531" lon="7.443918847040067"><ele>348.0</ele><time>2026-04-19T08:13:26Z</time></trkpt><trkpt lat="45.03125245151419" lon="7.443751935825709"><ele>348.0</ele><time>2026-04-19T08:13:27Z</time></trkpt><trkpt lat="45.031292675529485" lon="7.44358084796124"><ele>348.0</ele><time>2026-04-19T08:13:28Z</time></trkpt><trkpt lat="45.031327846480245" lon="7.4434125905482045"><ele>348.0</ele><time>2026-04-19T08:13:29Z</time></trkpt><trkpt lat="45.031363330297005" lon="7.443237318825116"><ele>348.0</ele><time>2026-04-19T08:13:30Z</time></trkpt><trkpt lat="45.03140902698428" lon="7.4430656287241135"><ele>348.0</ele><time>2026-04-19T08:13:31Z</time></trkpt><trkpt lat="45.031468307547584" lon="7.442890030445532"><ele>348.0</ele><time>2026-04-19T08:13:32Z</time></trkpt><trkpt lat="45.03151216323255" lon="7.442704373840567"><ele>348.0</ele><time>2026-04-19T08:13:33Z</time></trkpt><trkpt lat="45.03155235167682" lon="7.442511899131548"><ele>348.0</ele><time>2026-04-19T08:13:34Z</time></trkpt><trkpt lat="45.03159481431626" lon="7.44233788754499"><ele>348.0</ele><time>2026-04-19T08:13:35Z</time></trkpt><trkpt lat="45.03164509262027" lon="7.442198949147227"><ele>348.0</ele><time>2026-04-19T08:13:36Z</time></trkpt><trkpt lat="45.03169460591491" lon="7.442071334066414"><ele>348.8333333333333</ele><time>2026-04-19T08:13:37Z</time></trkpt><trkpt lat="45.031745754898026" lon="7.441957974942703"><ele>349.6666666666667</ele><time>2026-04-19T08:13:38Z</time></trkpt><trkpt lat="45.03179119355392" lon="7.4418441071564745"><ele>350.5</ele><time>2026-04-19T08:13:39Z</time></trkpt><trkpt lat="45.03182966650262" lon="7.441745220132593"><ele>351.33333333333337</ele><time>2026-04-19T08:13:40Z</time></trkpt><trkpt lat="45.03186999883371" lon="7.4416492780506704"><ele>352.1666666666667</ele><time>2026-04-19T08:13:41Z</time></trkpt><trkpt lat="45.031908163751154" lon="7.441552024731519"><ele>353.0</ele><time>2026-04-19T08:13:42Z</time></trkpt><trkpt lat="45.03195652134253" lon="7.441477131309153"><ele>353.0</ele><time>2026-04-19T08:13:43Z</time></trkpt><trkpt lat="45.03201438814874" lon="7.44142605758085"><ele>353.0</ele><time>2026-04-19T08:13:44.001Z</time></trkpt><trkpt lat="45.03208536249708" lon="7.441385218319767"><ele>353.0</ele><time>2026-04-19T08:13:45.001Z</time></trkpt><trkpt lat="45.0321623781345" lon="7.4413521321075375"><ele>353.0</ele><time>2026-04-19T08:13:46.001Z</time></trkpt><trkpt lat="45.03224831132526" lon="7.4413022699293"><ele>353.0</ele><time>2026-04-19T08:13:47.001Z</time></trkpt><trkpt lat="45.03232153051853" lon="7.441239724073988"><ele>353.0</ele><time>2026-04-19T08:13:48.001Z</time></trkpt><trkpt lat="45.03236848177743" lon="7.4411608355407735"><ele>352.83333333333337</ele><time>2026-04-19T08:13:49.001Z</time></trkpt><trkpt lat="45.03240041258628" lon="7.441082092484674"><ele>352.6666666666667</ele><time>2026-04-19T08:13:50.001Z</time></trkpt><trkpt lat="45.03244900282076" lon="7.440976588581824"><ele>352.5</ele><time>2026-04-19T08:13:52.001Z</time></trkpt><trkpt lat="45.03249069826211" lon="7.440855414237302"><ele>352.3333333333333</ele><time>2026-04-19T08:13:54.001Z</time></trkpt><trkpt lat="45.032522494425635" lon="7.440771656977623"><ele>352.16666666666663</ele><time>2026-04-19T08:13:55.001Z</time></trkpt><trkpt lat="45.03257395984311" lon="7.440682454802426"><ele>352.0</ele><time>2026-04-19T08:13:56.001Z</time></trkpt><trkpt lat="45.03263012014584" lon="7.44058663515222"><ele>352.0</ele><time>2026-04-19T08:13:57.001Z</time></trkpt><trkpt lat="45.03269026739793" lon="7.440467380397929"><ele>352.0</ele><time>2026-04-19T08:13:58.001Z</time></trkpt><trkpt lat="45.03274628507134" lon="7.440342405750403"><ele>352.0</ele><time>2026-04-19T08:13:59.001Z</time></trkpt><trkpt lat="45.032787710909865" lon="7.4402109023672836"><ele>352.0</ele><time>2026-04-19T08:14:00.001Z</time></trkpt><trkpt lat="45.0328275622342" lon="7.440069908570703"><ele>352.0</ele><time>2026-04-19T08:14:01.001Z</time></trkpt><trkpt lat="45.03285876414311" lon="7.439924884553655"><ele>352.0</ele><time>2026-04-19T08:14:02.001Z</time></trkpt><trkpt lat="45.03289154543155" lon="7.439770806764814"><ele>352.0</ele><time>2026-04-19T08:14:03.001Z</time></trkpt><trkpt lat="45.03293533950748" lon="7.439624161525431"><ele>352.0</ele><time>2026-04-19T08:14:04.001Z</time></trkpt><trkpt lat="45.032922783926466" lon="7.439432982506694"><ele>352.0</ele><time>2026-04-19T08:14:05.001Z</time></trkpt><trkpt lat="45.03293292523085" lon="7.439254029445552"><ele>352.66666666666663</ele><time>2026-04-19T08:14:06.001Z</time></trkpt><trkpt lat="45.032958702902135" lon="7.438872964674824"><ele>353.3333333333333</ele><time>2026-04-19T08:14:08.001Z</time></trkpt><trkpt lat="45.0329764040377" lon="7.438682805262325"><ele>354.0</ele><time>2026-04-19T08:14:09.001Z</time></trkpt><trkpt lat="45.032993336704514" lon="7.438483204549321"><ele>354.25</ele><time>2026-04-19T08:14:10.001Z</time></trkpt><trkpt lat="45.03301047363441" lon="7.438289261613812"><ele>354.5</ele><time>2026-04-19T08:14:11.001Z</time></trkpt><trkpt lat="45.03303092899125" lon="7.438111028631031"><ele>354.75</ele><time>2026-04-19T08:14:12.001Z</time></trkpt><trkpt lat="45.03305306976468" lon="7.437954125770616"><ele>355.0</ele><time>2026-04-19T08:14:13.001Z</time></trkpt><trkpt lat="45.033076324251475" lon="7.437811918050034"><ele>355.16666666666663</ele><time>2026-04-19T08:14:14.002Z</time></trkpt><trkpt lat="45.03309248108671" lon="7.43771311661695"><ele>355.3333333333333</ele><time>2026-04-19T08:14:15.002Z</time></trkpt><trkpt lat="45.033120291897525" lon="7.437612884060901"><ele>355.5</ele><time>2026-04-19T08:14:16.002Z</time></trkpt><trkpt lat="45.033145874179056" lon="7.43748250346824"><ele>355.6666666666667</ele><time>2026-04-19T08:14:17.002Z</time></trkpt><trkpt lat="45.03317631749452" lon="7.437337387135434"><ele>355.83333333333337</ele><time>2026-04-19T08:14:18.002Z</time></trkpt><trkpt lat="45.0332069143068" lon="7.437211917559609"><ele>356.0</ele><time>2026-04-19T08:14:19.002Z</time></trkpt><trkpt lat="45.03321400922787" lon="7.437097974455013"><ele>356.20000000000005</ele><time>2026-04-19T08:14:20.002Z</time></trkpt><trkpt lat="45.03320823753134" lon="7.436990691152688"><ele>356.40000000000003</ele><time>2026-04-19T08:14:21.002Z</time></trkpt><trkpt lat="45.03313017495413" lon="7.436928335646015"><ele>356.6</ele><time>2026-04-19T08:14:22.002Z</time></trkpt><trkpt lat="45.03303243091989" lon="7.436907832508702"><ele>356.8</ele><time>2026-04-19T08:14:23.002Z</time></trkpt><trkpt lat="45.03292772460495" lon="7.43687007700396"><ele>357.0</ele><time>2026-04-19T08:14:24.002Z</time></trkpt><trkpt lat="45.03282812686161" lon="7.436814818523368"><ele>357.0</ele><time>2026-04-19T08:14:25.002Z</time></trkpt><trkpt lat="45.03273055807556" lon="7.436745922706059"><ele>357.0</ele><time>2026-04-19T08:14:26.002Z</time></trkpt><trkpt lat="45.03265060197427" lon="7.4366836333764095"><ele>357.0</ele><time>2026-04-19T08:14:27.002Z</time></trkpt><trkpt lat="45.03259435377897" lon="7.436626516312089"><ele>357.0</ele><time>2026-04-19T08:14:28.002Z</time></trkpt><trkpt lat="45.03252841122038" lon="7.436573177632053"><ele>357.0</ele><time>2026-04-19T08:14:30.002Z</time></trkpt><trkpt lat="45.03253829255142" lon="7.43632154043364"><ele>357.20000000000005</ele><time>2026-04-19T08:15:40Z</time></trkpt><trkpt lat="45.032571853006374" lon="7.436237335957533"><ele>357.4</ele><time>2026-04-19T08:15:41Z</time></trkpt><trkpt lat="45.03262431364444" lon="7.436121968014563"><ele>357.6</ele><time>2026-04-19T08:15:43Z</time></trkpt><trkpt lat="45.03265964042834" lon="7.436018015098768"><ele>357.79999999999995</ele><time>2026-04-19T08:15:46Z</time></trkpt><trkpt lat="45.03267825367696" lon="7.435920407680699"><ele>358.0</ele><time>2026-04-19T08:15:56.001Z</time></trkpt><trkpt lat="45.03259212922245" lon="7.435702578938699"><ele>358.0</ele><time>2026-04-19T08:16:15.001Z</time></trkpt><trkpt lat="45.03251354682721" lon="7.435651308688967"><ele>358.0</ele><time>2026-04-19T08:16:16.001Z</time></trkpt><trkpt lat="45.03241610097663" lon="7.435587731089255"><ele>358.0</ele><time>2026-04-19T08:16:17.002Z</time></trkpt><trkpt lat="45.03231155011495" lon="7.435519517906704"><ele>358.0</ele><time>2026-04-19T08:16:18.002Z</time></trkpt><trkpt lat="45.03219887590655" lon="7.435446004742241"><ele>358.0</ele><time>2026-04-19T08:16:19.002Z</time></trkpt><trkpt lat="45.03207589365678" lon="7.435366453998271"><ele>357.79999999999995</ele><time>2026-04-19T08:16:20.002Z</time></trkpt><trkpt lat="45.03195267890937" lon="7.435290089254145"><ele>357.6</ele><time>2026-04-19T08:16:21.002Z</time></trkpt><trkpt lat="45.03183466797369" lon="7.4352404355473825"><ele>357.4</ele><time>2026-04-19T08:16:22.002Z</time></trkpt><trkpt lat="45.03173810015593" lon="7.435168656270589"><ele>357.20000000000005</ele><time>2026-04-19T08:16:23.002Z</time></trkpt><trkpt lat="45.03166585823242" lon="7.4351211384570055"><ele>357.0</ele><time>2026-04-19T08:16:24.002Z</time></trkpt><trkpt lat="45.031580170823794" lon="7.435033424414094"><ele>357.0</ele><time>2026-04-19T08:16:26.002Z</time></trkpt><trkpt lat="45.03163276504168" lon="7.434795612248802"><ele>357.0</ele><time>2026-04-19T08:16:28.002Z</time></trkpt><trkpt lat="45.031674419404176" lon="7.434676565309093"><ele>357.0</ele><time>2026-04-19T08:16:29.002Z</time></trkpt><trkpt lat="45.03172412098212" lon="7.434534520599455"><ele>357.0</ele><time>2026-04-19T08:16:30.002Z</time></trkpt><trkpt lat="45.03176463389203" lon="7.434384009412053"><ele>357.75</ele><time>2026-04-19T08:16:31.002Z</time></trkpt><trkpt lat="45.0318219504284" lon="7.434222568752861"><ele>358.5</ele><time>2026-04-19T08:16:32.002Z</time></trkpt><trkpt lat="45.031887312489104" lon="7.434060020339719"><ele>359.25</ele><time>2026-04-19T08:16:33.002Z</time></trkpt><trkpt lat="45.03194457940832" lon="7.433903605454722"><ele>360.0</ele><time>2026-04-19T08:16:34.002Z</time></trkpt><trkpt lat="45.03199923548708" lon="7.433736060563019"><ele>360.0</ele><time>2026-04-19T08:16:35.002Z</time></trkpt><trkpt lat="45.03204446393074" lon="7.433563112514115"><ele>360.0</ele><time>2026-04-19T08:16:36.002Z</time></trkpt><trkpt lat="45.03209028447582" lon="7.433399237312041"><ele>360.0</ele><time>2026-04-19T08:16:37.002Z</time></trkpt><trkpt lat="45.03213828490983" lon="7.43326433392837"><ele>360.0</ele><time>2026-04-19T08:16:38.002Z</time></trkpt><trkpt lat="45.032191315601956" lon="7.433151527535945"><ele>360.0</ele><time>2026-04-19T08:16:39.002Z</time></trkpt><trkpt lat="45.03226175902368" lon="7.433048189780328"><ele>360.0</ele><time>2026-04-19T08:16:40.002Z</time></trkpt><trkpt lat="45.032343914931985" lon="7.432939093144057"><ele>360.0</ele><time>2026-04-19T08:16:41.002Z</time></trkpt><trkpt lat="45.032424433548904" lon="7.432809516950465"><ele>360.0</ele><time>2026-04-19T08:16:42.002Z</time></trkpt><trkpt lat="45.03251385621403" lon="7.432666143358554"><ele>360.25</ele><time>2026-04-19T08:16:43.002Z</time></trkpt><trkpt lat="45.032597653166604" lon="7.432500319335906"><ele>360.5</ele><time>2026-04-19T08:16:44.002Z</time></trkpt><trkpt lat="45.03267433915159" lon="7.432314305790376"><ele>360.75</ele><time>2026-04-19T08:16:45.002Z</time></trkpt><trkpt lat="45.03273022861283" lon="7.432114306173988"><ele>361.0</ele><time>2026-04-19T08:16:46.002Z</time></trkpt><trkpt lat="45.032785157209766" lon="7.431915811128454"><ele>361.5</ele><time>2026-04-19T08:16:47.002Z</time></trkpt><trkpt lat="45.03283709069956" lon="7.431717491385366"><ele>362.0</ele><time>2026-04-19T08:16:48.002Z</time></trkpt><trkpt lat="45.03288166535013" lon="7.431532166550298"><ele>362.5</ele><time>2026-04-19T08:16:49.003Z</time></trkpt><trkpt lat="45.03292006172873" lon="7.431365551612525"><ele>363.0</ele><time>2026-04-19T08:16:50.003Z</time></trkpt><trkpt lat="45.03295817803427" lon="7.431193154245421"><ele>363.5</ele><time>2026-04-19T08:16:51.003Z</time></trkpt><trkpt lat="45.03299297577476" lon="7.431020402732966"><ele>364.0</ele><time>2026-04-19T08:16:52.003Z</time></trkpt><trkpt lat="45.03302666895228" lon="7.430845332651195"><ele>364.5</ele><time>2026-04-19T08:16:53.003Z</time></trkpt><trkpt lat="45.03305870934005" lon="7.430665988469309"><ele>365.0</ele><time>2026-04-19T08:16:54.003Z</time></trkpt><trkpt lat="45.033085377721626" lon="7.430508725462186"><ele>365.5</ele><time>2026-04-19T08:16:55.003Z</time></trkpt><trkpt lat="45.03309824069893" lon="7.4303401874113595"><ele>366.0</ele><time>2026-04-19T08:16:56.003Z</time></trkpt><trkpt lat="45.033150405138784" lon="7.4301677692581904"><ele>366.5</ele><time>2026-04-19T08:16:57.003Z</time></trkpt><trkpt lat="45.03320018422825" lon="7.429976794944194"><ele>367.0</ele><time>2026-04-19T08:16:58.003Z</time></trkpt><trkpt lat="45.033245056278346" lon="7.429785526709316"><ele>367.25</ele><time>2026-04-19T08:16:59.003Z</time></trkpt><trkpt lat="45.03328385531578" lon="7.429592743600735"><ele>367.5</ele><time>2026-04-19T08:17:00.003Z</time></trkpt><trkpt lat="45.03330114132029" lon="7.429392587800719"><ele>367.75</ele><time>2026-04-19T08:17:01.003Z</time></trkpt><trkpt lat="45.03334885675816" lon="7.429196910753803"><ele>368.0</ele><time>2026-04-19T08:17:02.003Z</time></trkpt><trkpt lat="45.03338593666586" lon="7.429002176699172"><ele>368.25</ele><time>2026-04-19T08:17:03.003Z</time></trkpt><trkpt lat="45.03342955247855" lon="7.428798705217229"><ele>368.5</ele><time>2026-04-19T08:17:04.003Z</time></trkpt><trkpt lat="45.03347639262221" lon="7.428592205658757"><ele>368.75</ele><time>2026-04-19T08:17:05.003Z</time></trkpt><trkpt lat="45.033525226290344" lon="7.428407381070511"><ele>369.0</ele><time>2026-04-19T08:17:06.003Z</time></trkpt><trkpt lat="45.03357766989941" lon="7.428227312598651"><ele>369.0</ele><time>2026-04-19T08:17:07.003Z</time></trkpt><trkpt lat="45.033630294742956" lon="7.428049431948296"><ele>369.0</ele><time>2026-04-19T08:17:08.003Z</time></trkpt><trkpt lat="45.033677899711776" lon="7.4278804852362015"><ele>369.0</ele><time>2026-04-19T08:17:09.003Z</time></trkpt><trkpt lat="45.03372145571227" lon="7.427731839287881"><ele>369.0</ele><time>2026-04-19T08:17:10.003Z</time></trkpt><trkpt lat="45.03376208812869" lon="7.427595174441469"><ele>370.4</ele><time>2026-04-19T08:17:11.003Z</time></trkpt><trkpt lat="45.03379203743247" lon="7.427481398774963"><ele>371.79999999999995</ele><time>2026-04-19T08:17:12.003Z</time></trkpt><trkpt lat="45.03383992388886" lon="7.427362963871817"><ele>373.20000000000005</ele><time>2026-04-19T08:17:14.003Z</time></trkpt><trkpt lat="45.03391150767856" lon="7.427416479427038"><ele>374.6</ele><time>2026-04-19T08:17:15.003Z</time></trkpt><trkpt lat="45.03400521299198" lon="7.427414217982209"><ele>376.0</ele><time>2026-04-19T08:17:16.003Z</time></trkpt><trkpt lat="45.0341002434006" lon="7.427433806622574"><ele>375.0</ele><time>2026-04-19T08:17:17.003Z</time></trkpt><trkpt lat="45.03417635012951" lon="7.4274486194414076"><ele>374.0</ele><time>2026-04-19T08:17:18.003Z</time></trkpt><trkpt lat="45.03424854933179" lon="7.4274538569983575"><ele>373.0</ele><time>2026-04-19T08:17:20.003Z</time></trkpt><trkpt lat="45.034304098911" lon="7.4273120746276255"><ele>372.0</ele><time>2026-04-19T08:17:35Z</time></trkpt><trkpt lat="45.0343072635883" lon="7.427181425765983"><ele>371.0</ele><time>2026-04-19T08:17:36Z</time></trkpt><trkpt lat="45.03431711706199" lon="7.427032557397979"><ele>371.0</ele><time>2026-04-19T08:17:37Z</time></trkpt><trkpt lat="45.0343313484671" lon="7.426856040298272"><ele>371.0</ele><time>2026-04-19T08:17:38Z</time></trkpt><trkpt lat="45.034345221360006" lon="7.426663444013657"><ele>371.0</ele><time>2026-04-19T08:17:39Z</time></trkpt><trkpt lat="45.03435526807878" lon="7.426449071527861"><ele>371.0</ele><time>2026-04-19T08:17:40Z</time></trkpt><trkpt lat="45.03436111905306" lon="7.426223949440169"><ele>372.6666666666667</ele><time>2026-04-19T08:17:41Z</time></trkpt><trkpt lat="45.03436669752208" lon="7.425999025517438"><ele>374.3333333333333</ele><time>2026-04-19T08:17:42Z</time></trkpt><trkpt lat="45.034375019209776" lon="7.425776413760235"><ele>376.0</ele><time>2026-04-19T08:17:43Z</time></trkpt><trkpt lat="45.03438471747708" lon="7.425551354393902"><ele>377.0</ele><time>2026-04-19T08:17:44Z</time></trkpt><trkpt lat="45.034391208318425" lon="7.4253266854339595"><ele>378.0</ele><time>2026-04-19T08:17:45Z</time></trkpt><trkpt lat="45.03440012881921" lon="7.425096107647237"><ele>379.0</ele><time>2026-04-19T08:17:46Z</time></trkpt><trkpt lat="45.034410614148086" lon="7.424862557339455"><ele>377.66666666666663</ele><time>2026-04-19T08:17:47Z</time></trkpt><trkpt lat="45.03442492475194" lon="7.424624631952685"><ele>376.3333333333333</ele><time>2026-04-19T08:17:48Z</time></trkpt><trkpt lat="45.03443299045019" lon="7.424381266451983"><ele>375.0</ele><time>2026-04-19T08:17:49Z</time></trkpt><trkpt lat="45.03444112465714" lon="7.424134437077399"><ele>375.0</ele><time>2026-04-19T08:17:50Z</time></trkpt><trkpt lat="45.03444845358291" lon="7.423900560597203"><ele>375.0</ele><time>2026-04-19T08:17:51Z</time></trkpt><trkpt lat="45.03445429869058" lon="7.423684917280458"><ele>375.0</ele><time>2026-04-19T08:17:52Z</time></trkpt><trkpt lat="45.03446139632381" lon="7.42347556030477"><ele>374.5</ele><time>2026-04-19T08:17:53Z</time></trkpt><trkpt lat="45.03447084378462" lon="7.423261626453738"><ele>374.0</ele><time>2026-04-19T08:17:54Z</time></trkpt><trkpt lat="45.03447975569162" lon="7.423050973352852"><ele>373.5</ele><time>2026-04-19T08:17:55.001Z</time></trkpt><trkpt lat="45.03448679330951" lon="7.422844328832517"><ele>373.0</ele><time>2026-04-19T08:17:56.001Z</time></trkpt><trkpt lat="45.03449077506478" lon="7.422635441856822"><ele>373.0</ele><time>2026-04-19T08:17:57.001Z</time></trkpt><trkpt lat="45.03449624094195" lon="7.422444670165002"><ele>373.0</ele><time>2026-04-19T08:17:58.001Z</time></trkpt><trkpt lat="45.034507786187625" lon="7.422241558543223"><ele>373.0</ele><time>2026-04-19T08:17:59.001Z</time></trkpt><trkpt lat="45.03452048464481" lon="7.422037622491665"><ele>373.0</ele><time>2026-04-19T08:18:00.001Z</time></trkpt><trkpt lat="45.03452560261131" lon="7.421825956835501"><ele>374.75</ele><time>2026-04-19T08:18:01.001Z</time></trkpt><trkpt lat="45.03452592460331" lon="7.421612563059872"><ele>376.5</ele><time>2026-04-19T08:18:02.001Z</time></trkpt><trkpt lat="45.03452072028943" lon="7.42140113323783"><ele>378.25</ele><time>2026-04-19T08:18:03.001Z</time></trkpt><trkpt lat="45.03452092998346" lon="7.421190009760638"><ele>380.0</ele><time>2026-04-19T08:18:04.001Z</time></trkpt><trkpt lat="45.034527185764276" lon="7.420974551490823"><ele>380.0</ele><time>2026-04-19T08:18:05.001Z</time></trkpt><trkpt lat="45.03455284691446" lon="7.420762304295694"><ele>380.0</ele><time>2026-04-19T08:18:06.001Z</time></trkpt><trkpt lat="45.03459252101628" lon="7.420561590408628"><ele>380.0</ele><time>2026-04-19T08:18:07.001Z</time></trkpt><trkpt lat="45.03464629328269" lon="7.420381882889565"><ele>380.0</ele><time>2026-04-19T08:18:08.001Z</time></trkpt><trkpt lat="45.03471644580781" lon="7.420230418001598"><ele>379.8</ele><time>2026-04-19T08:18:09.001Z</time></trkpt><trkpt lat="45.03479994329569" lon="7.42011275161114"><ele>379.6</ele><time>2026-04-19T08:18:10.001Z</time></trkpt><trkpt lat="45.03489742550469" lon="7.420045218987175"><ele>379.4</ele><time>2026-04-19T08:18:11.001Z</time></trkpt><trkpt lat="45.03499586353595" lon="7.42001073917029"><ele>379.2</ele><time>2026-04-19T08:18:12.001Z</time></trkpt><trkpt lat="45.0350913408788" lon="7.41998258335755"><ele>379.0</ele><time>2026-04-19T08:18:13.001Z</time></trkpt><trkpt lat="45.03518494318379" lon="7.4199560297141245"><ele>377.4</ele><time>2026-04-19T08:18:14.001Z</time></trkpt><trkpt lat="45.03528059652103" lon="7.419930624171038"><ele>375.79999999999995</ele><time>2026-04-19T08:18:15.001Z</time></trkpt><trkpt lat="45.035377207192724" lon="7.419904624678591"><ele>374.20000000000005</ele><time>2026-04-19T08:18:16.001Z</time></trkpt><trkpt lat="45.035480987881414" lon="7.4198791070959444"><ele>372.6</ele><time>2026-04-19T08:18:17.001Z</time></trkpt><trkpt lat="45.03558588853882" lon="7.419851036904177"><ele>371.0</ele><time>2026-04-19T08:18:18.001Z</time></trkpt><trkpt lat="45.0356966240012" lon="7.419821678843364"><ele>370.33333333333337</ele><time>2026-04-19T08:18:19.001Z</time></trkpt><trkpt lat="45.03581808973176" lon="7.419784652873691"><ele>369.6666666666667</ele><time>2026-04-19T08:18:20.001Z</time></trkpt><trkpt lat="45.035978991932964" lon="7.419757035502902"><ele>369.0</ele><time>2026-04-19T08:18:21.001Z</time></trkpt><trkpt lat="45.036159630270994" lon="7.419711742993304"><ele>369.0</ele><time>2026-04-19T08:18:22.001Z</time></trkpt><trkpt lat="45.036322071254645" lon="7.419659070118577"><ele>369.0</ele><time>2026-04-19T08:18:23.001Z</time></trkpt><trkpt lat="45.036480163431754" lon="7.4196261359505264"><ele>369.0</ele><time>2026-04-19T08:18:24.001Z</time></trkpt><trkpt lat="45.03663482400309" lon="7.419579774974385"><ele>370.6666666666667</ele><time>2026-04-19T08:18:25.002Z</time></trkpt><trkpt lat="45.036787229940025" lon="7.419538948918456"><ele>372.33333333333337</ele><time>2026-04-19T08:18:26.002Z</time></trkpt><trkpt lat="45.03693523593205" lon="7.419506233052178"><ele>374.0</ele><time>2026-04-19T08:18:27.002Z</time></trkpt><trkpt lat="45.037079838368136" lon="7.4194744998084055"><ele>374.0</ele><time>2026-04-19T08:18:28.002Z</time></trkpt><trkpt lat="45.03722100575996" lon="7.419432319288192"><ele>374.0</ele><time>2026-04-19T08:18:29.002Z</time></trkpt><trkpt lat="45.03736351663188" lon="7.4193941068137255"><ele>374.0</ele><time>2026-04-19T08:18:30.002Z</time></trkpt><trkpt lat="45.03750690271845" lon="7.419362471845623"><ele>374.0</ele><time>2026-04-19T08:18:31.002Z</time></trkpt><trkpt lat="45.037645971099494" lon="7.4193330398376975"><ele>374.5</ele><time>2026-04-19T08:18:32.002Z</time></trkpt><trkpt lat="45.03777928985887" lon="7.419298727411633"><ele>375.0</ele><time>2026-04-19T08:18:33.002Z</time></trkpt><trkpt lat="45.03791009508671" lon="7.4192637846064375"><ele>375.5</ele><time>2026-04-19T08:18:34.002Z</time></trkpt><trkpt lat="45.03804175347668" lon="7.419225125639234"><ele>376.0</ele><time>2026-04-19T08:18:35.002Z</time></trkpt><trkpt lat="45.03817216484349" lon="7.419174586423131"><ele>376.0</ele><time>2026-04-19T08:18:36.002Z</time></trkpt><trkpt lat="45.038298053626804" lon="7.419110664867231"><ele>376.0</ele><time>2026-04-19T08:18:37.002Z</time></trkpt><trkpt lat="45.03841923084" lon="7.4190287912056965"><ele>376.0</ele><time>2026-04-19T08:18:38.002Z</time></trkpt><trkpt lat="45.03853480823954" lon="7.418930003874336"><ele>376.0</ele><time>2026-04-19T08:18:39.002Z</time></trkpt><trkpt lat="45.03864756621042" lon="7.4188196418042"><ele>376.5</ele><time>2026-04-19T08:18:40.002Z</time></trkpt><trkpt lat="45.03875711589514" lon="7.418711742042043"><ele>377.0</ele><time>2026-04-19T08:18:41.002Z</time></trkpt><trkpt lat="45.03886020333865" lon="7.418588267988808"><ele>377.5</ele><time>2026-04-19T08:18:42.002Z</time></trkpt><trkpt lat="45.038958141299396" lon="7.418465362475076"><ele>378.0</ele><time>2026-04-19T08:18:43.002Z</time></trkpt><trkpt lat="45.03905677178226" lon="7.418355641724605"><ele>378.75</ele><time>2026-04-19T08:18:44.002Z</time></trkpt><trkpt lat="45.03916052410327" lon="7.418222511580123"><ele>379.5</ele><time>2026-04-19T08:18:45.002Z</time></trkpt><trkpt lat="45.0392622494339" lon="7.418100063499842"><ele>380.25</ele><time>2026-04-19T08:18:46.002Z</time></trkpt><trkpt lat="45.039359467670806" lon="7.417988847544145"><ele>381.0</ele><time>2026-04-19T08:18:47.002Z</time></trkpt><trkpt lat="45.039460147049866" lon="7.417864561534656"><ele>381.5</ele><time>2026-04-19T08:18:48.002Z</time></trkpt><trkpt lat="45.03956135129131" lon="7.417743036121202"><ele>382.0</ele><time>2026-04-19T08:18:49.002Z</time></trkpt><trkpt lat="45.03965479792382" lon="7.417630710127129"><ele>382.5</ele><time>2026-04-19T08:18:50.002Z</time></trkpt><trkpt lat="45.0397542132414" lon="7.4175104586967695"><ele>383.0</ele><time>2026-04-19T08:18:51.002Z</time></trkpt><trkpt lat="45.03985709650686" lon="7.417389732695542"><ele>383.0</ele><time>2026-04-19T08:18:52.002Z</time></trkpt><trkpt lat="45.03995714860583" lon="7.417266805301061"><ele>383.0</ele><time>2026-04-19T08:18:53.002Z</time></trkpt><trkpt lat="45.040058101113466" lon="7.417143532951281"><ele>383.0</ele><time>2026-04-19T08:18:54.002Z</time></trkpt><trkpt lat="45.040157432027094" lon="7.417022482227936"><ele>383.0</ele><time>2026-04-19T08:18:55.002Z</time></trkpt><trkpt lat="45.04024988988054" lon="7.416905909503482"><ele>384.5</ele><time>2026-04-19T08:18:56.002Z</time></trkpt><trkpt lat="45.04033662370277" lon="7.416796885612771"><ele>386.0</ele><time>2026-04-19T08:18:57.002Z</time></trkpt><trkpt lat="45.04041380872443" lon="7.41669761580236"><ele>387.5</ele><time>2026-04-19T08:18:58.003Z</time></trkpt><trkpt lat="45.04050431122258" lon="7.416598296968111"><ele>389.0</ele><time>2026-04-19T08:18:59.003Z</time></trkpt><trkpt lat="45.040589372069974" lon="7.416476428327317"><ele>389.0</ele><time>2026-04-19T08:19:00.003Z</time></trkpt><trkpt lat="45.04068482160329" lon="7.416351935027476"><ele>389.0</ele><time>2026-04-19T08:19:01.003Z</time></trkpt><trkpt lat="45.04078857490191" lon="7.416229723431858"><ele>389.0</ele><time>2026-04-19T08:19:02.003Z</time></trkpt><trkpt lat="45.04089027188403" lon="7.41611422388482"><ele>389.0</ele><time>2026-04-19T08:19:03.003Z</time></trkpt><trkpt lat="45.04099504794154" lon="7.416024868552603"><ele>390.66666666666663</ele><time>2026-04-19T08:19:04.003Z</time></trkpt><trkpt lat="45.04107407522132" lon="7.415928652874805"><ele>392.3333333333333</ele><time>2026-04-19T08:19:05.003Z</time></trkpt><trkpt lat="45.04114468332694" lon="7.415834769193325"><ele>394.0</ele><time>2026-04-19T08:19:06.003Z</time></trkpt><trkpt lat="45.041205143733286" lon="7.415741062933904"><ele>395.66666666666663</ele><time>2026-04-19T08:19:07.003Z</time></trkpt><trkpt lat="45.04124839411169" lon="7.415661834648548"><ele>397.3333333333333</ele><time>2026-04-19T08:19:08.003Z</time></trkpt><trkpt lat="45.04128233475701" lon="7.415582788216838"><ele>399.0</ele><time>2026-04-19T08:19:09.003Z</time></trkpt><trkpt lat="45.04133109205421" lon="7.415437047712398"><ele>400.5</ele><time>2026-04-19T08:19:11.003Z</time></trkpt><trkpt lat="45.041364691357046" lon="7.415271556691022"><ele>402.0</ele><time>2026-04-19T08:19:13.003Z</time></trkpt><trkpt lat="45.04137903406242" lon="7.415140668766105"><ele>403.5</ele><time>2026-04-19T08:19:14.003Z</time></trkpt><trkpt lat="45.041386845758566" lon="7.414987869530559"><ele>405.0</ele><time>2026-04-19T08:19:15.003Z</time></trkpt><trkpt lat="45.04128554342258" lon="7.414827468303181"><ele>405.0</ele><time>2026-04-19T08:19:16.003Z</time></trkpt><trkpt lat="45.041274752022154" lon="7.414656707374931"><ele>405.0</ele><time>2026-04-19T08:19:17.003Z</time></trkpt><trkpt lat="45.04127102875182" lon="7.4145176388265766"><ele>405.0</ele><time>2026-04-19T08:19:18.003Z</time></trkpt><trkpt lat="45.04127077944187" lon="7.414369937286932"><ele>405.0</ele><time>2026-04-19T08:19:19.003Z</time></trkpt><trkpt lat="45.04127693408197" lon="7.414205626436699"><ele>405.0</ele><time>2026-04-19T08:19:20.003Z</time></trkpt><trkpt lat="45.04129121424539" lon="7.414022655313262"><ele>407.66666666666663</ele><time>2026-04-19T08:19:21.003Z</time></trkpt><trkpt lat="45.04130512328304" lon="7.413810057898412"><ele>410.3333333333333</ele><time>2026-04-19T08:19:22.003Z</time></trkpt><trkpt lat="45.041319041207394" lon="7.413579032201213"><ele>413.0</ele><time>2026-04-19T08:19:23.003Z</time></trkpt><trkpt lat="45.041337165670164" lon="7.413330421660169"><ele>413.0</ele><time>2026-04-19T08:19:24.003Z</time></trkpt><trkpt lat="45.041357416434096" lon="7.413086833539085"><ele>413.0</ele><time>2026-04-19T08:19:25.003Z</time></trkpt><trkpt lat="45.04136868099581" lon="7.412861756407941"><ele>413.0</ele><time>2026-04-19T08:19:26.003Z</time></trkpt><trkpt lat="45.04136870822428" lon="7.412646216329498"><ele>410.25</ele><time>2026-04-19T08:19:26.998Z</time></trkpt><trkpt lat="45.04133702228789" lon="7.412447566441838"><ele>407.5</ele><time>2026-04-19T08:19:27.998Z</time></trkpt><trkpt lat="45.04126886996354" lon="7.412274781784143"><ele>404.75</ele><time>2026-04-19T08:19:28.999Z</time></trkpt><trkpt lat="45.0411671955052" lon="7.412116050872007"><ele>402.0</ele><time>2026-04-19T08:19:29.999Z</time></trkpt><trkpt lat="45.04104178152869" lon="7.411992104503395"><ele>401.66666666666663</ele><time>2026-04-19T08:19:30.999Z</time></trkpt><trkpt lat="45.040900273301766" lon="7.411906353450198"><ele>401.3333333333333</ele><time>2026-04-19T08:19:31.999Z</time></trkpt><trkpt lat="45.04074938323314" lon="7.411844778881753"><ele>401.0</ele><time>2026-04-19T08:19:32.999Z</time></trkpt><trkpt lat="45.04059584904206" lon="7.411767369015025"><ele>401.0</ele><time>2026-04-19T08:19:33.999Z</time></trkpt><trkpt lat="45.04043888593816" lon="7.411683011501334"><ele>401.0</ele><time>2026-04-19T08:19:34.999Z</time></trkpt><trkpt lat="45.04028262229243" lon="7.4116111527314725"><ele>401.0</ele><time>2026-04-19T08:19:35.999Z</time></trkpt><trkpt lat="45.04013354459003" lon="7.41152701176946"><ele>401.0</ele><time>2026-04-19T08:19:36.999Z</time></trkpt><trkpt lat="45.03997930931106" lon="7.411443176118861"><ele>401.0</ele><time>2026-04-19T08:19:37.999Z</time></trkpt><trkpt lat="45.03983032544213" lon="7.411364453679274"><ele>401.0</ele><time>2026-04-19T08:19:38.999Z</time></trkpt><trkpt lat="45.03968283766424" lon="7.411291218303625"><ele>399.0</ele><time>2026-04-19T08:19:39.999Z</time></trkpt><trkpt lat="45.039543512464405" lon="7.411221260383435"><ele>397.0</ele><time>2026-04-19T08:19:40.999Z</time></trkpt><trkpt lat="45.039412310153764" lon="7.411135475951394"><ele>395.0</ele><time>2026-04-19T08:19:41.999Z</time></trkpt><trkpt lat="45.03927552315124" lon="7.411077696140053"><ele>393.0</ele><time>2026-04-19T08:19:42.999Z</time></trkpt><trkpt lat="45.039138527116876" lon="7.411030250579337"><ele>395.0</ele><time>2026-04-19T08:19:43.999Z</time></trkpt><trkpt lat="45.038978750567324" lon="7.410983387911097"><ele>397.0</ele><time>2026-04-19T08:19:44.999Z</time></trkpt><trkpt lat="45.03880904562914" lon="7.410934644637449"><ele>399.0</ele><time>2026-04-19T08:19:46Z</time></trkpt><trkpt lat="45.038643963340014" lon="7.410889133600973"><ele>399.0</ele><time>2026-04-19T08:19:47Z</time></trkpt><trkpt lat="45.03847932826567" lon="7.410867105598886"><ele>399.0</ele><time>2026-04-19T08:19:48Z</time></trkpt><trkpt lat="45.03831653084877" lon="7.410819807133541"><ele>399.0</ele><time>2026-04-19T08:19:49Z</time></trkpt><trkpt lat="45.03815693998103" lon="7.410774423469264"><ele>399.66666666666663</ele><time>2026-04-19T08:19:50Z</time></trkpt><trkpt lat="45.03800248507692" lon="7.410737720367649"><ele>400.3333333333333</ele><time>2026-04-19T08:19:51Z</time></trkpt><trkpt lat="45.037841258239126" lon="7.410685256493551"><ele>401.0</ele><time>2026-04-19T08:19:52Z</time></trkpt><trkpt lat="45.03766696985879" lon="7.410677481114502"><ele>401.0</ele><time>2026-04-19T08:19:53Z</time></trkpt><trkpt lat="45.03749304815567" lon="7.410677683391794"><ele>401.0</ele><time>2026-04-19T08:19:54Z</time></trkpt><trkpt lat="45.037327231833565" lon="7.410671958972597"><ele>401.0</ele><time>2026-04-19T08:19:55Z</time></trkpt><trkpt lat="45.037164487869475" lon="7.4106523649559435"><ele>402.66666666666663</ele><time>2026-04-19T08:19:56Z</time></trkpt><trkpt lat="45.037000685467675" lon="7.410613873608839"><ele>404.33333333333337</ele><time>2026-04-19T08:19:57Z</time></trkpt><trkpt lat="45.03683910930465" lon="7.410557259621826"><ele>406.0</ele><time>2026-04-19T08:19:58Z</time></trkpt><trkpt lat="45.036680587638955" lon="7.410485876461666"><ele>403.33333333333337</ele><time>2026-04-19T08:19:59Z</time></trkpt><trkpt lat="45.03652326992391" lon="7.410391002579826"><ele>400.66666666666663</ele><time>2026-04-19T08:20:00Z</time></trkpt><trkpt lat="45.03636128174064" lon="7.4102760124733775"><ele>398.0</ele><time>2026-04-19T08:20:01Z</time></trkpt><trkpt lat="45.03619861271397" lon="7.4101646140043735"><ele>398.0</ele><time>2026-04-19T08:20:02Z</time></trkpt><trkpt lat="45.03604898125622" lon="7.410004876560111"><ele>398.0</ele><time>2026-04-19T08:20:03Z</time></trkpt><trkpt lat="45.035904530015706" lon="7.409831322666506"><ele>398.0</ele><time>2026-04-19T08:20:04.001Z</time></trkpt><trkpt lat="45.03576880868334" lon="7.409646455926142"><ele>403.66666666666663</ele><time>2026-04-19T08:20:05.001Z</time></trkpt><trkpt lat="45.03564553730161" lon="7.409450183745062"><ele>409.33333333333337</ele><time>2026-04-19T08:20:06.001Z</time></trkpt><trkpt lat="45.035531859656295" lon="7.409237344411935"><ele>415.0</ele><time>2026-04-19T08:20:07.001Z</time></trkpt><trkpt lat="45.03543301094076" lon="7.40902053281332"><ele>413.33333333333337</ele><time>2026-04-19T08:20:08.001Z</time></trkpt><trkpt lat="45.03537044341873" lon="7.408787334425944"><ele>411.66666666666663</ele><time>2026-04-19T08:20:09.001Z</time></trkpt><trkpt lat="45.035292272922" lon="7.408572568333088"><ele>410.0</ele><time>2026-04-19T08:20:10.001Z</time></trkpt><trkpt lat="45.03524498034561" lon="7.408346303662181"><ele>410.0</ele><time>2026-04-19T08:20:11.001Z</time></trkpt><trkpt lat="45.03518915010776" lon="7.408120397550228"><ele>410.0</ele><time>2026-04-19T08:20:12.001Z</time></trkpt><trkpt lat="45.03511048458633" lon="7.407909918458374"><ele>410.0</ele><time>2026-04-19T08:20:13.001Z</time></trkpt><trkpt lat="45.03500741372842" lon="7.407715389332279"><ele>412.66666666666663</ele><time>2026-04-19T08:20:14.001Z</time></trkpt><trkpt lat="45.03489589346007" lon="7.407534400103851"><ele>415.33333333333337</ele><time>2026-04-19T08:20:15.001Z</time></trkpt><trkpt lat="45.034778452152324" lon="7.407352011374165"><ele>418.0</ele><time>2026-04-19T08:20:16.001Z</time></trkpt><trkpt lat="45.0346641023957" lon="7.407163420614232"><ele>414.0</ele><time>2026-04-19T08:20:17.001Z</time></trkpt><trkpt lat="45.03454839406333" lon="7.406969965993548"><ele>410.0</ele><time>2026-04-19T08:20:18.001Z</time></trkpt><trkpt lat="45.034444922132735" lon="7.406759127469478"><ele>406.0</ele><time>2026-04-19T08:20:19.001Z</time></trkpt><trkpt lat="45.034317229673" lon="7.406577672287398"><ele>406.0</ele><time>2026-04-19T08:20:20.001Z</time></trkpt><trkpt lat="45.03420537493762" lon="7.406387204145765"><ele>406.0</ele><time>2026-04-19T08:20:21.001Z</time></trkpt><trkpt lat="45.0341238463147" lon="7.406196063879069"><ele>406.0</ele><time>2026-04-19T08:20:22.001Z</time></trkpt><trkpt lat="45.034052681698626" lon="7.406019039123057"><ele>401.6666666666667</ele><time>2026-04-19T08:20:23.001Z</time></trkpt><trkpt lat="45.0339834696651" lon="7.4058309962395565"><ele>397.33333333333337</ele><time>2026-04-19T08:20:24.001Z</time></trkpt><trkpt lat="45.03396022630894" lon="7.405611536596408"><ele>393.0</ele><time>2026-04-19T08:20:25.001Z</time></trkpt><trkpt lat="45.03395832068262" lon="7.405377839420566"><ele>391.66666666666663</ele><time>2026-04-19T08:20:26.001Z</time></trkpt><trkpt lat="45.03399005214176" lon="7.4051482456773305"><ele>390.3333333333333</ele><time>2026-04-19T08:20:27.001Z</time></trkpt><trkpt lat="45.0340514129328" lon="7.404929567247627"><ele>389.0</ele><time>2026-04-19T08:20:28.001Z</time></trkpt><trkpt lat="45.03413182802186" lon="7.404719046237059"><ele>391.66666666666663</ele><time>2026-04-19T08:20:29.001Z</time></trkpt><trkpt lat="45.03421776251305" lon="7.404524860326654"><ele>394.33333333333337</ele><time>2026-04-19T08:20:30.001Z</time></trkpt><trkpt lat="45.0343138578102" lon="7.404338715903252"><ele>397.0</ele><time>2026-04-19T08:20:31.001Z</time></trkpt><trkpt lat="45.034423697580294" lon="7.404193657545526"><ele>397.0</ele><time>2026-04-19T08:20:32.002Z</time></trkpt><trkpt lat="45.034544414869586" lon="7.404065689990998"><ele>397.0</ele><time>2026-04-19T08:20:33.002Z</time></trkpt><trkpt lat="45.03467832993953" lon="7.403948110779802"><ele>397.0</ele><time>2026-04-19T08:20:34.002Z</time></trkpt><trkpt lat="45.03480133684098" lon="7.403821312804123"><ele>396.33333333333337</ele><time>2026-04-19T08:20:35.002Z</time></trkpt><trkpt lat="45.03491081298583" lon="7.403661329310593"><ele>395.66666666666663</ele><time>2026-04-19T08:20:36.002Z</time></trkpt><trkpt lat="45.03500405014055" lon="7.403479290456419"><ele>395.0</ele><time>2026-04-19T08:20:37.002Z</time></trkpt><trkpt lat="45.03508439960102" lon="7.403270911059292"><ele>396.0</ele><time>2026-04-19T08:20:38.002Z</time></trkpt><trkpt lat="45.03515296947408" lon="7.4030446997657355"><ele>397.0</ele><time>2026-04-19T08:20:39.002Z</time></trkpt><trkpt lat="45.035209270212746" lon="7.402821388303504"><ele>398.0</ele><time>2026-04-19T08:20:40.002Z</time></trkpt><trkpt lat="45.03525667469009" lon="7.402584442144237"><ele>398.0</ele><time>2026-04-19T08:20:41.002Z</time></trkpt><trkpt lat="45.03530645906014" lon="7.4023358488282325"><ele>398.0</ele><time>2026-04-19T08:20:42.002Z</time></trkpt><trkpt lat="45.03536372278714" lon="7.402081699487661"><ele>398.0</ele><time>2026-04-19T08:20:43.002Z</time></trkpt><trkpt lat="45.03541543573137" lon="7.40183997827751"><ele>398.3333333333333</ele><time>2026-04-19T08:20:44.002Z</time></trkpt><trkpt lat="45.03546801348938" lon="7.401577831718135"><ele>398.66666666666663</ele><time>2026-04-19T08:20:45.002Z</time></trkpt><trkpt lat="45.035523133257534" lon="7.401338221386636"><ele>399.0</ele><time>2026-04-19T08:20:46.002Z</time></trkpt><trkpt lat="45.035579747443755" lon="7.401076201197983"><ele>399.0</ele><time>2026-04-19T08:20:47.002Z</time></trkpt><trkpt lat="45.035638531252516" lon="7.400822596423718"><ele>399.0</ele><time>2026-04-19T08:20:48.002Z</time></trkpt><trkpt lat="45.03570301615558" lon="7.400574743772895"><ele>399.0</ele><time>2026-04-19T08:20:49.002Z</time></trkpt><trkpt lat="45.0357671295228" lon="7.400320612659697"><ele>401.66666666666663</ele><time>2026-04-19T08:20:50.002Z</time></trkpt><trkpt lat="45.035830091946266" lon="7.400062777584088"><ele>404.3333333333333</ele><time>2026-04-19T08:20:51.002Z</time></trkpt><trkpt lat="45.03588765232693" lon="7.399805670917822"><ele>407.0</ele><time>2026-04-19T08:20:52.002Z</time></trkpt><trkpt lat="45.03594530306276" lon="7.399556889164164"><ele>407.0</ele><time>2026-04-19T08:20:53.002Z</time></trkpt><trkpt lat="45.03600112517222" lon="7.399314124580617"><ele>407.0</ele><time>2026-04-19T08:20:54.002Z</time></trkpt><trkpt lat="45.03606029828199" lon="7.39906972376042"><ele>407.0</ele><time>2026-04-19T08:20:55.002Z</time></trkpt><trkpt lat="45.03612194691736" lon="7.398832724343398"><ele>406.66666666666663</ele><time>2026-04-19T08:20:56.002Z</time></trkpt><trkpt lat="45.036189387973934" lon="7.398599145375159"><ele>406.33333333333337</ele><time>2026-04-19T08:20:57.002Z</time></trkpt><trkpt lat="45.036261768444774" lon="7.398373493354402"><ele>406.0</ele><time>2026-04-19T08:20:58.002Z</time></trkpt><trkpt lat="45.03634166777468" lon="7.398162932421936"><ele>405.6666666666667</ele><time>2026-04-19T08:20:59.002Z</time></trkpt><trkpt lat="45.03642421943137" lon="7.397961018790569"><ele>405.33333333333337</ele><time>2026-04-19T08:21:00.002Z</time></trkpt><trkpt lat="45.03650626947117" lon="7.397747631513462"><ele>405.0</ele><time>2026-04-19T08:21:01.002Z</time></trkpt><trkpt lat="45.036589755722474" lon="7.397542383974651"><ele>407.0</ele><time>2026-04-19T08:21:02.002Z</time></trkpt><trkpt lat="45.03666957333084" lon="7.397349753760507"><ele>409.0</ele><time>2026-04-19T08:21:03.002Z</time></trkpt><trkpt lat="45.03674580076843" lon="7.397152582909441"><ele>411.0</ele><time>2026-04-19T08:21:04.003Z</time></trkpt><trkpt lat="45.03681819180603" lon="7.396964960978941"><ele>411.0</ele><time>2026-04-19T08:21:05.003Z</time></trkpt><trkpt lat="45.0368928276806" lon="7.396773907835479"><ele>411.0</ele><time>2026-04-19T08:21:06.003Z</time></trkpt><trkpt lat="45.03696540535012" lon="7.396574929259065"><ele>411.0</ele><time>2026-04-19T08:21:07.003Z</time></trkpt><trkpt lat="45.03704305962804" lon="7.396370907043863"><ele>411.0</ele><time>2026-04-19T08:21:08.003Z</time></trkpt><trkpt lat="45.037126072870485" lon="7.396171081516624"><ele>411.0</ele><time>2026-04-19T08:21:09.003Z</time></trkpt><trkpt lat="45.03720489339068" lon="7.395964400298645"><ele>411.0</ele><time>2026-04-19T08:21:10.003Z</time></trkpt><trkpt lat="45.03726601683945" lon="7.395760374747977"><ele>411.0</ele><time>2026-04-19T08:21:11.003Z</time></trkpt><trkpt lat="45.03730052723219" lon="7.395567637508184"><ele>411.0</ele><time>2026-04-19T08:21:12.003Z</time></trkpt><trkpt lat="45.037309065063624" lon="7.395355809984754"><ele>411.0</ele><time>2026-04-19T08:21:13.003Z</time></trkpt><trkpt lat="45.0373027977817" lon="7.395118177791269"><ele>411.0</ele><time>2026-04-19T08:21:14.003Z</time></trkpt><trkpt lat="45.037279925736684" lon="7.394884141053865"><ele>411.0</ele><time>2026-04-19T08:21:15.003Z</time></trkpt><trkpt lat="45.03724214483295" lon="7.39464109591944"><ele>411.0</ele><time>2026-04-19T08:21:16.003Z</time></trkpt><trkpt lat="45.037189949491015" lon="7.394417206652495"><ele>411.5</ele><time>2026-04-19T08:21:17.003Z</time></trkpt><trkpt lat="45.03711644018235" lon="7.394227148560937"><ele>412.0</ele><time>2026-04-19T08:21:18.003Z</time></trkpt><trkpt lat="45.03703191530592" lon="7.3940787549578255"><ele>412.5</ele><time>2026-04-19T08:21:19.003Z</time></trkpt><trkpt lat="45.03694854185824" lon="7.3939459096340965"><ele>413.0</ele><time>2026-04-19T08:21:20.003Z</time></trkpt><trkpt lat="45.03686398331457" lon="7.3938209396637316"><ele>413.5</ele><time>2026-04-19T08:21:21.003Z</time></trkpt><trkpt lat="45.03677360448813" lon="7.393694558820584"><ele>414.0</ele><time>2026-04-19T08:21:22.003Z</time></trkpt><trkpt lat="45.036675855442134" lon="7.3935568274321835"><ele>414.5</ele><time>2026-04-19T08:21:23.003Z</time></trkpt><trkpt lat="45.03657568641634" lon="7.393411288736293"><ele>415.0</ele><time>2026-04-19T08:21:24.003Z</time></trkpt><trkpt lat="45.03648341785298" lon="7.393249089435436"><ele>415.0</ele><time>2026-04-19T08:21:25.003Z</time></trkpt><trkpt lat="45.03636445595012" lon="7.393108666232913"><ele>415.0</ele><time>2026-04-19T08:21:26.003Z</time></trkpt><trkpt lat="45.03626003356286" lon="7.392947187345596"><ele>415.0</ele><time>2026-04-19T08:21:27.003Z</time></trkpt><trkpt lat="45.0361591148008" lon="7.392774508787352"><ele>416.33333333333337</ele><time>2026-04-19T08:21:28.003Z</time></trkpt><trkpt lat="45.03608598754737" lon="7.392568502015076"><ele>417.66666666666663</ele><time>2026-04-19T08:21:29.003Z</time></trkpt><trkpt lat="45.0360199617749" lon="7.392364144689662"><ele>419.0</ele><time>2026-04-19T08:21:30.003Z</time></trkpt><trkpt lat="45.03595885316021" lon="7.392159082908323"><ele>419.66666666666663</ele><time>2026-04-19T08:21:31.003Z</time></trkpt><trkpt lat="45.035928699850096" lon="7.391929958540711"><ele>420.33333333333337</ele><time>2026-04-19T08:21:32.003Z</time></trkpt><trkpt lat="45.03590669565277" lon="7.391699823347511"><ele>421.0</ele><time>2026-04-19T08:21:32.998Z</time></trkpt><trkpt lat="45.035887481761435" lon="7.391474882352611"><ele>423.33333333333337</ele><time>2026-04-19T08:21:33.998Z</time></trkpt><trkpt lat="45.03586199119985" lon="7.391241552644559"><ele>425.66666666666663</ele><time>2026-04-19T08:21:34.999Z</time></trkpt><trkpt lat="45.03583920214793" lon="7.391007726178251"><ele>428.0</ele><time>2026-04-19T08:21:35.999Z</time></trkpt><trkpt lat="45.03581628766127" lon="7.390769571899355"><ele>425.3333333333333</ele><time>2026-04-19T08:21:36.999Z</time></trkpt><trkpt lat="45.03579302948091" lon="7.390523072971832"><ele>422.66666666666663</ele><time>2026-04-19T08:21:37.999Z</time></trkpt><trkpt lat="45.03577242953188" lon="7.390282741686151"><ele>420.0</ele><time>2026-04-19T08:21:38.999Z</time></trkpt><trkpt lat="45.03575347669935" lon="7.390045606293807"><ele>420.0</ele><time>2026-04-19T08:21:39.999Z</time></trkpt><trkpt lat="45.03574252957291" lon="7.3898029567810966"><ele>420.0</ele><time>2026-04-19T08:21:40.999Z</time></trkpt><trkpt lat="45.03574389046446" lon="7.389562835942273"><ele>420.0</ele><time>2026-04-19T08:21:41.999Z</time></trkpt><trkpt lat="45.035756304503124" lon="7.3893230686155364"><ele>421.66666666666663</ele><time>2026-04-19T08:21:42.999Z</time></trkpt><trkpt lat="45.03579011327393" lon="7.389083307552561"><ele>423.3333333333333</ele><time>2026-04-19T08:21:43.999Z</time></trkpt><trkpt lat="45.03584053872228" lon="7.388852048529271"><ele>425.0</ele><time>2026-04-19T08:21:44.999Z</time></trkpt><trkpt lat="45.03591314377499" lon="7.38862902370736"><ele>426.66666666666663</ele><time>2026-04-19T08:21:45.999Z</time></trkpt><trkpt lat="45.03599040873695" lon="7.388411615746646"><ele>428.33333333333337</ele><time>2026-04-19T08:21:46.999Z</time></trkpt><trkpt lat="45.03608065093825" lon="7.388200050375611"><ele>430.0</ele><time>2026-04-19T08:21:47.999Z</time></trkpt><trkpt lat="45.03618306344507" lon="7.388005812763963"><ele>431.0</ele><time>2026-04-19T08:21:48.999Z</time></trkpt><trkpt lat="45.036305110504294" lon="7.387826643284954"><ele>432.0</ele><time>2026-04-19T08:21:49.999Z</time></trkpt><trkpt lat="45.036438914178994" lon="7.387678630435489"><ele>433.0</ele><time>2026-04-19T08:21:51Z</time></trkpt><trkpt lat="45.03657899903051" lon="7.3875426303552"><ele>433.0</ele><time>2026-04-19T08:21:52Z</time></trkpt><trkpt lat="45.03672136474609" lon="7.387417980375092"><ele>433.0</ele><time>2026-04-19T08:21:53Z</time></trkpt><trkpt lat="45.036863228959284" lon="7.387297546817812"><ele>433.0</ele><time>2026-04-19T08:21:54Z</time></trkpt><trkpt lat="45.03700470460373" lon="7.387174515285817"><ele>435.6666666666667</ele><time>2026-04-19T08:21:55Z</time></trkpt><trkpt lat="45.037141400727286" lon="7.387051732089903"><ele>438.33333333333337</ele><time>2026-04-19T08:21:56Z</time></trkpt><trkpt lat="45.03728514944859" lon="7.38692026148294"><ele>441.0</ele><time>2026-04-19T08:21:57Z</time></trkpt><trkpt lat="45.03743369941929" lon="7.386780258698134"><ele>440.0</ele><time>2026-04-19T08:21:58Z</time></trkpt><trkpt lat="45.03758075101874" lon="7.3866512766692765"><ele>439.0</ele><time>2026-04-19T08:21:59Z</time></trkpt><trkpt lat="45.037730021361945" lon="7.386519601338307"><ele>438.0</ele><time>2026-04-19T08:22:00Z</time></trkpt><trkpt lat="45.037881980680595" lon="7.386385659204353"><ele>438.66666666666663</ele><time>2026-04-19T08:22:01Z</time></trkpt><trkpt lat="45.03803448981273" lon="7.386245506643684"><ele>439.3333333333333</ele><time>2026-04-19T08:22:02Z</time></trkpt><trkpt lat="45.03818273013722" lon="7.386111974813089"><ele>440.0</ele><time>2026-04-19T08:22:03Z</time></trkpt><trkpt lat="45.03833410308127" lon="7.385976652933605"><ele>440.0</ele><time>2026-04-19T08:22:04Z</time></trkpt><trkpt lat="45.03848608019782" lon="7.385831533934677"><ele>440.0</ele><time>2026-04-19T08:22:05Z</time></trkpt><trkpt lat="45.03862079060967" lon="7.38568476961458"><ele>440.0</ele><time>2026-04-19T08:22:06Z</time></trkpt><trkpt lat="45.03874635940397" lon="7.385518521318723"><ele>440.66666666666663</ele><time>2026-04-19T08:22:07Z</time></trkpt><trkpt lat="45.03885897863529" lon="7.385328184061614"><ele>441.33333333333337</ele><time>2026-04-19T08:22:08Z</time></trkpt><trkpt lat="45.03895684963294" lon="7.385118273462639"><ele>442.0</ele><time>2026-04-19T08:22:09.001Z</time></trkpt><trkpt lat="45.039046302231775" lon="7.384889727955289"><ele>443.0</ele><time>2026-04-19T08:22:10.001Z</time></trkpt><trkpt lat="45.03912155101563" lon="7.384664847495821"><ele>444.0</ele><time>2026-04-19T08:22:11.001Z</time></trkpt><trkpt lat="45.03919544099007" lon="7.384435800315701"><ele>445.0</ele><time>2026-04-19T08:22:12.001Z</time></trkpt><trkpt lat="45.03927412114512" lon="7.3842012485405295"><ele>445.0</ele><time>2026-04-19T08:22:13.001Z</time></trkpt><trkpt lat="45.0393543248365" lon="7.383965948821964"><ele>445.0</ele><time>2026-04-19T08:22:14.001Z</time></trkpt><trkpt lat="45.039434902026805" lon="7.383739820190399"><ele>445.0</ele><time>2026-04-19T08:22:15.001Z</time></trkpt><trkpt lat="45.03951869299365" lon="7.383507465557476"><ele>445.6666666666667</ele><time>2026-04-19T08:22:16.001Z</time></trkpt><trkpt lat="45.03959976339642" lon="7.383283901089718"><ele>446.33333333333337</ele><time>2026-04-19T08:22:17.001Z</time></trkpt><trkpt lat="45.03968153026852" lon="7.383044650061128"><ele>447.0</ele><time>2026-04-19T08:22:18.001Z</time></trkpt><trkpt lat="45.03975679211948" lon="7.382815731831611"><ele>448.33333333333337</ele><time>2026-04-19T08:22:19.001Z</time></trkpt><trkpt lat="45.03983895201271" lon="7.382576372447187"><ele>449.6666666666667</ele><time>2026-04-19T08:22:20.001Z</time></trkpt><trkpt lat="45.03991921296086" lon="7.382345518538267"><ele>451.0</ele><time>2026-04-19T08:22:21.001Z</time></trkpt><trkpt lat="45.040000998477986" lon="7.382110531732413"><ele>451.0</ele><time>2026-04-19T08:22:22.001Z</time></trkpt><trkpt lat="45.04008813101617" lon="7.381869644352153"><ele>451.0</ele><time>2026-04-19T08:22:23.001Z</time></trkpt><trkpt lat="45.040172820550204" lon="7.3816376769310015"><ele>451.0</ele><time>2026-04-19T08:22:24.001Z</time></trkpt><trkpt lat="45.04025415601679" lon="7.381402184957882"><ele>451.0</ele><time>2026-04-19T08:22:25.001Z</time></trkpt><trkpt lat="45.040334146300175" lon="7.381155789034483"><ele>451.0</ele><time>2026-04-19T08:22:26.001Z</time></trkpt><trkpt lat="45.04047765497361" lon="7.380684412828358"><ele>451.6666666666667</ele><time>2026-04-19T08:22:28.001Z</time></trkpt><trkpt lat="45.04055123150388" lon="7.380443235840685"><ele>452.33333333333337</ele><time>2026-04-19T08:22:29.001Z</time></trkpt><trkpt lat="45.04061132932429" lon="7.380207022158091"><ele>453.0</ele><time>2026-04-19T08:22:30.001Z</time></trkpt><trkpt lat="45.04066303864839" lon="7.37995499913519"><ele>453.0</ele><time>2026-04-19T08:22:31.001Z</time></trkpt><trkpt lat="45.04069946798598" lon="7.379707259384259"><ele>453.0</ele><time>2026-04-19T08:22:32.001Z</time></trkpt><trkpt lat="45.040738487866456" lon="7.379447064308378"><ele>453.0</ele><time>2026-04-19T08:22:33.001Z</time></trkpt><trkpt lat="45.04077650794853" lon="7.379197269482637"><ele>455.0</ele><time>2026-04-19T08:22:34.001Z</time></trkpt><trkpt lat="45.04081858522068" lon="7.378939994354839"><ele>457.0</ele><time>2026-04-19T08:22:35.001Z</time></trkpt><trkpt lat="45.04085988611255" lon="7.378694177042929"><ele>459.0</ele><time>2026-04-19T08:22:36.001Z</time></trkpt><trkpt lat="45.04091112514551" lon="7.37843929182624"><ele>459.33333333333337</ele><time>2026-04-19T08:22:37.002Z</time></trkpt><trkpt lat="45.04094771292186" lon="7.378196599430672"><ele>459.6666666666667</ele><time>2026-04-19T08:22:38.002Z</time></trkpt><trkpt lat="45.04098671616599" lon="7.377944928340592"><ele>460.0</ele><time>2026-04-19T08:22:39.002Z</time></trkpt><trkpt lat="45.04101757614227" lon="7.3777095049640975"><ele>460.6666666666667</ele><time>2026-04-19T08:22:40.002Z</time></trkpt><trkpt lat="45.041046272723335" lon="7.377489636708943"><ele>461.33333333333337</ele><time>2026-04-19T08:22:41.002Z</time></trkpt><trkpt lat="45.041067764929934" lon="7.377279138208442"><ele>462.0</ele><time>2026-04-19T08:22:42.002Z</time></trkpt><trkpt lat="45.04108029326106" lon="7.377075012115112"><ele>462.0</ele><time>2026-04-19T08:22:43.002Z</time></trkpt><trkpt lat="45.04108057608096" lon="7.376875412874761"><ele>462.0</ele><time>2026-04-19T08:22:44.002Z</time></trkpt><trkpt lat="45.04106789961215" lon="7.376683356618442"><ele>462.0</ele><time>2026-04-19T08:22:45.002Z</time></trkpt><trkpt lat="45.04104481069711" lon="7.376491847459343"><ele>462.0</ele><time>2026-04-19T08:22:46.002Z</time></trkpt><trkpt lat="45.04101045581653" lon="7.3762967046945915"><ele>462.0</ele><time>2026-04-19T08:22:47.002Z</time></trkpt><trkpt lat="45.04096688120057" lon="7.376104682573041"><ele>462.0</ele><time>2026-04-19T08:22:48.002Z</time></trkpt><trkpt lat="45.04091863397983" lon="7.375915545517487"><ele>462.0</ele><time>2026-04-19T08:22:49.002Z</time></trkpt><trkpt lat="45.040865803489716" lon="7.375732332596399"><ele>462.0</ele><time>2026-04-19T08:22:50.002Z</time></trkpt><trkpt lat="45.04081950938041" lon="7.375538504286714"><ele>464.0</ele><time>2026-04-19T08:22:51.002Z</time></trkpt><trkpt lat="45.040781991568" lon="7.375337316817704"><ele>466.0</ele><time>2026-04-19T08:22:52.002Z</time></trkpt><trkpt lat="45.04076392881261" lon="7.375145130816914"><ele>468.0</ele><time>2026-04-19T08:22:53.002Z</time></trkpt><trkpt lat="45.04075639944753" lon="7.374980176800597"><ele>470.0</ele><time>2026-04-19T08:22:54.002Z</time></trkpt><trkpt lat="45.04075832632362" lon="7.374839874078104"><ele>470.0</ele><time>2026-04-19T08:22:55.002Z</time></trkpt><trkpt lat="45.04077198294916" lon="7.374720587967876"><ele>470.0</ele><time>2026-04-19T08:22:56.002Z</time></trkpt><trkpt lat="45.04080172460926" lon="7.3746050398303895"><ele>470.0</ele><time>2026-04-19T08:22:57.002Z</time></trkpt><trkpt lat="45.04084135302228" lon="7.374475991087812"><ele>470.0</ele><time>2026-04-19T08:22:58.002Z</time></trkpt><trkpt lat="45.040890974260684" lon="7.374325285411308"><ele>470.0</ele><time>2026-04-19T08:22:59.002Z</time></trkpt><trkpt lat="45.04093777366418" lon="7.374180105728649"><ele>469.75</ele><time>2026-04-19T08:23:00.002Z</time></trkpt><trkpt lat="45.040989005459025" lon="7.374018247998661"><ele>469.5</ele><time>2026-04-19T08:23:01.002Z</time></trkpt><trkpt lat="45.04104298506493" lon="7.373837800842081"><ele>469.25</ele><time>2026-04-19T08:23:02.002Z</time></trkpt><trkpt lat="45.04109832910486" lon="7.373661721871462"><ele>469.0</ele><time>2026-04-19T08:23:03.002Z</time></trkpt><trkpt lat="45.041152888367954" lon="7.3734955002698825"><ele>470.0</ele><time>2026-04-19T08:23:04.002Z</time></trkpt><trkpt lat="45.0412064170535" lon="7.373331603290814"><ele>471.0</ele><time>2026-04-19T08:23:05.002Z</time></trkpt><trkpt lat="45.04126057798589" lon="7.373161226866536"><ele>472.0</ele><time>2026-04-19T08:23:06.002Z</time></trkpt><trkpt lat="45.0413138953757" lon="7.372991475104163"><ele>473.0</ele><time>2026-04-19T08:23:07.002Z</time></trkpt><trkpt lat="45.041374024188464" lon="7.372821017771952"><ele>473.0</ele><time>2026-04-19T08:23:08.002Z</time></trkpt><trkpt lat="45.04143872476125" lon="7.372645625137399"><ele>473.0</ele><time>2026-04-19T08:23:09.002Z</time></trkpt><trkpt lat="45.04150234943167" lon="7.372452714962021"><ele>473.0</ele><time>2026-04-19T08:23:10.003Z</time></trkpt><trkpt lat="45.04156750363006" lon="7.372252289341026"><ele>473.0</ele><time>2026-04-19T08:23:11.003Z</time></trkpt><trkpt lat="45.04163737191979" lon="7.372051194941659"><ele>473.0</ele><time>2026-04-19T08:23:12.003Z</time></trkpt><trkpt lat="45.041705814062176" lon="7.371844873710062"><ele>473.0</ele><time>2026-04-19T08:23:13.003Z</time></trkpt><trkpt lat="45.04178153977491" lon="7.371628085230107"><ele>473.0</ele><time>2026-04-19T08:23:14.003Z</time></trkpt><trkpt lat="45.04185357293044" lon="7.37140820623518"><ele>474.66666666666663</ele><time>2026-04-19T08:23:15.003Z</time></trkpt><trkpt lat="45.04192780593868" lon="7.371202413004264"><ele>476.33333333333337</ele><time>2026-04-19T08:23:16.003Z</time></trkpt><trkpt lat="45.04199204843643" lon="7.370996892476309"><ele>478.0</ele><time>2026-04-19T08:23:17.003Z</time></trkpt><trkpt lat="45.042061121639634" lon="7.370787007699457"><ele>478.0</ele><time>2026-04-19T08:23:18.003Z</time></trkpt><trkpt lat="45.042126566486814" lon="7.370587255400814"><ele>478.0</ele><time>2026-04-19T08:23:19.003Z</time></trkpt><trkpt lat="45.04218854567829" lon="7.370376534162364"><ele>478.0</ele><time>2026-04-19T08:23:20.003Z</time></trkpt><trkpt lat="45.04225033674481" lon="7.370169933587481"><ele>479.33333333333337</ele><time>2026-04-19T08:23:21.003Z</time></trkpt><trkpt lat="45.042298451543274" lon="7.369959689337226"><ele>480.66666666666663</ele><time>2026-04-19T08:23:22.003Z</time></trkpt><trkpt lat="45.04233011957174" lon="7.369744603582299"><ele>482.0</ele><time>2026-04-19T08:23:23.003Z</time></trkpt><trkpt lat="45.04235041880118" lon="7.369521471722442"><ele>483.0</ele><time>2026-04-19T08:23:24.003Z</time></trkpt><trkpt lat="45.042348700440854" lon="7.369303547354271"><ele>484.0</ele><time>2026-04-19T08:23:25.003Z</time></trkpt><trkpt lat="45.04233655076172" lon="7.369089116940266"><ele>485.0</ele><time>2026-04-19T08:23:26.003Z</time></trkpt><trkpt lat="45.04231584032438" lon="7.368891310663879"><ele>486.0</ele><time>2026-04-19T08:23:27.003Z</time></trkpt><trkpt lat="45.04229441026957" lon="7.368714793266507"><ele>486.0</ele><time>2026-04-19T08:23:28.003Z</time></trkpt><trkpt lat="45.042272822395184" lon="7.3685607794365175"><ele>486.0</ele><time>2026-04-19T08:23:29.003Z</time></trkpt><trkpt lat="45.04226867913779" lon="7.368418002356664"><ele>486.0</ele><time>2026-04-19T08:23:30.003Z</time></trkpt><trkpt lat="45.042291572641254" lon="7.368287258314554"><ele>486.0</ele><time>2026-04-19T08:23:31.003Z</time></trkpt><trkpt lat="45.042335196371056" lon="7.368167028818658"><ele>486.0</ele><time>2026-04-19T08:23:32.003Z</time></trkpt><trkpt lat="45.042355262166524" lon="7.368039245869197"><ele>486.0</ele><time>2026-04-19T08:23:33.003Z</time></trkpt><trkpt lat="45.0423323999905" lon="7.3679271686507715"><ele>486.0</ele><time>2026-04-19T08:23:34.003Z</time></trkpt><trkpt lat="45.042282499019144" lon="7.367815266766946"><ele>486.0</ele><time>2026-04-19T08:23:35.003Z</time></trkpt><trkpt lat="45.04221805291588" lon="7.367701850080342"><ele>486.0</ele><time>2026-04-19T08:23:36.003Z</time></trkpt><trkpt lat="45.042155119330424" lon="7.367562817876074"><ele>486.0</ele><time>2026-04-19T08:23:37.003Z</time></trkpt><trkpt lat="45.04211645648366" lon="7.367391125751046"><ele>486.0</ele><time>2026-04-19T08:23:38.003Z</time></trkpt><trkpt lat="45.04209430302819" lon="7.367190151469688"><ele>486.0</ele><time>2026-04-19T08:23:38.998Z</time></trkpt><trkpt lat="45.042073714040264" lon="7.36697818027774"><ele>486.0</ele><time>2026-04-19T08:23:39.998Z</time></trkpt><trkpt lat="45.04204877356691" lon="7.3667568212933014"><ele>486.0</ele><time>2026-04-19T08:23:40.999Z</time></trkpt><trkpt lat="45.042018090142186" lon="7.36653177325601"><ele>486.0</ele><time>2026-04-19T08:23:41.999Z</time></trkpt><trkpt lat="45.041984032357085" lon="7.366294834499695"><ele>486.0</ele><time>2026-04-19T08:23:42.999Z</time></trkpt><trkpt lat="45.04195428956502" lon="7.366055405201781"><ele>486.33333333333337</ele><time>2026-04-19T08:23:43.999Z</time></trkpt><trkpt lat="45.041925272822276" lon="7.365817475993807"><ele>486.6666666666667</ele><time>2026-04-19T08:23:44.999Z</time></trkpt><trkpt lat="45.04189214957859" lon="7.365574414005004"><ele>487.0</ele><time>2026-04-19T08:23:45.999Z</time></trkpt><trkpt lat="45.041865227127275" lon="7.3653361188182975"><ele>487.33333333333337</ele><time>2026-04-19T08:23:46.999Z</time></trkpt><trkpt lat="45.04183498975983" lon="7.365103453108339"><ele>487.66666666666663</ele><time>2026-04-19T08:23:47.999Z</time></trkpt><trkpt lat="45.04180491021157" lon="7.364874480225509"><ele>488.0</ele><time>2026-04-19T08:23:48.999Z</time></trkpt><trkpt lat="45.04177451233575" lon="7.364662419922197"><ele>488.75</ele><time>2026-04-19T08:23:49.999Z</time></trkpt><trkpt lat="45.041746112108655" lon="7.364466067930362"><ele>489.5</ele><time>2026-04-19T08:23:50.999Z</time></trkpt><trkpt lat="45.04172918182021" lon="7.364295185409843"><ele>490.25</ele><time>2026-04-19T08:23:51.999Z</time></trkpt><trkpt lat="45.04172382715065" lon="7.364145029293615"><ele>491.0</ele><time>2026-04-19T08:23:52.999Z</time></trkpt><trkpt lat="45.041731294383865" lon="7.364016541757652"><ele>491.0</ele><time>2026-04-19T08:23:53.999Z</time></trkpt><trkpt lat="45.04174787831094" lon="7.36392071314817"><ele>491.0</ele><time>2026-04-19T08:23:54.999Z</time></trkpt><trkpt lat="45.041735558225845" lon="7.363832149788465"><ele>491.0</ele><time>2026-04-19T08:23:55.999Z</time></trkpt><trkpt lat="45.041679888028376" lon="7.363653812926404"><ele>491.0</ele><time>2026-04-19T08:23:58Z</time></trkpt><trkpt lat="45.041635713419076" lon="7.363526166655592"><ele>491.0</ele><time>2026-04-19T08:23:59Z</time></trkpt><trkpt lat="45.04161850159981" lon="7.36337502268269"><ele>491.4</ele><time>2026-04-19T08:24:00Z</time></trkpt><trkpt lat="45.04159705860735" lon="7.363209867326462"><ele>491.8</ele><time>2026-04-19T08:24:01Z</time></trkpt><trkpt lat="45.0415781812164" lon="7.363064601693247"><ele>492.19999999999993</ele><time>2026-04-19T08:24:02Z</time></trkpt><trkpt lat="45.041562584945034" lon="7.362944583809755"><ele>492.59999999999997</ele><time>2026-04-19T08:24:03Z</time></trkpt><trkpt lat="45.04155047001311" lon="7.362847946833214"><ele>493.0</ele><time>2026-04-19T08:24:04Z</time></trkpt><trkpt lat="45.04142720668583" lon="7.362788889009521"><ele>493.1666666666667</ele><time>2026-04-19T08:24:05Z</time></trkpt><trkpt lat="45.04141849752887" lon="7.362691941666784"><ele>493.33333333333337</ele><time>2026-04-19T08:24:07Z</time></trkpt><trkpt lat="45.04144060038138" lon="7.362585935464457"><ele>493.5</ele><time>2026-04-19T08:27:31.003Z</time></trkpt><trkpt lat="45.041417526807535" lon="7.362432179301129"><ele>493.66666666666663</ele><time>2026-04-19T08:27:33.003Z</time></trkpt><trkpt lat="45.04142465438633" lon="7.362332377801094"><ele>493.8333333333333</ele><time>2026-04-19T08:27:35.003Z</time></trkpt><trkpt lat="45.041467134512644" lon="7.362194460072576"><ele>494.0</ele><time>2026-04-19T08:27:37.003Z</time></trkpt><trkpt lat="45.041455188849085" lon="7.362099055927083"><ele>494.16666666666663</ele><time>2026-04-19T08:27:38.003Z</time></trkpt><trkpt lat="45.04142612457658" lon="7.361987892106694"><ele>494.3333333333333</ele><time>2026-04-19T08:27:39.003Z</time></trkpt><trkpt lat="45.041414692893866" lon="7.361870658984279"><ele>494.5</ele><time>2026-04-19T08:27:40.003Z</time></trkpt><trkpt lat="45.04139820043555" lon="7.3617516731749895"><ele>494.66666666666663</ele><time>2026-04-19T08:27:41.003Z</time></trkpt><trkpt lat="45.04138662082921" lon="7.361626932082539"><ele>494.8333333333333</ele><time>2026-04-19T08:27:42.003Z</time></trkpt><trkpt lat="45.04139375062706" lon="7.361496132468895"><ele>495.0</ele><time>2026-04-19T08:27:43.003Z</time></trkpt><trkpt lat="45.04143011659036" lon="7.361372130191413"><ele>495.42857142857133</ele><time>2026-04-19T08:27:44.003Z</time></trkpt><trkpt lat="45.041467729884424" lon="7.361255523485233"><ele>495.85714285714283</ele><time>2026-04-19T08:27:45.003Z</time></trkpt><trkpt lat="45.04148192411873" lon="7.361149607573026"><ele>496.2857142857142</ele><time>2026-04-19T08:27:46.003Z</time></trkpt><trkpt lat="45.04147003761004" lon="7.361055295449038"><ele>496.71428571428567</ele><time>2026-04-19T08:27:47.003Z</time></trkpt><trkpt lat="45.0414292990356" lon="7.36098603714333"><ele>497.1428571428571</ele><time>2026-04-19T08:27:48.003Z</time></trkpt><trkpt lat="45.04136626321612" lon="7.360935478445187"><ele>497.57142857142856</ele><time>2026-04-19T08:27:49.003Z</time></trkpt><trkpt lat="45.04130976461609" lon="7.360865002575476"><ele>498.0</ele><time>2026-04-19T08:27:50.003Z</time></trkpt><trkpt lat="45.04126021417666" lon="7.360764000453137"><ele>498.0</ele><time>2026-04-19T08:27:51Z</time></trkpt><trkpt lat="45.04126403595996" lon="7.360598300575635"><ele>498.0</ele><time>2026-04-19T08:27:52Z</time></trkpt><trkpt lat="45.04124041804231" lon="7.360432994957606"><ele>498.0</ele><time>2026-04-19T08:27:53Z</time></trkpt><trkpt lat="45.04119802149616" lon="7.360265431462482"><ele>498.0</ele><time>2026-04-19T08:27:54Z</time></trkpt><trkpt lat="45.04117144091615" lon="7.3600799518262505"><ele>498.0</ele><time>2026-04-19T08:27:55Z</time></trkpt><trkpt lat="45.04111585748628" lon="7.359892133545925"><ele>498.0</ele><time>2026-04-19T08:27:56Z</time></trkpt><trkpt lat="45.04106398658372" lon="7.3596901798743595"><ele>498.0</ele><time>2026-04-19T08:27:57Z</time></trkpt><trkpt lat="45.041009947317235" lon="7.35947765934782"><ele>498.0</ele><time>2026-04-19T08:27:58Z</time></trkpt><trkpt lat="45.040952904633286" lon="7.359264897569237"><ele>498.0</ele><time>2026-04-19T08:27:59Z</time></trkpt><trkpt lat="45.0408970504757" lon="7.359055142781794"><ele>498.0</ele><time>2026-04-19T08:28:00Z</time></trkpt><trkpt lat="45.040841001001255" lon="7.358851971891868"><ele>496.0</ele><time>2026-04-19T08:28:01Z</time></trkpt><trkpt lat="45.04078315215745" lon="7.358645630477139"><ele>494.0</ele><time>2026-04-19T08:28:02Z</time></trkpt><trkpt lat="45.04073198481927" lon="7.358443283085396"><ele>492.0</ele><time>2026-04-19T08:28:03Z</time></trkpt><trkpt lat="45.04068151155509" lon="7.358253647585273"><ele>492.0</ele><time>2026-04-19T08:28:04Z</time></trkpt><trkpt lat="45.0406331170665" lon="7.358077339283775"><ele>492.0</ele><time>2026-04-19T08:28:05Z</time></trkpt><trkpt lat="45.04058701019293" lon="7.3579093942795"><ele>492.0</ele><time>2026-04-19T08:28:06Z</time></trkpt><trkpt lat="45.0405401472027" lon="7.357744148353155"><ele>492.0</ele><time>2026-04-19T08:28:07Z</time></trkpt><trkpt lat="45.040498818675815" lon="7.357576968050922"><ele>492.5</ele><time>2026-04-19T08:28:08Z</time></trkpt><trkpt lat="45.0404623365736" lon="7.357411221869128"><ele>493.0</ele><time>2026-04-19T08:28:09Z</time></trkpt><trkpt lat="45.04043470299186" lon="7.357245152941909"><ele>493.5</ele><time>2026-04-19T08:28:10Z</time></trkpt><trkpt lat="45.04041715374502" lon="7.357075307404904"><ele>494.0</ele><time>2026-04-19T08:28:11Z</time></trkpt><trkpt lat="45.04040314934271" lon="7.356900449867915"><ele>494.6</ele><time>2026-04-19T08:28:12Z</time></trkpt><trkpt lat="45.04039793941689" lon="7.356731973383582"><ele>495.2</ele><time>2026-04-19T08:28:13Z</time></trkpt><trkpt lat="45.04039302530777" lon="7.356577805064599"><ele>495.80000000000007</ele><time>2026-04-19T08:28:14Z</time></trkpt><trkpt lat="45.04039615432506" lon="7.356427506079572"><ele>496.40000000000003</ele><time>2026-04-19T08:28:15Z</time></trkpt><trkpt lat="45.040396703756684" lon="7.356286066907102"><ele>497.0</ele><time>2026-04-19T08:28:16Z</time></trkpt><trkpt lat="45.04040194797805" lon="7.356142530340189"><ele>497.3333333333333</ele><time>2026-04-19T08:28:17Z</time></trkpt><trkpt lat="45.04040506125452" lon="7.356005242998457"><ele>497.66666666666663</ele><time>2026-04-19T08:28:18Z</time></trkpt><trkpt lat="45.040399343486506" lon="7.35586735436801"><ele>498.0</ele><time>2026-04-19T08:28:19Z</time></trkpt><trkpt lat="45.04040130160834" lon="7.3557369463394116"><ele>498.33333333333337</ele><time>2026-04-19T08:28:20Z</time></trkpt><trkpt lat="45.04040142435129" lon="7.355623773529497"><ele>498.6666666666667</ele><time>2026-04-19T08:28:21Z</time></trkpt><trkpt lat="45.04039918877873" lon="7.355522934729076"><ele>499.0</ele><time>2026-04-19T08:28:22Z</time></trkpt><trkpt lat="45.04040073356513" lon="7.355397066629881"><ele>500.0</ele><time>2026-04-19T08:28:24Z</time></trkpt><trkpt lat="45.04025393158458" lon="7.355311075064628"><ele>501.0</ele><time>2026-04-19T08:30:43.001Z</time></trkpt><trkpt lat="45.04031510515149" lon="7.355521053313793"><ele>502.0</ele><time>2026-04-19T08:30:55.001Z</time></trkpt><trkpt lat="45.040302458767464" lon="7.355431875614833"><ele>503.0</ele><time>2026-04-19T08:31:02.002Z</time></trkpt><trkpt lat="45.04028471542275" lon="7.355332653820937"><ele>502.99999999999994</ele><time>2026-04-19T08:31:05.002Z</time></trkpt><trkpt lat="45.04023003296612" lon="7.355468201065102"><ele>503.0</ele><time>2026-04-19T08:31:48.003Z</time></trkpt><trkpt lat="45.04024450712106" lon="7.355340002929036"><ele>503.0</ele><time>2026-04-19T08:34:10.001Z</time></trkpt><trkpt lat="45.04033386962426" lon="7.35527647878452"><ele>503.0</ele><time>2026-04-19T08:34:13.001Z</time></trkpt><trkpt lat="45.040371516839244" lon="7.35519515638566"><ele>502.99999999999994</ele><time>2026-04-19T08:38:49Z</time></trkpt><trkpt lat="45.040377098591435" lon="7.355088472214654"><ele>503.0</ele><time>2026-04-19T08:38:54Z</time></trkpt><trkpt lat="45.040446083651084" lon="7.355067971430616"><ele>503.0</ele><time>2026-04-19T08:39:04Z</time></trkpt><trkpt lat="45.04052536095177" lon="7.355001158576144"><ele>502.99999999999994</ele><time>2026-04-19T08:39:24.001Z</time></trkpt><trkpt lat="45.04049270677768" lon="7.354828837467957"><ele>502.99999999999994</ele><time>2026-04-19T08:39:26.001Z</time></trkpt><trkpt lat="45.040433438315894" lon="7.354757465553841"><ele>503.0</ele><time>2026-04-19T08:39:27.001Z</time></trkpt><trkpt lat="45.04033180394288" lon="7.354726492905178"><ele>503.0</ele><time>2026-04-19T08:39:28.001Z</time></trkpt><trkpt lat="45.04022608905759" lon="7.354694916511829"><ele>503.2</ele><time>2026-04-19T08:39:29.001Z</time></trkpt><trkpt lat="45.040140245602544" lon="7.3546649977335266"><ele>503.4</ele><time>2026-04-19T08:39:30.001Z</time></trkpt><trkpt lat="45.04004396824705" lon="7.354627174122442"><ele>503.59999999999997</ele><time>2026-04-19T08:39:31.001Z</time></trkpt><trkpt lat="45.03994783030638" lon="7.354560726904271"><ele>503.79999999999995</ele><time>2026-04-19T08:39:32.001Z</time></trkpt><trkpt lat="45.03984479520923" lon="7.354516171188699"><ele>504.0</ele><time>2026-04-19T08:39:33.001Z</time></trkpt><trkpt lat="45.03974335347089" lon="7.354471558624848"><ele>504.2</ele><time>2026-04-19T08:39:34.001Z</time></trkpt><trkpt lat="45.03964038754171" lon="7.354422981773682"><ele>504.4</ele><time>2026-04-19T08:39:35.001Z</time></trkpt><trkpt lat="45.039526783869526" lon="7.354400688181027"><ele>504.6</ele><time>2026-04-19T08:39:36.001Z</time></trkpt><trkpt lat="45.03942328573361" lon="7.354363035318097"><ele>504.8</ele><time>2026-04-19T08:39:37.001Z</time></trkpt><trkpt lat="45.03932133995184" lon="7.354332916899578"><ele>505.0</ele><time>2026-04-19T08:39:38.001Z</time></trkpt><trkpt lat="45.03921749130778" lon="7.35432894428097"><ele>504.6</ele><time>2026-04-19T08:39:39.001Z</time></trkpt><trkpt lat="45.039118836603585" lon="7.354303289770399"><ele>504.2</ele><time>2026-04-19T08:39:40.001Z</time></trkpt><trkpt lat="45.03900860784258" lon="7.354264415167178"><ele>503.79999999999995</ele><time>2026-04-19T08:39:41.001Z</time></trkpt><trkpt lat="45.038897636457136" lon="7.354246837496223"><ele>503.4</ele><time>2026-04-19T08:39:42.001Z</time></trkpt><trkpt lat="45.03881570528534" lon="7.354210316959537"><ele>503.0</ele><time>2026-04-19T08:39:43.001Z</time></trkpt><trkpt lat="45.03872464512944" lon="7.354165758420983"><ele>503.0</ele><time>2026-04-19T08:39:44.001Z</time></trkpt><trkpt lat="45.03864346755304" lon="7.354150347238655"><ele>502.99999999999994</ele><time>2026-04-19T08:39:45.001Z</time></trkpt><trkpt lat="45.03856931382421" lon="7.354121770564811"><ele>502.99999999999994</ele><time>2026-04-19T08:39:46.001Z</time></trkpt><trkpt lat="45.03847238937464" lon="7.354099775598674"><ele>503.0</ele><time>2026-04-19T08:39:47.001Z</time></trkpt><trkpt lat="45.03837588917226" lon="7.354075933588701"><ele>503.0</ele><time>2026-04-19T08:39:48.001Z</time></trkpt><trkpt lat="45.03827814172787" lon="7.354050413425859"><ele>502.79999999999995</ele><time>2026-04-19T08:39:49.001Z</time></trkpt><trkpt lat="45.03818423216092" lon="7.354017471773043"><ele>502.59999999999997</ele><time>2026-04-19T08:39:50.001Z</time></trkpt><trkpt lat="45.038103248632915" lon="7.353999442552199"><ele>502.40000000000003</ele><time>2026-04-19T08:39:51.001Z</time></trkpt><trkpt lat="45.0380131930578" lon="7.353969217706879"><ele>502.20000000000005</ele><time>2026-04-19T08:39:53.001Z</time></trkpt><trkpt lat="45.03798636900377" lon="7.353841644836303"><ele>502.0</ele><time>2026-04-19T08:39:57.002Z</time></trkpt><trkpt lat="45.03799147931031" lon="7.353712102065407"><ele>502.40000000000003</ele><time>2026-04-19T08:39:58.002Z</time></trkpt><trkpt lat="45.03799657709904" lon="7.353582876537088"><ele>502.80000000000007</ele><time>2026-04-19T08:39:59.002Z</time></trkpt><trkpt lat="45.03798583790983" lon="7.353437849221945"><ele>503.2</ele><time>2026-04-19T08:40:00.002Z</time></trkpt><trkpt lat="45.038006950278145" lon="7.3532869745071565"><ele>503.6</ele><time>2026-04-19T08:40:01.002Z</time></trkpt><trkpt lat="45.03800993916922" lon="7.353169117313713"><ele>504.0</ele><time>2026-04-19T08:40:02.002Z</time></trkpt><trkpt lat="45.038003711992694" lon="7.3530614985505185"><ele>505.0</ele><time>2026-04-19T08:40:03.002Z</time></trkpt><trkpt lat="45.03800624422597" lon="7.352918777302269"><ele>506.0</ele><time>2026-04-19T08:40:05.002Z</time></trkpt><trkpt lat="45.0380025183628" lon="7.352828128887476"><ele>507.0</ele><time>2026-04-19T08:40:08.002Z</time></trkpt><trkpt lat="45.03785828621748" lon="7.352780168963457"><ele>508.0</ele><time>2026-04-19T08:40:12.002Z</time></trkpt><trkpt lat="45.03776177487104" lon="7.352803946258521"><ele>509.0</ele><time>2026-04-19T08:40:13.002Z</time></trkpt><trkpt lat="45.037655599450275" lon="7.352811903496434"><ele>509.0</ele><time>2026-04-19T08:40:14.002Z</time></trkpt><trkpt lat="45.037533992109154" lon="7.352806472412895"><ele>509.0</ele><time>2026-04-19T08:40:15.002Z</time></trkpt><trkpt lat="45.037401500452546" lon="7.352794040342342"><ele>509.0</ele><time>2026-04-19T08:40:16.002Z</time></trkpt><trkpt lat="45.0372655212701" lon="7.352777671494571"><ele>509.0</ele><time>2026-04-19T08:40:17.002Z</time></trkpt><trkpt lat="45.037130200802466" lon="7.3527557132955454"><ele>508.4</ele><time>2026-04-19T08:40:18.002Z</time></trkpt><trkpt lat="45.03700290502224" lon="7.352735258929921"><ele>507.79999999999995</ele><time>2026-04-19T08:40:19.002Z</time></trkpt><trkpt lat="45.036885578029306" lon="7.352729816333053"><ele>507.20000000000005</ele><time>2026-04-19T08:40:20.002Z</time></trkpt><trkpt lat="45.03678073027993" lon="7.352722849957255"><ele>506.6</ele><time>2026-04-19T08:40:21.002Z</time></trkpt><trkpt lat="45.036686844071085" lon="7.352718763126388"><ele>506.0</ele><time>2026-04-19T08:40:22.002Z</time></trkpt><trkpt lat="45.03660224048233" lon="7.3527073781971"><ele>505.16666666666663</ele><time>2026-04-19T08:40:23.002Z</time></trkpt><trkpt lat="45.03652789737146" lon="7.352715261962069"><ele>504.3333333333333</ele><time>2026-04-19T08:40:24.002Z</time></trkpt><trkpt lat="45.036463449609386" lon="7.352716148113125"><ele>503.5</ele><time>2026-04-19T08:40:25.002Z</time></trkpt><trkpt lat="45.03640010002307" lon="7.352710326153164"><ele>502.66666666666663</ele><time>2026-04-19T08:40:26.002Z</time></trkpt><trkpt lat="45.03632531387452" lon="7.35269250395417"><ele>501.8333333333333</ele><time>2026-04-19T08:40:26.998Z</time></trkpt><trkpt lat="45.03620111168383" lon="7.3526827691175205"><ele>501.0</ele><time>2026-04-19T08:40:28.998Z</time></trkpt><trkpt lat="45.03613291874769" lon="7.35266611360806"><ele>501.0</ele><time>2026-04-19T08:40:29.998Z</time></trkpt><trkpt lat="45.03604197495909" lon="7.35264672512701"><ele>501.0</ele><time>2026-04-19T08:40:30.998Z</time></trkpt><trkpt lat="45.035967516795665" lon="7.352635173896169"><ele>501.0</ele><time>2026-04-19T08:40:31.998Z</time></trkpt><trkpt lat="45.03589654774384" lon="7.352602535842374"><ele>501.0</ele><time>2026-04-19T08:40:32.998Z</time></trkpt><trkpt lat="45.035803276580374" lon="7.352530694337027"><ele>501.0</ele><time>2026-04-19T08:40:34.998Z</time></trkpt><trkpt lat="45.035779827960894" lon="7.352400015425423"><ele>501.0</ele><time>2026-04-19T08:40:35.998Z</time></trkpt><trkpt lat="45.035763212279676" lon="7.352265205320205"><ele>499.5</ele><time>2026-04-19T08:40:36.998Z</time></trkpt><trkpt lat="45.03574667054426" lon="7.352114162327468"><ele>498.0</ele><time>2026-04-19T08:40:37.998Z</time></trkpt><trkpt lat="45.035732953952845" lon="7.351943080269758"><ele>496.5</ele><time>2026-04-19T08:40:38.998Z</time></trkpt><trkpt lat="45.035721349272876" lon="7.351765832541874"><ele>495.0</ele><time>2026-04-19T08:40:39.998Z</time></trkpt><trkpt lat="45.0357110085684" lon="7.351606951899017"><ele>495.0</ele><time>2026-04-19T08:40:40.998Z</time></trkpt><trkpt lat="45.035699247936826" lon="7.351465621488393"><ele>495.0</ele><time>2026-04-19T08:40:41.998Z</time></trkpt><trkpt lat="45.035694121548126" lon="7.351334845151557"><ele>495.0</ele><time>2026-04-19T08:40:42.998Z</time></trkpt><trkpt lat="45.03569300668252" lon="7.3512279156254055"><ele>495.0</ele><time>2026-04-19T08:40:43.998Z</time></trkpt><trkpt lat="45.0357032547607" lon="7.351074207403101"><ele>495.0</ele><time>2026-04-19T08:40:45.999Z</time></trkpt><trkpt lat="45.0357146780608" lon="7.350950088596428"><ele>495.1666666666667</ele><time>2026-04-19T08:40:47.999Z</time></trkpt><trkpt lat="45.035719509017376" lon="7.350834993613737"><ele>495.33333333333337</ele><time>2026-04-19T08:40:49.999Z</time></trkpt><trkpt lat="45.03572808070547" lon="7.350723815609372"><ele>495.5</ele><time>2026-04-19T08:40:51.999Z</time></trkpt><trkpt lat="45.035742804762556" lon="7.350572950286386"><ele>495.6666666666667</ele><time>2026-04-19T08:40:53.999Z</time></trkpt><trkpt lat="45.03574688265185" lon="7.3504654000318315"><ele>495.83333333333337</ele><time>2026-04-19T08:40:54.999Z</time></trkpt><trkpt lat="45.035744098854295" lon="7.350336645877512"><ele>496.0</ele><time>2026-04-19T08:40:55.999Z</time></trkpt><trkpt lat="45.03573829876917" lon="7.350201059996308"><ele>496.25</ele><time>2026-04-19T08:40:56.999Z</time></trkpt><trkpt lat="45.03573105417234" lon="7.350056798257665"><ele>496.5</ele><time>2026-04-19T08:40:57.999Z</time></trkpt><trkpt lat="45.03573248414647" lon="7.349899637382663"><ele>496.75</ele><time>2026-04-19T08:40:58.999Z</time></trkpt><trkpt lat="45.035739405633876" lon="7.349733127358281"><ele>497.0</ele><time>2026-04-19T08:40:59.999Z</time></trkpt><trkpt lat="45.03575575102757" lon="7.349566227532007"><ele>497.5</ele><time>2026-04-19T08:41:00.999Z</time></trkpt><trkpt lat="45.03577394294666" lon="7.349399564003597"><ele>498.0</ele><time>2026-04-19T08:41:01.999Z</time></trkpt><trkpt lat="45.03579333350052" lon="7.349232040671869"><ele>498.5</ele><time>2026-04-19T08:41:02.999Z</time></trkpt><trkpt lat="45.03579236656129" lon="7.349058311182954"><ele>499.0</ele><time>2026-04-19T08:41:03.999Z</time></trkpt><trkpt lat="45.03579301481635" lon="7.348878377785299"><ele>499.5</ele><time>2026-04-19T08:41:05Z</time></trkpt><trkpt lat="45.03579444306673" lon="7.348700377168376"><ele>500.0</ele><time>2026-04-19T08:41:06Z</time></trkpt><trkpt lat="45.03580116158431" lon="7.348517122166486"><ele>500.5</ele><time>2026-04-19T08:41:07Z</time></trkpt><trkpt lat="45.03580720561969" lon="7.348325632366176"><ele>501.0</ele><time>2026-04-19T08:41:08Z</time></trkpt><trkpt lat="45.03581198374847" lon="7.348117507277739"><ele>502.33333333333337</ele><time>2026-04-19T08:41:09Z</time></trkpt><trkpt lat="45.035817620910315" lon="7.347903613509762"><ele>503.6666666666667</ele><time>2026-04-19T08:41:10Z</time></trkpt><trkpt lat="45.03582260916584" lon="7.347685120414918"><ele>505.0</ele><time>2026-04-19T08:41:11Z</time></trkpt><trkpt lat="45.03582433167148" lon="7.347476686222745"><ele>505.0</ele><time>2026-04-19T08:41:12Z</time></trkpt><trkpt lat="45.03582812381695" lon="7.347293465655644"><ele>505.0</ele><time>2026-04-19T08:41:13Z</time></trkpt><trkpt lat="45.03583490313094" lon="7.347129376819051"><ele>505.0</ele><time>2026-04-19T08:41:14Z</time></trkpt><trkpt lat="45.03583838465056" lon="7.346975247823588"><ele>505.0</ele><time>2026-04-19T08:41:15Z</time></trkpt><trkpt lat="45.03584315761556" lon="7.346831791583817"><ele>505.25</ele><time>2026-04-19T08:41:16Z</time></trkpt><trkpt lat="45.03582921989073" lon="7.346692806500947"><ele>505.5</ele><time>2026-04-19T08:41:17Z</time></trkpt><trkpt lat="45.035784845326376" lon="7.346545408956388"><ele>505.75</ele><time>2026-04-19T08:41:18Z</time></trkpt><trkpt lat="45.03572103916622" lon="7.346386065872861"><ele>506.0</ele><time>2026-04-19T08:41:19Z</time></trkpt><trkpt lat="45.03564726377343" lon="7.346231354042963"><ele>505.5</ele><time>2026-04-19T08:41:20Z</time></trkpt><trkpt lat="45.0355769126226" lon="7.3460775484992045"><ele>505.0</ele><time>2026-04-19T08:41:21Z</time></trkpt><trkpt lat="45.03551397807107" lon="7.345928279546562"><ele>504.5</ele><time>2026-04-19T08:41:22Z</time></trkpt><trkpt lat="45.035455340042766" lon="7.345795729178825"><ele>504.0</ele><time>2026-04-19T08:41:23Z</time></trkpt><trkpt lat="45.0353894492017" lon="7.345647278035422"><ele>504.5</ele><time>2026-04-19T08:41:24Z</time></trkpt><trkpt lat="45.03532698459869" lon="7.345486422552403"><ele>505.0</ele><time>2026-04-19T08:41:25Z</time></trkpt><trkpt lat="45.03525426529497" lon="7.34533275552652"><ele>505.5</ele><time>2026-04-19T08:41:26Z</time></trkpt><trkpt lat="45.0351908564103" lon="7.345192047850027"><ele>506.0</ele><time>2026-04-19T08:41:27Z</time></trkpt><trkpt lat="45.03513762561184" lon="7.345065166351184"><ele>506.0</ele><time>2026-04-19T08:41:28Z</time></trkpt><trkpt lat="45.03508669232345" lon="7.3449473555679505"><ele>506.0</ele><time>2026-04-19T08:41:29Z</time></trkpt><trkpt lat="45.03504291625573" lon="7.344850119089515"><ele>506.0</ele><time>2026-04-19T08:41:30Z</time></trkpt><trkpt lat="45.03500897669756" lon="7.344770945941054"><ele>506.0</ele><time>2026-04-19T08:41:31Z</time></trkpt><trkpt lat="45.03497198089821" lon="7.34464250269874"><ele>506.0</ele><time>2026-04-19T08:41:33Z</time></trkpt><trkpt lat="45.03501282181821" lon="7.344491227172804"><ele>506.3333333333333</ele><time>2026-04-19T08:41:35.001Z</time></trkpt><trkpt lat="45.035033158723934" lon="7.34438828753689"><ele>506.66666666666663</ele><time>2026-04-19T08:41:36.001Z</time></trkpt><trkpt lat="45.035045445160364" lon="7.344260485111332"><ele>507.0</ele><time>2026-04-19T08:41:37.001Z</time></trkpt><trkpt lat="45.03506305286587" lon="7.344128893548686"><ele>507.33333333333337</ele><time>2026-04-19T08:41:38.001Z</time></trkpt><trkpt lat="45.03508175183309" lon="7.344008504833801"><ele>507.6666666666667</ele><time>2026-04-19T08:41:39.001Z</time></trkpt><trkpt lat="45.0351072816157" lon="7.343889699505775"><ele>508.0</ele><time>2026-04-19T08:41:40.001Z</time></trkpt><trkpt lat="45.03512278409821" lon="7.343766616123201"><ele>508.59999999999997</ele><time>2026-04-19T08:41:41.001Z</time></trkpt><trkpt lat="45.035142214435844" lon="7.343620074256077"><ele>509.19999999999993</ele><time>2026-04-19T08:41:42.001Z</time></trkpt><trkpt lat="45.03517500520625" lon="7.343445376318878"><ele>509.8</ele><time>2026-04-19T08:41:44.001Z</time></trkpt><trkpt lat="45.03520638666271" lon="7.343358706393269"><ele>510.4</ele><time>2026-04-19T08:41:46.001Z</time></trkpt><trkpt lat="45.03522576049243" lon="7.343255179746378"><ele>511.0</ele><time>2026-04-19T08:41:52.001Z</time></trkpt><trkpt lat="45.03506960999495" lon="7.343141052264673"><ele>511.0</ele><time>2026-04-19T08:41:53.001Z</time></trkpt><trkpt lat="45.03499395376551" lon="7.343041231683157"><ele>511.0</ele><time>2026-04-19T08:41:54.001Z</time></trkpt><trkpt lat="45.03489262566512" lon="7.342973150754689"><ele>511.0</ele><time>2026-04-19T08:41:55.001Z</time></trkpt><trkpt lat="45.03480606864533" lon="7.342935021601122"><ele>511.0</ele><time>2026-04-19T08:41:56.001Z</time></trkpt><trkpt lat="45.0347297105194" lon="7.34289756133699"><ele>511.0</ele><time>2026-04-19T08:41:57.001Z</time></trkpt><trkpt lat="45.034643902897265" lon="7.342854061124748"><ele>511.0</ele><time>2026-04-19T08:41:58.001Z</time></trkpt><trkpt lat="45.03455142600059" lon="7.342803254317238"><ele>511.0</ele><time>2026-04-19T08:41:59.001Z</time></trkpt><trkpt lat="45.03446035005118" lon="7.34274217729209"><ele>511.0</ele><time>2026-04-19T08:42:00.001Z</time></trkpt><trkpt lat="45.03438769333107" lon="7.342668749746723"><ele>511.0</ele><time>2026-04-19T08:42:01.001Z</time></trkpt><trkpt lat="45.03434486133581" lon="7.342568922414598"><ele>511.0</ele><time>2026-04-19T08:42:02.001Z</time></trkpt><trkpt lat="45.03430433174373" lon="7.342453237636099"><ele>511.0</ele><time>2026-04-19T08:42:03.001Z</time></trkpt><trkpt lat="45.03425753075107" lon="7.3423134440960895"><ele>511.0</ele><time>2026-04-19T08:42:04.001Z</time></trkpt><trkpt lat="45.03421295044084" lon="7.3421694854332555"><ele>511.0</ele><time>2026-04-19T08:42:05.001Z</time></trkpt><trkpt lat="45.03416923034358" lon="7.34202564765424"><ele>511.0</ele><time>2026-04-19T08:42:06.001Z</time></trkpt><trkpt lat="45.03412337727449" lon="7.341886426567279"><ele>511.0</ele><time>2026-04-19T08:42:07.001Z</time></trkpt><trkpt lat="45.03406496449534" lon="7.341744552289441"><ele>510.5</ele><time>2026-04-19T08:42:08.001Z</time></trkpt><trkpt lat="45.0339906935436" lon="7.341603630343524"><ele>510.0</ele><time>2026-04-19T08:42:09.001Z</time></trkpt><trkpt lat="45.0339117492351" lon="7.341462853066984"><ele>509.5</ele><time>2026-04-19T08:42:10.001Z</time></trkpt><trkpt lat="45.03383426795879" lon="7.341322149214569"><ele>509.0</ele><time>2026-04-19T08:42:11.001Z</time></trkpt><trkpt lat="45.033762191866956" lon="7.341190132259307"><ele>509.0</ele><time>2026-04-19T08:42:12.002Z</time></trkpt><trkpt lat="45.03369199287104" lon="7.341057430292994"><ele>509.0</ele><time>2026-04-19T08:42:13.002Z</time></trkpt><trkpt lat="45.033623756372066" lon="7.340911482607474"><ele>509.0</ele><time>2026-04-19T08:42:14.002Z</time></trkpt><trkpt lat="45.033558364752324" lon="7.340757701378996"><ele>509.0</ele><time>2026-04-19T08:42:15.002Z</time></trkpt><trkpt lat="45.033504216080054" lon="7.340593094535905"><ele>508.25</ele><time>2026-04-19T08:42:16.002Z</time></trkpt><trkpt lat="45.03346408957859" lon="7.34041709917056"><ele>507.5</ele><time>2026-04-19T08:42:17.002Z</time></trkpt><trkpt lat="45.03343084248708" lon="7.340227833605787"><ele>506.75</ele><time>2026-04-19T08:42:18.002Z</time></trkpt><trkpt lat="45.03339535776132" lon="7.340030405491412"><ele>506.0</ele><time>2026-04-19T08:42:19.002Z</time></trkpt><trkpt lat="45.033358591009346" lon="7.339835503595328"><ele>506.25</ele><time>2026-04-19T08:42:20.002Z</time></trkpt><trkpt lat="45.03332031077888" lon="7.339636272422914"><ele>506.5</ele><time>2026-04-19T08:42:21.002Z</time></trkpt><trkpt lat="45.03328249126951" lon="7.339432917443329"><ele>506.75</ele><time>2026-04-19T08:42:22.002Z</time></trkpt><trkpt lat="45.03324531979693" lon="7.3392268147116715"><ele>507.0</ele><time>2026-04-19T08:42:23.002Z</time></trkpt><trkpt lat="45.033209983891815" lon="7.339025657693859"><ele>506.75</ele><time>2026-04-19T08:42:24.002Z</time></trkpt><trkpt lat="45.03317843898405" lon="7.338838297360027"><ele>506.5</ele><time>2026-04-19T08:42:25.002Z</time></trkpt><trkpt lat="45.03315745077554" lon="7.338658448768374"><ele>506.25</ele><time>2026-04-19T08:42:26.002Z</time></trkpt><trkpt lat="45.033130091948685" lon="7.338474468832621"><ele>506.0</ele><time>2026-04-19T08:42:27.002Z</time></trkpt><trkpt lat="45.033092519363855" lon="7.338290759135798"><ele>506.0</ele><time>2026-04-19T08:42:28.002Z</time></trkpt><trkpt lat="45.03304615277946" lon="7.338116613207738"><ele>506.0</ele><time>2026-04-19T08:42:29.002Z</time></trkpt><trkpt lat="45.03295552918577" lon="7.337970570532825"><ele>506.0</ele><time>2026-04-19T08:42:30.002Z</time></trkpt><trkpt lat="45.0328743265511" lon="7.337827825498126"><ele>506.0</ele><time>2026-04-19T08:42:31.002Z</time></trkpt><trkpt lat="45.03277533259313" lon="7.3376861978220465"><ele>506.0</ele><time>2026-04-19T08:42:32.002Z</time></trkpt><trkpt lat="45.03267165419285" lon="7.337553970040605"><ele>506.0</ele><time>2026-04-19T08:42:32.996Z</time></trkpt><trkpt lat="45.03254399263077" lon="7.3374403080974755"><ele>506.0</ele><time>2026-04-19T08:42:33.996Z</time></trkpt><trkpt lat="45.03239810891687" lon="7.337352780121222"><ele>506.0</ele><time>2026-04-19T08:42:34.996Z</time></trkpt><trkpt lat="45.032244077122044" lon="7.3372756248431905"><ele>506.0</ele><time>2026-04-19T08:42:35.996Z</time></trkpt><trkpt lat="45.03209221478544" lon="7.337222178666816"><ele>506.0</ele><time>2026-04-19T08:42:36.996Z</time></trkpt><trkpt lat="45.03193388802819" lon="7.337187815789445"><ele>506.0</ele><time>2026-04-19T08:42:37.996Z</time></trkpt><trkpt lat="45.031777737051065" lon="7.337178524171719"><ele>507.0</ele><time>2026-04-19T08:42:38.996Z</time></trkpt><trkpt lat="45.03161924195115" lon="7.337200303846927"><ele>508.0</ele><time>2026-04-19T08:42:39.996Z</time></trkpt><trkpt lat="45.03146298459684" lon="7.33723864160938"><ele>509.0</ele><time>2026-04-19T08:42:40.996Z</time></trkpt><trkpt lat="45.031307039428" lon="7.337261518416963"><ele>509.0</ele><time>2026-04-19T08:42:41.997Z</time></trkpt><trkpt lat="45.031152808399035" lon="7.3372915153224705"><ele>509.0</ele><time>2026-04-19T08:42:42.997Z</time></trkpt><trkpt lat="45.03100417060131" lon="7.337338326876518"><ele>509.0</ele><time>2026-04-19T08:42:43.997Z</time></trkpt><trkpt lat="45.030865159642886" lon="7.337357131030559"><ele>509.0</ele><time>2026-04-19T08:42:44.997Z</time></trkpt><trkpt lat="45.03073916677207" lon="7.337399352380013"><ele>509.5</ele><time>2026-04-19T08:42:45.997Z</time></trkpt><trkpt lat="45.030637056877" lon="7.337449141154517"><ele>510.0</ele><time>2026-04-19T08:42:46.997Z</time></trkpt><trkpt lat="45.03052548132708" lon="7.33752130136969"><ele>510.5</ele><time>2026-04-19T08:42:47.997Z</time></trkpt><trkpt lat="45.03042001710084" lon="7.337656725135619"><ele>511.0</ele><time>2026-04-19T08:42:48.997Z</time></trkpt><trkpt lat="45.03031326112805" lon="7.337798514088771"><ele>511.0</ele><time>2026-04-19T08:42:49.997Z</time></trkpt><trkpt lat="45.03019089697413" lon="7.337928556057079"><ele>511.0</ele><time>2026-04-19T08:42:50.997Z</time></trkpt><trkpt lat="45.03006808771687" lon="7.33805311451719"><ele>511.0</ele><time>2026-04-19T08:42:51.998Z</time></trkpt><trkpt lat="45.02994156599463" lon="7.338177373408473"><ele>508.0</ele><time>2026-04-19T08:42:52.998Z</time></trkpt><trkpt lat="45.029809314488354" lon="7.3382855695328075"><ele>505.0</ele><time>2026-04-19T08:42:53.998Z</time></trkpt><trkpt lat="45.02967567808642" lon="7.338397836776623"><ele>502.0</ele><time>2026-04-19T08:42:54.998Z</time></trkpt><trkpt lat="45.02955628132668" lon="7.338507608828892"><ele>502.0</ele><time>2026-04-19T08:42:55.998Z</time></trkpt><trkpt lat="45.029440008506846" lon="7.338601331889485"><ele>502.0</ele><time>2026-04-19T08:42:56.998Z</time></trkpt><trkpt lat="45.029322473536595" lon="7.338657156375965"><ele>502.0</ele><time>2026-04-19T08:42:57.998Z</time></trkpt><trkpt lat="45.02919755306577" lon="7.338653357307164"><ele>502.0</ele><time>2026-04-19T08:42:58.998Z</time></trkpt><trkpt lat="45.02906094461565" lon="7.338674621781065"><ele>502.5</ele><time>2026-04-19T08:42:59.998Z</time></trkpt><trkpt lat="45.02892272814127" lon="7.338702336165406"><ele>503.0</ele><time>2026-04-19T08:43:00.998Z</time></trkpt><trkpt lat="45.028779259085944" lon="7.338714646615582"><ele>503.5</ele><time>2026-04-19T08:43:01.998Z</time></trkpt><trkpt lat="45.02863338854799" lon="7.338732136125535"><ele>504.0</ele><time>2026-04-19T08:43:02.999Z</time></trkpt><trkpt lat="45.02848781920728" lon="7.338750451928451"><ele>504.0</ele><time>2026-04-19T08:43:03.999Z</time></trkpt><trkpt lat="45.028362085271546" lon="7.338773088632609"><ele>504.0</ele><time>2026-04-19T08:43:04.999Z</time></trkpt><trkpt lat="45.02825447531446" lon="7.338861359325663"><ele>504.0</ele><time>2026-04-19T08:43:05.999Z</time></trkpt><trkpt lat="45.02818737842529" lon="7.338948311903587"><ele>504.0</ele><time>2026-04-19T08:43:06.999Z</time></trkpt><trkpt lat="45.028118224137906" lon="7.339061572074562"><ele>504.0</ele><time>2026-04-19T08:43:07.999Z</time></trkpt><trkpt lat="45.02807115621025" lon="7.339227942832622"><ele>509.75</ele><time>2026-04-19T08:43:08.999Z</time></trkpt><trkpt lat="45.028064604117894" lon="7.339427101499433"><ele>515.5</ele><time>2026-04-19T08:43:09.999Z</time></trkpt><trkpt lat="45.02802990910846" lon="7.33961821184963"><ele>521.25</ele><time>2026-04-19T08:43:10.999Z</time></trkpt><trkpt lat="45.02799439816085" lon="7.339810019620739"><ele>527.0</ele><time>2026-04-19T08:43:11.999Z</time></trkpt><trkpt lat="45.02795594966724" lon="7.340015347918965"><ele>528.75</ele><time>2026-04-19T08:43:12.999Z</time></trkpt><trkpt lat="45.027918136789594" lon="7.340206339469633"><ele>530.5</ele><time>2026-04-19T08:43:13.999Z</time></trkpt><trkpt lat="45.027878459975916" lon="7.340372031593014"><ele>532.25</ele><time>2026-04-19T08:43:14.999Z</time></trkpt><trkpt lat="45.02782789854629" lon="7.340548866456841"><ele>534.0</ele><time>2026-04-19T08:43:15.999Z</time></trkpt><trkpt lat="45.027783099634846" lon="7.340736379851272"><ele>535.0</ele><time>2026-04-19T08:43:16.999Z</time></trkpt><trkpt lat="45.02777876328758" lon="7.340918602852908"><ele>536.0</ele><time>2026-04-19T08:43:17.999Z</time></trkpt><trkpt lat="45.027788065726796" lon="7.341097965818184"><ele>537.0</ele><time>2026-04-19T08:43:18.999Z</time></trkpt><trkpt lat="45.02783258053569" lon="7.341268110247739"><ele>538.0</ele><time>2026-04-19T08:43:19.999Z</time></trkpt><trkpt lat="45.02791291737601" lon="7.3414277883643635"><ele>538.75</ele><time>2026-04-19T08:43:20.999Z</time></trkpt><trkpt lat="45.02794082490587" lon="7.341586255632859"><ele>539.5</ele><time>2026-04-19T08:43:22Z</time></trkpt><trkpt lat="45.02796764412264" lon="7.341728857537363"><ele>540.25</ele><time>2026-04-19T08:43:23Z</time></trkpt><trkpt lat="45.02795405011848" lon="7.341891711101746"><ele>541.0</ele><time>2026-04-19T08:43:24Z</time></trkpt><trkpt lat="45.027929117749714" lon="7.342056499721425"><ele>541.0</ele><time>2026-04-19T08:43:25Z</time></trkpt><trkpt lat="45.02788380487163" lon="7.342176623411342"><ele>541.0</ele><time>2026-04-19T08:43:26Z</time></trkpt><trkpt lat="45.027799373500514" lon="7.342271747105032"><ele>541.0</ele><time>2026-04-19T08:43:27Z</time></trkpt><trkpt lat="45.02770336350678" lon="7.342335438070747"><ele>541.0</ele><time>2026-04-19T08:43:28Z</time></trkpt><trkpt lat="45.02758926018964" lon="7.3423558401468325"><ele>541.0</ele><time>2026-04-19T08:43:29Z</time></trkpt><trkpt lat="45.02747041885888" lon="7.342306739457482"><ele>539.25</ele><time>2026-04-19T08:43:30Z</time></trkpt><trkpt lat="45.02735820545423" lon="7.342274426537923"><ele>537.5</ele><time>2026-04-19T08:43:31Z</time></trkpt><trkpt lat="45.02723643366481" lon="7.342221589046538"><ele>535.75</ele><time>2026-04-19T08:43:32Z</time></trkpt><trkpt lat="45.0271153015708" lon="7.342241528632132"><ele>534.0</ele><time>2026-04-19T08:43:33Z</time></trkpt><trkpt lat="45.02699656837041" lon="7.342270336724141"><ele>534.0</ele><time>2026-04-19T08:43:34Z</time></trkpt><trkpt lat="45.02688225314407" lon="7.342278022211932"><ele>534.0</ele><time>2026-04-19T08:43:35Z</time></trkpt><trkpt lat="45.02678365627004" lon="7.342261127517994"><ele>534.0</ele><time>2026-04-19T08:43:36Z</time></trkpt><trkpt lat="45.0266957147939" lon="7.342197381408719"><ele>534.0</ele><time>2026-04-19T08:43:37Z</time></trkpt><trkpt lat="45.026643931681726" lon="7.342091987320244"><ele>534.0</ele><time>2026-04-19T08:43:38Z</time></trkpt><trkpt lat="45.02658599460755" lon="7.34196467001375"><ele>536.5</ele><time>2026-04-19T08:43:39Z</time></trkpt><trkpt lat="45.026568808041226" lon="7.3418178437394745"><ele>539.0</ele><time>2026-04-19T08:43:40Z</time></trkpt><trkpt lat="45.02654737297618" lon="7.341651995382514"><ele>541.5</ele><time>2026-04-19T08:43:41Z</time></trkpt><trkpt lat="45.02652714670352" lon="7.3414573567321675"><ele>544.0</ele><time>2026-04-19T08:43:42Z</time></trkpt><trkpt lat="45.02650835036064" lon="7.34127976943093"><ele>546.25</ele><time>2026-04-19T08:43:43Z</time></trkpt><trkpt lat="45.026486892666156" lon="7.341077037811525"><ele>548.5</ele><time>2026-04-19T08:43:44Z</time></trkpt><trkpt lat="45.02646390628218" lon="7.340871494101132"><ele>550.75</ele><time>2026-04-19T08:43:45Z</time></trkpt><trkpt lat="45.026441906112765" lon="7.340676729275954"><ele>553.0</ele><time>2026-04-19T08:43:46Z</time></trkpt><trkpt lat="45.02641481610225" lon="7.340471207295314"><ele>553.0</ele><time>2026-04-19T08:43:47Z</time></trkpt><trkpt lat="45.02636484910685" lon="7.340268027032589"><ele>553.0</ele><time>2026-04-19T08:43:48Z</time></trkpt><trkpt lat="45.02629507487939" lon="7.340072583103799"><ele>553.0</ele><time>2026-04-19T08:43:49Z</time></trkpt><trkpt lat="45.02622362683293" lon="7.33988260966255"><ele>552.6666666666667</ele><time>2026-04-19T08:43:50.001Z</time></trkpt><trkpt lat="45.02615171215001" lon="7.339684421070624"><ele>552.3333333333334</ele><time>2026-04-19T08:43:51.001Z</time></trkpt><trkpt lat="45.02605793847749" lon="7.339496004231885"><ele>552.0</ele><time>2026-04-19T08:43:52.001Z</time></trkpt><trkpt lat="45.02596194053642" lon="7.339300703998387"><ele>552.0</ele><time>2026-04-19T08:43:53.001Z</time></trkpt><trkpt lat="45.02586737291918" lon="7.339105661747458"><ele>552.0</ele><time>2026-04-19T08:43:54.001Z</time></trkpt><trkpt lat="45.02576877891956" lon="7.338904182023131"><ele>552.0</ele><time>2026-04-19T08:43:55.001Z</time></trkpt><trkpt lat="45.025669083056684" lon="7.338701486931029"><ele>552.3333333333334</ele><time>2026-04-19T08:43:56.001Z</time></trkpt><trkpt lat="45.025571274167795" lon="7.338502808031633"><ele>552.6666666666667</ele><time>2026-04-19T08:43:57.001Z</time></trkpt><trkpt lat="45.02546956541116" lon="7.338304927270836"><ele>553.0</ele><time>2026-04-19T08:43:58.001Z</time></trkpt><trkpt lat="45.025352847714935" lon="7.338118744420832"><ele>553.6666666666667</ele><time>2026-04-19T08:43:59.001Z</time></trkpt><trkpt lat="45.02526116672189" lon="7.337911453213867"><ele>554.3333333333334</ele><time>2026-04-19T08:44:00.001Z</time></trkpt><trkpt lat="45.02518288761768" lon="7.337711005711878"><ele>555.0</ele><time>2026-04-19T08:44:01.001Z</time></trkpt><trkpt lat="45.025095721464275" lon="7.337548831858601"><ele>555.0</ele><time>2026-04-19T08:44:02.001Z</time></trkpt><trkpt lat="45.02501880266005" lon="7.337394541166186"><ele>555.0</ele><time>2026-04-19T08:44:03.001Z</time></trkpt><trkpt lat="45.024944998181375" lon="7.337267849802687"><ele>555.0</ele><time>2026-04-19T08:44:04.001Z</time></trkpt><trkpt lat="45.02486835308738" lon="7.337182505123138"><ele>555.0</ele><time>2026-04-19T08:44:05.001Z</time></trkpt><trkpt lat="45.024778758065736" lon="7.337120411884678"><ele>555.0</ele><time>2026-04-19T08:44:06.001Z</time></trkpt><trkpt lat="45.02468994404626" lon="7.337033226630436"><ele>558.25</ele><time>2026-04-19T08:44:07.001Z</time></trkpt><trkpt lat="45.02458086797732" lon="7.336987339036736"><ele>561.5</ele><time>2026-04-19T08:44:08.001Z</time></trkpt><trkpt lat="45.0244785737141" lon="7.336913743711403"><ele>564.75</ele><time>2026-04-19T08:44:09.001Z</time></trkpt><trkpt lat="45.02436773290031" lon="7.336844134159497"><ele>568.0</ele><time>2026-04-19T08:44:10.001Z</time></trkpt><trkpt lat="45.02425214905369" lon="7.33677697427955"><ele>570.75</ele><time>2026-04-19T08:44:11.001Z</time></trkpt><trkpt lat="45.0241350480277" lon="7.336709661271731"><ele>573.5</ele><time>2026-04-19T08:44:12.001Z</time></trkpt><trkpt lat="45.024018487079836" lon="7.33664304297565"><ele>576.25</ele><time>2026-04-19T08:44:13.001Z</time></trkpt><trkpt lat="45.02390683356153" lon="7.336579995165119"><ele>579.0</ele><time>2026-04-19T08:44:14.001Z</time></trkpt><trkpt lat="45.023800379698194" lon="7.336519959884084"><ele>579.0</ele><time>2026-04-19T08:44:15.001Z</time></trkpt><trkpt lat="45.0236971294607" lon="7.336467056269835"><ele>579.0</ele><time>2026-04-19T08:44:16.001Z</time></trkpt><trkpt lat="45.023596096224715" lon="7.336416890419194"><ele>579.0</ele><time>2026-04-19T08:44:17.001Z</time></trkpt><trkpt lat="45.023498603926484" lon="7.3363692854342935"><ele>579.0</ele><time>2026-04-19T08:44:18.001Z</time></trkpt><trkpt lat="45.023407759311745" lon="7.336324560238781"><ele>579.0</ele><time>2026-04-19T08:44:19.001Z</time></trkpt><trkpt lat="45.02333337707992" lon="7.336286301608889"><ele>577.0</ele><time>2026-04-19T08:44:20.001Z</time></trkpt><trkpt lat="45.02327174275439" lon="7.336252186286891"><ele>575.0</ele><time>2026-04-19T08:44:21.001Z</time></trkpt><trkpt lat="45.02319558142211" lon="7.336197623775623"><ele>573.0</ele><time>2026-04-19T08:44:23.002Z</time></trkpt><trkpt lat="45.02314119630374" lon="7.336114658839843"><ele>571.0</ele><time>2026-04-19T08:44:52.999Z</time></trkpt><trkpt lat="45.02299976987086" lon="7.336215450189365"><ele>569.0</ele><time>2026-04-19T08:44:54.999Z</time></trkpt><trkpt lat="45.02294738463832" lon="7.336274270970078"><ele>569.0</ele><time>2026-04-19T08:44:55.999Z</time></trkpt><trkpt lat="45.022860347939044" lon="7.3363119110044686"><ele>569.0</ele><time>2026-04-19T08:44:57.999Z</time></trkpt><trkpt lat="45.022721493088" lon="7.336340480215794"><ele>569.0</ele><time>2026-04-19T08:44:59.999Z</time></trkpt><trkpt lat="45.022622856904704" lon="7.336351868920237"><ele>569.0</ele><time>2026-04-19T08:45:00.999Z</time></trkpt><trkpt lat="45.02251982798775" lon="7.33639219034581"><ele>569.0</ele><time>2026-04-19T08:45:01.999Z</time></trkpt><trkpt lat="45.02243481464426" lon="7.3364340597425715"><ele>566.1666666666666</ele><time>2026-04-19T08:45:03Z</time></trkpt><trkpt lat="45.02238224107721" lon="7.3365209858311315"><ele>563.3333333333333</ele><time>2026-04-19T08:45:04Z</time></trkpt><trkpt lat="45.022336554810245" lon="7.336605095002002"><ele>560.5</ele><time>2026-04-19T08:45:05Z</time></trkpt><trkpt lat="45.02229065280256" lon="7.336687072414633"><ele>557.6666666666666</ele><time>2026-04-19T08:45:06Z</time></trkpt><trkpt lat="45.02226706969271" lon="7.33679966636492"><ele>554.8333333333334</ele><time>2026-04-19T08:45:07Z</time></trkpt><trkpt lat="45.02225202921596" lon="7.336936117919872"><ele>552.0</ele><time>2026-04-19T08:45:08Z</time></trkpt><trkpt lat="45.022268844099315" lon="7.337064769314512"><ele>552.0</ele><time>2026-04-19T08:45:09Z</time></trkpt><trkpt lat="45.02228282674988" lon="7.337176788776711"><ele>552.0</ele><time>2026-04-19T08:45:10Z</time></trkpt><trkpt lat="45.02228283621191" lon="7.337271889483232"><ele>552.0</ele><time>2026-04-19T08:45:11Z</time></trkpt><trkpt lat="45.02224958695765" lon="7.337348309545966"><ele>552.0</ele><time>2026-04-19T08:45:12Z</time></trkpt><trkpt lat="45.02214113312634" lon="7.337282850459142"><ele>552.0</ele><time>2026-04-19T08:45:14Z</time></trkpt><trkpt lat="45.0220507286767" lon="7.337247430589506"><ele>552.0</ele><time>2026-04-19T08:45:15Z</time></trkpt><trkpt lat="45.02197289459166" lon="7.337155089256575"><ele>552.0</ele><time>2026-04-19T08:45:16Z</time></trkpt><trkpt lat="45.02188844170973" lon="7.3370737157667865"><ele>552.0</ele><time>2026-04-19T08:45:17Z</time></trkpt><trkpt lat="45.02180320013741" lon="7.336997350389142"><ele>552.0</ele><time>2026-04-19T08:45:18.001Z</time></trkpt><trkpt lat="45.02174058065942" lon="7.336918409636751"><ele>552.0</ele><time>2026-04-19T08:45:19.001Z</time></trkpt><trkpt lat="45.02174634538995" lon="7.33675279938703"><ele>552.0</ele><time>2026-04-19T08:45:21.001Z</time></trkpt><trkpt lat="45.02175171445868" lon="7.336635179716718"><ele>552.0</ele><time>2026-04-19T08:45:22.001Z</time></trkpt><trkpt lat="45.021758069768964" lon="7.336503246067899"><ele>552.0</ele><time>2026-04-19T08:45:23.001Z</time></trkpt><trkpt lat="45.02176835583276" lon="7.336384748863364"><ele>552.0</ele><time>2026-04-19T08:45:24.001Z</time></trkpt><trkpt lat="45.0217776525646" lon="7.336265480509346"><ele>552.0</ele><time>2026-04-19T08:45:25.001Z</time></trkpt><trkpt lat="45.02177268108415" lon="7.336173269302664"><ele>552.0</ele><time>2026-04-19T08:45:26.001Z</time></trkpt><trkpt lat="45.021734447764054" lon="7.336096657623818"><ele>552.0</ele><time>2026-04-19T08:45:27.001Z</time></trkpt><trkpt lat="45.021672787445794" lon="7.336050495627536"><ele>550.0</ele><time>2026-04-19T08:45:28.001Z</time></trkpt><trkpt lat="45.021591494213354" lon="7.336083274647212"><ele>548.0</ele><time>2026-04-19T08:45:29.001Z</time></trkpt><trkpt lat="45.02157928103778" lon="7.336271633563165"><ele>546.0</ele><time>2026-04-19T08:45:30.001Z</time></trkpt><trkpt lat="45.02156482500169" lon="7.336403781469741"><ele>544.0</ele><time>2026-04-19T08:45:31.001Z</time></trkpt><trkpt lat="45.02154347125637" lon="7.336551447225197"><ele>542.0</ele><time>2026-04-19T08:45:32.001Z</time></trkpt><trkpt lat="45.02151178455976" lon="7.336710984348557"><ele>541.25</ele><time>2026-04-19T08:45:33.001Z</time></trkpt><trkpt lat="45.02148388115467" lon="7.336871769537805"><ele>540.5</ele><time>2026-04-19T08:45:34.001Z</time></trkpt><trkpt lat="45.0214594171845" lon="7.337028520965906"><ele>539.75</ele><time>2026-04-19T08:45:35.001Z</time></trkpt><trkpt lat="45.02143693394758" lon="7.337184476213956"><ele>539.0</ele><time>2026-04-19T08:45:36.001Z</time></trkpt><trkpt lat="45.02141423752727" lon="7.337335483160705"><ele>538.6</ele><time>2026-04-19T08:45:37.001Z</time></trkpt><trkpt lat="45.02138898101081" lon="7.33746515714431"><ele>538.2</ele><time>2026-04-19T08:45:38.001Z</time></trkpt><trkpt lat="45.02137047691279" lon="7.337551813074532"><ele>537.8000000000001</ele><time>2026-04-19T08:45:39.001Z</time></trkpt><trkpt lat="45.02131213760298" lon="7.337593455644745"><ele>537.4</ele><time>2026-04-19T08:45:40.001Z</time></trkpt><trkpt lat="45.02115094189225" lon="7.337511426648369"><ele>537.0</ele><time>2026-04-19T08:45:42.001Z</time></trkpt><trkpt lat="45.02107152951316" lon="7.337459135111671"><ele>537.0</ele><time>2026-04-19T08:45:43.001Z</time></trkpt><trkpt lat="45.020952314110126" lon="7.337453467621635"><ele>537.0</ele><time>2026-04-19T08:45:44.002Z</time></trkpt><trkpt lat="45.02084805772283" lon="7.337489982825868"><ele>537.0</ele><time>2026-04-19T08:45:45.002Z</time></trkpt><trkpt lat="45.020735664192706" lon="7.337539216329911"><ele>537.0</ele><time>2026-04-19T08:45:46.002Z</time></trkpt><trkpt lat="45.02063329289094" lon="7.337577698018835"><ele>541.2</ele><time>2026-04-19T08:45:47.002Z</time></trkpt><trkpt lat="45.020518075097144" lon="7.337647210715577"><ele>545.4000000000001</ele><time>2026-04-19T08:45:48.002Z</time></trkpt><trkpt lat="45.020427201577405" lon="7.337718935961631"><ele>549.5999999999999</ele><time>2026-04-19T08:45:49.002Z</time></trkpt><trkpt lat="45.020363767499134" lon="7.3377952836411895"><ele>553.8</ele><time>2026-04-19T08:45:50.002Z</time></trkpt><trkpt lat="45.020269479051414" lon="7.337850657683747"><ele>558.0</ele><time>2026-04-19T08:45:52.002Z</time></trkpt><trkpt lat="45.02017143437575" lon="7.337945797102546"><ele>558.0</ele><time>2026-04-19T08:45:54.002Z</time></trkpt><trkpt lat="45.02011898847175" lon="7.338008971408336"><ele>558.0</ele><time>2026-04-19T08:45:55.002Z</time></trkpt><trkpt lat="45.020084316415954" lon="7.338095001332025"><ele>558.0</ele><time>2026-04-19T08:45:56.002Z</time></trkpt><trkpt lat="45.02005451258452" lon="7.338222556231573"><ele>558.0</ele><time>2026-04-19T08:45:57.002Z</time></trkpt><trkpt lat="45.02004215131937" lon="7.338342692509406"><ele>558.0</ele><time>2026-04-19T08:45:58.002Z</time></trkpt><trkpt lat="45.02003521624059" lon="7.338440758145567"><ele>558.0</ele><time>2026-04-19T08:45:59.002Z</time></trkpt><trkpt lat="45.02007441197532" lon="7.338570614849792"><ele>556.4</ele><time>2026-04-19T08:46:01.002Z</time></trkpt><trkpt lat="45.02019818056219" lon="7.33860554377831"><ele>554.8</ele><time>2026-04-19T08:46:02.002Z</time></trkpt><trkpt lat="45.02029118134982" lon="7.338621982645031"><ele>553.2</ele><time>2026-04-19T08:46:03.002Z</time></trkpt><trkpt lat="45.02039873234421" lon="7.338626527804439"><ele>551.6</ele><time>2026-04-19T08:46:04.002Z</time></trkpt><trkpt lat="45.020487952584894" lon="7.3386728100904195"><ele>550.0</ele><time>2026-04-19T08:46:05.002Z</time></trkpt><trkpt lat="45.020570597864904" lon="7.3387009857756995"><ele>550.0</ele><time>2026-04-19T08:46:06.002Z</time></trkpt><trkpt lat="45.02064832588609" lon="7.338739596450751"><ele>550.0</ele><time>2026-04-19T08:46:07.002Z</time></trkpt><trkpt lat="45.020711622559" lon="7.338794212415944"><ele>550.0</ele><time>2026-04-19T08:46:08.002Z</time></trkpt><trkpt lat="45.020768292989025" lon="7.338892322625777"><ele>550.0</ele><time>2026-04-19T08:46:09.002Z</time></trkpt><trkpt lat="45.02083927050058" lon="7.3389868876697015"><ele>550.0</ele><time>2026-04-19T08:46:10.002Z</time></trkpt><trkpt lat="45.02087795831164" lon="7.339077894282272"><ele>550.0</ele><time>2026-04-19T08:46:11.002Z</time></trkpt><trkpt lat="45.02090586958183" lon="7.339202934949764"><ele>550.0</ele><time>2026-04-19T08:46:13.002Z</time></trkpt><trkpt lat="45.02088964274445" lon="7.339300071269393"><ele>550.0</ele><time>2026-04-19T08:46:16.003Z</time></trkpt><trkpt lat="45.02080820445548" lon="7.339153173724241"><ele>550.0</ele><time>2026-04-19T08:46:19.003Z</time></trkpt><trkpt lat="45.020743814591405" lon="7.339043996027312"><ele>550.0</ele><time>2026-04-19T08:46:20.003Z</time></trkpt><trkpt lat="45.020670169021706" lon="7.33897541517016"><ele>550.0</ele><time>2026-04-19T08:46:21.003Z</time></trkpt><trkpt lat="45.0205980163079" lon="7.338943583786036"><ele>553.2</ele><time>2026-04-19T08:46:22.003Z</time></trkpt><trkpt lat="45.02051236979722" lon="7.338954267757924"><ele>556.4</ele><time>2026-04-19T08:46:23.003Z</time></trkpt><trkpt lat="45.02041308468342" lon="7.338979991758394"><ele>559.6</ele><time>2026-04-19T08:46:24.003Z</time></trkpt><trkpt lat="45.02030849171342" lon="7.339006723769384"><ele>562.8</ele><time>2026-04-19T08:46:25.003Z</time></trkpt><trkpt lat="45.02020138681467" lon="7.339018254096782"><ele>566.0</ele><time>2026-04-19T08:46:26.003Z</time></trkpt><trkpt lat="45.02011863135967" lon="7.33906881009234"><ele>566.0</ele><time>2026-04-19T08:46:27.003Z</time></trkpt><trkpt lat="45.02003456836432" lon="7.339126790458289"><ele>566.0</ele><time>2026-04-19T08:46:28.003Z</time></trkpt><trkpt lat="45.01994725618172" lon="7.339168182073132"><ele>566.0</ele><time>2026-04-19T08:46:29.003Z</time></trkpt><trkpt lat="45.019871096658306" lon="7.33923841942815"><ele>566.0</ele><time>2026-04-19T08:46:30.003Z</time></trkpt><trkpt lat="45.01978017340766" lon="7.33930219170517"><ele>566.0</ele><time>2026-04-19T08:46:31.003Z</time></trkpt><trkpt lat="45.019712693254164" lon="7.339350585835876"><ele>566.6</ele><time>2026-04-19T08:46:32.003Z</time></trkpt><trkpt lat="45.01966092990614" lon="7.339411648483564"><ele>567.2</ele><time>2026-04-19T08:46:33.003Z</time></trkpt><trkpt lat="45.01957941075444" lon="7.339440523366112"><ele>567.8</ele><time>2026-04-19T08:46:34.003Z</time></trkpt><trkpt lat="45.019494121639156" lon="7.339474683863036"><ele>568.4</ele><time>2026-04-19T08:46:35.003Z</time></trkpt><trkpt lat="45.019403899462766" lon="7.339557496002246"><ele>569.0</ele><time>2026-04-19T08:46:36.003Z</time></trkpt><trkpt lat="45.019294262041406" lon="7.339652506432199"><ele>571.4</ele><time>2026-04-19T08:46:37.003Z</time></trkpt><trkpt lat="45.019190904708275" lon="7.339725159318111"><ele>573.8</ele><time>2026-04-19T08:46:38.003Z</time></trkpt><trkpt lat="45.0191146099128" lon="7.339835535112495"><ele>576.2</ele><time>2026-04-19T08:46:39.003Z</time></trkpt><trkpt lat="45.01903997057196" lon="7.339930167675214"><ele>578.6</ele><time>2026-04-19T08:46:40.003Z</time></trkpt><trkpt lat="45.018980712573246" lon="7.339999690776659"><ele>581.0</ele><time>2026-04-19T08:46:41.003Z</time></trkpt><trkpt lat="45.01888463826008" lon="7.340096031937703"><ele>581.8</ele><time>2026-04-19T08:46:42.003Z</time></trkpt><trkpt lat="45.018793963543516" lon="7.340158307693198"><ele>582.6</ele><time>2026-04-19T08:46:43.003Z</time></trkpt><trkpt lat="45.01869948664153" lon="7.3402007821679565"><ele>583.4</ele><time>2026-04-19T08:46:44.003Z</time></trkpt><trkpt lat="45.01859517717142" lon="7.340235404575485"><ele>584.2</ele><time>2026-04-19T08:46:44.999Z</time></trkpt><trkpt lat="45.01848104281128" lon="7.340192932800969"><ele>585.0</ele><time>2026-04-19T08:46:45.999Z</time></trkpt><trkpt lat="45.0183763523583" lon="7.340179444359029"><ele>588.0</ele><time>2026-04-19T08:46:46.999Z</time></trkpt><trkpt lat="45.018280893614005" lon="7.340208647365694"><ele>591.0</ele><time>2026-04-19T08:46:47.999Z</time></trkpt><trkpt lat="45.01823338383212" lon="7.340294507114682"><ele>594.0</ele><time>2026-04-19T08:46:48.999Z</time></trkpt><trkpt lat="45.01823651175028" lon="7.3404101521359255"><ele>597.0</ele><time>2026-04-19T08:46:50.999Z</time></trkpt><trkpt lat="45.0182720771823" lon="7.34050061212868"><ele>600.0</ele><time>2026-04-19T08:46:51.999Z</time></trkpt><trkpt lat="45.01835413630825" lon="7.3405885687269885"><ele>603.0</ele><time>2026-04-19T08:46:52.999Z</time></trkpt><trkpt lat="45.01843810783567" lon="7.3406466945179485"><ele>603.0</ele><time>2026-04-19T08:46:53.999Z</time></trkpt><trkpt lat="45.01852165204593" lon="7.340694849911786"><ele>603.0</ele><time>2026-04-19T08:46:54.999Z</time></trkpt><trkpt lat="45.01861503380097" lon="7.340713159834543"><ele>603.0</ele><time>2026-04-19T08:46:55.999Z</time></trkpt><trkpt lat="45.018710944000496" lon="7.340727887672931"><ele>603.0</ele><time>2026-04-19T08:46:56.999Z</time></trkpt><trkpt lat="45.01882711228813" lon="7.340738885258715"><ele>603.0</ele><time>2026-04-19T08:46:57.999Z</time></trkpt><trkpt lat="45.01893453887346" lon="7.340727592302888"><ele>603.0</ele><time>2026-04-19T08:46:58.999Z</time></trkpt><trkpt lat="45.01903293428198" lon="7.340663455116678"><ele>603.0</ele><time>2026-04-19T08:47:00Z</time></trkpt><trkpt lat="45.01909977587544" lon="7.340635954311318"><ele>603.0</ele><time>2026-04-19T08:47:02Z</time></trkpt><trkpt lat="45.01909198365671" lon="7.3407337265693835"><ele>603.0</ele><time>2026-04-19T08:47:04Z</time></trkpt><trkpt lat="45.01901253553913" lon="7.340773135254473"><ele>603.0</ele><time>2026-04-19T08:47:05Z</time></trkpt><trkpt lat="45.018913954953454" lon="7.340826203017054"><ele>603.0</ele><time>2026-04-19T08:47:06Z</time></trkpt><trkpt lat="45.018820903844535" lon="7.340893638648924"><ele>603.0</ele><time>2026-04-19T08:47:07Z</time></trkpt><trkpt lat="45.01872884251851" lon="7.340972014641185"><ele>603.0</ele><time>2026-04-19T08:47:08Z</time></trkpt><trkpt lat="45.0186315759394" lon="7.341010909837919"><ele>603.0</ele><time>2026-04-19T08:47:09Z</time></trkpt><trkpt lat="45.018536659955934" lon="7.341020386281545"><ele>603.0</ele><time>2026-04-19T08:47:10Z</time></trkpt><trkpt lat="45.01843243654314" lon="7.341027887469757"><ele>603.0</ele><time>2026-04-19T08:47:11Z</time></trkpt><trkpt lat="45.01833221696175" lon="7.341014686330815"><ele>604.5</ele><time>2026-04-19T08:47:12Z</time></trkpt><trkpt lat="45.0182343251671" lon="7.341000122777095"><ele>606.0</ele><time>2026-04-19T08:47:13Z</time></trkpt><trkpt lat="45.018132608715774" lon="7.341009899241907"><ele>607.5</ele><time>2026-04-19T08:47:14Z</time></trkpt><trkpt lat="45.01804258776646" lon="7.341028913904906"><ele>609.0</ele><time>2026-04-19T08:47:15Z</time></trkpt><trkpt lat="45.01797545870102" lon="7.3410410720527794"><ele>610.5</ele><time>2026-04-19T08:47:16Z</time></trkpt><trkpt lat="45.01790898525808" lon="7.34107181503005"><ele>612.0</ele><time>2026-04-19T08:47:18Z</time></trkpt><trkpt lat="45.017825622908546" lon="7.341104017956237"><ele>612.0</ele><time>2026-04-19T08:47:28.001Z</time></trkpt><trkpt lat="45.01770974761255" lon="7.341178812376932"><ele>612.0</ele><time>2026-04-19T08:47:30.001Z</time></trkpt><trkpt lat="45.01763882376796" lon="7.341229280661156"><ele>612.0</ele><time>2026-04-19T08:47:31.001Z</time></trkpt><trkpt lat="45.017565161753865" lon="7.341303687867552"><ele>612.0</ele><time>2026-04-19T08:47:32.001Z</time></trkpt><trkpt lat="45.01747442317104" lon="7.341356861474926"><ele>612.0</ele><time>2026-04-19T08:47:33.001Z</time></trkpt><trkpt lat="45.01738725423575" lon="7.341400682959155"><ele>616.2</ele><time>2026-04-19T08:47:34.001Z</time></trkpt><trkpt lat="45.017304130305796" lon="7.3414071937696415"><ele>620.4000000000001</ele><time>2026-04-19T08:47:35.001Z</time></trkpt><trkpt lat="45.01723578708329" lon="7.341415279411261"><ele>624.5999999999999</ele><time>2026-04-19T08:47:36.001Z</time></trkpt><trkpt lat="45.017181098911905" lon="7.341329339657568"><ele>628.8</ele><time>2026-04-19T08:47:38.001Z</time></trkpt><trkpt lat="45.01726851624233" lon="7.341185567298701"><ele>633.0</ele><time>2026-04-19T08:47:41.001Z</time></trkpt><trkpt lat="45.01728804915984" lon="7.341059148713852"><ele>633.0</ele><time>2026-04-19T08:47:42.001Z</time></trkpt><trkpt lat="45.01731233582704" lon="7.340915175739882"><ele>633.0</ele><time>2026-04-19T08:47:43.001Z</time></trkpt><trkpt lat="45.017307288043796" lon="7.3408262797912895"><ele>633.0</ele><time>2026-04-19T08:47:44.001Z</time></trkpt><trkpt lat="45.01727597469136" lon="7.340728850639689"><ele>633.0</ele><time>2026-04-19T08:47:45.001Z</time></trkpt><trkpt lat="45.01721417986283" lon="7.340590604943182"><ele>633.0</ele><time>2026-04-19T08:47:47.001Z</time></trkpt><trkpt lat="45.01717905203464" lon="7.340497707537954"><ele>633.0</ele><time>2026-04-19T08:47:48.001Z</time></trkpt><trkpt lat="45.01712945862961" lon="7.3404085914226345"><ele>632.1666666666666</ele><time>2026-04-19T08:47:49.002Z</time></trkpt><trkpt lat="45.017050651376636" lon="7.34033553078734"><ele>631.3333333333334</ele><time>2026-04-19T08:47:50.002Z</time></trkpt><trkpt lat="45.01699081675272" lon="7.340268687088093"><ele>630.5</ele><time>2026-04-19T08:47:51.002Z</time></trkpt><trkpt lat="45.01693916181569" lon="7.340172022829816"><ele>629.6666666666667</ele><time>2026-04-19T08:47:52.002Z</time></trkpt><trkpt lat="45.0168852365601" lon="7.34009092879422"><ele>628.8333333333334</ele><time>2026-04-19T08:47:53.002Z</time></trkpt><trkpt lat="45.01680179020198" lon="7.3400310197762995"><ele>628.0</ele><time>2026-04-19T08:47:54.002Z</time></trkpt><trkpt lat="45.016731383335866" lon="7.340063097789261"><ele>628.0</ele><time>2026-04-19T08:47:55.002Z</time></trkpt><trkpt lat="45.0166849151737" lon="7.340226151728625"><ele>628.0</ele><time>2026-04-19T08:47:56.002Z</time></trkpt><trkpt lat="45.01674577428099" lon="7.340406764990086"><ele>628.0</ele><time>2026-04-19T08:47:57.002Z</time></trkpt><trkpt lat="45.016752406585894" lon="7.340531487530175"><ele>628.0</ele><time>2026-04-19T08:47:58.002Z</time></trkpt><trkpt lat="45.01675748193477" lon="7.340653904761161"><ele>628.0</ele><time>2026-04-19T08:47:59.002Z</time></trkpt><trkpt lat="45.01676023943791" lon="7.340779057555967"><ele>628.8333333333334</ele><time>2026-04-19T08:48:00.002Z</time></trkpt><trkpt lat="45.01676949277826" lon="7.340900761221586"><ele>629.6666666666667</ele><time>2026-04-19T08:48:01.002Z</time></trkpt><trkpt lat="45.016764386461965" lon="7.3409909456381115"><ele>630.5</ele><time>2026-04-19T08:48:02.002Z</time></trkpt><trkpt lat="45.0166990159187" lon="7.3411466107130865"><ele>631.3333333333334</ele><time>2026-04-19T08:48:04.002Z</time></trkpt><trkpt lat="45.016652317200275" lon="7.341249712332726"><ele>632.1666666666666</ele><time>2026-04-19T08:48:05.002Z</time></trkpt><trkpt lat="45.016604660143884" lon="7.341341660857565"><ele>633.0</ele><time>2026-04-19T08:48:06.002Z</time></trkpt><trkpt lat="45.0165567230545" lon="7.341426172186793"><ele>636.0</ele><time>2026-04-19T08:48:07.002Z</time></trkpt><trkpt lat="45.01650223710665" lon="7.341511161742491"><ele>639.0</ele><time>2026-04-19T08:48:08.002Z</time></trkpt><trkpt lat="45.01645149792396" lon="7.341579617530307"><ele>642.0</ele><time>2026-04-19T08:48:09.002Z</time></trkpt><trkpt lat="45.0163642006521" lon="7.341668735343253"><ele>645.0</ele><time>2026-04-19T08:48:11.002Z</time></trkpt><trkpt lat="45.016276622271" lon="7.34174153965721"><ele>648.0</ele><time>2026-04-19T08:48:13.002Z</time></trkpt><trkpt lat="45.01622450365931" lon="7.341792020062724"><ele>651.0</ele><time>2026-04-19T08:48:14.002Z</time></trkpt><trkpt lat="45.01611034131299" lon="7.3417983846857116"><ele>651.0</ele><time>2026-04-19T08:48:15.002Z</time></trkpt><trkpt lat="45.01599542225236" lon="7.341834530908089"><ele>651.0</ele><time>2026-04-19T08:48:16.002Z</time></trkpt><trkpt lat="45.015872530174065" lon="7.34186381790085"><ele>651.0</ele><time>2026-04-19T08:48:17.002Z</time></trkpt><trkpt lat="45.01577687396648" lon="7.341874775327414"><ele>651.0</ele><time>2026-04-19T08:48:18.002Z</time></trkpt><trkpt lat="45.015696914230425" lon="7.341866980009815"><ele>651.0</ele><time>2026-04-19T08:48:19.002Z</time></trkpt><trkpt lat="45.015621591246685" lon="7.34185305080195"><ele>651.3333333333334</ele><time>2026-04-19T08:48:20.002Z</time></trkpt><trkpt lat="45.0155351931121" lon="7.341796833256614"><ele>651.6666666666666</ele><time>2026-04-19T08:48:22.003Z</time></trkpt><trkpt lat="45.01547190780695" lon="7.341754889146014"><ele>652.0</ele><time>2026-04-19T08:48:23.003Z</time></trkpt><trkpt lat="45.015403229037425" lon="7.341706471833914"><ele>652.3333333333333</ele><time>2026-04-19T08:48:24.003Z</time></trkpt><trkpt lat="45.01530344121189" lon="7.341632074575511"><ele>652.6666666666666</ele><time>2026-04-19T08:48:25.003Z</time></trkpt><trkpt lat="45.0152213532989" lon="7.341570873761819"><ele>653.0</ele><time>2026-04-19T08:48:26.003Z</time></trkpt><trkpt lat="45.01514610655009" lon="7.341514773233222"><ele>653.0</ele><time>2026-04-19T08:48:27.003Z</time></trkpt><trkpt lat="45.01505896222119" lon="7.341477649559394"><ele>653.0</ele><time>2026-04-19T08:48:28.003Z</time></trkpt><trkpt lat="45.01498015558382" lon="7.341421593764527"><ele>653.0</ele><time>2026-04-19T08:48:29.003Z</time></trkpt><trkpt lat="45.01488552520429" lon="7.341403231456915"><ele>653.0</ele><time>2026-04-19T08:48:30.003Z</time></trkpt><trkpt lat="45.01479080230169" lon="7.341368032477812"><ele>653.0</ele><time>2026-04-19T08:48:31.003Z</time></trkpt><trkpt lat="45.01466702848252" lon="7.341400265600533"><ele>654.0</ele><time>2026-04-19T08:48:32.003Z</time></trkpt><trkpt lat="45.01459229441571" lon="7.341443772506654"><ele>655.0</ele><time>2026-04-19T08:48:33.003Z</time></trkpt><trkpt lat="45.01453026010607" lon="7.341605596551233"><ele>656.0</ele><time>2026-04-19T08:48:35.003Z</time></trkpt><trkpt lat="45.014588053730314" lon="7.34170869880991"><ele>657.0</ele><time>2026-04-19T08:48:36.003Z</time></trkpt><trkpt lat="45.01464117878223" lon="7.341776198242325"><ele>658.0</ele><time>2026-04-19T08:48:37.003Z</time></trkpt><trkpt lat="45.01470810555364" lon="7.341934607496026"><ele>658.0</ele><time>2026-04-19T08:48:39.003Z</time></trkpt><trkpt lat="45.014745507940354" lon="7.342030430850876"><ele>658.0</ele><time>2026-04-19T08:48:40.003Z</time></trkpt><trkpt lat="45.01478429546496" lon="7.342142947174834"><ele>658.0</ele><time>2026-04-19T08:48:41.003Z</time></trkpt><trkpt lat="45.014828934427285" lon="7.34227577571267"><ele>658.0</ele><time>2026-04-19T08:48:42.003Z</time></trkpt><trkpt lat="45.01486478916016" lon="7.3423821325309095"><ele>658.0</ele><time>2026-04-19T08:48:43.003Z</time></trkpt><trkpt lat="45.01491599934393" lon="7.342527222393207"><ele>661.2</ele><time>2026-04-19T08:48:45.003Z</time></trkpt><trkpt lat="45.01486346716579" lon="7.342415386879319"><ele>664.4</ele><time>2026-04-19T08:48:50.003Z</time></trkpt><trkpt lat="45.01480664775088" lon="7.342325939840238"><ele>667.6</ele><time>2026-04-19T08:48:50.999Z</time></trkpt><trkpt lat="45.01473939738642" lon="7.342310938153347"><ele>670.8000000000001</ele><time>2026-04-19T08:48:52.999Z</time></trkpt><trkpt lat="45.01472255641" lon="7.342408193697685"><ele>674.0</ele><time>2026-04-19T08:48:54.999Z</time></trkpt><trkpt lat="45.01488833957435" lon="7.342502990683389"><ele>674.0</ele><time>2026-04-19T08:48:56.999Z</time></trkpt><trkpt lat="45.01492976658584" lon="7.342616321593943"><ele>674.0</ele><time>2026-04-19T08:48:57.999Z</time></trkpt><trkpt lat="45.01497738592102" lon="7.342720792845503"><ele>674.0</ele><time>2026-04-19T08:48:58.999Z</time></trkpt><trkpt lat="45.01501949338124" lon="7.342806886066611"><ele>674.0</ele><time>2026-04-19T08:48:59.999Z</time></trkpt><trkpt lat="45.01509422596828" lon="7.342955628543417"><ele>674.0</ele><time>2026-04-19T08:49:02Z</time></trkpt><trkpt lat="45.01514825258182" lon="7.343010842939528"><ele>674.0</ele><time>2026-04-19T08:49:03Z</time></trkpt><trkpt lat="45.01520840962262" lon="7.343062431949159"><ele>674.6666666666666</ele><time>2026-04-19T08:49:04Z</time></trkpt><trkpt lat="45.01527722083101" lon="7.343125883649756"><ele>675.3333333333333</ele><time>2026-04-19T08:49:05Z</time></trkpt><trkpt lat="45.015354173981365" lon="7.3431839285261695"><ele>676.0</ele><time>2026-04-19T08:49:06Z</time></trkpt><trkpt lat="45.01543238447059" lon="7.343238687554809"><ele>676.6666666666666</ele><time>2026-04-19T08:49:07Z</time></trkpt><trkpt lat="45.01550763807697" lon="7.34328775936642"><ele>677.3333333333334</ele><time>2026-04-19T08:49:08Z</time></trkpt><trkpt lat="45.01556549287945" lon="7.343323691706473"><ele>678.0</ele><time>2026-04-19T08:49:09Z</time></trkpt><trkpt lat="45.01564457443777" lon="7.3433632898986785"><ele>678.0</ele><time>2026-04-19T08:49:10Z</time></trkpt><trkpt lat="45.01571845952549" lon="7.3433822371668835"><ele>678.0</ele><time>2026-04-19T08:49:11Z</time></trkpt><trkpt lat="45.01579024920333" lon="7.343449349957338"><ele>678.0</ele><time>2026-04-19T08:49:12Z</time></trkpt><trkpt lat="45.01587435706978" lon="7.343502842178522"><ele>678.0</ele><time>2026-04-19T08:49:13Z</time></trkpt><trkpt lat="45.015974303388795" lon="7.343554338881122"><ele>678.0</ele><time>2026-04-19T08:49:14Z</time></trkpt><trkpt lat="45.01607292980108" lon="7.343603817372681"><ele>675.2</ele><time>2026-04-19T08:49:15Z</time></trkpt><trkpt lat="45.016166786284735" lon="7.3436403587963035"><ele>672.4</ele><time>2026-04-19T08:49:16Z</time></trkpt><trkpt lat="45.016264246710044" lon="7.343650978882118"><ele>669.6</ele><time>2026-04-19T08:49:17Z</time></trkpt><trkpt lat="45.0163407286033" lon="7.343717629384912"><ele>666.8000000000001</ele><time>2026-04-19T08:49:18Z</time></trkpt><trkpt lat="45.01639820467702" lon="7.343754646398696"><ele>664.0</ele><time>2026-04-19T08:49:19Z</time></trkpt><trkpt lat="45.0164993283076" lon="7.343815888183682"><ele>665.8333333333334</ele><time>2026-04-19T08:49:21Z</time></trkpt><trkpt lat="45.01641316860217" lon="7.343894329301464"><ele>667.6666666666667</ele><time>2026-04-19T08:49:25.001Z</time></trkpt><trkpt lat="45.01632304475211" lon="7.343896927531025"><ele>669.5</ele><time>2026-04-19T08:49:26.001Z</time></trkpt><trkpt lat="45.01624238288952" lon="7.343910479138846"><ele>671.3333333333334</ele><time>2026-04-19T08:49:27.001Z</time></trkpt><trkpt lat="45.016172074750635" lon="7.343960768411601"><ele>673.1666666666666</ele><time>2026-04-19T08:49:28.001Z</time></trkpt><trkpt lat="45.01609830327217" lon="7.344014151956572"><ele>675.0</ele><time>2026-04-19T08:49:29.001Z</time></trkpt><trkpt lat="45.01600836730877" lon="7.34407856950003"><ele>675.0</ele><time>2026-04-19T08:49:30.001Z</time></trkpt><trkpt lat="45.015853412747006" lon="7.344115546763951"><ele>675.0</ele><time>2026-04-19T08:49:32.001Z</time></trkpt><trkpt lat="45.01578549786665" lon="7.344125877698528"><ele>675.0</ele><time>2026-04-19T08:49:33.001Z</time></trkpt><trkpt lat="45.015693990814505" lon="7.34416625664543"><ele>675.0</ele><time>2026-04-19T08:49:34.001Z</time></trkpt><trkpt lat="45.01562261521501" lon="7.344129121855378"><ele>675.0</ele><time>2026-04-19T08:49:36.001Z</time></trkpt><trkpt lat="45.015562356526495" lon="7.344069815463906"><ele>677.5</ele><time>2026-04-19T08:49:37.001Z</time></trkpt><trkpt lat="45.015505258366524" lon="7.3440139244148295"><ele>680.0</ele><time>2026-04-19T08:49:38.001Z</time></trkpt><trkpt lat="45.015428684298016" lon="7.344039161937203"><ele>682.5</ele><time>2026-04-19T08:49:40.001Z</time></trkpt><trkpt lat="45.015376557091756" lon="7.344090051179774"><ele>685.0</ele><time>2026-04-19T08:50:21.002Z</time></trkpt><trkpt lat="45.01528491678609" lon="7.344136147424714"><ele>687.5</ele><time>2026-04-19T08:50:23.002Z</time></trkpt><trkpt lat="45.01520363218996" lon="7.344258061419084"><ele>690.0</ele><time>2026-04-19T08:50:25.002Z</time></trkpt><trkpt lat="45.015137188943946" lon="7.34437431348613"><ele>690.0</ele><time>2026-04-19T08:50:27.002Z</time></trkpt><trkpt lat="45.01505140807765" lon="7.344437056357203"><ele>690.0</ele><time>2026-04-19T08:50:29.003Z</time></trkpt><trkpt lat="45.01492665112919" lon="7.34445726864761"><ele>690.0</ele><time>2026-04-19T08:50:31.003Z</time></trkpt><trkpt lat="45.0148357952437" lon="7.344470482840532"><ele>690.0</ele><time>2026-04-19T08:50:32.003Z</time></trkpt><trkpt lat="45.01477652569524" lon="7.344526750066921"><ele>690.0</ele><time>2026-04-19T08:50:33.003Z</time></trkpt><trkpt lat="45.014735333833784" lon="7.3446181149471"><ele>692.1666666666666</ele><time>2026-04-19T08:50:34.003Z</time></trkpt><trkpt lat="45.01469671355198" lon="7.344720080680967"><ele>694.3333333333334</ele><time>2026-04-19T08:50:35.003Z</time></trkpt><trkpt lat="45.014664544329484" lon="7.344807568001485"><ele>696.5</ele><time>2026-04-19T08:50:36.003Z</time></trkpt><trkpt lat="45.01459632076016" lon="7.344866307827208"><ele>698.6666666666667</ele><time>2026-04-19T08:50:38.003Z</time></trkpt><trkpt lat="45.0145295304348" lon="7.344865383249215"><ele>700.8333333333334</ele><time>2026-04-19T08:50:39.003Z</time></trkpt><trkpt lat="45.0144469288907" lon="7.344883882630003"><ele>703.0</ele><time>2026-04-19T08:50:40.003Z</time></trkpt><trkpt lat="45.01438739589184" lon="7.34494012650334"><ele>703.0</ele><time>2026-04-19T08:50:41.003Z</time></trkpt><trkpt lat="45.01432403877488" lon="7.3450331104211815"><ele>703.0</ele><time>2026-04-19T08:50:42.003Z</time></trkpt><trkpt lat="45.01427389620486" lon="7.345113366303073"><ele>703.0</ele><time>2026-04-19T08:50:43.003Z</time></trkpt><trkpt lat="45.014230400799974" lon="7.345203188561323"><ele>703.0</ele><time>2026-04-19T08:50:44.003Z</time></trkpt><trkpt lat="45.014211595914496" lon="7.345304356032171"><ele>703.0</ele><time>2026-04-19T08:50:45.003Z</time></trkpt><trkpt lat="45.0141772894783" lon="7.345379329984699"><ele>703.0</ele><time>2026-04-19T08:50:46.003Z</time></trkpt><trkpt lat="45.01415131810103" lon="7.345466815871366"><ele>703.0</ele><time>2026-04-19T08:50:47.003Z</time></trkpt><trkpt lat="45.01412813968989" lon="7.345556544521648"><ele>705.6666666666667</ele><time>2026-04-19T08:50:48.003Z</time></trkpt><trkpt lat="45.01411948198974" lon="7.345667365490963"><ele>708.3333333333334</ele><time>2026-04-19T08:50:49.003Z</time></trkpt><trkpt lat="45.01411370012917" lon="7.345785730506119"><ele>711.0</ele><time>2026-04-19T08:50:50.003Z</time></trkpt><trkpt lat="45.014102989382195" lon="7.345875855520471"><ele>713.6666666666666</ele><time>2026-04-19T08:50:51.003Z</time></trkpt><trkpt lat="45.013998217478566" lon="7.345980759363784"><ele>716.3333333333333</ele><time>2026-04-19T08:50:53.003Z</time></trkpt><trkpt lat="45.01391812093046" lon="7.346020164988259"><ele>719.0</ele><time>2026-04-19T08:50:54.003Z</time></trkpt><trkpt lat="45.01384353005826" lon="7.346059872208714"><ele>719.0</ele><time>2026-04-19T08:50:55.003Z</time></trkpt><trkpt lat="45.01378668791997" lon="7.3461527119059"><ele>719.0</ele><time>2026-04-19T08:50:56.003Z</time></trkpt><trkpt lat="45.013729945322524" lon="7.346261430493685"><ele>719.0</ele><time>2026-04-19T08:50:57Z</time></trkpt><trkpt lat="45.01368131129284" lon="7.346348815039651"><ele>719.0</ele><time>2026-04-19T08:50:58Z</time></trkpt><trkpt lat="45.01360949725688" lon="7.34641949840866"><ele>719.0</ele><time>2026-04-19T08:50:59Z</time></trkpt><trkpt lat="45.01349184265168" lon="7.3464634510820614"><ele>718.2</ele><time>2026-04-19T08:51:01Z</time></trkpt><trkpt lat="45.01336035945124" lon="7.346486503582201"><ele>717.4000000000001</ele><time>2026-04-19T08:51:03Z</time></trkpt><trkpt lat="45.01329468889169" lon="7.346583555989538"><ele>716.6</ele><time>2026-04-19T08:51:05Z</time></trkpt><trkpt lat="45.01321033964914" lon="7.346690410317195"><ele>715.8</ele><time>2026-04-19T08:51:07Z</time></trkpt><trkpt lat="45.01317497178733" lon="7.3467796110947825"><ele>715.0</ele><time>2026-04-19T08:51:08Z</time></trkpt><trkpt lat="45.013126009888744" lon="7.34690115240424"><ele>715.0</ele><time>2026-04-19T08:51:10Z</time></trkpt><trkpt lat="45.01302836441128" lon="7.3469627871174525"><ele>715.0</ele><time>2026-04-19T08:51:12Z</time></trkpt><trkpt lat="45.01289855841697" lon="7.346943315875018"><ele>715.0</ele><time>2026-04-19T08:51:14Z</time></trkpt><trkpt lat="45.012779449891035" lon="7.3469778211188395"><ele>715.0</ele><time>2026-04-19T08:51:16Z</time></trkpt><trkpt lat="45.01272735616169" lon="7.347034545170024"><ele>715.0</ele><time>2026-04-19T08:51:17Z</time></trkpt><trkpt lat="45.012627103957904" lon="7.347068888408676"><ele>715.0</ele><time>2026-04-19T08:51:19Z</time></trkpt><trkpt lat="45.01255622254769" lon="7.347072737079479"><ele>715.0</ele><time>2026-04-19T08:51:20Z</time></trkpt><trkpt lat="45.012476633330046" lon="7.347067762862074"><ele>715.0</ele><time>2026-04-19T08:51:21Z</time></trkpt><trkpt lat="45.01240982879144" lon="7.347092472685907"><ele>715.0</ele><time>2026-04-19T08:51:22Z</time></trkpt><trkpt lat="45.01234576063568" lon="7.347176097440636"><ele>715.0</ele><time>2026-04-19T08:51:24Z</time></trkpt><trkpt lat="45.01230137694745" lon="7.347244455882821"><ele>715.0</ele><time>2026-04-19T08:51:25Z</time></trkpt><trkpt lat="45.012248244655325" lon="7.347313336783116"><ele>715.0</ele><time>2026-04-19T08:51:26Z</time></trkpt><trkpt lat="45.01218518184523" lon="7.347319428399804"><ele>715.0</ele><time>2026-04-19T08:51:28Z</time></trkpt><trkpt lat="45.01213307446355" lon="7.347369813919249"><ele>715.0</ele><time>2026-04-19T08:51:36.001Z</time></trkpt><trkpt lat="45.01213368199169" lon="7.347497454345011"><ele>715.0</ele><time>2026-04-19T08:51:41.001Z</time></trkpt><trkpt lat="45.01206357530289" lon="7.347563102854514"><ele>715.0</ele><time>2026-04-19T08:51:43.001Z</time></trkpt><trkpt lat="45.0120338398781" lon="7.347642616159286"><ele>715.0</ele><time>2026-04-19T08:51:46.001Z</time></trkpt><trkpt lat="45.01194333414694" lon="7.347729741870186"><ele>715.0</ele><time>2026-04-19T08:51:49.001Z</time></trkpt><trkpt lat="45.011893608048304" lon="7.347871561060434"><ele>715.0</ele><time>2026-04-19T08:51:52.001Z</time></trkpt><trkpt lat="45.01185898600431" lon="7.347991388301075"><ele>715.0</ele><time>2026-04-19T08:51:54.001Z</time></trkpt><trkpt lat="45.01182974362207" lon="7.348076229615347"><ele>715.0</ele><time>2026-04-19T08:51:56.001Z</time></trkpt><trkpt lat="45.01175163605974" lon="7.34813474624792"><ele>715.0</ele><time>2026-04-19T08:51:58.001Z</time></trkpt><trkpt lat="45.011706977125684" lon="7.3481987151839325"><ele>715.0</ele><time>2026-04-19T08:52:00.001Z</time></trkpt><trkpt lat="45.011631516887995" lon="7.348256018755285"><ele>715.0</ele><time>2026-04-19T08:52:01.001Z</time></trkpt><trkpt lat="45.011564336160404" lon="7.348321452601387"><ele>718.2857142857143</ele><time>2026-04-19T08:52:02.002Z</time></trkpt><trkpt lat="45.011481341023895" lon="7.348358666839248"><ele>721.5714285714286</ele><time>2026-04-19T08:52:04.002Z</time></trkpt><trkpt lat="45.01141622057713" lon="7.348375904129664"><ele>724.8571428571429</ele><time>2026-04-19T08:52:18.002Z</time></trkpt><trkpt lat="45.01136461858039" lon="7.348459665393794"><ele>728.1428571428571</ele><time>2026-04-19T08:52:21.002Z</time></trkpt><trkpt lat="45.011361634025505" lon="7.348550106065289"><ele>731.4285714285713</ele><time>2026-04-19T08:52:24.002Z</time></trkpt><trkpt lat="45.01139742557394" lon="7.34862722823499"><ele>734.7142857142857</ele><time>2026-04-19T08:52:27.002Z</time></trkpt><trkpt lat="45.011397790215035" lon="7.3487504055678725"><ele>738.0</ele><time>2026-04-19T08:52:29.002Z</time></trkpt><trkpt lat="45.0114037100202" lon="7.3488729584963925"><ele>738.0</ele><time>2026-04-19T08:52:32.002Z</time></trkpt><trkpt lat="45.01146685393441" lon="7.348924914679171"><ele>738.0</ele><time>2026-04-19T08:52:34.002Z</time></trkpt><trkpt lat="45.011508484892985" lon="7.348994450343381"><ele>738.0</ele><time>2026-04-19T08:52:36.003Z</time></trkpt><trkpt lat="45.01158856686862" lon="7.349131402241942"><ele>738.0</ele><time>2026-04-19T08:52:38.003Z</time></trkpt><trkpt lat="45.01167579299337" lon="7.349256104549646"><ele>738.0</ele><time>2026-04-19T08:52:40.003Z</time></trkpt><trkpt lat="45.0117291167534" lon="7.349335971497481"><ele>736.5</ele><time>2026-04-19T08:52:41.003Z</time></trkpt><trkpt lat="45.0117749396395" lon="7.349427151957343"><ele>735.0</ele><time>2026-04-19T08:52:42.003Z</time></trkpt><trkpt lat="45.01179827802995" lon="7.349510590857044"><ele>733.5</ele><time>2026-04-19T08:52:43.003Z</time></trkpt><trkpt lat="45.01185352089836" lon="7.349557231573451"><ele>732.0</ele><time>2026-04-19T08:52:45.003Z</time></trkpt><trkpt lat="45.011852045341875" lon="7.349705474409483"><ele>730.5</ele><time>2026-04-19T08:52:47.003Z</time></trkpt><trkpt lat="45.011836893332166" lon="7.349793050066437"><ele>729.0</ele><time>2026-04-19T08:52:48.003Z</time></trkpt><trkpt lat="45.011776479718556" lon="7.349896815067695"><ele>729.0</ele><time>2026-04-19T08:52:50.003Z</time></trkpt><trkpt lat="45.011707905069066" lon="7.3499282392503"><ele>729.0</ele><time>2026-04-19T08:53:01.003Z</time></trkpt><trkpt lat="45.011618499305605" lon="7.349960507483882"><ele>729.0</ele><time>2026-04-19T08:53:05Z</time></trkpt><trkpt lat="45.01153619544913" lon="7.350020882315898"><ele>729.0</ele><time>2026-04-19T08:53:08Z</time></trkpt><trkpt lat="45.011460294053585" lon="7.3500648843300675"><ele>729.0</ele><time>2026-04-19T08:53:09Z</time></trkpt><trkpt lat="45.01134386155727" lon="7.350009409446148"><ele>733.0</ele><time>2026-04-19T08:53:11Z</time></trkpt><trkpt lat="45.01125772710355" lon="7.349994137194679"><ele>737.0</ele><time>2026-04-19T08:53:12Z</time></trkpt><trkpt lat="45.01114106692889" lon="7.3500671372143325"><ele>741.0</ele><time>2026-04-19T08:53:14Z</time></trkpt><trkpt lat="45.011044122208006" lon="7.350020163339929"><ele>745.0</ele><time>2026-04-19T08:53:17Z</time></trkpt><trkpt lat="45.010931951251905" lon="7.349970983517223"><ele>749.0</ele><time>2026-04-19T08:53:19Z</time></trkpt><trkpt lat="45.01082485153028" lon="7.349924467678559"><ele>751.0</ele><time>2026-04-19T08:53:21Z</time></trkpt><trkpt lat="45.010746062520454" lon="7.349896453879563"><ele>753.0</ele><time>2026-04-19T08:53:28Z</time></trkpt><trkpt lat="45.01068282993642" lon="7.349857165554213"><ele>755.0</ele><time>2026-04-19T08:53:30Z</time></trkpt><trkpt lat="45.010603756505645" lon="7.349872077312025"><ele>757.0</ele><time>2026-04-19T08:53:35.001Z</time></trkpt><trkpt lat="45.010521686517905" lon="7.349862975526608"><ele>759.0</ele><time>2026-04-19T08:53:37.001Z</time></trkpt><trkpt lat="45.01043593456318" lon="7.349819419213987"><ele>761.0</ele><time>2026-04-19T08:53:39.001Z</time></trkpt><trkpt lat="45.010366076125344" lon="7.349785495675961"><ele>761.0</ele><time>2026-04-19T08:53:41.001Z</time></trkpt><trkpt lat="45.01030978270634" lon="7.349735761076496"><ele>761.0</ele><time>2026-04-19T08:54:07.002Z</time></trkpt><trkpt lat="45.010286845168814" lon="7.349632365744642"><ele>761.0</ele><time>2026-04-19T08:54:09.002Z</time></trkpt><trkpt lat="45.01022647713913" lon="7.3495345344087575"><ele>761.0</ele><time>2026-04-19T08:54:11.002Z</time></trkpt><trkpt lat="45.01018620495973" lon="7.34944203498237"><ele>761.0</ele><time>2026-04-19T08:54:13.002Z</time></trkpt><trkpt lat="45.01015185598845" lon="7.349349502797171"><ele>761.0</ele><time>2026-04-19T08:54:18.002Z</time></trkpt><trkpt lat="45.010068817073424" lon="7.349313890812714"><ele>758.0</ele><time>2026-04-19T08:54:21.002Z</time></trkpt><trkpt lat="45.009976515280016" lon="7.349287171914057"><ele>755.0</ele><time>2026-04-19T08:54:23.002Z</time></trkpt><trkpt lat="45.00987909798982" lon="7.349206269719426"><ele>752.0</ele><time>2026-04-19T08:54:25.002Z</time></trkpt><trkpt lat="45.00981897719484" lon="7.349099215021403"><ele>749.0</ele><time>2026-04-19T08:54:27.002Z</time></trkpt><trkpt lat="45.009748722763376" lon="7.348976891686668"><ele>746.0</ele><time>2026-04-19T08:54:29.002Z</time></trkpt><trkpt lat="45.009700349744456" lon="7.348901523316397"><ele>747.1999999999999</ele><time>2026-04-19T08:54:31.002Z</time></trkpt><trkpt lat="45.00972688243407" lon="7.348770859867757"><ele>748.4</ele><time>2026-04-19T08:54:41.003Z</time></trkpt><trkpt lat="45.00974965915721" lon="7.348628677564076"><ele>749.6</ele><time>2026-04-19T08:54:43.003Z</time></trkpt><trkpt lat="45.00974129542758" lon="7.348493928398247"><ele>750.8</ele><time>2026-04-19T08:54:45.003Z</time></trkpt><trkpt lat="45.009704324580106" lon="7.34833762254288"><ele>752.0</ele><time>2026-04-19T08:54:47.003Z</time></trkpt><trkpt lat="45.00971156636522" lon="7.348186082404098"><ele>752.0</ele><time>2026-04-19T08:54:49.003Z</time></trkpt><trkpt lat="45.00963811103717" lon="7.348134262703262"><ele>752.0</ele><time>2026-04-19T08:54:51.003Z</time></trkpt><trkpt lat="45.009573342050395" lon="7.348113628477337"><ele>752.0</ele><time>2026-04-19T08:54:52.003Z</time></trkpt><trkpt lat="45.00951076946068" lon="7.348010957051043"><ele>752.0</ele><time>2026-04-19T08:54:54.003Z</time></trkpt><trkpt lat="45.00942296500821" lon="7.347896282592041"><ele>752.0</ele><time>2026-04-19T08:55:07.003Z</time></trkpt><trkpt lat="45.009369313932474" lon="7.347839047501055"><ele>752.0</ele><time>2026-04-19T08:55:08.003Z</time></trkpt><trkpt lat="45.009278262279985" lon="7.347813730308201"><ele>754.2</ele><time>2026-04-19T08:55:09Z</time></trkpt><trkpt lat="45.00919652585556" lon="7.347754799536128"><ele>756.4000000000001</ele><time>2026-04-19T08:55:10Z</time></trkpt><trkpt lat="45.009121634719065" lon="7.34767740611427"><ele>758.5999999999999</ele><time>2026-04-19T08:55:11Z</time></trkpt><trkpt lat="45.00906629045353" lon="7.347518268777087"><ele>760.8</ele><time>2026-04-19T08:55:13Z</time></trkpt><trkpt lat="45.00905771110027" lon="7.347379658117132"><ele>763.0</ele><time>2026-04-19T08:55:14Z</time></trkpt><trkpt lat="45.00902591697741" lon="7.347276174656758"><ele>760.1666666666667</ele><time>2026-04-19T08:55:15Z</time></trkpt><trkpt lat="45.00897628447884" lon="7.347154251015729"><ele>757.3333333333334</ele><time>2026-04-19T08:55:16Z</time></trkpt><trkpt lat="45.00892523634677" lon="7.34705602037682"><ele>754.5</ele><time>2026-04-19T08:55:17Z</time></trkpt><trkpt lat="45.00887055714703" lon="7.346964416619027"><ele>751.6666666666666</ele><time>2026-04-19T08:55:18Z</time></trkpt><trkpt lat="45.00883278367891" lon="7.346859290092136"><ele>748.8333333333333</ele><time>2026-04-19T08:55:19Z</time></trkpt><trkpt lat="45.008794388356705" lon="7.3467872745288"><ele>746.0</ele><time>2026-04-19T08:55:20Z</time></trkpt><trkpt lat="45.008715111967106" lon="7.346719410775473"><ele>746.0</ele><time>2026-04-19T08:55:21Z</time></trkpt><trkpt lat="45.00864112126128" lon="7.3466672810483615"><ele>746.0</ele><time>2026-04-19T08:55:22Z</time></trkpt><trkpt lat="45.00856336423749" lon="7.346579973532413"><ele>746.0</ele><time>2026-04-19T08:55:23Z</time></trkpt><trkpt lat="45.008508389903305" lon="7.346510517198543"><ele>746.0</ele><time>2026-04-19T08:55:24Z</time></trkpt><trkpt lat="45.008442558698114" lon="7.34642524862559"><ele>746.0</ele><time>2026-04-19T08:55:25Z</time></trkpt><trkpt lat="45.00838394857829" lon="7.346353886523194"><ele>746.0</ele><time>2026-04-19T08:55:26Z</time></trkpt><trkpt lat="45.00831320915604" lon="7.3462754816861535"><ele>746.5999999999999</ele><time>2026-04-19T08:55:27Z</time></trkpt><trkpt lat="45.008272677638395" lon="7.346139568713139"><ele>747.2</ele><time>2026-04-19T08:55:29Z</time></trkpt><trkpt lat="45.00826298792939" lon="7.3459824080928895"><ele>747.8</ele><time>2026-04-19T08:55:31Z</time></trkpt><trkpt lat="45.00821635701383" lon="7.345916012142278"><ele>748.4000000000001</ele><time>2026-04-19T08:55:32Z</time></trkpt><trkpt lat="45.0081175570301" lon="7.345817012363389"><ele>749.0</ele><time>2026-04-19T08:55:33Z</time></trkpt><trkpt lat="45.008064802742716" lon="7.345764361921267"><ele>749.0</ele><time>2026-04-19T08:55:34Z</time></trkpt><trkpt lat="45.008046091862475" lon="7.345643384564304"><ele>749.0</ele><time>2026-04-19T08:55:35Z</time></trkpt><trkpt lat="45.007960416503714" lon="7.345576251654388"><ele>749.0</ele><time>2026-04-19T08:55:37Z</time></trkpt><trkpt lat="45.007896801184565" lon="7.345587795404129"><ele>749.0</ele><time>2026-04-19T08:55:38Z</time></trkpt><trkpt lat="45.00778562564064" lon="7.345662971748401"><ele>749.0</ele><time>2026-04-19T08:55:40.001Z</time></trkpt><trkpt lat="45.00769292859132" lon="7.3457299959721185"><ele>749.0</ele><time>2026-04-19T08:55:42.001Z</time></trkpt><trkpt lat="45.00761614299927" lon="7.345845079271995"><ele>749.0</ele><time>2026-04-19T08:55:44.001Z</time></trkpt><trkpt lat="45.00753921702517" lon="7.345938703888929"><ele>749.0</ele><time>2026-04-19T08:55:46.001Z</time></trkpt><trkpt lat="45.00742119475959" lon="7.345962779114823"><ele>749.0</ele><time>2026-04-19T08:55:48.001Z</time></trkpt><trkpt lat="45.00729435343248" lon="7.34595952976276"><ele>748.4000000000001</ele><time>2026-04-19T08:55:50.001Z</time></trkpt><trkpt lat="45.007216564495835" lon="7.345979260145562"><ele>747.8</ele><time>2026-04-19T08:55:52.001Z</time></trkpt><trkpt lat="45.00710256328346" lon="7.345896530060427"><ele>747.2</ele><time>2026-04-19T08:55:54.001Z</time></trkpt><trkpt lat="45.00699798504478" lon="7.3459032034408756"><ele>746.5999999999999</ele><time>2026-04-19T08:55:55.001Z</time></trkpt><trkpt lat="45.006899393173214" lon="7.345884261815964"><ele>746.0</ele><time>2026-04-19T08:55:56.001Z</time></trkpt><trkpt lat="45.00678562058649" lon="7.345864664133738"><ele>746.0</ele><time>2026-04-19T08:55:58.001Z</time></trkpt><trkpt lat="45.00670100827638" lon="7.345940346252763"><ele>746.0</ele><time>2026-04-19T08:55:59.001Z</time></trkpt><trkpt lat="45.00662545106572" lon="7.346026460912945"><ele>746.0</ele><time>2026-04-19T08:56:00.001Z</time></trkpt><trkpt lat="45.006557516186824" lon="7.346124950395379"><ele>746.0</ele><time>2026-04-19T08:56:01.001Z</time></trkpt><trkpt lat="45.00651508079338" lon="7.346235171200742"><ele>746.0</ele><time>2026-04-19T08:56:02.001Z</time></trkpt><trkpt lat="45.00647286098323" lon="7.346326368863711"><ele>747.3333333333333</ele><time>2026-04-19T08:56:03.001Z</time></trkpt><trkpt lat="45.00647356502591" lon="7.346462558937806"><ele>748.6666666666666</ele><time>2026-04-19T08:56:05.001Z</time></trkpt><trkpt lat="45.0064825515498" lon="7.346567504627003"><ele>750.0</ele><time>2026-04-19T08:56:06.001Z</time></trkpt><trkpt lat="45.006492692179776" lon="7.346675096125289"><ele>751.3333333333334</ele><time>2026-04-19T08:56:07.001Z</time></trkpt><trkpt lat="45.00652503079099" lon="7.346842008930643"><ele>752.6666666666667</ele><time>2026-04-19T08:56:09.001Z</time></trkpt><trkpt lat="45.006544998487875" lon="7.346936652013551"><ele>754.0</ele><time>2026-04-19T08:56:10.001Z</time></trkpt><trkpt lat="45.006569854338984" lon="7.3470581617244495"><ele>754.0</ele><time>2026-04-19T08:56:11.001Z</time></trkpt><trkpt lat="45.00660061033174" lon="7.347207938159901"><ele>754.0</ele><time>2026-04-19T08:56:12.001Z</time></trkpt><trkpt lat="45.00662803939079" lon="7.347322850885036"><ele>754.0</ele><time>2026-04-19T08:56:13.002Z</time></trkpt><trkpt lat="45.006639737279066" lon="7.347501224322356"><ele>754.0</ele><time>2026-04-19T08:56:15.002Z</time></trkpt><trkpt lat="45.00662141903424" lon="7.347626305575251"><ele>754.0</ele><time>2026-04-19T08:56:17.002Z</time></trkpt><trkpt lat="45.00664018722893" lon="7.347760643908614"><ele>751.0</ele><time>2026-04-19T08:56:19.002Z</time></trkpt><trkpt lat="45.006636662802805" lon="7.347934228526777"><ele>748.0</ele><time>2026-04-19T08:56:21.002Z</time></trkpt><trkpt lat="45.00659117327873" lon="7.348094030790666"><ele>745.0</ele><time>2026-04-19T08:56:23.002Z</time></trkpt><trkpt lat="45.00663164100896" lon="7.348263345891888"><ele>742.0</ele><time>2026-04-19T08:56:25.002Z</time></trkpt><trkpt lat="45.00668905311036" lon="7.348331137936381"><ele>739.0</ele><time>2026-04-19T08:56:26.002Z</time></trkpt><trkpt lat="45.006694591797206" lon="7.348475294275512"><ele>736.1666666666667</ele><time>2026-04-19T08:56:28.002Z</time></trkpt><trkpt lat="45.00664921408102" lon="7.3485554444255605"><ele>733.3333333333334</ele><time>2026-04-19T08:56:29.002Z</time></trkpt><trkpt lat="45.00658833622852" lon="7.348584559073764"><ele>730.5</ele><time>2026-04-19T08:56:30.002Z</time></trkpt><trkpt lat="45.00651800158367" lon="7.348717619221022"><ele>727.6666666666666</ele><time>2026-04-19T08:56:32.002Z</time></trkpt><trkpt lat="45.00646884938823" lon="7.348802255963417"><ele>724.8333333333333</ele><time>2026-04-19T08:56:33.002Z</time></trkpt><trkpt lat="45.006407949134875" lon="7.348874670332622"><ele>722.0</ele><time>2026-04-19T08:56:34.002Z</time></trkpt><trkpt lat="45.006340129478936" lon="7.348893260108959"><ele>718.0</ele><time>2026-04-19T08:56:36.002Z</time></trkpt><trkpt lat="45.006274917172654" lon="7.34899315162077"><ele>714.0</ele><time>2026-04-19T08:56:41.002Z</time></trkpt><trkpt lat="45.0061839061915" lon="7.3491330526861836"><ele>710.0</ele><time>2026-04-19T08:56:43.002Z</time></trkpt><trkpt lat="45.00613407322322" lon="7.349231863589572"><ele>706.0</ele><time>2026-04-19T08:56:44.002Z</time></trkpt><trkpt lat="45.00607040338608" lon="7.3493562820611995"><ele>702.0</ele><time>2026-04-19T08:56:46.002Z</time></trkpt><trkpt lat="45.006030019032444" lon="7.349497689311123"><ele>702.0</ele><time>2026-04-19T08:56:48.003Z</time></trkpt><trkpt lat="45.00594878741166" lon="7.349650533139161"><ele>702.0</ele><time>2026-04-19T08:56:50.003Z</time></trkpt><trkpt lat="45.005902338544665" lon="7.349767200638138"><ele>702.0</ele><time>2026-04-19T08:56:52.003Z</time></trkpt><trkpt lat="45.005857987647424" lon="7.349869562950034"><ele>702.0</ele><time>2026-04-19T08:56:54.003Z</time></trkpt><trkpt lat="45.0058078369397" lon="7.349974821368062"><ele>702.0</ele><time>2026-04-19T08:56:56.003Z</time></trkpt><trkpt lat="45.00579646679675" lon="7.350191940750968"><ele>697.2</ele><time>2026-04-19T08:56:58.003Z</time></trkpt><trkpt lat="45.005748362155494" lon="7.350307267595518"><ele>692.4000000000001</ele><time>2026-04-19T08:57:00.003Z</time></trkpt><trkpt lat="45.005679192802965" lon="7.350333141094123"><ele>687.5999999999999</ele><time>2026-04-19T08:57:02.003Z</time></trkpt><trkpt lat="45.00559727834233" lon="7.3503779022344835"><ele>682.8</ele><time>2026-04-19T08:57:04.003Z</time></trkpt><trkpt lat="45.005555379425864" lon="7.350495871677958"><ele>678.0</ele><time>2026-04-19T08:57:06.003Z</time></trkpt><trkpt lat="45.00555750855068" lon="7.350678104328975"><ele>678.0</ele><time>2026-04-19T08:57:08.003Z</time></trkpt><trkpt lat="45.00555635613212" lon="7.35083312583096"><ele>678.0</ele><time>2026-04-19T08:57:10.003Z</time></trkpt><trkpt lat="45.00548426619861" lon="7.350807215289609"><ele>678.0</ele><time>2026-04-19T08:57:14.003Z</time></trkpt><trkpt lat="45.00545072672307" lon="7.350714174333484"><ele>678.0</ele><time>2026-04-19T08:57:16Z</time></trkpt><trkpt lat="45.005405444415466" lon="7.350596353505987"><ele>678.0</ele><time>2026-04-19T08:57:19Z</time></trkpt><trkpt lat="45.00533841710948" lon="7.350487051427987"><ele>678.0</ele><time>2026-04-19T08:57:21Z</time></trkpt><trkpt lat="45.00526062809479" lon="7.350386780248047"><ele>678.0</ele><time>2026-04-19T08:57:23Z</time></trkpt><trkpt lat="45.0052291005888" lon="7.350231561524023"><ele>678.0</ele><time>2026-04-19T08:57:25Z</time></trkpt><trkpt lat="45.00523847364222" lon="7.3501102384094805"><ele>678.0</ele><time>2026-04-19T08:57:27Z</time></trkpt><trkpt lat="45.005303705779916" lon="7.35000261566241"><ele>678.0</ele><time>2026-04-19T08:57:29Z</time></trkpt><trkpt lat="45.00536696430667" lon="7.3498558135785785"><ele>678.0</ele><time>2026-04-19T08:57:31Z</time></trkpt><trkpt lat="45.005384937817084" lon="7.349761484838329"><ele>678.0</ele><time>2026-04-19T08:57:32Z</time></trkpt><trkpt lat="45.00539468076971" lon="7.349661062261063"><ele>678.0</ele><time>2026-04-19T08:57:33Z</time></trkpt><trkpt lat="45.00539656133498" lon="7.3495701388195105"><ele>678.0</ele><time>2026-04-19T08:57:34Z</time></trkpt><trkpt lat="45.00538059464558" lon="7.349471071853331"><ele>678.0</ele><time>2026-04-19T08:57:35Z</time></trkpt><trkpt lat="45.00535293950735" lon="7.3493101794366495"><ele>678.0</ele><time>2026-04-19T08:57:37Z</time></trkpt><trkpt lat="45.00532090432623" lon="7.349154516855897"><ele>680.0</ele><time>2026-04-19T08:57:39Z</time></trkpt><trkpt lat="45.005300398157" lon="7.349064513437002"><ele>682.0</ele><time>2026-04-19T08:57:40Z</time></trkpt><trkpt lat="45.00527429226645" lon="7.34897226030407"><ele>684.0</ele><time>2026-04-19T08:57:41Z</time></trkpt><trkpt lat="45.005243747147965" lon="7.348891338664822"><ele>686.0</ele><time>2026-04-19T08:57:42Z</time></trkpt><trkpt lat="45.00521198349281" lon="7.3488121689263535"><ele>688.0</ele><time>2026-04-19T08:57:43Z</time></trkpt><trkpt lat="45.00517902845463" lon="7.348660571909547"><ele>690.0</ele><time>2026-04-19T08:57:45Z</time></trkpt><trkpt lat="45.00517637590582" lon="7.348472189685101"><ele>692.0</ele><time>2026-04-19T08:57:47Z</time></trkpt><trkpt lat="45.005179085051445" lon="7.348356910587699"><ele>694.0</ele><time>2026-04-19T08:57:48Z</time></trkpt><trkpt lat="45.00519113740791" lon="7.348236178834422"><ele>696.0</ele><time>2026-04-19T08:57:49.001Z</time></trkpt><trkpt lat="45.00520353944008" lon="7.348102440670301"><ele>698.0</ele><time>2026-04-19T08:57:50.001Z</time></trkpt><trkpt lat="45.00520403119768" lon="7.347949258778566"><ele>700.0</ele><time>2026-04-19T08:57:51.001Z</time></trkpt><trkpt lat="45.00514198693082" lon="7.347811391658409"><ele>703.0</ele><time>2026-04-19T08:57:52.001Z</time></trkpt><trkpt lat="45.00511927894223" lon="7.347658700057353"><ele>706.0</ele><time>2026-04-19T08:57:53.001Z</time></trkpt><trkpt lat="45.0050809427356" lon="7.34750436223855"><ele>709.0</ele><time>2026-04-19T08:57:54.001Z</time></trkpt><trkpt lat="45.005052116430804" lon="7.34734658416894"><ele>712.0</ele><time>2026-04-19T08:57:55.001Z</time></trkpt><trkpt lat="45.005035982611155" lon="7.347179796799096"><ele>717.0</ele><time>2026-04-19T08:57:56.001Z</time></trkpt><trkpt lat="45.005020259278176" lon="7.34700284430072"><ele>722.0</ele><time>2026-04-19T08:57:57.001Z</time></trkpt><trkpt lat="45.00497207052721" lon="7.34684857560016"><ele>727.0</ele><time>2026-04-19T08:57:58.001Z</time></trkpt><trkpt lat="45.004889399290924" lon="7.346721315349448"><ele>732.0</ele><time>2026-04-19T08:57:59.001Z</time></trkpt><trkpt lat="45.0047939618925" lon="7.3466075860446445"><ele>726.0</ele><time>2026-04-19T08:58:00.001Z</time></trkpt><trkpt lat="45.00472228663005" lon="7.3464618170491605"><ele>720.0</ele><time>2026-04-19T08:58:01.001Z</time></trkpt><trkpt lat="45.00466660447281" lon="7.346311840845302"><ele>714.0</ele><time>2026-04-19T08:58:02.001Z</time></trkpt><trkpt lat="45.004623714475535" lon="7.346139449570987"><ele>708.0</ele><time>2026-04-19T08:58:03.001Z</time></trkpt><trkpt lat="45.00458855964702" lon="7.34596687506491"><ele>708.0</ele><time>2026-04-19T08:58:04.001Z</time></trkpt><trkpt lat="45.00455887778838" lon="7.3457885565079"><ele>708.0</ele><time>2026-04-19T08:58:05.001Z</time></trkpt><trkpt lat="45.004520675656075" lon="7.345619310484075"><ele>708.0</ele><time>2026-04-19T08:58:06.001Z</time></trkpt><trkpt lat="45.0045021952555" lon="7.345437718487291"><ele>708.0</ele><time>2026-04-19T08:58:07.001Z</time></trkpt><trkpt lat="45.00448700521169" lon="7.345262657797068"><ele>713.25</ele><time>2026-04-19T08:58:08.001Z</time></trkpt><trkpt lat="45.00447445271977" lon="7.345097381231983"><ele>718.5</ele><time>2026-04-19T08:58:09.001Z</time></trkpt><trkpt lat="45.00446224055313" lon="7.3449302334602615"><ele>723.75</ele><time>2026-04-19T08:58:10.001Z</time></trkpt><trkpt lat="45.00443713786949" lon="7.34476515957916"><ele>729.0</ele><time>2026-04-19T08:58:11.001Z</time></trkpt><trkpt lat="45.00444720025363" lon="7.344603271197225"><ele>733.0</ele><time>2026-04-19T08:58:12.001Z</time></trkpt><trkpt lat="45.004430217126846" lon="7.344460102088155"><ele>737.0</ele><time>2026-04-19T08:58:13.001Z</time></trkpt><trkpt lat="45.00436993051247" lon="7.344360214089419"><ele>741.0</ele><time>2026-04-19T08:58:14.001Z</time></trkpt><trkpt lat="45.00428920207028" lon="7.344259019264735"><ele>745.0</ele><time>2026-04-19T08:58:15.001Z</time></trkpt><trkpt lat="45.00421279637388" lon="7.344147938884776"><ele>749.0</ele><time>2026-04-19T08:58:16.001Z</time></trkpt><trkpt lat="45.00413086387443" lon="7.344015411792862"><ele>749.0</ele><time>2026-04-19T08:58:17.001Z</time></trkpt><trkpt lat="45.004045151168334" lon="7.343897240563776"><ele>749.0</ele><time>2026-04-19T08:58:18.001Z</time></trkpt><trkpt lat="45.00395327189904" lon="7.343788033608874"><ele>749.0</ele><time>2026-04-19T08:58:19.001Z</time></trkpt><trkpt lat="45.00384659839756" lon="7.343731634018951"><ele>749.0</ele><time>2026-04-19T08:58:20.002Z</time></trkpt><trkpt lat="45.0037202517241" lon="7.3436923441142214"><ele>749.0</ele><time>2026-04-19T08:58:21.002Z</time></trkpt><trkpt lat="45.00361633852413" lon="7.343661274368389"><ele>749.0</ele><time>2026-04-19T08:58:22.002Z</time></trkpt><trkpt lat="45.00353631658719" lon="7.3436654858104236"><ele>749.0</ele><time>2026-04-19T08:58:23.002Z</time></trkpt><trkpt lat="45.00346900308123" lon="7.343729515449229"><ele>749.0</ele><time>2026-04-19T08:58:24.002Z</time></trkpt><trkpt lat="45.003404945348066" lon="7.343849544330217"><ele>749.0</ele><time>2026-04-19T08:58:25.002Z</time></trkpt><trkpt lat="45.0033475040211" lon="7.343988103274448"><ele>753.8000000000001</ele><time>2026-04-19T08:58:26.002Z</time></trkpt><trkpt lat="45.003263739499026" lon="7.344123726115587"><ele>758.6</ele><time>2026-04-19T08:58:27.002Z</time></trkpt><trkpt lat="45.00319064696931" lon="7.344261338659524"><ele>763.4</ele><time>2026-04-19T08:58:28.002Z</time></trkpt><trkpt lat="45.003119648205846" lon="7.3443805123035935"><ele>768.2</ele><time>2026-04-19T08:58:29.002Z</time></trkpt><trkpt lat="45.0030537291626" lon="7.344448961968733"><ele>773.0</ele><time>2026-04-19T08:58:30.002Z</time></trkpt><trkpt lat="45.0029836119759" lon="7.344440345593538"><ele>773.0</ele><time>2026-04-19T08:58:31.002Z</time></trkpt><trkpt lat="45.00291129059074" lon="7.344426275707916"><ele>773.0</ele><time>2026-04-19T08:58:32.002Z</time></trkpt><trkpt lat="45.00282605481982" lon="7.344390915582691"><ele>773.0</ele><time>2026-04-19T08:58:33.002Z</time></trkpt><trkpt lat="45.00272216313798" lon="7.344350058222289"><ele>773.0</ele><time>2026-04-19T08:58:34.002Z</time></trkpt><trkpt lat="45.00262185807537" lon="7.3443398267918685"><ele>773.0</ele><time>2026-04-19T08:58:35.002Z</time></trkpt><trkpt lat="45.002524440573836" lon="7.344403553079933"><ele>771.2</ele><time>2026-04-19T08:58:36.002Z</time></trkpt><trkpt lat="45.00243553003954" lon="7.344469411230854"><ele>769.4</ele><time>2026-04-19T08:58:37.002Z</time></trkpt><trkpt lat="45.00235416973034" lon="7.344583058590135"><ele>767.6</ele><time>2026-04-19T08:58:38.002Z</time></trkpt><trkpt lat="45.002300372626934" lon="7.344721699964959"><ele>765.8000000000001</ele><time>2026-04-19T08:58:39.002Z</time></trkpt><trkpt lat="45.002241867901716" lon="7.34484000425407"><ele>764.0</ele><time>2026-04-19T08:58:40.002Z</time></trkpt><trkpt lat="45.002142621283255" lon="7.34497080366034"><ele>763.4000000000001</ele><time>2026-04-19T08:58:41.002Z</time></trkpt><trkpt lat="45.00205819988243" lon="7.345083199051048"><ele>762.8</ele><time>2026-04-19T08:58:42.002Z</time></trkpt><trkpt lat="45.00199227275092" lon="7.345186794812078"><ele>762.2</ele><time>2026-04-19T08:58:43.002Z</time></trkpt><trkpt lat="45.001929459300676" lon="7.345241324025103"><ele>761.5999999999999</ele><time>2026-04-19T08:58:44.002Z</time></trkpt><trkpt lat="45.001827449925386" lon="7.345209044446883"><ele>761.0</ele><time>2026-04-19T08:58:46.002Z</time></trkpt><trkpt lat="45.00182452304968" lon="7.345064723081418"><ele>761.0</ele><time>2026-04-19T08:58:47.002Z</time></trkpt><trkpt lat="45.001846640787114" lon="7.344980379210709"><ele>761.0</ele><time>2026-04-19T08:58:48.002Z</time></trkpt><trkpt lat="45.00188426958393" lon="7.344880254559521"><ele>761.0</ele><time>2026-04-19T08:58:49.002Z</time></trkpt><trkpt lat="45.001930465024984" lon="7.344745931932904"><ele>761.0</ele><time>2026-04-19T08:58:50.002Z</time></trkpt><trkpt lat="45.00197812819604" lon="7.344595191279064"><ele>761.0</ele><time>2026-04-19T08:58:51.002Z</time></trkpt><trkpt lat="45.00202093463775" lon="7.344429286237293"><ele>761.75</ele><time>2026-04-19T08:58:52.002Z</time></trkpt><trkpt lat="45.002056921876395" lon="7.344259535749658"><ele>762.5</ele><time>2026-04-19T08:58:53.003Z</time></trkpt><trkpt lat="45.00208317841086" lon="7.344081844606192"><ele>763.25</ele><time>2026-04-19T08:58:54.003Z</time></trkpt><trkpt lat="45.002097758992406" lon="7.3438971403511335"><ele>764.0</ele><time>2026-04-19T08:58:55.003Z</time></trkpt><trkpt lat="45.002101163781354" lon="7.343714365217989"><ele>764.75</ele><time>2026-04-19T08:58:56.003Z</time></trkpt><trkpt lat="45.00208305731693" lon="7.3435351121961245"><ele>765.5</ele><time>2026-04-19T08:58:57.003Z</time></trkpt><trkpt lat="45.00206711346196" lon="7.343362838783489"><ele>766.25</ele><time>2026-04-19T08:58:58.003Z</time></trkpt><trkpt lat="45.002049319655704" lon="7.343203026477591"><ele>767.0</ele><time>2026-04-19T08:58:59.003Z</time></trkpt><trkpt lat="45.00207805699882" lon="7.343082518430387"><ele>765.2</ele><time>2026-04-19T08:59:00.003Z</time></trkpt><trkpt lat="45.002118462626534" lon="7.343002114037463"><ele>763.4000000000001</ele><time>2026-04-19T08:59:01.003Z</time></trkpt><trkpt lat="45.002181408597224" lon="7.342901983332215"><ele>761.5999999999999</ele><time>2026-04-19T08:59:02.003Z</time></trkpt><trkpt lat="45.002233672831885" lon="7.3427616181250785"><ele>759.8</ele><time>2026-04-19T08:59:03.003Z</time></trkpt><trkpt lat="45.00227671115543" lon="7.342600021797024"><ele>758.0</ele><time>2026-04-19T08:59:04.003Z</time></trkpt><trkpt lat="45.00234908644784" lon="7.342458865115628"><ele>758.0</ele><time>2026-04-19T08:59:05.003Z</time></trkpt><trkpt lat="45.00240762322813" lon="7.342317101984317"><ele>758.0</ele><time>2026-04-19T08:59:06.003Z</time></trkpt><trkpt lat="45.00246155507432" lon="7.342218614064019"><ele>758.0</ele><time>2026-04-19T08:59:07.003Z</time></trkpt><trkpt lat="45.00251397756822" lon="7.3421606858354895"><ele>758.0</ele><time>2026-04-19T08:59:08.003Z</time></trkpt><trkpt lat="45.00259785824698" lon="7.342090854582573"><ele>758.0</ele><time>2026-04-19T08:59:09.003Z</time></trkpt><trkpt lat="45.002692920621946" lon="7.342005187758332"><ele>764.5</ele><time>2026-04-19T08:59:10.003Z</time></trkpt><trkpt lat="45.002800767598266" lon="7.341920498399575"><ele>771.0</ele><time>2026-04-19T08:59:11.003Z</time></trkpt><trkpt lat="45.00289829094848" lon="7.341815247154611"><ele>777.5</ele><time>2026-04-19T08:59:12.003Z</time></trkpt><trkpt lat="45.00298522879322" lon="7.3416861696859765"><ele>784.0</ele><time>2026-04-19T08:59:13.003Z</time></trkpt><trkpt lat="45.00307638335837" lon="7.341563565756803"><ele>784.0</ele><time>2026-04-19T08:59:14.003Z</time></trkpt><trkpt lat="45.003150446101586" lon="7.341417615433346"><ele>784.0</ele><time>2026-04-19T08:59:15.003Z</time></trkpt><trkpt lat="45.003228039853525" lon="7.341269798205741"><ele>784.0</ele><time>2026-04-19T08:59:16.003Z</time></trkpt><trkpt lat="45.003306740401925" lon="7.341121580356967"><ele>784.0</ele><time>2026-04-19T08:59:17.003Z</time></trkpt><trkpt lat="45.00338002543998" lon="7.340972195073827"><ele>791.25</ele><time>2026-04-19T08:59:18.003Z</time></trkpt><trkpt lat="45.00343820653509" lon="7.340808189265563"><ele>798.5</ele><time>2026-04-19T08:59:19.003Z</time></trkpt><trkpt lat="45.00351379293934" lon="7.3406662273655225"><ele>805.75</ele><time>2026-04-19T08:59:20.003Z</time></trkpt><trkpt lat="45.00354732537164" lon="7.340528476030423"><ele>813.0</ele><time>2026-04-19T08:59:21Z</time></trkpt><trkpt lat="45.00355739212187" lon="7.340388718592504"><ele>815.25</ele><time>2026-04-19T08:59:22Z</time></trkpt><trkpt lat="45.00353869235791" lon="7.34023398854716"><ele>817.5</ele><time>2026-04-19T08:59:23Z</time></trkpt><trkpt lat="45.00349271122038" lon="7.340065311799616"><ele>819.75</ele><time>2026-04-19T08:59:24Z</time></trkpt><trkpt lat="45.00343026974285" lon="7.33990280570022"><ele>822.0</ele><time>2026-04-19T08:59:25Z</time></trkpt><trkpt lat="45.003368952122464" lon="7.33974061399084"><ele>819.8</ele><time>2026-04-19T08:59:26Z</time></trkpt><trkpt lat="45.00330594491432" lon="7.339564262307882"><ele>817.6</ele><time>2026-04-19T08:59:27Z</time></trkpt><trkpt lat="45.00326005898449" lon="7.339415762897448"><ele>815.4</ele><time>2026-04-19T08:59:28Z</time></trkpt><trkpt lat="45.003241164400166" lon="7.339300707509934"><ele>813.1999999999999</ele><time>2026-04-19T08:59:29Z</time></trkpt><trkpt lat="45.003288021391164" lon="7.339187229525408"><ele>811.0</ele><time>2026-04-19T08:59:30Z</time></trkpt><trkpt lat="45.00328606546597" lon="7.339045424259993"><ele>811.0</ele><time>2026-04-19T08:59:31Z</time></trkpt><trkpt lat="45.003266255896065" lon="7.338893613509143"><ele>811.0</ele><time>2026-04-19T08:59:32Z</time></trkpt><trkpt lat="45.003195694534156" lon="7.33873469785504"><ele>811.0</ele><time>2026-04-19T08:59:33Z</time></trkpt><trkpt lat="45.00310312496652" lon="7.338599402938318"><ele>811.0</ele><time>2026-04-19T08:59:34Z</time></trkpt><trkpt lat="45.00300431698264" lon="7.338488116725462"><ele>817.5</ele><time>2026-04-19T08:59:35Z</time></trkpt><trkpt lat="45.00291801012718" lon="7.338372226742459"><ele>824.0</ele><time>2026-04-19T08:59:36Z</time></trkpt><trkpt lat="45.002817341362025" lon="7.338277880815172"><ele>830.5</ele><time>2026-04-19T08:59:37Z</time></trkpt><trkpt lat="45.00272001031918" lon="7.3381598185494"><ele>837.0</ele><time>2026-04-19T08:59:38Z</time></trkpt><trkpt lat="45.00261169418962" lon="7.338074914637428"><ele>834.8333333333334</ele><time>2026-04-19T08:59:39Z</time></trkpt><trkpt lat="45.00251269781501" lon="7.338003932784915"><ele>832.6666666666667</ele><time>2026-04-19T08:59:40Z</time></trkpt><trkpt lat="45.002437536078" lon="7.337947244762547"><ele>830.5</ele><time>2026-04-19T08:59:41Z</time></trkpt><trkpt lat="45.0023764510472" lon="7.3378882402855234"><ele>828.3333333333334</ele><time>2026-04-19T08:59:42Z</time></trkpt><trkpt lat="45.00232748491238" lon="7.337817579928061"><ele>826.1666666666667</ele><time>2026-04-19T08:59:43Z</time></trkpt><trkpt lat="45.002287445584855" lon="7.337723959096929"><ele>824.0</ele><time>2026-04-19T08:59:44Z</time></trkpt><trkpt lat="45.002261188026765" lon="7.3375933730224006"><ele>824.0</ele><time>2026-04-19T08:59:45Z</time></trkpt><trkpt lat="45.00222484186522" lon="7.337443030952063"><ele>824.0</ele><time>2026-04-19T08:59:46Z</time></trkpt><trkpt lat="45.00222663181037" lon="7.337276963908634"><ele>824.0</ele><time>2026-04-19T08:59:47Z</time></trkpt><trkpt lat="45.002190725788466" lon="7.337116885805855"><ele>824.0</ele><time>2026-04-19T08:59:48Z</time></trkpt><trkpt lat="45.00216979444365" lon="7.336984697310446"><ele>824.0</ele><time>2026-04-19T08:59:49Z</time></trkpt><trkpt lat="45.00211451781763" lon="7.33688939240723"><ele>828.6</ele><time>2026-04-19T08:59:50Z</time></trkpt><trkpt lat="45.00203763167958" lon="7.336795334288811"><ele>833.2</ele><time>2026-04-19T08:59:51Z</time></trkpt><trkpt lat="45.00193675107314" lon="7.336733189928957"><ele>837.8000000000001</ele><time>2026-04-19T08:59:52.001Z</time></trkpt><trkpt lat="45.001847208268195" lon="7.336655398196671"><ele>842.4000000000001</ele><time>2026-04-19T08:59:53.001Z</time></trkpt><trkpt lat="45.00176956530875" lon="7.336548824511314"><ele>847.0</ele><time>2026-04-19T08:59:54.001Z</time></trkpt><trkpt lat="45.00171393000022" lon="7.336412179434037"><ele>847.5</ele><time>2026-04-19T08:59:55.001Z</time></trkpt><trkpt lat="45.00164064947135" lon="7.3362703806964396"><ele>848.0</ele><time>2026-04-19T08:59:56.001Z</time></trkpt><trkpt lat="45.00155559464019" lon="7.336148709335389"><ele>848.5</ele><time>2026-04-19T08:59:57.001Z</time></trkpt><trkpt lat="45.001467952989664" lon="7.33605433275498"><ele>849.0</ele><time>2026-04-19T08:59:58.001Z</time></trkpt><trkpt lat="45.001375562664926" lon="7.335971061972938"><ele>849.0</ele><time>2026-04-19T08:59:59.001Z</time></trkpt><trkpt lat="45.00128140125094" lon="7.335898222654089"><ele>849.0</ele><time>2026-04-19T09:00:00.001Z</time></trkpt><trkpt lat="45.001179332574694" lon="7.335835716717839"><ele>849.0</ele><time>2026-04-19T09:00:01.001Z</time></trkpt><trkpt lat="45.001078490896276" lon="7.335773435985284"><ele>849.0</ele><time>2026-04-19T09:00:02.001Z</time></trkpt><trkpt lat="45.00098580912855" lon="7.335693732550863"><ele>849.0</ele><time>2026-04-19T09:00:03.001Z</time></trkpt><trkpt lat="45.00089752704956" lon="7.335598990369441"><ele>851.4000000000001</ele><time>2026-04-19T09:00:04.001Z</time></trkpt><trkpt lat="45.00084103054737" lon="7.335502921294975"><ele>853.8</ele><time>2026-04-19T09:00:05.001Z</time></trkpt><trkpt lat="45.000823893386666" lon="7.3354049096763525"><ele>856.1999999999999</ele><time>2026-04-19T09:00:06.001Z</time></trkpt><trkpt lat="45.00081511754356" lon="7.3352842101409665"><ele>858.5999999999999</ele><time>2026-04-19T09:00:07.001Z</time></trkpt><trkpt lat="45.00081224466011" lon="7.3351325931743565"><ele>861.0</ele><time>2026-04-19T09:00:08.001Z</time></trkpt><trkpt lat="45.00082274711197" lon="7.334974653158106"><ele>861.0</ele><time>2026-04-19T09:00:09.001Z</time></trkpt><trkpt lat="45.00084376269082" lon="7.334831353593084"><ele>860.9999999999999</ele><time>2026-04-19T09:00:10.001Z</time></trkpt><trkpt lat="45.00087085203693" lon="7.334685278655294"><ele>860.9999999999999</ele><time>2026-04-19T09:00:11.001Z</time></trkpt><trkpt lat="45.00091333715484" lon="7.3345460024302325"><ele>861.0</ele><time>2026-04-19T09:00:12.001Z</time></trkpt><trkpt lat="45.00095540186077" lon="7.334400552401767"><ele>861.0</ele><time>2026-04-19T09:00:13.001Z</time></trkpt><trkpt lat="45.00099139949614" lon="7.334251002978539"><ele>861.1999999999999</ele><time>2026-04-19T09:00:14.001Z</time></trkpt><trkpt lat="45.00102016995472" lon="7.334086576594819"><ele>861.3999999999999</ele><time>2026-04-19T09:00:15.001Z</time></trkpt><trkpt lat="45.001013016563526" lon="7.333954328454122"><ele>861.6</ele><time>2026-04-19T09:00:16.001Z</time></trkpt><trkpt lat="45.0009711831115" lon="7.3338409113824845"><ele>861.8</ele><time>2026-04-19T09:00:17.001Z</time></trkpt><trkpt lat="45.000906282360084" lon="7.333733117643685"><ele>862.0</ele><time>2026-04-19T09:00:18.001Z</time></trkpt><trkpt lat="45.00081707876964" lon="7.333645694814688"><ele>862.0</ele><time>2026-04-19T09:00:19.001Z</time></trkpt><trkpt lat="45.00070394589319" lon="7.333575825244489"><ele>862.0</ele><time>2026-04-19T09:00:20.001Z</time></trkpt><trkpt lat="45.000582351485825" lon="7.3335438673184035"><ele>862.0</ele><time>2026-04-19T09:00:21.001Z</time></trkpt><trkpt lat="45.000460857970985" lon="7.33352516148774"><ele>862.0</ele><time>2026-04-19T09:00:22.001Z</time></trkpt><trkpt lat="45.0003752620904" lon="7.3334885379253025"><ele>861.9999999999999</ele><time>2026-04-19T09:00:23.001Z</time></trkpt><trkpt lat="45.00030861233117" lon="7.333447305263618"><ele>862.0</ele><time>2026-04-19T09:00:24.001Z</time></trkpt><trkpt lat="45.0002595471541" lon="7.33336490508867"><ele>862.0</ele><time>2026-04-19T09:00:25.002Z</time></trkpt><trkpt lat="45.00022375558683" lon="7.333273343660123"><ele>862.0</ele><time>2026-04-19T09:00:26.002Z</time></trkpt><trkpt lat="45.00019517401765" lon="7.333150346400664"><ele>861.9999999999999</ele><time>2026-04-19T09:00:27.002Z</time></trkpt><trkpt lat="45.00017479264466" lon="7.33299595714812"><ele>862.0</ele><time>2026-04-19T09:00:28.002Z</time></trkpt><trkpt lat="45.00020135720736" lon="7.332841083549721"><ele>861.2</ele><time>2026-04-19T09:00:29.002Z</time></trkpt><trkpt lat="45.000219360584595" lon="7.33269062909645"><ele>860.4000000000001</ele><time>2026-04-19T09:00:30.002Z</time></trkpt><trkpt lat="45.00028119246831" lon="7.332563676425224"><ele>859.5999999999999</ele><time>2026-04-19T09:00:31.002Z</time></trkpt><trkpt lat="45.000350264648254" lon="7.332459509289405"><ele>858.8</ele><time>2026-04-19T09:00:32.002Z</time></trkpt><trkpt lat="45.00043400548743" lon="7.332434353065536"><ele>858.0</ele><time>2026-04-19T09:00:33.002Z</time></trkpt><trkpt lat="45.00051893757252" lon="7.332392767369534"><ele>858.0</ele><time>2026-04-19T09:00:34.002Z</time></trkpt><trkpt lat="45.00060901751299" lon="7.332337664218131"><ele>858.0</ele><time>2026-04-19T09:00:35.002Z</time></trkpt><trkpt lat="45.00070540492338" lon="7.332317683445564"><ele>858.0</ele><time>2026-04-19T09:00:36.002Z</time></trkpt><trkpt lat="45.00078411237729" lon="7.332292537221698"><ele>858.0</ele><time>2026-04-19T09:00:37.002Z</time></trkpt><trkpt lat="45.00084605463357" lon="7.332221392847566"><ele>858.0</ele><time>2026-04-19T09:00:38.002Z</time></trkpt><trkpt lat="45.00088716443367" lon="7.332110632343322"><ele>858.0</ele><time>2026-04-19T09:00:39.002Z</time></trkpt><trkpt lat="45.00090652238242" lon="7.3319720592873034"><ele>861.0</ele><time>2026-04-19T09:00:40.002Z</time></trkpt><trkpt lat="45.00095577381487" lon="7.331846972963398"><ele>864.0</ele><time>2026-04-19T09:00:41.002Z</time></trkpt><trkpt lat="45.001000925040316" lon="7.331711631070409"><ele>867.0</ele><time>2026-04-19T09:00:42.002Z</time></trkpt><trkpt lat="45.001053769084265" lon="7.3315802140236945"><ele>870.0</ele><time>2026-04-19T09:00:43.002Z</time></trkpt><trkpt lat="45.00111686495952" lon="7.331441547796022"><ele>873.0</ele><time>2026-04-19T09:00:44.002Z</time></trkpt><trkpt lat="45.00117700565072" lon="7.331293952541889"><ele>873.0</ele><time>2026-04-19T09:00:45.002Z</time></trkpt><trkpt lat="45.001209769048636" lon="7.331156162436332"><ele>873.0</ele><time>2026-04-19T09:00:46.002Z</time></trkpt><trkpt lat="45.00125778312336" lon="7.330990978831238"><ele>873.0</ele><time>2026-04-19T09:00:47.002Z</time></trkpt><trkpt lat="45.00127592864525" lon="7.330819166857027"><ele>873.0</ele><time>2026-04-19T09:00:48.002Z</time></trkpt><trkpt lat="45.00127612013918" lon="7.330652931011536"><ele>876.25</ele><time>2026-04-19T09:00:49.002Z</time></trkpt><trkpt lat="45.0012511934659" lon="7.330492781313861"><ele>879.5</ele><time>2026-04-19T09:00:50.002Z</time></trkpt><trkpt lat="45.00127029269901" lon="7.330314540955087"><ele>882.75</ele><time>2026-04-19T09:00:51.002Z</time></trkpt><trkpt lat="45.00127277469943" lon="7.330136741831997"><ele>886.0</ele><time>2026-04-19T09:00:52.002Z</time></trkpt><trkpt lat="45.00127516760833" lon="7.329965324769032"><ele>886.0</ele><time>2026-04-19T09:00:53.002Z</time></trkpt><trkpt lat="45.00127729598289" lon="7.329792362028534"><ele>886.0</ele><time>2026-04-19T09:00:54.002Z</time></trkpt><trkpt lat="45.00127600768391" lon="7.329617071328837"><ele>886.0</ele><time>2026-04-19T09:00:55.002Z</time></trkpt><trkpt lat="45.00126642195078" lon="7.329443879916707"><ele>886.0</ele><time>2026-04-19T09:00:56.002Z</time></trkpt><trkpt lat="45.00123687850306" lon="7.329281823298767"><ele>889.0</ele><time>2026-04-19T09:00:57.002Z</time></trkpt><trkpt lat="45.0012024039443" lon="7.3291371203363544"><ele>891.9999999999999</ele><time>2026-04-19T09:00:58.003Z</time></trkpt><trkpt lat="45.00115867391061" lon="7.329003318664216"><ele>894.9999999999999</ele><time>2026-04-19T09:00:59.003Z</time></trkpt><trkpt lat="45.001106666502764" lon="7.328880362099951"><ele>898.0</ele><time>2026-04-19T09:01:00.003Z</time></trkpt><trkpt lat="45.00104756162087" lon="7.328780039760836"><ele>901.0</ele><time>2026-04-19T09:01:01.003Z</time></trkpt><trkpt lat="45.00099237349516" lon="7.328696858276729"><ele>901.0</ele><time>2026-04-19T09:01:02.003Z</time></trkpt><trkpt lat="45.0009237720686" lon="7.328620266344656"><ele>900.9999999999999</ele><time>2026-04-19T09:01:03.003Z</time></trkpt><trkpt lat="45.00085028673482" lon="7.32853565439566"><ele>900.9999999999999</ele><time>2026-04-19T09:01:04.003Z</time></trkpt><trkpt lat="45.000778535313756" lon="7.328441113439559"><ele>901.0</ele><time>2026-04-19T09:01:05.003Z</time></trkpt><trkpt lat="45.00070700319833" lon="7.328330047709607"><ele>901.0</ele><time>2026-04-19T09:01:06.003Z</time></trkpt><trkpt lat="45.000637602382206" lon="7.328214228984685"><ele>899.4</ele><time>2026-04-19T09:01:07.003Z</time></trkpt><trkpt lat="45.00057039114402" lon="7.328095354298844"><ele>897.8</ele><time>2026-04-19T09:01:08.003Z</time></trkpt><trkpt lat="45.00049447445818" lon="7.327977994452589"><ele>896.1999999999999</ele><time>2026-04-19T09:01:09.003Z</time></trkpt><trkpt lat="45.00043589844367" lon="7.327840990136822"><ele>894.5999999999999</ele><time>2026-04-19T09:01:10.003Z</time></trkpt><trkpt lat="45.000371595231464" lon="7.327709497461555"><ele>893.0</ele><time>2026-04-19T09:01:11.003Z</time></trkpt><trkpt lat="45.00031317960269" lon="7.3275833843008025"><ele>892.4</ele><time>2026-04-19T09:01:12.003Z</time></trkpt><trkpt lat="45.00025661612371" lon="7.327451202177888"><ele>891.8</ele><time>2026-04-19T09:01:13.003Z</time></trkpt><trkpt lat="45.00020560896122" lon="7.327326252782868"><ele>891.2</ele><time>2026-04-19T09:01:14.003Z</time></trkpt><trkpt lat="45.00016333791556" lon="7.327212573856435"><ele>890.6</ele><time>2026-04-19T09:01:15.003Z</time></trkpt><trkpt lat="45.00012737103309" lon="7.327115732873806"><ele>890.0</ele><time>2026-04-19T09:01:16.003Z</time></trkpt><trkpt lat="45.00006516219435" lon="7.327011894654177"><ele>892.5</ele><time>2026-04-19T09:01:17.003Z</time></trkpt><trkpt lat="44.99999698451316" lon="7.326898069324109"><ele>895.0</ele><time>2026-04-19T09:01:18.003Z</time></trkpt><trkpt lat="44.99992252087202" lon="7.326768169277078"><ele>897.5</ele><time>2026-04-19T09:01:19.003Z</time></trkpt><trkpt lat="44.99983900598493" lon="7.32666426688394"><ele>900.0</ele><time>2026-04-19T09:01:20.003Z</time></trkpt><trkpt lat="44.99976482865433" lon="7.32653196618776"><ele>900.0</ele><time>2026-04-19T09:01:21.003Z</time></trkpt><trkpt lat="44.99968705218948" lon="7.326409465722999"><ele>900.0</ele><time>2026-04-19T09:01:22.003Z</time></trkpt><trkpt lat="44.999621049745954" lon="7.326286772159722"><ele>900.0</ele><time>2026-04-19T09:01:23.003Z</time></trkpt><trkpt lat="44.99957008691405" lon="7.326155613864424"><ele>900.0</ele><time>2026-04-19T09:01:24.003Z</time></trkpt><trkpt lat="44.9995380499087" lon="7.326018630634905"><ele>900.0</ele><time>2026-04-19T09:01:25.003Z</time></trkpt><trkpt lat="44.99952245428523" lon="7.325872058914627"><ele>901.5</ele><time>2026-04-19T09:01:26.003Z</time></trkpt><trkpt lat="44.999480127478805" lon="7.3257143638654325"><ele>903.0</ele><time>2026-04-19T09:01:26.999Z</time></trkpt><trkpt lat="44.99945411181009" lon="7.325548795351712"><ele>904.5</ele><time>2026-04-19T09:01:27.999Z</time></trkpt><trkpt lat="44.99940084304132" lon="7.325404948321919"><ele>906.0</ele><time>2026-04-19T09:01:28.999Z</time></trkpt><trkpt lat="44.99936476740927" lon="7.3252506318764405"><ele>908.1999999999999</ele><time>2026-04-19T09:01:29.999Z</time></trkpt><trkpt lat="44.99931812086089" lon="7.325107011255518"><ele>910.3999999999999</ele><time>2026-04-19T09:01:30.999Z</time></trkpt><trkpt lat="44.99926819226487" lon="7.324954922909773"><ele>912.6</ele><time>2026-04-19T09:01:31.999Z</time></trkpt><trkpt lat="44.999211725672446" lon="7.32482082812845"><ele>914.8</ele><time>2026-04-19T09:01:32.999Z</time></trkpt><trkpt lat="44.99914360367761" lon="7.324723502729849"><ele>917.0</ele><time>2026-04-19T09:01:33.999Z</time></trkpt><trkpt lat="44.99905453394962" lon="7.324650676938326"><ele>918.4000000000001</ele><time>2026-04-19T09:01:34.999Z</time></trkpt><trkpt lat="44.99894953144405" lon="7.324607013020508"><ele>919.8000000000001</ele><time>2026-04-19T09:01:35.999Z</time></trkpt><trkpt lat="44.99884051603157" lon="7.324574582583416"><ele>921.2</ele><time>2026-04-19T09:01:36.999Z</time></trkpt><trkpt lat="44.99874495474533" lon="7.324523053570741"><ele>922.6</ele><time>2026-04-19T09:01:38Z</time></trkpt><trkpt lat="44.99866118087187" lon="7.324469749413183"><ele>924.0</ele><time>2026-04-19T09:01:39Z</time></trkpt><trkpt lat="44.99858947655975" lon="7.324416989522854"><ele>924.0</ele><time>2026-04-19T09:01:40Z</time></trkpt><trkpt lat="44.998531925391674" lon="7.3243749127663405"><ele>924.0</ele><time>2026-04-19T09:01:41Z</time></trkpt><trkpt lat="44.998497959747766" lon="7.324216738295307"><ele>924.0</ele><time>2026-04-19T09:01:43Z</time></trkpt><trkpt lat="44.9984943270093" lon="7.324116457429051"><ele>924.0</ele><time>2026-04-19T09:01:44Z</time></trkpt><trkpt lat="44.99847248837722" lon="7.323993509696218"><ele>924.0</ele><time>2026-04-19T09:01:45Z</time></trkpt><trkpt lat="44.998457187168015" lon="7.3238443790775705"><ele>924.0</ele><time>2026-04-19T09:01:46Z</time></trkpt><trkpt lat="44.99843123456519" lon="7.323674611737152"><ele>923.0</ele><time>2026-04-19T09:01:47Z</time></trkpt><trkpt lat="44.998406010858794" lon="7.32350245028181"><ele>922.0</ele><time>2026-04-19T09:01:48Z</time></trkpt><trkpt lat="44.99838524950963" lon="7.323320609367683"><ele>921.0</ele><time>2026-04-19T09:01:49Z</time></trkpt><trkpt lat="44.99836344616012" lon="7.323158269441238"><ele>920.0</ele><time>2026-04-19T09:01:50Z</time></trkpt><trkpt lat="44.99833160093077" lon="7.323013975973301"><ele>915.25</ele><time>2026-04-19T09:01:51Z</time></trkpt><trkpt lat="44.99826958885307" lon="7.322886718660818"><ele>910.5</ele><time>2026-04-19T09:01:52Z</time></trkpt><trkpt lat="44.998179904451916" lon="7.3227664614724"><ele>905.75</ele><time>2026-04-19T09:01:53Z</time></trkpt><trkpt lat="44.99808951758283" lon="7.322627622883889"><ele>901.0</ele><time>2026-04-19T09:01:54Z</time></trkpt><trkpt lat="44.997989603237194" lon="7.322494518395457"><ele>901.0</ele><time>2026-04-19T09:01:55Z</time></trkpt><trkpt lat="44.997901112409835" lon="7.322352356144167"><ele>901.0</ele><time>2026-04-19T09:01:56Z</time></trkpt><trkpt lat="44.99781675308769" lon="7.322237108078151"><ele>901.0</ele><time>2026-04-19T09:01:57Z</time></trkpt><trkpt lat="44.99774533273909" lon="7.322114458526429"><ele>901.0</ele><time>2026-04-19T09:01:58Z</time></trkpt><trkpt lat="44.9976817425193" lon="7.321992888924541"><ele>899.25</ele><time>2026-04-19T09:01:59Z</time></trkpt><trkpt lat="44.997620930152756" lon="7.321864262844125"><ele>897.5</ele><time>2026-04-19T09:02:00Z</time></trkpt><trkpt lat="44.99755534625344" lon="7.321717486374776"><ele>895.75</ele><time>2026-04-19T09:02:01Z</time></trkpt><trkpt lat="44.99748739330654" lon="7.321567706077855"><ele>894.0</ele><time>2026-04-19T09:02:02.001Z</time></trkpt><trkpt lat="44.99741811102562" lon="7.321442585633151"><ele>894.5</ele><time>2026-04-19T09:02:03.001Z</time></trkpt><trkpt lat="44.99733019393682" lon="7.3213349857159935"><ele>895.0</ele><time>2026-04-19T09:02:04.001Z</time></trkpt><trkpt lat="44.99722135333374" lon="7.321242560984584"><ele>895.5</ele><time>2026-04-19T09:02:05.001Z</time></trkpt><trkpt lat="44.99710501020567" lon="7.321159158515126"><ele>896.0</ele><time>2026-04-19T09:02:06.001Z</time></trkpt><trkpt lat="44.99699657648209" lon="7.321077139201383"><ele>896.0</ele><time>2026-04-19T09:02:07.001Z</time></trkpt><trkpt lat="44.996896749209895" lon="7.320995546253922"><ele>896.0</ele><time>2026-04-19T09:02:08.001Z</time></trkpt><trkpt lat="44.99679062368742" lon="7.3209025415025755"><ele>896.0</ele><time>2026-04-19T09:02:09.001Z</time></trkpt><trkpt lat="44.99667886853145" lon="7.320812279822772"><ele>896.0</ele><time>2026-04-19T09:02:10.001Z</time></trkpt><trkpt lat="44.99656845782702" lon="7.320707673828858"><ele>892.75</ele><time>2026-04-19T09:02:11.001Z</time></trkpt><trkpt lat="44.99646035575748" lon="7.320601638478851"><ele>889.5</ele><time>2026-04-19T09:02:12.001Z</time></trkpt><trkpt lat="44.99635831986742" lon="7.320503022848025"><ele>886.25</ele><time>2026-04-19T09:02:13.001Z</time></trkpt><trkpt lat="44.99625344294627" lon="7.32040203114881"><ele>883.0</ele><time>2026-04-19T09:02:14.001Z</time></trkpt><trkpt lat="44.996152717738255" lon="7.320291134160281"><ele>881.25</ele><time>2026-04-19T09:02:15.001Z</time></trkpt><trkpt lat="44.99604976764156" lon="7.320186134029331"><ele>879.5</ele><time>2026-04-19T09:02:16.001Z</time></trkpt><trkpt lat="44.99594473339329" lon="7.320085498419042"><ele>877.75</ele><time>2026-04-19T09:02:17.001Z</time></trkpt><trkpt lat="44.99583873996626" lon="7.319992244139623"><ele>876.0</ele><time>2026-04-19T09:02:18.001Z</time></trkpt><trkpt lat="44.995741971979974" lon="7.319890693580503"><ele>875.5</ele><time>2026-04-19T09:02:19.001Z</time></trkpt><trkpt lat="44.99564187585202" lon="7.319845721398959"><ele>875.0</ele><time>2026-04-19T09:02:20.001Z</time></trkpt><trkpt lat="44.99556622128875" lon="7.319805081733126"><ele>874.5</ele><time>2026-04-19T09:02:21.001Z</time></trkpt><trkpt lat="44.995510407282104" lon="7.319749412750668"><ele>874.0</ele><time>2026-04-19T09:02:22.001Z</time></trkpt><trkpt lat="44.995419950814345" lon="7.319699661340378"><ele>873.5</ele><time>2026-04-19T09:02:24.001Z</time></trkpt><trkpt lat="44.99534019807887" lon="7.319671548077611"><ele>873.0</ele><time>2026-04-19T09:02:25.001Z</time></trkpt><trkpt lat="44.995264244906046" lon="7.319568021086774"><ele>872.0</ele><time>2026-04-19T09:02:26.001Z</time></trkpt><trkpt lat="44.995182184472185" lon="7.319450896900229"><ele>871.0</ele><time>2026-04-19T09:02:27.001Z</time></trkpt><trkpt lat="44.99509957068662" lon="7.319316519035196"><ele>870.0</ele><time>2026-04-19T09:02:28.001Z</time></trkpt><trkpt lat="44.99502063885231" lon="7.319185603082515"><ele>869.0</ele><time>2026-04-19T09:02:29.001Z</time></trkpt><trkpt lat="44.99494134174044" lon="7.319064432088144"><ele>869.0</ele><time>2026-04-19T09:02:30.001Z</time></trkpt><trkpt lat="44.99484678991867" lon="7.318985891814697"><ele>869.0</ele><time>2026-04-19T09:02:31.001Z</time></trkpt><trkpt lat="44.99474060954183" lon="7.318941480491326"><ele>869.0</ele><time>2026-04-19T09:02:32.002Z</time></trkpt><trkpt lat="44.9946199101434" lon="7.318921792885198"><ele>869.0</ele><time>2026-04-19T09:02:33.002Z</time></trkpt><trkpt lat="44.994492637119755" lon="7.318896587604133"><ele>865.6</ele><time>2026-04-19T09:02:34.002Z</time></trkpt><trkpt lat="44.99436708554705" lon="7.318871474524314"><ele>862.2</ele><time>2026-04-19T09:02:35.002Z</time></trkpt><trkpt lat="44.99425397295318" lon="7.318841138633866"><ele>858.8000000000001</ele><time>2026-04-19T09:02:36.002Z</time></trkpt><trkpt lat="44.99415179144107" lon="7.318818502249985"><ele>855.4000000000001</ele><time>2026-04-19T09:02:37.002Z</time></trkpt><trkpt lat="44.994067504665175" lon="7.318790377481278"><ele>852.0</ele><time>2026-04-19T09:02:38.002Z</time></trkpt><trkpt lat="44.99400328579321" lon="7.3187444757366915"><ele>852.0</ele><time>2026-04-19T09:02:39.002Z</time></trkpt><trkpt lat="44.99397305330299" lon="7.31865722611749"><ele>852.0</ele><time>2026-04-19T09:02:40.002Z</time></trkpt><trkpt lat="44.99399107528322" lon="7.31855527589196"><ele>852.0</ele><time>2026-04-19T09:02:41.002Z</time></trkpt><trkpt lat="44.99405178578055" lon="7.318496570424986"><ele>852.0</ele><time>2026-04-19T09:02:42.002Z</time></trkpt><trkpt lat="44.99412839541235" lon="7.318494871390903"><ele>852.0</ele><time>2026-04-19T09:02:43.002Z</time></trkpt><trkpt lat="44.99420138468671" lon="7.318589242734478"><ele>852.0</ele><time>2026-04-19T09:02:44.002Z</time></trkpt><trkpt lat="44.994289101430155" lon="7.318651985335619"><ele>852.0</ele><time>2026-04-19T09:02:45.002Z</time></trkpt><trkpt lat="44.99436676761282" lon="7.318704389421714"><ele>852.0</ele><time>2026-04-19T09:02:46.002Z</time></trkpt><trkpt lat="44.994445729976334" lon="7.318695773816074"><ele>852.0</ele><time>2026-04-19T09:02:47.002Z</time></trkpt><trkpt lat="44.99451071527262" lon="7.318658094882942"><ele>852.0</ele><time>2026-04-19T09:02:48.002Z</time></trkpt><trkpt lat="44.9945328540612" lon="7.31856463534032"><ele>852.0</ele><time>2026-04-19T09:02:49.002Z</time></trkpt><trkpt lat="44.994513091476065" lon="7.318470348973819"><ele>852.0</ele><time>2026-04-19T09:02:50.002Z</time></trkpt><trkpt lat="44.994454327277" lon="7.318370495785368"><ele>852.0</ele><time>2026-04-19T09:02:51.002Z</time></trkpt><trkpt lat="44.99437539980803" lon="7.318251452260921"><ele>852.0</ele><time>2026-04-19T09:02:52.002Z</time></trkpt><trkpt lat="44.99431098862366" lon="7.318120763449345"><ele>852.0</ele><time>2026-04-19T09:02:53.002Z</time></trkpt><trkpt lat="44.994249478438945" lon="7.317984614653911"><ele>852.0</ele><time>2026-04-19T09:02:54.002Z</time></trkpt><trkpt lat="44.994177428254815" lon="7.317880993203316"><ele>852.0</ele><time>2026-04-19T09:02:55.002Z</time></trkpt><trkpt lat="44.994091251316554" lon="7.317782035167399"><ele>846.25</ele><time>2026-04-19T09:02:56.002Z</time></trkpt><trkpt lat="44.99397781703094" lon="7.317749668673281"><ele>840.5</ele><time>2026-04-19T09:02:57.002Z</time></trkpt><trkpt lat="44.99386974912043" lon="7.317773869727114"><ele>834.75</ele><time>2026-04-19T09:02:58.002Z</time></trkpt><trkpt lat="44.99375233637323" lon="7.317821663416791"><ele>829.0</ele><time>2026-04-19T09:02:59.002Z</time></trkpt><trkpt lat="44.993632373208136" lon="7.317835819636871"><ele>829.0</ele><time>2026-04-19T09:03:00.002Z</time></trkpt><trkpt lat="44.99351253344015" lon="7.3178746319591"><ele>829.0</ele><time>2026-04-19T09:03:01.002Z</time></trkpt><trkpt lat="44.993406441477774" lon="7.317939872831495"><ele>829.0</ele><time>2026-04-19T09:03:02.002Z</time></trkpt><trkpt lat="44.99330938140605" lon="7.317981560385814"><ele>829.0</ele><time>2026-04-19T09:03:03.002Z</time></trkpt><trkpt lat="44.99322637393409" lon="7.318040665891024"><ele>829.0</ele><time>2026-04-19T09:03:04.003Z</time></trkpt><trkpt lat="44.993158447527875" lon="7.318107558566113"><ele>828.25</ele><time>2026-04-19T09:03:05.003Z</time></trkpt><trkpt lat="44.99309003446335" lon="7.318141616005815"><ele>827.5</ele><time>2026-04-19T09:03:06.003Z</time></trkpt><trkpt lat="44.99300711642454" lon="7.3182346786827335"><ele>826.75</ele><time>2026-04-19T09:03:08.003Z</time></trkpt><trkpt lat="44.992892366490864" lon="7.318028876834729"><ele>826.0</ele><time>2026-04-19T09:03:12.003Z</time></trkpt><trkpt lat="44.9928414831705" lon="7.317883436828766"><ele>826.0</ele><time>2026-04-19T09:03:14.003Z</time></trkpt><trkpt lat="44.99279887038558" lon="7.3177863125471685"><ele>826.0</ele><time>2026-04-19T09:03:15.003Z</time></trkpt><trkpt lat="44.99275512551887" lon="7.3176670199463"><ele>826.0</ele><time>2026-04-19T09:03:16.003Z</time></trkpt><trkpt lat="44.992694750222896" lon="7.3175574119672335"><ele>826.0</ele><time>2026-04-19T09:03:17.003Z</time></trkpt><trkpt lat="44.9926082847054" lon="7.31747863075385"><ele>826.0</ele><time>2026-04-19T09:03:18.003Z</time></trkpt><trkpt lat="44.99251702153533" lon="7.317426607311377"><ele>826.1999999999999</ele><time>2026-04-19T09:03:19.003Z</time></trkpt><trkpt lat="44.99242226690386" lon="7.317407213713833"><ele>826.4</ele><time>2026-04-19T09:03:20.003Z</time></trkpt><trkpt lat="44.99231911396606" lon="7.317399843897367"><ele>826.6</ele><time>2026-04-19T09:03:21.003Z</time></trkpt><trkpt lat="44.992190885832116" lon="7.3173192300454755"><ele>826.8</ele><time>2026-04-19T09:03:23.003Z</time></trkpt><trkpt lat="44.992111447643666" lon="7.317253333771013"><ele>827.0</ele><time>2026-04-19T09:03:24.003Z</time></trkpt><trkpt lat="44.99202387816122" lon="7.317203905881965"><ele>827.0</ele><time>2026-04-19T09:03:25.003Z</time></trkpt><trkpt lat="44.99192949524996" lon="7.317151314367523"><ele>827.0</ele><time>2026-04-19T09:03:26.003Z</time></trkpt><trkpt lat="44.99184069152206" lon="7.317070166069128"><ele>827.0</ele><time>2026-04-19T09:03:27.003Z</time></trkpt><trkpt lat="44.99175607931818" lon="7.316980423317718"><ele>827.0</ele><time>2026-04-19T09:03:28.003Z</time></trkpt><trkpt lat="44.991714361878316" lon="7.316881477833809"><ele>827.0</ele><time>2026-04-19T09:03:29.003Z</time></trkpt><trkpt lat="44.99161777018648" lon="7.316797175363021"><ele>832.0</ele><time>2026-04-19T09:03:30.003Z</time></trkpt><trkpt lat="44.991524823433984" lon="7.316699468007283"><ele>837.0</ele><time>2026-04-19T09:03:31.003Z</time></trkpt><trkpt lat="44.991451268870335" lon="7.3166109194009"><ele>842.0</ele><time>2026-04-19T09:03:32.003Z</time></trkpt><trkpt lat="44.99137818269526" lon="7.316526360119191"><ele>847.0</ele><time>2026-04-19T09:03:33Z</time></trkpt><trkpt lat="44.99131171198195" lon="7.3164748214312185"><ele>852.0</ele><time>2026-04-19T09:03:34Z</time></trkpt><trkpt lat="44.99123799839198" lon="7.316439225801625"><ele>852.0</ele><time>2026-04-19T09:03:35Z</time></trkpt><trkpt lat="44.99115594183235" lon="7.316413386404053"><ele>852.0</ele><time>2026-04-19T09:03:36Z</time></trkpt><trkpt lat="44.99106120789006" lon="7.316415903436228"><ele>852.0</ele><time>2026-04-19T09:03:37Z</time></trkpt><trkpt lat="44.99094987172091" lon="7.316454138688425"><ele>852.0</ele><time>2026-04-19T09:03:38Z</time></trkpt><trkpt lat="44.990855204921765" lon="7.316536852839713"><ele>852.0</ele><time>2026-04-19T09:03:39Z</time></trkpt><trkpt lat="44.99075390972922" lon="7.316651148618158"><ele>855.0</ele><time>2026-04-19T09:03:40Z</time></trkpt><trkpt lat="44.99065223381128" lon="7.316754835393808"><ele>858.0</ele><time>2026-04-19T09:03:41Z</time></trkpt><trkpt lat="44.99056335972822" lon="7.316828994141888"><ele>861.0</ele><time>2026-04-19T09:03:42Z</time></trkpt><trkpt lat="44.99048198015189" lon="7.31686289752598"><ele>864.0</ele><time>2026-04-19T09:03:43Z</time></trkpt><trkpt lat="44.99036380762355" lon="7.316808782089636"><ele>867.0</ele><time>2026-04-19T09:03:45Z</time></trkpt><trkpt lat="44.99028082653809" lon="7.3167471820690615"><ele>867.0</ele><time>2026-04-19T09:03:46Z</time></trkpt><trkpt lat="44.990196012266544" lon="7.316707436034238"><ele>867.0</ele><time>2026-04-19T09:03:47Z</time></trkpt><trkpt lat="44.990132927753976" lon="7.316736473043648"><ele>867.0</ele><time>2026-04-19T09:03:48Z</time></trkpt><trkpt lat="44.99021024491231" lon="7.316815364886508"><ele>867.0</ele><time>2026-04-19T09:04:18.001Z</time></trkpt><trkpt lat="44.99018443251444" lon="7.316952127260854"><ele>867.0</ele><time>2026-04-19T09:04:20.001Z</time></trkpt><trkpt lat="44.99015313211009" lon="7.317054666839199"><ele>867.0</ele><time>2026-04-19T09:04:21.001Z</time></trkpt><trkpt lat="44.99012550125891" lon="7.317169496787061"><ele>867.8333333333334</ele><time>2026-04-19T09:04:22.001Z</time></trkpt><trkpt lat="44.99009329373693" lon="7.3172970590627875"><ele>868.6666666666667</ele><time>2026-04-19T09:04:23.001Z</time></trkpt><trkpt lat="44.99005121367081" lon="7.3174250240305065"><ele>869.5</ele><time>2026-04-19T09:04:24.001Z</time></trkpt><trkpt lat="44.99001373268472" lon="7.317528567367836"><ele>870.3333333333334</ele><time>2026-04-19T09:04:25.001Z</time></trkpt><trkpt lat="44.98998381305957" lon="7.317620686017136"><ele>871.1666666666667</ele><time>2026-04-19T09:04:26.001Z</time></trkpt><trkpt lat="44.989947201811525" lon="7.31772581548341"><ele>872.0</ele><time>2026-04-19T09:04:27.001Z</time></trkpt><trkpt lat="44.989893780490384" lon="7.317828257024336"><ele>872.0000000000001</ele><time>2026-04-19T09:04:28.001Z</time></trkpt><trkpt lat="44.989838746413994" lon="7.317908224563121"><ele>872.0</ele><time>2026-04-19T09:04:29.001Z</time></trkpt><trkpt lat="44.989780827262614" lon="7.317978555134891"><ele>872.0</ele><time>2026-04-19T09:04:30.001Z</time></trkpt><trkpt lat="44.989666085903984" lon="7.318002309878605"><ele>872.0</ele><time>2026-04-19T09:04:32.001Z</time></trkpt><trkpt lat="44.98958412044757" lon="7.317959671757011"><ele>872.0000000000001</ele><time>2026-04-19T09:04:35.001Z</time></trkpt><trkpt lat="44.989515687777505" lon="7.3179290276526086"><ele>872.0</ele><time>2026-04-19T09:04:36.001Z</time></trkpt><trkpt lat="44.98943544768855" lon="7.317909446225831"><ele>872.0000000000001</ele><time>2026-04-19T09:04:37.002Z</time></trkpt><trkpt lat="44.98934053780294" lon="7.317909590374"><ele>872.0</ele><time>2026-04-19T09:04:38.002Z</time></trkpt><trkpt lat="44.9892671251813" lon="7.317970917332142"><ele>872.0</ele><time>2026-04-19T09:04:39.002Z</time></trkpt><trkpt lat="44.989207552866716" lon="7.318025547041294"><ele>872.0</ele><time>2026-04-19T09:04:40.002Z</time></trkpt><trkpt lat="44.9891440414726" lon="7.318036822810826"><ele>872.0000000000001</ele><time>2026-04-19T09:04:41.002Z</time></trkpt><trkpt lat="44.98904948000394" lon="7.318038274485946"><ele>872.0</ele><time>2026-04-19T09:04:43.002Z</time></trkpt><trkpt lat="44.98903144274214" lon="7.318152701238"><ele>870.8333333333334</ele><time>2026-04-19T09:04:45.002Z</time></trkpt><trkpt lat="44.989046177603406" lon="7.318243345490109"><ele>869.6666666666667</ele><time>2026-04-19T09:04:46.002Z</time></trkpt><trkpt lat="44.989077357492114" lon="7.31833430712447"><ele>868.5</ele><time>2026-04-19T09:04:47.002Z</time></trkpt><trkpt lat="44.98909972035398" lon="7.318446817453176"><ele>867.3333333333333</ele><time>2026-04-19T09:04:48.002Z</time></trkpt><trkpt lat="44.98909776199574" lon="7.3185657093077126"><ele>866.1666666666666</ele><time>2026-04-19T09:04:49.002Z</time></trkpt><trkpt lat="44.9890809854483" lon="7.318709854386136"><ele>865.0</ele><time>2026-04-19T09:04:50.002Z</time></trkpt><trkpt lat="44.989052984294844" lon="7.318854153000081"><ele>861.3333333333333</ele><time>2026-04-19T09:04:51.002Z</time></trkpt><trkpt lat="44.9890312837147" lon="7.3189837035679615"><ele>857.6666666666666</ele><time>2026-04-19T09:04:52.002Z</time></trkpt><trkpt lat="44.98899765586057" lon="7.319078351633327"><ele>854.0</ele><time>2026-04-19T09:04:53.002Z</time></trkpt><trkpt lat="44.988970579841286" lon="7.319175401344829"><ele>850.3333333333333</ele><time>2026-04-19T09:04:54.002Z</time></trkpt><trkpt lat="44.98891720453471" lon="7.319253381786032"><ele>846.6666666666666</ele><time>2026-04-19T09:04:55.002Z</time></trkpt><trkpt lat="44.98883835629226" lon="7.319357015317667"><ele>843.0</ele><time>2026-04-19T09:04:56.002Z</time></trkpt><trkpt lat="44.98875818281992" lon="7.319477432993565"><ele>843.0</ele><time>2026-04-19T09:04:57.002Z</time></trkpt><trkpt lat="44.98871354940072" lon="7.31958390212523"><ele>843.0</ele><time>2026-04-19T09:04:58.002Z</time></trkpt><trkpt lat="44.98871745616167" lon="7.319678416258838"><ele>843.0</ele><time>2026-04-19T09:04:59.002Z</time></trkpt><trkpt lat="44.98876030888206" lon="7.319751591952343"><ele>843.0</ele><time>2026-04-19T09:05:00.002Z</time></trkpt><trkpt lat="44.988813733106255" lon="7.3198573822859325"><ele>843.0</ele><time>2026-04-19T09:05:01.002Z</time></trkpt><trkpt lat="44.98887058109793" lon="7.319976898266437"><ele>843.0</ele><time>2026-04-19T09:05:02.002Z</time></trkpt><trkpt lat="44.988913337485236" lon="7.32009260022583"><ele>841.4</ele><time>2026-04-19T09:05:03.002Z</time></trkpt><trkpt lat="44.98895204384404" lon="7.320225223854046"><ele>839.8</ele><time>2026-04-19T09:05:04.002Z</time></trkpt><trkpt lat="44.98898119354068" lon="7.320360618537"><ele>838.2</ele><time>2026-04-19T09:05:05.002Z</time></trkpt><trkpt lat="44.988997691378685" lon="7.320516612338563"><ele>836.6</ele><time>2026-04-19T09:05:06.002Z</time></trkpt><trkpt lat="44.989016128315114" lon="7.32068276396564"><ele>835.0</ele><time>2026-04-19T09:05:07.002Z</time></trkpt><trkpt lat="44.98903299658957" lon="7.320837378534016"><ele>834.3333333333333</ele><time>2026-04-19T09:05:08.003Z</time></trkpt><trkpt lat="44.98904559344831" lon="7.320978334765389"><ele>833.6666666666666</ele><time>2026-04-19T09:05:09.003Z</time></trkpt><trkpt lat="44.98902620681255" lon="7.321087316711494"><ele>833.0</ele><time>2026-04-19T09:05:10.003Z</time></trkpt><trkpt lat="44.98899013941491" lon="7.321191893971036"><ele>832.3333333333333</ele><time>2026-04-19T09:05:11.003Z</time></trkpt><trkpt lat="44.988978637836084" lon="7.321299826343701"><ele>831.6666666666666</ele><time>2026-04-19T09:05:12.003Z</time></trkpt><trkpt lat="44.98899366764453" lon="7.321446500597135"><ele>831.0</ele><time>2026-04-19T09:05:13.003Z</time></trkpt><trkpt lat="44.988984961491994" lon="7.321591476928336"><ele>829.4</ele><time>2026-04-19T09:05:14.003Z</time></trkpt><trkpt lat="44.988969471784394" lon="7.321767759085112"><ele>827.8</ele><time>2026-04-19T09:05:15.003Z</time></trkpt><trkpt lat="44.98896117731621" lon="7.3219311690328555"><ele>826.1999999999999</ele><time>2026-04-19T09:05:16.003Z</time></trkpt><trkpt lat="44.98895616389935" lon="7.322061265713888"><ele>824.5999999999999</ele><time>2026-04-19T09:05:17.003Z</time></trkpt><trkpt lat="44.988958549380826" lon="7.322156446759454"><ele>823.0</ele><time>2026-04-19T09:05:18.003Z</time></trkpt><trkpt lat="44.98897796527843" lon="7.322267382549179"><ele>822.4</ele><time>2026-04-19T09:05:19.003Z</time></trkpt><trkpt lat="44.98900929463235" lon="7.3223997426971685"><ele>821.8</ele><time>2026-04-19T09:05:20.003Z</time></trkpt><trkpt lat="44.989014617255705" lon="7.322543835177766"><ele>821.2</ele><time>2026-04-19T09:05:21.003Z</time></trkpt><trkpt lat="44.98894293124374" lon="7.32247387835249"><ele>820.6</ele><time>2026-04-19T09:05:37.003Z</time></trkpt><trkpt lat="44.98891873021993" lon="7.322362283959934"><ele>820.0</ele><time>2026-04-19T09:05:38.003Z</time></trkpt><trkpt lat="44.98889478855228" lon="7.322251717676916"><ele>820.4999999999999</ele><time>2026-04-19T09:05:39Z</time></trkpt><trkpt lat="44.98887489001081" lon="7.3221196690897825"><ele>821.0</ele><time>2026-04-19T09:05:40Z</time></trkpt><trkpt lat="44.98886330856953" lon="7.32202142890019"><ele>821.5</ele><time>2026-04-19T09:05:41Z</time></trkpt><trkpt lat="44.9888658249881" lon="7.321913179719025"><ele>822.0</ele><time>2026-04-19T09:05:42Z</time></trkpt><trkpt lat="44.988858011030594" lon="7.321761748962318"><ele>822.4999999999999</ele><time>2026-04-19T09:05:43Z</time></trkpt><trkpt lat="44.988847402144664" lon="7.3216234587483235"><ele>823.0</ele><time>2026-04-19T09:05:44Z</time></trkpt><trkpt lat="44.98884410008976" lon="7.321467645524755"><ele>824.3333333333333</ele><time>2026-04-19T09:05:45Z</time></trkpt><trkpt lat="44.98881755203612" lon="7.321356998547345"><ele>825.6666666666666</ele><time>2026-04-19T09:05:46Z</time></trkpt><trkpt lat="44.98880553835342" lon="7.321226690186624"><ele>827.0</ele><time>2026-04-19T09:05:47Z</time></trkpt><trkpt lat="44.988798438170804" lon="7.321124184765473"><ele>828.3333333333333</ele><time>2026-04-19T09:05:48Z</time></trkpt><trkpt lat="44.98878648430976" lon="7.320997285766402"><ele>829.6666666666666</ele><time>2026-04-19T09:05:49Z</time></trkpt><trkpt lat="44.988740044528974" lon="7.320888431450147"><ele>831.0</ele><time>2026-04-19T09:05:50Z</time></trkpt><trkpt lat="44.988705671573484" lon="7.320754479715708"><ele>831.0</ele><time>2026-04-19T09:05:51Z</time></trkpt><trkpt lat="44.98865936967871" lon="7.320623112021931"><ele>831.0</ele><time>2026-04-19T09:05:52Z</time></trkpt><trkpt lat="44.988622235095455" lon="7.320487496675781"><ele>831.0</ele><time>2026-04-19T09:05:53Z</time></trkpt><trkpt lat="44.98858630427268" lon="7.3203451318281365"><ele>831.0</ele><time>2026-04-19T09:05:54Z</time></trkpt><trkpt lat="44.98854029971006" lon="7.3202272359294085"><ele>831.0</ele><time>2026-04-19T09:05:55Z</time></trkpt><trkpt lat="44.98849144725048" lon="7.320109658092979"><ele>831.8</ele><time>2026-04-19T09:05:56Z</time></trkpt><trkpt lat="44.98844396578695" lon="7.319993128595971"><ele>832.5999999999999</ele><time>2026-04-19T09:05:57Z</time></trkpt><trkpt lat="44.98839842703058" lon="7.319877660252768"><ele>833.4</ele><time>2026-04-19T09:05:58Z</time></trkpt><trkpt lat="44.988368507073936" lon="7.31978081830958"><ele>834.2</ele><time>2026-04-19T09:05:59Z</time></trkpt><trkpt lat="44.98833646433384" lon="7.319652618339672"><ele>835.0</ele><time>2026-04-19T09:06:00Z</time></trkpt><trkpt lat="44.988305015396634" lon="7.319522321350003"><ele>844.6</ele><time>2026-04-19T09:06:01Z</time></trkpt><trkpt lat="44.98821955978264" lon="7.319393577890016"><ele>854.2</ele><time>2026-04-19T09:06:03Z</time></trkpt><trkpt lat="44.988158804631446" lon="7.319290714597652"><ele>863.8</ele><time>2026-04-19T09:06:05Z</time></trkpt><trkpt lat="44.98808455890974" lon="7.319296086860944"><ele>873.4</ele><time>2026-04-19T09:06:09.001Z</time></trkpt><trkpt lat="44.9880601864606" lon="7.319387698595474"><ele>883.0</ele><time>2026-04-19T09:06:10.001Z</time></trkpt><trkpt lat="44.98807743892156" lon="7.319510867120132"><ele>883.0</ele><time>2026-04-19T09:06:11.001Z</time></trkpt><trkpt lat="44.98811491488911" lon="7.319678741615489"><ele>883.0</ele><time>2026-04-19T09:06:12.001Z</time></trkpt><trkpt lat="44.98814028685958" lon="7.319818447473534"><ele>883.0</ele><time>2026-04-19T09:06:13.001Z</time></trkpt><trkpt lat="44.98809377529514" lon="7.319963737230637"><ele>883.0</ele><time>2026-04-19T09:06:15.001Z</time></trkpt><trkpt lat="44.98803397808381" lon="7.3200461898937546"><ele>883.0</ele><time>2026-04-19T09:06:16.001Z</time></trkpt><trkpt lat="44.98799499695337" lon="7.320121092187692"><ele>881.9999999999999</ele><time>2026-04-19T09:06:17.001Z</time></trkpt><trkpt lat="44.98796198532772" lon="7.320243041283013"><ele>881.0</ele><time>2026-04-19T09:06:19.001Z</time></trkpt><trkpt lat="44.98786948175988" lon="7.320238039654904"><ele>880.0</ele><time>2026-04-19T09:06:21.001Z</time></trkpt><trkpt lat="44.98782969078686" lon="7.320145470129103"><ele>879.0</ele><time>2026-04-19T09:06:22.001Z</time></trkpt><trkpt lat="44.987804666962816" lon="7.320019177158368"><ele>877.9999999999999</ele><time>2026-04-19T09:06:23.001Z</time></trkpt><trkpt lat="44.98777932915076" lon="7.319894858424456"><ele>877.0</ele><time>2026-04-19T09:06:24.001Z</time></trkpt><trkpt lat="44.98774255058758" lon="7.319762739928999"><ele>878.2</ele><time>2026-04-19T09:06:25.001Z</time></trkpt><trkpt lat="44.98771585107114" lon="7.319600011463362"><ele>879.4000000000001</ele><time>2026-04-19T09:06:26.001Z</time></trkpt><trkpt lat="44.987681832477854" lon="7.3194475725569665"><ele>880.5999999999999</ele><time>2026-04-19T09:06:27.001Z</time></trkpt><trkpt lat="44.98766650978222" lon="7.319336872415128"><ele>881.8</ele><time>2026-04-19T09:06:28.001Z</time></trkpt><trkpt lat="44.98768389920478" lon="7.3192184167745395"><ele>883.0</ele><time>2026-04-19T09:06:29.001Z</time></trkpt><trkpt lat="44.98770711771398" lon="7.319101088412096"><ele>883.0</ele><time>2026-04-19T09:06:30.001Z</time></trkpt><trkpt lat="44.98773002051196" lon="7.318964877407771"><ele>883.0</ele><time>2026-04-19T09:06:31.001Z</time></trkpt><trkpt lat="44.98776132360676" lon="7.318806240269876"><ele>883.0</ele><time>2026-04-19T09:06:32.001Z</time></trkpt><trkpt lat="44.987797990261285" lon="7.3186789604605105"><ele>883.0</ele><time>2026-04-19T09:06:33.001Z</time></trkpt><trkpt lat="44.9878563426529" lon="7.318554993308361"><ele>883.0</ele><time>2026-04-19T09:06:34.001Z</time></trkpt><trkpt lat="44.987927941436745" lon="7.318427325368949"><ele>887.4</ele><time>2026-04-19T09:06:35.001Z</time></trkpt><trkpt lat="44.988006454325266" lon="7.318311517380767"><ele>891.8</ele><time>2026-04-19T09:06:36.001Z</time></trkpt><trkpt lat="44.98807966224681" lon="7.318181658509384"><ele>896.2</ele><time>2026-04-19T09:06:37.001Z</time></trkpt><trkpt lat="44.988116234403044" lon="7.31805756786023"><ele>900.6</ele><time>2026-04-19T09:06:38.001Z</time></trkpt><trkpt lat="44.98814527769615" lon="7.317916173928081"><ele>905.0</ele><time>2026-04-19T09:06:39.001Z</time></trkpt><trkpt lat="44.98816612769322" lon="7.317751886604064"><ele>908.2</ele><time>2026-04-19T09:06:40.001Z</time></trkpt><trkpt lat="44.98817795720809" lon="7.317602873341739"><ele>911.4</ele><time>2026-04-19T09:06:41.001Z</time></trkpt><trkpt lat="44.988182119044204" lon="7.317444950525292"><ele>914.5999999999999</ele><time>2026-04-19T09:06:42.001Z</time></trkpt><trkpt lat="44.988181385563934" lon="7.317311169679055"><ele>917.8</ele><time>2026-04-19T09:06:43.001Z</time></trkpt><trkpt lat="44.988205234294846" lon="7.3171796336162265"><ele>921.0</ele><time>2026-04-19T09:06:44.001Z</time></trkpt><trkpt lat="44.988232444048585" lon="7.317040162434477"><ele>918.1999999999999</ele><time>2026-04-19T09:06:45.001Z</time></trkpt><trkpt lat="44.98826706496138" lon="7.31689489119695"><ele>915.3999999999999</ele><time>2026-04-19T09:06:46.001Z</time></trkpt><trkpt lat="44.988277901203475" lon="7.3167624916861245"><ele>912.6</ele><time>2026-04-19T09:06:47.001Z</time></trkpt><trkpt lat="44.988308942427096" lon="7.316661423914686"><ele>909.8</ele><time>2026-04-19T09:06:48.002Z</time></trkpt><trkpt lat="44.98837209535189" lon="7.316538173309676"><ele>907.0</ele><time>2026-04-19T09:06:50.002Z</time></trkpt><trkpt lat="44.98843102983514" lon="7.316506728113254"><ele>906.9999999999999</ele><time>2026-04-19T09:06:51.002Z</time></trkpt><trkpt lat="44.98850583468127" lon="7.316480213356402"><ele>907.0</ele><time>2026-04-19T09:06:52.002Z</time></trkpt><trkpt lat="44.988576293230246" lon="7.316412660329228"><ele>907.0</ele><time>2026-04-19T09:06:54.002Z</time></trkpt><trkpt lat="44.98858515450463" lon="7.316290300578888"><ele>907.0</ele><time>2026-04-19T09:06:56.002Z</time></trkpt><trkpt lat="44.98857442010389" lon="7.316185674041809"><ele>906.9999999999999</ele><time>2026-04-19T09:06:57.002Z</time></trkpt><trkpt lat="44.988561422414435" lon="7.316066496428331"><ele>907.0</ele><time>2026-04-19T09:06:58.002Z</time></trkpt><trkpt lat="44.988536690313474" lon="7.315934711769935"><ele>907.3333333333333</ele><time>2026-04-19T09:06:59.002Z</time></trkpt><trkpt lat="44.98849416038741" lon="7.315826171126124"><ele>907.6666666666666</ele><time>2026-04-19T09:07:00.002Z</time></trkpt><trkpt lat="44.988436279084134" lon="7.315748992617611"><ele>908.0</ele><time>2026-04-19T09:07:01.002Z</time></trkpt><trkpt lat="44.98837255411201" lon="7.315678031518234"><ele>908.3333333333333</ele><time>2026-04-19T09:07:02.002Z</time></trkpt><trkpt lat="44.98831027137302" lon="7.315662227427743"><ele>908.6666666666666</ele><time>2026-04-19T09:07:03.002Z</time></trkpt><trkpt lat="44.98823836662242" lon="7.315683116869474"><ele>909.0</ele><time>2026-04-19T09:07:04.002Z</time></trkpt><trkpt lat="44.988159125919964" lon="7.315733544080532"><ele>911.3333333333334</ele><time>2026-04-19T09:07:05.002Z</time></trkpt><trkpt lat="44.98809208727791" lon="7.3157338374872385"><ele>913.6666666666667</ele><time>2026-04-19T09:07:06.002Z</time></trkpt><trkpt lat="44.98801381109492" lon="7.315686551846107"><ele>916.0</ele><time>2026-04-19T09:07:07.002Z</time></trkpt><trkpt lat="44.98794795936551" lon="7.31562509214245"><ele>918.3333333333334</ele><time>2026-04-19T09:07:08.002Z</time></trkpt><trkpt lat="44.987866602294325" lon="7.315566099422341"><ele>920.6666666666667</ele><time>2026-04-19T09:07:09.002Z</time></trkpt><trkpt lat="44.987783055139936" lon="7.315516463048354"><ele>923.0</ele><time>2026-04-19T09:07:10.002Z</time></trkpt><trkpt lat="44.987688582918366" lon="7.315486144894388"><ele>923.0</ele><time>2026-04-19T09:07:11.002Z</time></trkpt><trkpt lat="44.98759998413798" lon="7.315455771519684"><ele>923.0</ele><time>2026-04-19T09:07:12.002Z</time></trkpt><trkpt lat="44.98753399985622" lon="7.315417023888621"><ele>923.0</ele><time>2026-04-19T09:07:13.002Z</time></trkpt><trkpt lat="44.98746149434778" lon="7.315260138316196"><ele>923.0</ele><time>2026-04-19T09:07:15.002Z</time></trkpt><trkpt lat="44.98740066842035" lon="7.315147853094166"><ele>923.0</ele><time>2026-04-19T09:07:16.002Z</time></trkpt><trkpt lat="44.98732024994577" lon="7.3150410287694285"><ele>925.8</ele><time>2026-04-19T09:07:17.002Z</time></trkpt><trkpt lat="44.987246401984294" lon="7.314920038808684"><ele>928.5999999999999</ele><time>2026-04-19T09:07:18.002Z</time></trkpt><trkpt lat="44.98716987498613" lon="7.31479453565709"><ele>931.4000000000001</ele><time>2026-04-19T09:07:19.002Z</time></trkpt><trkpt lat="44.98710860182488" lon="7.314688515733584"><ele>934.2</ele><time>2026-04-19T09:07:20.002Z</time></trkpt><trkpt lat="44.987069761898645" lon="7.314569928918795"><ele>937.0</ele><time>2026-04-19T09:07:21.002Z</time></trkpt><trkpt lat="44.987028237487266" lon="7.314463576791673"><ele>937.0</ele><time>2026-04-19T09:07:22.002Z</time></trkpt><trkpt lat="44.98696362813658" lon="7.314301531766132"><ele>937.0</ele><time>2026-04-19T09:07:23.002Z</time></trkpt><trkpt lat="44.98690174611933" lon="7.314189267246691"><ele>937.0</ele><time>2026-04-19T09:07:24.002Z</time></trkpt><trkpt lat="44.986875372990696" lon="7.314091996008949"><ele>937.0</ele><time>2026-04-19T09:07:25.003Z</time></trkpt><trkpt lat="44.98685537580989" lon="7.313925572323618"><ele>937.0</ele><time>2026-04-19T09:07:27.003Z</time></trkpt><trkpt lat="44.98679728504465" lon="7.313783642664151"><ele>937.8</ele><time>2026-04-19T09:07:29.003Z</time></trkpt><trkpt lat="44.98674216625281" lon="7.3137086313300195"><ele>938.6</ele><time>2026-04-19T09:07:30.003Z</time></trkpt><trkpt lat="44.98672286394524" lon="7.313561243544324"><ele>939.3999999999999</ele><time>2026-04-19T09:07:32.003Z</time></trkpt><trkpt lat="44.98678716990535" lon="7.313454947160994"><ele>940.1999999999999</ele><time>2026-04-19T09:07:34.003Z</time></trkpt><trkpt lat="44.98677819309412" lon="7.313313077768041"><ele>941.0</ele><time>2026-04-19T09:07:36.003Z</time></trkpt><trkpt lat="44.986770798985425" lon="7.313197940294945"><ele>941.0</ele><time>2026-04-19T09:07:37.003Z</time></trkpt><trkpt lat="44.986748567482934" lon="7.31308777544344"><ele>940.9999999999999</ele><time>2026-04-19T09:07:38.003Z</time></trkpt><trkpt lat="44.98671840940825" lon="7.313000979306982"><ele>940.9999999999999</ele><time>2026-04-19T09:07:39.003Z</time></trkpt><trkpt lat="44.98661795125572" lon="7.31290398631532"><ele>941.0</ele><time>2026-04-19T09:07:41.003Z</time></trkpt><trkpt lat="44.986490845930774" lon="7.312889412222453"><ele>941.0</ele><time>2026-04-19T09:07:43.003Z</time></trkpt><trkpt lat="44.986414304299174" lon="7.312882735969019"><ele>948.8</ele><time>2026-04-19T09:07:44.003Z</time></trkpt><trkpt lat="44.986337912696484" lon="7.31280923367611"><ele>956.5999999999999</ele><time>2026-04-19T09:07:45.001Z</time></trkpt><trkpt lat="44.986242363753384" lon="7.312684023214955"><ele>964.4</ele><time>2026-04-19T09:07:46.001Z</time></trkpt><trkpt lat="44.986203851510176" lon="7.312579370790878"><ele>972.2</ele><time>2026-04-19T09:07:47.001Z</time></trkpt><trkpt lat="44.986156055309635" lon="7.31250230762889"><ele>980.0</ele><time>2026-04-19T09:07:48.001Z</time></trkpt><trkpt lat="44.98607865945629" lon="7.312376417508687"><ele>980.0000000000001</ele><time>2026-04-19T09:07:49.001Z</time></trkpt><trkpt lat="44.98600227658686" lon="7.312328639545659"><ele>980.0</ele><time>2026-04-19T09:07:50.001Z</time></trkpt><trkpt lat="44.985923414117714" lon="7.312308407954852"><ele>980.0</ele><time>2026-04-19T09:07:51.001Z</time></trkpt><trkpt lat="44.98583493948512" lon="7.312264657199237"><ele>980.0</ele><time>2026-04-19T09:07:52.001Z</time></trkpt><trkpt lat="44.98573725773777" lon="7.3122256753616295"><ele>980.0000000000001</ele><time>2026-04-19T09:07:53.001Z</time></trkpt><trkpt lat="44.98565489073604" lon="7.312185577045795"><ele>980.0</ele><time>2026-04-19T09:07:54Z</time></trkpt><trkpt lat="44.985559188822315" lon="7.312120316763504"><ele>981.8</ele><time>2026-04-19T09:07:55Z</time></trkpt><trkpt lat="44.98546734142245" lon="7.312052850606965"><ele>983.6</ele><time>2026-04-19T09:07:56Z</time></trkpt><trkpt lat="44.985363288008" lon="7.311971541364621"><ele>985.4000000000001</ele><time>2026-04-19T09:07:57Z</time></trkpt><trkpt lat="44.98527138820839" lon="7.311919360952426"><ele>987.2</ele><time>2026-04-19T09:07:58Z</time></trkpt><trkpt lat="44.98519223446561" lon="7.311881773906092"><ele>989.0</ele><time>2026-04-19T09:07:59Z</time></trkpt><trkpt lat="44.985096420674274" lon="7.311864401035743"><ele>994.8000000000001</ele><time>2026-04-19T09:08:00Z</time></trkpt><trkpt lat="44.984995950028576" lon="7.3118335730205795"><ele>1000.6000000000001</ele><time>2026-04-19T09:08:01Z</time></trkpt><trkpt lat="44.98488474659422" lon="7.311813663040521"><ele>1006.4</ele><time>2026-04-19T09:08:02Z</time></trkpt><trkpt lat="44.984780567384064" lon="7.3117499964573"><ele>1012.2</ele><time>2026-04-19T09:08:03Z</time></trkpt><trkpt lat="44.98467915580408" lon="7.311693814968784"><ele>1018.0</ele><time>2026-04-19T09:08:04Z</time></trkpt><trkpt lat="44.98457768626294" lon="7.311653943078011"><ele>1018.0</ele><time>2026-04-19T09:08:05Z</time></trkpt><trkpt lat="44.98448217256881" lon="7.311609831772369"><ele>1018.0</ele><time>2026-04-19T09:08:06.001Z</time></trkpt><trkpt lat="44.98440583503576" lon="7.311552636181322"><ele>1018.0</ele><time>2026-04-19T09:08:07.001Z</time></trkpt><trkpt lat="44.984326326955916" lon="7.311491402765422"><ele>1018.0</ele><time>2026-04-19T09:08:08.001Z</time></trkpt><trkpt lat="44.984197687511426" lon="7.311360200901159"><ele>1018.0</ele><time>2026-04-19T09:08:10.001Z</time></trkpt><trkpt lat="44.984114829474045" lon="7.311276221789635"><ele>1020.8333333333333</ele><time>2026-04-19T09:08:11.001Z</time></trkpt><trkpt lat="44.98402579073301" lon="7.311213957734653"><ele>1023.6666666666666</ele><time>2026-04-19T09:08:12.001Z</time></trkpt><trkpt lat="44.98396562731207" lon="7.311166037143294"><ele>1026.5</ele><time>2026-04-19T09:08:13.001Z</time></trkpt><trkpt lat="44.98385933833595" lon="7.31112420593418"><ele>1029.3333333333333</ele><time>2026-04-19T09:08:15.001Z</time></trkpt><trkpt lat="44.98379304648267" lon="7.311108134959875"><ele>1032.1666666666667</ele><time>2026-04-19T09:08:16.001Z</time></trkpt><trkpt lat="44.983731323467836" lon="7.3110636572753"><ele>1035.0</ele><time>2026-04-19T09:08:17.001Z</time></trkpt><trkpt lat="44.98369028814053" lon="7.3109952176799355"><ele>1035.0</ele><time>2026-04-19T09:08:18.001Z</time></trkpt><trkpt lat="44.98364559308896" lon="7.310921845501663"><ele>1035.0</ele><time>2026-04-19T09:08:19.001Z</time></trkpt><trkpt lat="44.983591420675324" lon="7.310843221358346"><ele>1035.0</ele><time>2026-04-19T09:08:37.001Z</time></trkpt><trkpt lat="44.98360980239958" lon="7.310935690096774"><ele>1035.0</ele><time>2026-04-19T09:08:48.001Z</time></trkpt><trkpt lat="44.98369183130249" lon="7.3109328644361495"><ele>1035.0</ele><time>2026-04-19T09:09:02.002Z</time></trkpt><trkpt lat="44.983761156521574" lon="7.311021983769442"><ele>1035.0</ele><time>2026-04-19T09:09:04.002Z</time></trkpt><trkpt lat="44.98387216575413" lon="7.311126075011009"><ele>1035.0</ele><time>2026-04-19T09:09:06.002Z</time></trkpt><trkpt lat="44.98397956490083" lon="7.311154787992998"><ele>1035.0</ele><time>2026-04-19T09:09:08.002Z</time></trkpt><trkpt lat="44.984094619715606" lon="7.3112290824082224"><ele>1035.0</ele><time>2026-04-19T09:09:10.002Z</time></trkpt><trkpt lat="44.984187977937246" lon="7.311323603639703"><ele>1035.0</ele><time>2026-04-19T09:09:12.002Z</time></trkpt><trkpt lat="44.98426705793589" lon="7.311389582780708"><ele>1035.0</ele><time>2026-04-19T09:09:13.002Z</time></trkpt><trkpt lat="44.9843504428703" lon="7.311460832916864"><ele>1032.1666666666667</ele><time>2026-04-19T09:09:14.002Z</time></trkpt><trkpt lat="44.9844136602221" lon="7.311521112100939"><ele>1029.3333333333333</ele><time>2026-04-19T09:09:15.002Z</time></trkpt><trkpt lat="44.98452940754784" lon="7.311612494776294"><ele>1026.5</ele><time>2026-04-19T09:09:17.002Z</time></trkpt><trkpt lat="44.984590839864254" lon="7.311638610181693"><ele>1023.6666666666666</ele><time>2026-04-19T09:09:18.002Z</time></trkpt><trkpt lat="44.984662186886105" lon="7.3116650048812"><ele>1020.8333333333333</ele><time>2026-04-19T09:09:19.002Z</time></trkpt><trkpt lat="44.98473500207004" lon="7.311692726418723"><ele>1018.0</ele><time>2026-04-19T09:09:20.002Z</time></trkpt><trkpt lat="44.984803648437115" lon="7.311711406518688"><ele>1017.9999999999999</ele><time>2026-04-19T09:09:21.002Z</time></trkpt><trkpt lat="44.98491812736976" lon="7.311766448039377"><ele>1018.0</ele><time>2026-04-19T09:09:23.002Z</time></trkpt><trkpt lat="44.98500468289093" lon="7.311813610969513"><ele>1018.0</ele><time>2026-04-19T09:09:24.002Z</time></trkpt><trkpt lat="44.98506842762805" lon="7.311847921345105"><ele>1018.0</ele><time>2026-04-19T09:09:25.002Z</time></trkpt><trkpt lat="44.98514375879068" lon="7.311853194726891"><ele>1017.9999999999999</ele><time>2026-04-19T09:09:26.002Z</time></trkpt><trkpt lat="44.985216310371165" lon="7.311866556228221"><ele>1018.0</ele><time>2026-04-19T09:09:27.002Z</time></trkpt><trkpt lat="44.98528935146114" lon="7.311892397431962"><ele>1013.1666666666666</ele><time>2026-04-19T09:09:28.002Z</time></trkpt><trkpt lat="44.98536019999155" lon="7.311932838427681"><ele>1008.3333333333333</ele><time>2026-04-19T09:09:29.002Z</time></trkpt><trkpt lat="44.98541657712482" lon="7.31197973459154"><ele>1003.5</ele><time>2026-04-19T09:09:30.002Z</time></trkpt><trkpt lat="44.98549300219312" lon="7.312046603806203"><ele>998.6666666666667</ele><time>2026-04-19T09:09:31.002Z</time></trkpt><trkpt lat="44.98557796679695" lon="7.312116841398023"><ele>993.8333333333334</ele><time>2026-04-19T09:09:32.002Z</time></trkpt><trkpt lat="44.98564519532824" lon="7.312173189716125"><ele>989.0</ele><time>2026-04-19T09:09:33.002Z</time></trkpt><trkpt lat="44.98571080301683" lon="7.312197711219597"><ele>989.0</ele><time>2026-04-19T09:09:34.003Z</time></trkpt><trkpt lat="44.985788837321195" lon="7.312229498835212"><ele>988.9999999999999</ele><time>2026-04-19T09:09:35.003Z</time></trkpt><trkpt lat="44.98585926102827" lon="7.312257302486317"><ele>989.0</ele><time>2026-04-19T09:09:36.003Z</time></trkpt><trkpt lat="44.985929227406196" lon="7.312297632620769"><ele>989.0</ele><time>2026-04-19T09:09:37.003Z</time></trkpt><trkpt lat="44.98599198970541" lon="7.312331936929054"><ele>988.9999999999999</ele><time>2026-04-19T09:09:38.003Z</time></trkpt><trkpt lat="44.98606105641846" lon="7.312363598896835"><ele>989.0</ele><time>2026-04-19T09:09:39.003Z</time></trkpt><trkpt lat="44.9861257937268" lon="7.312405141957408"><ele>989.0</ele><time>2026-04-19T09:09:40.003Z</time></trkpt><trkpt lat="44.986183573137666" lon="7.312478144097604"><ele>987.2</ele><time>2026-04-19T09:09:41.003Z</time></trkpt><trkpt lat="44.986250569184406" lon="7.312603130050156"><ele>985.4000000000001</ele><time>2026-04-19T09:09:43.003Z</time></trkpt><trkpt lat="44.986339882660985" lon="7.312729109613581"><ele>983.6</ele><time>2026-04-19T09:09:45.003Z</time></trkpt><trkpt lat="44.98639896980437" lon="7.312809929888704"><ele>981.8</ele><time>2026-04-19T09:09:46.003Z</time></trkpt><trkpt lat="44.98645746115938" lon="7.312874877792179"><ele>980.0</ele><time>2026-04-19T09:09:47.003Z</time></trkpt><trkpt lat="44.98657224895523" lon="7.31289076410579"><ele>980.0000000000001</ele><time>2026-04-19T09:09:49.003Z</time></trkpt><trkpt lat="44.9866458585961" lon="7.312918951873367"><ele>980.0</ele><time>2026-04-19T09:09:51Z</time></trkpt><trkpt lat="44.98671909614734" lon="7.313015343558357"><ele>980.0</ele><time>2026-04-19T09:09:54Z</time></trkpt><trkpt lat="44.986771925209126" lon="7.313131107467923"><ele>980.0</ele><time>2026-04-19T09:09:56Z</time></trkpt><trkpt lat="44.98676885605264" lon="7.313224241583166"><ele>980.0000000000001</ele><time>2026-04-19T09:09:58Z</time></trkpt><trkpt lat="44.98677431782256" lon="7.3133502416196166"><ele>980.0</ele><time>2026-04-19T09:10:00Z</time></trkpt><trkpt lat="44.986776672741186" lon="7.313444305431917"><ele>973.5000000000001</ele><time>2026-04-19T09:10:01Z</time></trkpt><trkpt lat="44.986747608407285" lon="7.3135754353729725"><ele>967.0</ele><time>2026-04-19T09:10:03Z</time></trkpt><trkpt lat="44.986719316639615" lon="7.31369028606629"><ele>960.5</ele><time>2026-04-19T09:10:05Z</time></trkpt><trkpt lat="44.98677308445589" lon="7.313765872219324"><ele>954.0</ele><time>2026-04-19T09:10:07Z</time></trkpt><trkpt lat="44.98684197181197" lon="7.313739490857077"><ele>947.5000000000001</ele><time>2026-04-19T09:10:09Z</time></trkpt><trkpt lat="44.98685352727697" lon="7.313622766541487"><ele>941.0</ele><time>2026-04-19T09:10:12Z</time></trkpt><trkpt lat="44.986872417381605" lon="7.313537274194526"><ele>941.0</ele><time>2026-04-19T09:10:14Z</time></trkpt><trkpt lat="44.98692241740818" lon="7.313405877612072"><ele>941.0</ele><time>2026-04-19T09:10:16Z</time></trkpt><trkpt lat="44.98697139733798" lon="7.313233737715552"><ele>941.0</ele><time>2026-04-19T09:10:18.001Z</time></trkpt><trkpt lat="44.98698685226029" lon="7.313124978111335"><ele>941.0</ele><time>2026-04-19T09:10:19.001Z</time></trkpt><trkpt lat="44.986941114816375" lon="7.312943720953251"><ele>941.25</ele><time>2026-04-19T09:10:21.001Z</time></trkpt><trkpt lat="44.98688484403767" lon="7.312833379303009"><ele>941.5</ele><time>2026-04-19T09:10:22.001Z</time></trkpt><trkpt lat="44.98680986822308" lon="7.312700039527578"><ele>941.75</ele><time>2026-04-19T09:10:23.001Z</time></trkpt><trkpt lat="44.98673221100639" lon="7.312564608435828"><ele>942.0</ele><time>2026-04-19T09:10:24.001Z</time></trkpt><trkpt lat="44.986633529893766" lon="7.312417437034935"><ele>945.8</ele><time>2026-04-19T09:10:25.001Z</time></trkpt><trkpt lat="44.986545146129416" lon="7.3122786447944215"><ele>949.6</ele><time>2026-04-19T09:10:26.001Z</time></trkpt><trkpt lat="44.986469301290356" lon="7.312157335604101"><ele>953.3999999999999</ele><time>2026-04-19T09:10:27.001Z</time></trkpt><trkpt lat="44.98639585755963" lon="7.312048475756362"><ele>957.1999999999999</ele><time>2026-04-19T09:10:28.001Z</time></trkpt><trkpt lat="44.98632467372127" lon="7.311993076585199"><ele>961.0</ele><time>2026-04-19T09:10:29.001Z</time></trkpt><trkpt lat="44.98623469791596" lon="7.311944456946915"><ele>961.0</ele><time>2026-04-19T09:10:30.001Z</time></trkpt><trkpt lat="44.98612206913279" lon="7.3118918132853965"><ele>961.0</ele><time>2026-04-19T09:10:31.001Z</time></trkpt><trkpt lat="44.98599516018572" lon="7.311837860699284"><ele>961.0</ele><time>2026-04-19T09:10:32.001Z</time></trkpt><trkpt lat="44.98583721479229" lon="7.31176249492138"><ele>961.0</ele><time>2026-04-19T09:10:33.001Z</time></trkpt><trkpt lat="44.9856790930061" lon="7.311682243425579"><ele>959.75</ele><time>2026-04-19T09:10:34.001Z</time></trkpt><trkpt lat="44.98552791499059" lon="7.311566682629162"><ele>958.5</ele><time>2026-04-19T09:10:35.001Z</time></trkpt><trkpt lat="44.98541450768121" lon="7.311484378975362"><ele>957.25</ele><time>2026-04-19T09:10:36.001Z</time></trkpt><trkpt lat="44.985300048118205" lon="7.311388967333852"><ele>956.0</ele><time>2026-04-19T09:10:37.001Z</time></trkpt><trkpt lat="44.98518141581246" lon="7.311284635069213"><ele>956.0</ele><time>2026-04-19T09:10:38.001Z</time></trkpt><trkpt lat="44.98509623638704" lon="7.311170173922435"><ele>956.0</ele><time>2026-04-19T09:10:39.001Z</time></trkpt><trkpt lat="44.985013314050306" lon="7.311037345637826"><ele>956.0</ele><time>2026-04-19T09:10:40.001Z</time></trkpt><trkpt lat="44.984961965800565" lon="7.3109774701323085"><ele>956.0</ele><time>2026-04-19T09:10:41.001Z</time></trkpt><trkpt lat="44.98481338261126" lon="7.310895595387399"><ele>959.0</ele><time>2026-04-19T09:10:43.001Z</time></trkpt><trkpt lat="44.9846976509315" lon="7.310809446040495"><ele>962.0</ele><time>2026-04-19T09:10:44.001Z</time></trkpt><trkpt lat="44.984584408751616" lon="7.3106869694015755"><ele>965.0</ele><time>2026-04-19T09:10:45.001Z</time></trkpt><trkpt lat="44.98448119023135" lon="7.310552988929136"><ele>968.0</ele><time>2026-04-19T09:10:46.001Z</time></trkpt><trkpt lat="44.98439456447679" lon="7.310419764851621"><ele>968.0</ele><time>2026-04-19T09:10:47.001Z</time></trkpt><trkpt lat="44.98434405242505" lon="7.310289241134498"><ele>968.0</ele><time>2026-04-19T09:10:48.001Z</time></trkpt><trkpt lat="44.98428069770769" lon="7.310142005793343"><ele>968.0</ele><time>2026-04-19T09:10:49.001Z</time></trkpt><trkpt lat="44.984238929013785" lon="7.30999318216884"><ele>968.0</ele><time>2026-04-19T09:10:50.001Z</time></trkpt><trkpt lat="44.98419680106029" lon="7.309866313782908"><ele>968.0</ele><time>2026-04-19T09:10:51.001Z</time></trkpt><trkpt lat="44.98416241739508" lon="7.309755660094546"><ele>974.1666666666667</ele><time>2026-04-19T09:10:52.001Z</time></trkpt><trkpt lat="44.984102933285264" lon="7.3096684146302655"><ele>980.3333333333334</ele><time>2026-04-19T09:10:53.001Z</time></trkpt><trkpt lat="44.98405187680534" lon="7.30959972818644"><ele>986.5</ele><time>2026-04-19T09:10:54.001Z</time></trkpt><trkpt lat="44.98404068274199" lon="7.309510017945796"><ele>992.6666666666667</ele><time>2026-04-19T09:10:55.001Z</time></trkpt><trkpt lat="44.98404970902759" lon="7.30939447146138"><ele>998.8333333333334</ele><time>2026-04-19T09:10:56.001Z</time></trkpt><trkpt lat="44.984059629323134" lon="7.309247949207574"><ele>1005.0</ele><time>2026-04-19T09:10:57.001Z</time></trkpt><trkpt lat="44.9840551371707" lon="7.309130176909376"><ele>1005.0</ele><time>2026-04-19T09:10:58.001Z</time></trkpt><trkpt lat="44.98401118170163" lon="7.30900026551331"><ele>1005.0</ele><time>2026-04-19T09:10:59.001Z</time></trkpt><trkpt lat="44.9839668729953" lon="7.308926190936208"><ele>1005.0</ele><time>2026-04-19T09:11:00.001Z</time></trkpt><trkpt lat="44.983925490197535" lon="7.30882502127021"><ele>1005.0</ele><time>2026-04-19T09:11:01.001Z</time></trkpt><trkpt lat="44.98388317805602" lon="7.308732130196756"><ele>1005.0</ele><time>2026-04-19T09:11:02.002Z</time></trkpt><trkpt lat="44.98387048027331" lon="7.308634248697137"><ele>1005.0</ele><time>2026-04-19T09:11:03.002Z</time></trkpt><trkpt lat="44.98389135807267" lon="7.308502842173826"><ele>1006.4</ele><time>2026-04-19T09:11:05.002Z</time></trkpt><trkpt lat="44.98398534376333" lon="7.308396328439943"><ele>1007.8</ele><time>2026-04-19T09:11:07.002Z</time></trkpt><trkpt lat="44.98404609247489" lon="7.308310950928923"><ele>1009.2</ele><time>2026-04-19T09:11:08.002Z</time></trkpt><trkpt lat="44.98409362658858" lon="7.308219564858822"><ele>1010.6</ele><time>2026-04-19T09:11:09.002Z</time></trkpt><trkpt lat="44.984126043626965" lon="7.308054994081215"><ele>1012.0</ele><time>2026-04-19T09:11:11.002Z</time></trkpt><trkpt lat="44.98413651981802" lon="7.307941711977286"><ele>1009.3333333333333</ele><time>2026-04-19T09:11:12.002Z</time></trkpt><trkpt lat="44.984163630509435" lon="7.307827556707327"><ele>1006.6666666666666</ele><time>2026-04-19T09:11:13.002Z</time></trkpt><trkpt lat="44.98420868561349" lon="7.307733226522073"><ele>1004.0</ele><time>2026-04-19T09:11:14.002Z</time></trkpt><trkpt lat="44.98425423969245" lon="7.307648355110072"><ele>1001.3333333333333</ele><time>2026-04-19T09:11:15.002Z</time></trkpt><trkpt lat="44.98436505175994" lon="7.307579177300365"><ele>998.6666666666666</ele><time>2026-04-19T09:11:17.002Z</time></trkpt><trkpt lat="44.98442688271764" lon="7.307518584841716"><ele>996.0</ele><time>2026-04-19T09:11:18.002Z</time></trkpt><trkpt lat="44.9844839604406" lon="7.30744166560213"><ele>996.0</ele><time>2026-04-19T09:11:19.002Z</time></trkpt><trkpt lat="44.98454118591918" lon="7.30730538352382"><ele>995.9999999999999</ele><time>2026-04-19T09:11:21.002Z</time></trkpt><trkpt lat="44.98457061205368" lon="7.307115589476233"><ele>995.9999999999999</ele><time>2026-04-19T09:11:23.002Z</time></trkpt><trkpt lat="44.984574682087434" lon="7.30702277795127"><ele>996.0</ele><time>2026-04-19T09:11:24.002Z</time></trkpt><trkpt lat="44.98456669373544" lon="7.3069260994891145"><ele>996.0</ele><time>2026-04-19T09:11:25.002Z</time></trkpt><trkpt lat="44.98450231624569" lon="7.306764461324489"><ele>997.1999999999999</ele><time>2026-04-19T09:11:27.002Z</time></trkpt><trkpt lat="44.98443654378461" lon="7.306682560485961"><ele>998.3999999999999</ele><time>2026-04-19T09:11:28.002Z</time></trkpt><trkpt lat="44.98436050435114" lon="7.306596633019148"><ele>999.6</ele><time>2026-04-19T09:11:29.002Z</time></trkpt><trkpt lat="44.98431690762905" lon="7.306493008228245"><ele>1000.8</ele><time>2026-04-19T09:11:30.002Z</time></trkpt><trkpt lat="44.98425100047321" lon="7.306376284671077"><ele>1002.0</ele><time>2026-04-19T09:11:31.002Z</time></trkpt><trkpt lat="44.98417049680649" lon="7.306274754963031"><ele>1003.75</ele><time>2026-04-19T09:11:32.002Z</time></trkpt><trkpt lat="44.98408984640781" lon="7.306140885533935"><ele>1005.5</ele><time>2026-04-19T09:11:33.002Z</time></trkpt><trkpt lat="44.984020371971354" lon="7.306007085762644"><ele>1007.25</ele><time>2026-04-19T09:11:34.002Z</time></trkpt><trkpt lat="44.98394709259213" lon="7.305863860107149"><ele>1009.0</ele><time>2026-04-19T09:11:35.002Z</time></trkpt><trkpt lat="44.983876338144945" lon="7.305709764508234"><ele>1004.5</ele><time>2026-04-19T09:11:36.002Z</time></trkpt><trkpt lat="44.983813171378785" lon="7.305544353481886"><ele>1000.0</ele><time>2026-04-19T09:11:37.002Z</time></trkpt><trkpt lat="44.98375337658088" lon="7.305362830826185"><ele>995.5</ele><time>2026-04-19T09:11:38.002Z</time></trkpt><trkpt lat="44.9836905395001" lon="7.3051867245842805"><ele>991.0</ele><time>2026-04-19T09:11:39.002Z</time></trkpt><trkpt lat="44.98362727974472" lon="7.305031156603435"><ele>991.0</ele><time>2026-04-19T09:11:40.002Z</time></trkpt><trkpt lat="44.983569116627244" lon="7.304910707479693"><ele>990.9999999999999</ele><time>2026-04-19T09:11:41.002Z</time></trkpt><trkpt lat="44.98350848991106" lon="7.30482491213697"><ele>990.9999999999999</ele><time>2026-04-19T09:11:42.002Z</time></trkpt><trkpt lat="44.98343460217856" lon="7.3047594604479995"><ele>991.0</ele><time>2026-04-19T09:11:43.002Z</time></trkpt><trkpt lat="44.98334193923436" lon="7.304668277832478"><ele>991.0</ele><time>2026-04-19T09:11:44.003Z</time></trkpt><trkpt lat="44.983251894763775" lon="7.3045668251336675"><ele>996.1666666666666</ele><time>2026-04-19T09:11:45.003Z</time></trkpt><trkpt lat="44.98316135139811" lon="7.304491919316408"><ele>1001.3333333333333</ele><time>2026-04-19T09:11:46.003Z</time></trkpt><trkpt lat="44.9830891669849" lon="7.304446472299392"><ele>1006.5</ele><time>2026-04-19T09:11:47.003Z</time></trkpt><trkpt lat="44.9830518758753" lon="7.304316982133009"><ele>1011.6666666666667</ele><time>2026-04-19T09:11:49.003Z</time></trkpt><trkpt lat="44.983081171787425" lon="7.304228812539227"><ele>1016.8333333333334</ele><time>2026-04-19T09:11:50.003Z</time></trkpt><trkpt lat="44.98312163360234" lon="7.304144126761416"><ele>1022.0</ele><time>2026-04-19T09:11:51.003Z</time></trkpt><trkpt lat="44.98319407731932" lon="7.303998439409662"><ele>1022.0000000000001</ele><time>2026-04-19T09:11:53.003Z</time></trkpt><trkpt lat="44.983227053625505" lon="7.303868956763944"><ele>1022.0</ele><time>2026-04-19T09:11:54.003Z</time></trkpt><trkpt lat="44.983244633500924" lon="7.303760738764864"><ele>1022.0</ele><time>2026-04-19T09:11:55.003Z</time></trkpt><trkpt lat="44.98326086217512" lon="7.3036631400484815"><ele>1022.0</ele><time>2026-04-19T09:11:56.003Z</time></trkpt><trkpt lat="44.98330602512122" lon="7.303577881816312"><ele>1022.0000000000001</ele><time>2026-04-19T09:11:57Z</time></trkpt><trkpt lat="44.983325625171965" lon="7.303455906486528"><ele>1022.0</ele><time>2026-04-19T09:11:59Z</time></trkpt><trkpt lat="44.98329581764008" lon="7.303375489354696"><ele>1022.0</ele><time>2026-04-19T09:12:00Z</time></trkpt><trkpt lat="44.98324258873256" lon="7.303275856089224"><ele>1022.0</ele><time>2026-04-19T09:12:01Z</time></trkpt><trkpt lat="44.983177793803044" lon="7.303157930247696"><ele>1022.0</ele><time>2026-04-19T09:12:02Z</time></trkpt><trkpt lat="44.983105422340905" lon="7.303038838162881"><ele>1022.0</ele><time>2026-04-19T09:12:03Z</time></trkpt><trkpt lat="44.98304147300611" lon="7.302916646534542"><ele>1022.0</ele><time>2026-04-19T09:12:04Z</time></trkpt><trkpt lat="44.98299024163726" lon="7.302801679905266"><ele>1020.5000000000001</ele><time>2026-04-19T09:12:05Z</time></trkpt><trkpt lat="44.98294253718334" lon="7.3027248094241575"><ele>1019.0</ele><time>2026-04-19T09:12:06Z</time></trkpt><trkpt lat="44.98289320190237" lon="7.302653535314473"><ele>1017.5</ele><time>2026-04-19T09:12:07Z</time></trkpt><trkpt lat="44.9828156481062" lon="7.302620891820794"><ele>1016.0</ele><time>2026-04-19T09:12:09Z</time></trkpt><trkpt lat="44.98273039585575" lon="7.3026725755022595"><ele>1014.5000000000001</ele><time>2026-04-19T09:12:29.001Z</time></trkpt><trkpt lat="44.98265582106778" lon="7.3026826230106865"><ele>1013.0</ele><time>2026-04-19T09:12:30.001Z</time></trkpt><trkpt lat="44.982566498457565" lon="7.302703483512101"><ele>1014.5999999999999</ele><time>2026-04-19T09:12:31.001Z</time></trkpt><trkpt lat="44.982460326898746" lon="7.302716552519336"><ele>1016.1999999999999</ele><time>2026-04-19T09:12:32.001Z</time></trkpt><trkpt lat="44.982349911077335" lon="7.302731009959113"><ele>1017.8</ele><time>2026-04-19T09:12:33.001Z</time></trkpt><trkpt lat="44.98224020398335" lon="7.30274914829196"><ele>1019.4</ele><time>2026-04-19T09:12:34.001Z</time></trkpt><trkpt lat="44.98214068229166" lon="7.302768354308096"><ele>1021.0</ele><time>2026-04-19T09:12:35.001Z</time></trkpt><trkpt lat="44.98205293037626" lon="7.30278809961562"><ele>1020.9999999999999</ele><time>2026-04-19T09:12:36.001Z</time></trkpt><trkpt lat="44.98197410870323" lon="7.302826782475572"><ele>1021.0</ele><time>2026-04-19T09:12:37.001Z</time></trkpt><trkpt lat="44.981908714513914" lon="7.302833534846633"><ele>1021.0</ele><time>2026-04-19T09:12:38.001Z</time></trkpt><trkpt lat="44.98182697768676" lon="7.30279214952037"><ele>1021.0</ele><time>2026-04-19T09:12:40.001Z</time></trkpt><trkpt lat="44.98177209427758" lon="7.302746399460962"><ele>1020.9999999999999</ele><time>2026-04-19T09:12:41.001Z</time></trkpt><trkpt lat="44.98171558770259" lon="7.302697063154516"><ele>1021.0</ele><time>2026-04-19T09:12:42.001Z</time></trkpt><trkpt lat="44.98168575671864" lon="7.302586042907186"><ele>1024.2</ele><time>2026-04-19T09:12:43.001Z</time></trkpt><trkpt lat="44.98161352212044" lon="7.302554922489388"><ele>1027.3999999999999</ele><time>2026-04-19T09:12:45.001Z</time></trkpt><trkpt lat="44.98148378429855" lon="7.302619413861379"><ele>1030.6</ele><time>2026-04-19T09:12:47.001Z</time></trkpt><trkpt lat="44.98140599707152" lon="7.302634202426193"><ele>1033.8</ele><time>2026-04-19T09:12:48.001Z</time></trkpt><trkpt lat="44.98133142123037" lon="7.302672229078104"><ele>1037.0</ele><time>2026-04-19T09:12:49.001Z</time></trkpt><trkpt lat="44.98118521528282" lon="7.3027177847979745"><ele>1037.0</ele><time>2026-04-19T09:12:51.001Z</time></trkpt><trkpt lat="44.98109578771032" lon="7.302725358375733"><ele>1037.0</ele><time>2026-04-19T09:12:52.001Z</time></trkpt><trkpt lat="44.98097662274235" lon="7.302795130377655"><ele>1037.0</ele><time>2026-04-19T09:12:54.001Z</time></trkpt><trkpt lat="44.980904487474305" lon="7.302848656047815"><ele>1037.0</ele><time>2026-04-19T09:12:55.001Z</time></trkpt><trkpt lat="44.98083809072581" lon="7.302907971527084"><ele>1037.0</ele><time>2026-04-19T09:12:56.001Z</time></trkpt><trkpt lat="44.98073629835862" lon="7.302946350418393"><ele>1040.6</ele><time>2026-04-19T09:12:58.001Z</time></trkpt><trkpt lat="44.980636625929776" lon="7.302898044020472"><ele>1044.2</ele><time>2026-04-19T09:13:00.001Z</time></trkpt><trkpt lat="44.98063897453381" lon="7.302763851051481"><ele>1047.8</ele><time>2026-04-19T09:13:02.001Z</time></trkpt><trkpt lat="44.98064245584013" lon="7.302606304054714"><ele>1051.4</ele><time>2026-04-19T09:13:04.001Z</time></trkpt><trkpt lat="44.98061477248746" lon="7.302524093191241"><ele>1055.0</ele><time>2026-04-19T09:13:05.001Z</time></trkpt><trkpt lat="44.98056423509326" lon="7.3024393721355425"><ele>1055.0</ele><time>2026-04-19T09:13:06.001Z</time></trkpt><trkpt lat="44.98051046185746" lon="7.3023640143681625"><ele>1055.0</ele><time>2026-04-19T09:13:07.001Z</time></trkpt><trkpt lat="44.98044866381244" lon="7.302305624657289"><ele>1055.0</ele><time>2026-04-19T09:13:08.001Z</time></trkpt><trkpt lat="44.980363214959894" lon="7.302275431126064"><ele>1055.0</ele><time>2026-04-19T09:13:09.001Z</time></trkpt><trkpt lat="44.98028414952228" lon="7.302260985983864"><ele>1055.0</ele><time>2026-04-19T09:13:10.001Z</time></trkpt><trkpt lat="44.98022051556253" lon="7.302243763262196"><ele>1055.0</ele><time>2026-04-19T09:13:11.001Z</time></trkpt><trkpt lat="44.980117471916756" lon="7.302216979497258"><ele>1057.2</ele><time>2026-04-19T09:13:13.002Z</time></trkpt><trkpt lat="44.98000822692233" lon="7.302270289867857"><ele>1059.4</ele><time>2026-04-19T09:13:15.002Z</time></trkpt><trkpt lat="44.97992778681104" lon="7.302206838725692"><ele>1061.6</ele><time>2026-04-19T09:13:17.002Z</time></trkpt><trkpt lat="44.979833734958866" lon="7.302164982106111"><ele>1063.8</ele><time>2026-04-19T09:13:18.002Z</time></trkpt><trkpt lat="44.97975499973525" lon="7.302134614086973"><ele>1066.0</ele><time>2026-04-19T09:13:19.002Z</time></trkpt><trkpt lat="44.979678856990965" lon="7.3021133346247575"><ele>1066.0</ele><time>2026-04-19T09:13:20.002Z</time></trkpt><trkpt lat="44.979603630534164" lon="7.302075048709143"><ele>1066.0</ele><time>2026-04-19T09:13:21.002Z</time></trkpt><trkpt lat="44.97953866349779" lon="7.3020119760312765"><ele>1066.0</ele><time>2026-04-19T09:13:23.002Z</time></trkpt><trkpt lat="44.97944367713218" lon="7.302017835292088"><ele>1066.0</ele><time>2026-04-19T09:13:25.002Z</time></trkpt><trkpt lat="44.97935516814275" lon="7.301972793577209"><ele>1066.0</ele><time>2026-04-19T09:13:26.002Z</time></trkpt><trkpt lat="44.97928299265637" lon="7.301952299144162"><ele>1066.0</ele><time>2026-04-19T09:13:27.002Z</time></trkpt><trkpt lat="44.97920822251745" lon="7.301931204251784"><ele>1071.8333333333333</ele><time>2026-04-19T09:13:28.002Z</time></trkpt><trkpt lat="44.9791517611606" lon="7.30186862066603"><ele>1077.6666666666665</ele><time>2026-04-19T09:13:29.002Z</time></trkpt><trkpt lat="44.97910139732827" lon="7.30178481105359"><ele>1083.5</ele><time>2026-04-19T09:13:30.002Z</time></trkpt><trkpt lat="44.979006777717615" lon="7.30178036118464"><ele>1089.3333333333333</ele><time>2026-04-19T09:13:32.002Z</time></trkpt><trkpt lat="44.97894361162176" lon="7.30178644572345"><ele>1095.1666666666667</ele><time>2026-04-19T09:13:33.002Z</time></trkpt><trkpt lat="44.97883716976001" lon="7.301808994148308"><ele>1101.0</ele><time>2026-04-19T09:16:16.002Z</time></trkpt><trkpt lat="44.9787080122438" lon="7.301810998553565"><ele>1101.0</ele><time>2026-04-19T09:16:18.002Z</time></trkpt><trkpt lat="44.97864043351093" lon="7.301834046448598"><ele>1101.0</ele><time>2026-04-19T09:16:19.002Z</time></trkpt><trkpt lat="44.978576208576484" lon="7.301890678399138"><ele>1101.0</ele><time>2026-04-19T09:16:20.002Z</time></trkpt><trkpt lat="44.9784923240568" lon="7.301904478447821"><ele>1101.0</ele><time>2026-04-19T09:16:22.001Z</time></trkpt><trkpt lat="44.9784128269788" lon="7.301890967283824"><ele>1101.0</ele><time>2026-04-19T09:16:24.001Z</time></trkpt><trkpt lat="44.978347750461374" lon="7.301835519464456"><ele>1101.0</ele><time>2026-04-19T09:16:27.001Z</time></trkpt><trkpt lat="44.97834039539783" lon="7.301723123921975"><ele>1101.0</ele><time>2026-04-19T09:16:29.001Z</time></trkpt><trkpt lat="44.97838061529077" lon="7.301557719778876"><ele>1101.0</ele><time>2026-04-19T09:16:31.001Z</time></trkpt><trkpt lat="44.97842193739894" lon="7.3013842446669495"><ele>1101.0</ele><time>2026-04-19T09:16:33.001Z</time></trkpt><trkpt lat="44.97840391665285" lon="7.3012399539309785"><ele>1101.0</ele><time>2026-04-19T09:16:35.001Z</time></trkpt><trkpt lat="44.97838115965996" lon="7.301126860377839"><ele>1101.0</ele><time>2026-04-19T09:16:36.001Z</time></trkpt><trkpt lat="44.978367556293975" lon="7.301011229183756"><ele>1100.0</ele><time>2026-04-19T09:16:37.001Z</time></trkpt><trkpt lat="44.97836535591653" lon="7.300897876468966"><ele>1099.0</ele><time>2026-04-19T09:16:38.001Z</time></trkpt><trkpt lat="44.97833870259944" lon="7.300771218560682"><ele>1098.0</ele><time>2026-04-19T09:16:39.001Z</time></trkpt><trkpt lat="44.97833824272151" lon="7.300642510467929"><ele>1097.0</ele><time>2026-04-19T09:16:40.001Z</time></trkpt><trkpt lat="44.97837390305779" lon="7.300523370815226"><ele>1096.0</ele><time>2026-04-19T09:16:42.001Z</time></trkpt><trkpt lat="44.97840457795047" lon="7.300440488300635"><ele>1095.0</ele><time>2026-04-19T09:16:43.001Z</time></trkpt><trkpt lat="44.978406858784666" lon="7.300350849888751"><ele>1100.0</ele><time>2026-04-19T09:16:44.001Z</time></trkpt><trkpt lat="44.97839984955371" lon="7.3002478714825925"><ele>1105.0</ele><time>2026-04-19T09:16:45.001Z</time></trkpt><trkpt lat="44.97841717553514" lon="7.300148111285135"><ele>1110.0</ele><time>2026-04-19T09:16:46.001Z</time></trkpt><trkpt lat="44.9784782797307" lon="7.300059359208165"><ele>1115.0</ele><time>2026-04-19T09:16:48.001Z</time></trkpt><trkpt lat="44.97856302386061" lon="7.300016947776566"><ele>1120.0</ele><time>2026-04-19T09:16:50.001Z</time></trkpt><trkpt lat="44.97862552652246" lon="7.299998275469884"><ele>1125.0</ele><time>2026-04-19T09:16:51.001Z</time></trkpt><trkpt lat="44.97869239663335" lon="7.299993074382095"><ele>1125.0</ele><time>2026-04-19T09:16:52.001Z</time></trkpt><trkpt lat="44.97882661973773" lon="7.299932972228831"><ele>1125.0</ele><time>2026-04-19T09:16:54.001Z</time></trkpt><trkpt lat="44.97894166886657" lon="7.299818326565901"><ele>1125.0</ele><time>2026-04-19T09:16:56.001Z</time></trkpt><trkpt lat="44.979003812606805" lon="7.2997505165410885"><ele>1125.0</ele><time>2026-04-19T09:16:57.001Z</time></trkpt><trkpt lat="44.979105853581764" lon="7.299669160047818"><ele>1124.3333333333333</ele><time>2026-04-19T09:16:59.001Z</time></trkpt><trkpt lat="44.97915225297436" lon="7.299581003641186"><ele>1123.6666666666667</ele><time>2026-04-19T09:17:00.001Z</time></trkpt><trkpt lat="44.979204800051804" lon="7.29950627188165"><ele>1123.0</ele><time>2026-04-19T09:17:01.002Z</time></trkpt><trkpt lat="44.979251023171024" lon="7.299435471088165"><ele>1122.3333333333335</ele><time>2026-04-19T09:17:02.002Z</time></trkpt><trkpt lat="44.97930806346528" lon="7.299378785816331"><ele>1121.6666666666667</ele><time>2026-04-19T09:17:03.002Z</time></trkpt><trkpt lat="44.97942293276195" lon="7.299343922388815"><ele>1121.0</ele><time>2026-04-19T09:17:05.002Z</time></trkpt><trkpt lat="44.97952590048617" lon="7.299231296493676"><ele>1121.0</ele><time>2026-04-19T09:17:07.002Z</time></trkpt><trkpt lat="44.97957226030981" lon="7.2991392524572145"><ele>1121.0</ele><time>2026-04-19T09:17:09.002Z</time></trkpt><trkpt lat="44.97948790969257" lon="7.299035293020888"><ele>1121.0</ele><time>2026-04-19T09:17:13.002Z</time></trkpt><trkpt lat="44.97943104728485" lon="7.298976431231851"><ele>1121.0</ele><time>2026-04-19T09:17:14.002Z</time></trkpt><trkpt lat="44.97932623196647" lon="7.298907456989248"><ele>1121.0</ele><time>2026-04-19T09:17:16.002Z</time></trkpt><trkpt lat="44.97926092282465" lon="7.298831514574976"><ele>1119.2857142857142</ele><time>2026-04-19T09:17:18.002Z</time></trkpt><trkpt lat="44.979219826140806" lon="7.298741502850053"><ele>1117.5714285714284</ele><time>2026-04-19T09:17:19.002Z</time></trkpt><trkpt lat="44.97916428629292" lon="7.298656965270881"><ele>1115.8571428571427</ele><time>2026-04-19T09:17:20.002Z</time></trkpt><trkpt lat="44.97911697476614" lon="7.298570957081596"><ele>1114.142857142857</ele><time>2026-04-19T09:17:21.002Z</time></trkpt><trkpt lat="44.979106449458165" lon="7.298473145030441"><ele>1112.4285714285713</ele><time>2026-04-19T09:17:22.002Z</time></trkpt><trkpt lat="44.97907871675684" lon="7.29837958994075"><ele>1110.7142857142856</ele><time>2026-04-19T09:17:23.002Z</time></trkpt><trkpt lat="44.9790383938185" lon="7.298305360226525"><ele>1109.0</ele><time>2026-04-19T09:17:24.002Z</time></trkpt><trkpt lat="44.9790015541809" lon="7.298226073804604"><ele>1117.6000000000001</ele><time>2026-04-19T09:17:25.002Z</time></trkpt><trkpt lat="44.97894567451418" lon="7.298155918725892"><ele>1126.2</ele><time>2026-04-19T09:17:26.002Z</time></trkpt><trkpt lat="44.9788745522583" lon="7.298030289321611"><ele>1134.8000000000002</ele><time>2026-04-19T09:17:28.002Z</time></trkpt><trkpt lat="44.97879847002941" lon="7.2978585794339885"><ele>1143.4</ele><time>2026-04-19T09:17:30.002Z</time></trkpt><trkpt lat="44.97875436338708" lon="7.297771966135891"><ele>1152.0</ele><time>2026-04-19T09:17:31.002Z</time></trkpt><trkpt lat="44.97870294039584" lon="7.297644905656263"><ele>1152.0</ele><time>2026-04-19T09:17:33.002Z</time></trkpt><trkpt lat="44.97867552105089" lon="7.2975423783198945"><ele>1152.0</ele><time>2026-04-19T09:17:35.002Z</time></trkpt><trkpt lat="44.978730325022845" lon="7.297400426102043"><ele>1152.0</ele><time>2026-04-19T09:17:37.002Z</time></trkpt><trkpt lat="44.97875023407474" lon="7.29725534405808"><ele>1152.0</ele><time>2026-04-19T09:17:45.002Z</time></trkpt><trkpt lat="44.97875039778896" lon="7.297163341516606"><ele>1152.0</ele><time>2026-04-19T09:17:46.002Z</time></trkpt><trkpt lat="44.97878006977141" lon="7.297005698527202"><ele>1155.1666666666667</ele><time>2026-04-19T09:17:48.002Z</time></trkpt><trkpt lat="44.9788282511805" lon="7.2968379585667575"><ele>1158.3333333333333</ele><time>2026-04-19T09:17:50.002Z</time></trkpt><trkpt lat="44.978862295710734" lon="7.296739071675566"><ele>1161.5</ele><time>2026-04-19T09:17:51.002Z</time></trkpt><trkpt lat="44.97888837345268" lon="7.296648956238696"><ele>1164.6666666666665</ele><time>2026-04-19T09:17:52.002Z</time></trkpt><trkpt lat="44.97894701045034" lon="7.296574561622605"><ele>1167.8333333333333</ele><time>2026-04-19T09:17:54.002Z</time></trkpt><trkpt lat="44.979019529123875" lon="7.296497229741178"><ele>1171.0</ele><time>2026-04-19T09:17:55.002Z</time></trkpt><trkpt lat="44.979090626907364" lon="7.296422065508863"><ele>1171.0</ele><time>2026-04-19T09:17:56.002Z</time></trkpt><trkpt lat="44.97914772789988" lon="7.29634162487507"><ele>1171.0</ele><time>2026-04-19T09:17:57.002Z</time></trkpt><trkpt lat="44.97921869512145" lon="7.296270735374558"><ele>1171.0</ele><time>2026-04-19T09:17:59.002Z</time></trkpt><trkpt lat="44.979292394023986" lon="7.2961812349190245"><ele>1171.0</ele><time>2026-04-19T09:18:01.002Z</time></trkpt><trkpt lat="44.97935316192146" lon="7.29611251063971"><ele>1171.0</ele><time>2026-04-19T09:18:02.002Z</time></trkpt><trkpt lat="44.97941072192317" lon="7.296057232466504"><ele>1171.0</ele><time>2026-04-19T09:18:03.002Z</time></trkpt><trkpt lat="44.97952255653144" lon="7.296010599657942"><ele>1171.0</ele><time>2026-04-19T09:18:05.003Z</time></trkpt><trkpt lat="44.97961922120711" lon="7.296011090634677"><ele>1171.0</ele><time>2026-04-19T09:18:06.003Z</time></trkpt><trkpt lat="44.979693630939124" lon="7.295991949740912"><ele>1171.0</ele><time>2026-04-19T09:18:07.003Z</time></trkpt><trkpt lat="44.97975872800065" lon="7.2959597705980945"><ele>1171.0</ele><time>2026-04-19T09:18:08.003Z</time></trkpt><trkpt lat="44.979854675972014" lon="7.295798975855346"><ele>1171.0</ele><time>2026-04-19T09:18:10.003Z</time></trkpt><trkpt lat="44.97987111033655" lon="7.2956938121903905"><ele>1172.0</ele><time>2026-04-19T09:18:11.003Z</time></trkpt><trkpt lat="44.979900591346805" lon="7.295585671854115"><ele>1173.0</ele><time>2026-04-19T09:18:12.003Z</time></trkpt><trkpt lat="44.97991233862544" lon="7.29546968485233"><ele>1174.0</ele><time>2026-04-19T09:18:13.003Z</time></trkpt><trkpt lat="44.97990690863939" lon="7.29534622478357"><ele>1175.0</ele><time>2026-04-19T09:18:14.003Z</time></trkpt><trkpt lat="44.97991919700343" lon="7.295204418494737"><ele>1176.0</ele><time>2026-04-19T09:18:14.999Z</time></trkpt><trkpt lat="44.979910885848746" lon="7.295092119331572"><ele>1177.0</ele><time>2026-04-19T09:18:15.999Z</time></trkpt><trkpt lat="44.97988127415942" lon="7.294963832098119"><ele>1177.0</ele><time>2026-04-19T09:18:16.999Z</time></trkpt><trkpt lat="44.979837941724185" lon="7.294827265067505"><ele>1177.0</ele><time>2026-04-19T09:18:17.999Z</time></trkpt><trkpt lat="44.97979895633239" lon="7.2946658215856885"><ele>1177.0</ele><time>2026-04-19T09:18:18.999Z</time></trkpt><trkpt lat="44.97976620409793" lon="7.294520231336225"><ele>1177.0</ele><time>2026-04-19T09:18:19.999Z</time></trkpt><trkpt lat="44.97973651682986" lon="7.2943749946913385"><ele>1177.0</ele><time>2026-04-19T09:18:20.999Z</time></trkpt><trkpt lat="44.97970997959991" lon="7.294260296185395"><ele>1176.6</ele><time>2026-04-19T09:18:21.999Z</time></trkpt><trkpt lat="44.979681751695814" lon="7.294134480704821"><ele>1176.2</ele><time>2026-04-19T09:18:22.999Z</time></trkpt><trkpt lat="44.979648378600636" lon="7.294000536482852"><ele>1175.8</ele><time>2026-04-19T09:18:23.999Z</time></trkpt><trkpt lat="44.979606199331904" lon="7.293867390467709"><ele>1175.4</ele><time>2026-04-19T09:18:24.999Z</time></trkpt><trkpt lat="44.97956705333567" lon="7.29372541761091"><ele>1175.0</ele><time>2026-04-19T09:18:25.999Z</time></trkpt><trkpt lat="44.979519010915915" lon="7.293577512564875"><ele>1175.0</ele><time>2026-04-19T09:18:26.999Z</time></trkpt><trkpt lat="44.979467146759085" lon="7.293429373911505"><ele>1175.0</ele><time>2026-04-19T09:18:27.999Z</time></trkpt><trkpt lat="44.97944109061924" lon="7.293322508427861"><ele>1175.0</ele><time>2026-04-19T09:18:28.999Z</time></trkpt><trkpt lat="44.97939444999816" lon="7.293232653595732"><ele>1175.0</ele><time>2026-04-19T09:18:30.999Z</time></trkpt><trkpt lat="44.97933457746829" lon="7.29330938697763"><ele>1175.0</ele><time>2026-04-19T09:18:32.999Z</time></trkpt><trkpt lat="44.979347821077106" lon="7.2934578077226115"><ele>1175.0</ele><time>2026-04-19T09:18:34.999Z</time></trkpt><trkpt lat="44.97937628993529" lon="7.293544093265689"><ele>1175.0</ele><time>2026-04-19T09:18:35.999Z</time></trkpt><trkpt lat="44.97939973776754" lon="7.293652251898744"><ele>1175.0</ele><time>2026-04-19T09:18:36.999Z</time></trkpt><trkpt lat="44.979406263275884" lon="7.293753153374277"><ele>1175.0</ele><time>2026-04-19T09:18:37.999Z</time></trkpt><trkpt lat="44.97941839091344" lon="7.293859669739106"><ele>1175.0</ele><time>2026-04-19T09:18:38.999Z</time></trkpt><trkpt lat="44.97943359049357" lon="7.293962977758524"><ele>1175.0</ele><time>2026-04-19T09:18:40Z</time></trkpt><trkpt lat="44.97945395716729" lon="7.2940572478659265"><ele>1175.0</ele><time>2026-04-19T09:18:41Z</time></trkpt><trkpt lat="44.979462952699535" lon="7.2941634916195355"><ele>1175.3333333333335</ele><time>2026-04-19T09:18:42Z</time></trkpt><trkpt lat="44.97948959379016" lon="7.294273109848487"><ele>1175.6666666666667</ele><time>2026-04-19T09:18:43Z</time></trkpt><trkpt lat="44.97947660952563" lon="7.294386432942008"><ele>1176.0</ele><time>2026-04-19T09:18:44Z</time></trkpt><trkpt lat="44.97945225699907" lon="7.294522261707472"><ele>1176.3333333333333</ele><time>2026-04-19T09:18:45Z</time></trkpt><trkpt lat="44.979420216536504" lon="7.294634260889291"><ele>1176.6666666666665</ele><time>2026-04-19T09:18:46Z</time></trkpt><trkpt lat="44.979412006670756" lon="7.294754082559933"><ele>1177.0</ele><time>2026-04-19T09:18:47Z</time></trkpt><trkpt lat="44.979389465608065" lon="7.294851362974828"><ele>1177.0</ele><time>2026-04-19T09:18:48Z</time></trkpt><trkpt lat="44.97934349007408" lon="7.294955746488279"><ele>1177.0</ele><time>2026-04-19T09:18:49Z</time></trkpt><trkpt lat="44.9793025660712" lon="7.295045175299198"><ele>1177.0</ele><time>2026-04-19T09:18:50Z</time></trkpt><trkpt lat="44.979246660263314" lon="7.295161914591706"><ele>1177.0</ele><time>2026-04-19T09:18:51Z</time></trkpt><trkpt lat="44.979196614357996" lon="7.295245196505316"><ele>1177.0</ele><time>2026-04-19T09:18:52Z</time></trkpt><trkpt lat="44.979126511764676" lon="7.295301521130289"><ele>1177.0</ele><time>2026-04-19T09:18:53Z</time></trkpt><trkpt lat="44.9790492288972" lon="7.295349677957826"><ele>1181.4</ele><time>2026-04-19T09:18:54Z</time></trkpt><trkpt lat="44.97894706745488" lon="7.295410829022368"><ele>1185.8000000000002</ele><time>2026-04-19T09:18:55Z</time></trkpt><trkpt lat="44.97885998747826" lon="7.295456341097468"><ele>1190.2</ele><time>2026-04-19T09:18:56Z</time></trkpt><trkpt lat="44.97876330243225" lon="7.295493042693066"><ele>1194.6000000000001</ele><time>2026-04-19T09:18:57Z</time></trkpt><trkpt lat="44.97869067358282" lon="7.295595682227901"><ele>1199.0</ele><time>2026-04-19T09:18:58Z</time></trkpt><trkpt lat="44.97861436443513" lon="7.29567685691381"><ele>1199.0</ele><time>2026-04-19T09:18:59Z</time></trkpt><trkpt lat="44.978558481309854" lon="7.295727596413686"><ele>1199.0</ele><time>2026-04-19T09:19:00Z</time></trkpt><trkpt lat="44.97849046831961" lon="7.295816472624563"><ele>1199.0</ele><time>2026-04-19T09:19:01Z</time></trkpt><trkpt lat="44.978423461107795" lon="7.2958877403112785"><ele>1199.0</ele><time>2026-04-19T09:19:02Z</time></trkpt><trkpt lat="44.97836922175096" lon="7.295960750912154"><ele>1199.0</ele><time>2026-04-19T09:19:03Z</time></trkpt><trkpt lat="44.978303331484305" lon="7.296028216737533"><ele>1199.0</ele><time>2026-04-19T09:19:04Z</time></trkpt><trkpt lat="44.97823709062065" lon="7.2961137002136764"><ele>1202.2</ele><time>2026-04-19T09:19:05Z</time></trkpt><trkpt lat="44.978179869282876" lon="7.296212112505333"><ele>1205.4</ele><time>2026-04-19T09:19:06Z</time></trkpt><trkpt lat="44.97814040878462" lon="7.296301307234333"><ele>1208.6</ele><time>2026-04-19T09:19:07Z</time></trkpt><trkpt lat="44.978039622362466" lon="7.296404469200907"><ele>1211.8</ele><time>2026-04-19T09:19:09Z</time></trkpt><trkpt lat="44.97797689721536" lon="7.296508845144784"><ele>1215.0</ele><time>2026-04-19T09:19:10Z</time></trkpt><trkpt lat="44.97790905890244" lon="7.296640684484653"><ele>1215.0</ele><time>2026-04-19T09:19:12Z</time></trkpt><trkpt lat="44.97785333058209" lon="7.296727150361379"><ele>1215.0</ele><time>2026-04-19T09:19:14Z</time></trkpt><trkpt lat="44.97778785119228" lon="7.2968043021005276"><ele>1215.0</ele><time>2026-04-19T09:19:15Z</time></trkpt><trkpt lat="44.977731040745034" lon="7.2968748006000315"><ele>1215.0</ele><time>2026-04-19T09:19:16Z</time></trkpt><trkpt lat="44.977667928642965" lon="7.296944842795163"><ele>1215.0</ele><time>2026-04-19T09:19:17Z</time></trkpt><trkpt lat="44.977587419955704" lon="7.297076142008046"><ele>1215.0</ele><time>2026-04-19T09:19:19Z</time></trkpt><trkpt lat="44.97754356561551" lon="7.297140437909631"><ele>1219.1666666666667</ele><time>2026-04-19T09:19:20.001Z</time></trkpt><trkpt lat="44.97749341677722" lon="7.297252049502633"><ele>1223.3333333333333</ele><time>2026-04-19T09:19:21.001Z</time></trkpt><trkpt lat="44.97746467647906" lon="7.29733415324983"><ele>1227.5</ele><time>2026-04-19T09:19:22.001Z</time></trkpt><trkpt lat="44.97740891043947" lon="7.29747859161049"><ele>1231.6666666666665</ele><time>2026-04-19T09:19:24.001Z</time></trkpt><trkpt lat="44.97732097680857" lon="7.297501817411775"><ele>1235.8333333333333</ele><time>2026-04-19T09:19:26.001Z</time></trkpt><trkpt lat="44.97728834150309" lon="7.297409534480523"><ele>1240.0</ele><time>2026-04-19T09:19:28.001Z</time></trkpt><trkpt lat="44.977342631688416" lon="7.29728466385844"><ele>1243.1666666666665</ele><time>2026-04-19T09:19:30.001Z</time></trkpt><trkpt lat="44.97738643074118" lon="7.297146587211483"><ele>1246.3333333333333</ele><time>2026-04-19T09:19:32.001Z</time></trkpt><trkpt lat="44.977388317047115" lon="7.297047026903414"><ele>1249.5</ele><time>2026-04-19T09:19:33.001Z</time></trkpt><trkpt lat="44.97743529587759" lon="7.296891448162867"><ele>1252.6666666666667</ele><time>2026-04-19T09:19:35.001Z</time></trkpt><trkpt lat="44.97747249548117" lon="7.296800190112639"><ele>1255.8333333333335</ele><time>2026-04-19T09:19:36.001Z</time></trkpt><trkpt lat="44.977501317370965" lon="7.296715229481221"><ele>1259.0</ele><time>2026-04-19T09:19:37.001Z</time></trkpt><trkpt lat="44.97753376922975" lon="7.296612308513256"><ele>1254.6000000000001</ele><time>2026-04-19T09:19:38.001Z</time></trkpt><trkpt lat="44.97755780900519" lon="7.296514770872043"><ele>1250.2</ele><time>2026-04-19T09:19:39.001Z</time></trkpt><trkpt lat="44.97759451336825" lon="7.296416968968128"><ele>1245.8000000000002</ele><time>2026-04-19T09:19:40.001Z</time></trkpt><trkpt lat="44.97764908132136" lon="7.296168157780284"><ele>1241.4</ele><time>2026-04-19T09:19:42.001Z</time></trkpt><trkpt lat="44.977663836227194" lon="7.296044743733972"><ele>1237.0</ele><time>2026-04-19T09:19:43.001Z</time></trkpt><trkpt lat="44.977679916636056" lon="7.295901921974726"><ele>1237.0</ele><time>2026-04-19T09:19:44.001Z</time></trkpt><trkpt lat="44.977703977972396" lon="7.295797241477654"><ele>1237.0</ele><time>2026-04-19T09:19:45.001Z</time></trkpt><trkpt lat="44.97772603086742" lon="7.295704843624589"><ele>1237.0</ele><time>2026-04-19T09:19:46.001Z</time></trkpt><trkpt lat="44.97776592111235" lon="7.295580325997953"><ele>1237.0</ele><time>2026-04-19T09:19:47.001Z</time></trkpt><trkpt lat="44.977823503434145" lon="7.295482515243526"><ele>1237.0</ele><time>2026-04-19T09:19:48.001Z</time></trkpt><trkpt lat="44.977879620077125" lon="7.295386556442778"><ele>1237.0</ele><time>2026-04-19T09:19:49.001Z</time></trkpt><trkpt lat="44.97792811405759" lon="7.295309503001277"><ele>1241.25</ele><time>2026-04-19T09:19:50.001Z</time></trkpt><trkpt lat="44.9779611046704" lon="7.295146482100054"><ele>1245.5</ele><time>2026-04-19T09:19:52.001Z</time></trkpt><trkpt lat="44.97797098167403" lon="7.2949514730016345"><ele>1249.75</ele><time>2026-04-19T09:19:54.001Z</time></trkpt><trkpt lat="44.97794920951507" lon="7.294795770264735"><ele>1254.0</ele><time>2026-04-19T09:19:56.001Z</time></trkpt><trkpt lat="44.9779309994771" lon="7.294623461636678"><ele>1254.3333333333333</ele><time>2026-04-19T09:19:58.001Z</time></trkpt><trkpt lat="44.97792982604578" lon="7.294525888035511"><ele>1254.6666666666667</ele><time>2026-04-19T09:19:59.001Z</time></trkpt><trkpt lat="44.977925105643834" lon="7.294419314277483"><ele>1255.0</ele><time>2026-04-19T09:20:00.001Z</time></trkpt><trkpt lat="44.97789551612968" lon="7.294319537633884"><ele>1255.3333333333335</ele><time>2026-04-19T09:20:01.001Z</time></trkpt><trkpt lat="44.977846073279125" lon="7.294207206303586"><ele>1255.6666666666667</ele><time>2026-04-19T09:20:02.001Z</time></trkpt><trkpt lat="44.977793987735865" lon="7.294118918351261"><ele>1256.0</ele><time>2026-04-19T09:20:03.001Z</time></trkpt><trkpt lat="44.97774314856276" lon="7.294014143226063"><ele>1256.0</ele><time>2026-04-19T09:20:04.001Z</time></trkpt><trkpt lat="44.97768913917889" lon="7.293922726620951"><ele>1256.0</ele><time>2026-04-19T09:20:05.001Z</time></trkpt><trkpt lat="44.97763933003454" lon="7.293835885274699"><ele>1256.0</ele><time>2026-04-19T09:20:06.001Z</time></trkpt><trkpt lat="44.977577670734156" lon="7.293764852370541"><ele>1256.0</ele><time>2026-04-19T09:20:07.001Z</time></trkpt><trkpt lat="44.977513074458294" lon="7.293679682975408"><ele>1256.0</ele><time>2026-04-19T09:20:08.001Z</time></trkpt><trkpt lat="44.97744531000667" lon="7.293577000425877"><ele>1256.0</ele><time>2026-04-19T09:20:09.001Z</time></trkpt><trkpt lat="44.97741081623718" lon="7.293462781722192"><ele>1260.5714285714284</ele><time>2026-04-19T09:20:10.002Z</time></trkpt><trkpt lat="44.97737511982942" lon="7.2933510465287155"><ele>1265.142857142857</ele><time>2026-04-19T09:20:11.002Z</time></trkpt><trkpt lat="44.977340989900355" lon="7.293258424334562"><ele>1269.7142857142858</ele><time>2026-04-19T09:20:12.002Z</time></trkpt><trkpt lat="44.977304531931104" lon="7.293179803186196"><ele>1274.2857142857142</ele><time>2026-04-19T09:20:13.002Z</time></trkpt><trkpt lat="44.97727505442681" lon="7.293095153954791"><ele>1278.857142857143</ele><time>2026-04-19T09:20:14.002Z</time></trkpt><trkpt lat="44.97726666860546" lon="7.292996467810848"><ele>1283.4285714285713</ele><time>2026-04-19T09:20:15.002Z</time></trkpt><trkpt lat="44.97724374937309" lon="7.292883968849292"><ele>1288.0</ele><time>2026-04-19T09:20:16.002Z</time></trkpt><trkpt lat="44.97722014968801" lon="7.292794413244969"><ele>1288.6666666666665</ele><time>2026-04-19T09:20:17.002Z</time></trkpt><trkpt lat="44.97719883090224" lon="7.29270075862139"><ele>1289.3333333333333</ele><time>2026-04-19T09:20:18.002Z</time></trkpt><trkpt lat="44.97717242103963" lon="7.292537397218946"><ele>1290.0</ele><time>2026-04-19T09:20:20.002Z</time></trkpt><trkpt lat="44.97712250859327" lon="7.292467982025517"><ele>1290.6666666666667</ele><time>2026-04-19T09:20:20.999Z</time></trkpt><trkpt lat="44.977059173095306" lon="7.292413977306852"><ele>1291.3333333333335</ele><time>2026-04-19T09:20:21.999Z</time></trkpt><trkpt lat="44.9769902629193" lon="7.292373544594704"><ele>1292.0</ele><time>2026-04-19T09:20:22.999Z</time></trkpt><trkpt lat="44.97692879950287" lon="7.292352633222248"><ele>1292.0</ele><time>2026-04-19T09:20:23.999Z</time></trkpt><trkpt lat="44.976852115908216" lon="7.29234717200116"><ele>1292.0</ele><time>2026-04-19T09:20:25.999Z</time></trkpt><trkpt lat="44.97676494429288" lon="7.292326227080672"><ele>1292.0</ele><time>2026-04-19T09:24:50.001Z</time></trkpt><trkpt lat="44.97668367784054" lon="7.292191104817703"><ele>1292.0</ele><time>2026-04-19T09:24:52.001Z</time></trkpt><trkpt lat="44.97663609432087" lon="7.292122197106637"><ele>1292.0</ele><time>2026-04-19T09:24:53.001Z</time></trkpt><trkpt lat="44.9765864207443" lon="7.292044842281612"><ele>1292.0</ele><time>2026-04-19T09:24:54.001Z</time></trkpt><trkpt lat="44.97652573387198" lon="7.291951697187124"><ele>1293.8</ele><time>2026-04-19T09:24:55.001Z</time></trkpt><trkpt lat="44.97645908008531" lon="7.291856918757455"><ele>1295.6</ele><time>2026-04-19T09:24:56.001Z</time></trkpt><trkpt lat="44.9763794294919" lon="7.29176365267478"><ele>1297.3999999999999</ele><time>2026-04-19T09:24:57.001Z</time></trkpt><trkpt lat="44.976289377855714" lon="7.291719660378204"><ele>1299.1999999999998</ele><time>2026-04-19T09:24:58.001Z</time></trkpt><trkpt lat="44.9761828463659" lon="7.291688930996343"><ele>1301.0</ele><time>2026-04-19T09:24:59.001Z</time></trkpt><trkpt lat="44.976087261161446" lon="7.291675852849775"><ele>1301.0</ele><time>2026-04-19T09:25:00.001Z</time></trkpt><trkpt lat="44.975979024830224" lon="7.29165388736338"><ele>1301.0</ele><time>2026-04-19T09:25:01.001Z</time></trkpt><trkpt lat="44.97587757568814" lon="7.291646916515352"><ele>1301.0</ele><time>2026-04-19T09:25:02.001Z</time></trkpt><trkpt lat="44.97577405917361" lon="7.291619784174415"><ele>1301.0</ele><time>2026-04-19T09:25:03.001Z</time></trkpt><trkpt lat="44.975679745320804" lon="7.291556657004499"><ele>1301.0</ele><time>2026-04-19T09:25:04.001Z</time></trkpt><trkpt lat="44.97558766159846" lon="7.291491520128449"><ele>1301.4</ele><time>2026-04-19T09:25:05.001Z</time></trkpt><trkpt lat="44.97549071967675" lon="7.291470354295275"><ele>1301.8</ele><time>2026-04-19T09:25:06.001Z</time></trkpt><trkpt lat="44.97539356756751" lon="7.291462486155011"><ele>1302.2</ele><time>2026-04-19T09:25:07.001Z</time></trkpt><trkpt lat="44.97528833124889" lon="7.291461445338883"><ele>1302.6000000000001</ele><time>2026-04-19T09:25:08.001Z</time></trkpt><trkpt lat="44.97517831194713" lon="7.291472658404946"><ele>1303.0</ele><time>2026-04-19T09:25:09.001Z</time></trkpt><trkpt lat="44.975084180712635" lon="7.291469089857377"><ele>1305.0</ele><time>2026-04-19T09:25:10.001Z</time></trkpt><trkpt lat="44.975008224802615" lon="7.2914659261471275"><ele>1307.0</ele><time>2026-04-19T09:25:11.001Z</time></trkpt><trkpt lat="44.9749453611951" lon="7.2915245100773625"><ele>1309.0</ele><time>2026-04-19T09:25:12.001Z</time></trkpt><trkpt lat="44.974878518777" lon="7.29157269883445"><ele>1311.0</ele><time>2026-04-19T09:25:13.001Z</time></trkpt><trkpt lat="44.97480928045302" lon="7.291570510306148"><ele>1313.0</ele><time>2026-04-19T09:25:14.001Z</time></trkpt><trkpt lat="44.97473129614437" lon="7.291524232762616"><ele>1315.0</ele><time>2026-04-19T09:25:15.001Z</time></trkpt><trkpt lat="44.97464657400241" lon="7.2914780830998085"><ele>1314.6</ele><time>2026-04-19T09:25:16.001Z</time></trkpt><trkpt lat="44.97454972013624" lon="7.291417143411055"><ele>1314.2</ele><time>2026-04-19T09:25:17.001Z</time></trkpt><trkpt lat="44.97445866529446" lon="7.291376615407168"><ele>1313.8000000000002</ele><time>2026-04-19T09:25:18.001Z</time></trkpt><trkpt lat="44.97435355756872" lon="7.291344030772847"><ele>1313.4</ele><time>2026-04-19T09:25:19.001Z</time></trkpt><trkpt lat="44.97426572001471" lon="7.291309761868479"><ele>1313.0</ele><time>2026-04-19T09:25:20.001Z</time></trkpt><trkpt lat="44.97416608072486" lon="7.291267090895568"><ele>1315.1666666666667</ele><time>2026-04-19T09:25:21.001Z</time></trkpt><trkpt lat="44.97410363130235" lon="7.29120486248674"><ele>1317.3333333333335</ele><time>2026-04-19T09:25:22.001Z</time></trkpt><trkpt lat="44.97404896929693" lon="7.291122905227325"><ele>1319.5</ele><time>2026-04-19T09:25:23.001Z</time></trkpt><trkpt lat="44.973977975568786" lon="7.291016319426806"><ele>1321.6666666666667</ele><time>2026-04-19T09:25:24.001Z</time></trkpt><trkpt lat="44.97393062115597" lon="7.29090399168702"><ele>1323.8333333333333</ele><time>2026-04-19T09:25:25.001Z</time></trkpt><trkpt lat="44.973872260688786" lon="7.290799347349134"><ele>1326.0</ele><time>2026-04-19T09:25:26.001Z</time></trkpt><trkpt lat="44.97379605434293" lon="7.290690602302291"><ele>1326.6</ele><time>2026-04-19T09:25:27.001Z</time></trkpt><trkpt lat="44.97372287634961" lon="7.2905812012970985"><ele>1327.1999999999998</ele><time>2026-04-19T09:25:28.001Z</time></trkpt><trkpt lat="44.97364450623911" lon="7.290461956690752"><ele>1327.8000000000002</ele><time>2026-04-19T09:25:29.001Z</time></trkpt><trkpt lat="44.9736008015515" lon="7.2903476703021495"><ele>1328.4</ele><time>2026-04-19T09:25:30.001Z</time></trkpt><trkpt lat="44.97356887534634" lon="7.290251309426577"><ele>1329.0</ele><time>2026-04-19T09:25:31.001Z</time></trkpt><trkpt lat="44.97349908539871" lon="7.290132030796023"><ele>1329.0</ele><time>2026-04-19T09:25:33.001Z</time></trkpt><trkpt lat="44.973438179160006" lon="7.290051393737129"><ele>1329.0</ele><time>2026-04-19T09:25:34.001Z</time></trkpt><trkpt lat="44.97335955277931" lon="7.289986416313313"><ele>1329.0</ele><time>2026-04-19T09:25:35.001Z</time></trkpt><trkpt lat="44.97330057546009" lon="7.289936780126483"><ele>1329.0</ele><time>2026-04-19T09:25:36.001Z</time></trkpt><trkpt lat="44.97326757155033" lon="7.289842160123094"><ele>1329.0</ele><time>2026-04-19T09:25:38.002Z</time></trkpt><trkpt lat="44.97335370879479" lon="7.289744062200688"><ele>1329.0</ele><time>2026-04-19T09:25:40.002Z</time></trkpt><trkpt lat="44.97342078121156" lon="7.289720775779219"><ele>1330.0</ele><time>2026-04-19T09:25:41.002Z</time></trkpt><trkpt lat="44.97349063742689" lon="7.289670681505168"><ele>1331.0</ele><time>2026-04-19T09:25:42.002Z</time></trkpt><trkpt lat="44.97356730236008" lon="7.2896342959850475"><ele>1332.0</ele><time>2026-04-19T09:25:43.002Z</time></trkpt><trkpt lat="44.973647663093324" lon="7.289595148409727"><ele>1333.0</ele><time>2026-04-19T09:25:44.002Z</time></trkpt><trkpt lat="44.97373336438695" lon="7.289556331558928"><ele>1334.0</ele><time>2026-04-19T09:25:45.002Z</time></trkpt><trkpt lat="44.97380544212034" lon="7.289499332933041"><ele>1335.0</ele><time>2026-04-19T09:25:46.002Z</time></trkpt><trkpt lat="44.9738789988874" lon="7.2894256827631345"><ele>1335.0</ele><time>2026-04-19T09:25:47.002Z</time></trkpt><trkpt lat="44.97396030658807" lon="7.2893452275115855"><ele>1335.0</ele><time>2026-04-19T09:25:48.002Z</time></trkpt><trkpt lat="44.97402223032643" lon="7.289281449557771"><ele>1335.0</ele><time>2026-04-19T09:25:49.002Z</time></trkpt><trkpt lat="44.974081429345816" lon="7.289219920411286"><ele>1335.0</ele><time>2026-04-19T09:25:50.002Z</time></trkpt><trkpt lat="44.97414329444102" lon="7.2891916181846454"><ele>1335.0</ele><time>2026-04-19T09:25:51.002Z</time></trkpt><trkpt lat="44.974237641398226" lon="7.289088832330366"><ele>1335.0</ele><time>2026-04-19T09:25:53.002Z</time></trkpt><trkpt lat="44.97426964903737" lon="7.2889814507478405"><ele>1332.6</ele><time>2026-04-19T09:25:54.002Z</time></trkpt><trkpt lat="44.97430629872601" lon="7.288865980596271"><ele>1330.2</ele><time>2026-04-19T09:25:55.002Z</time></trkpt><trkpt lat="44.97434763197926" lon="7.288744828559696"><ele>1327.8000000000002</ele><time>2026-04-19T09:25:56.002Z</time></trkpt><trkpt lat="44.97438620323493" lon="7.288604269275955"><ele>1325.4</ele><time>2026-04-19T09:25:57.002Z</time></trkpt><trkpt lat="44.974425470712426" lon="7.288453457474834"><ele>1323.0</ele><time>2026-04-19T09:25:58.002Z</time></trkpt><trkpt lat="44.97446189443414" lon="7.288310433413097"><ele>1323.0</ele><time>2026-04-19T09:25:59.002Z</time></trkpt><trkpt lat="44.974489760512164" lon="7.2881836953760075"><ele>1323.0</ele><time>2026-04-19T09:26:00.002Z</time></trkpt><trkpt lat="44.974500174111895" lon="7.28806696718191"><ele>1323.0</ele><time>2026-04-19T09:26:01.002Z</time></trkpt><trkpt lat="44.974485214673486" lon="7.287958660051898"><ele>1323.0</ele><time>2026-04-19T09:26:02.002Z</time></trkpt><trkpt lat="44.974447178657876" lon="7.287835641987054"><ele>1323.0</ele><time>2026-04-19T09:26:03.002Z</time></trkpt><trkpt lat="44.97438618156666" lon="7.287710053452876"><ele>1321.25</ele><time>2026-04-19T09:26:04.002Z</time></trkpt><trkpt lat="44.97432364075407" lon="7.287557553826421"><ele>1319.5</ele><time>2026-04-19T09:26:05.002Z</time></trkpt><trkpt lat="44.974260312365224" lon="7.287425812825053"><ele>1317.75</ele><time>2026-04-19T09:26:06.002Z</time></trkpt><trkpt lat="44.97420444579004" lon="7.287308858904978"><ele>1316.0</ele><time>2026-04-19T09:26:07.002Z</time></trkpt><trkpt lat="44.97413883957281" lon="7.287175982842193"><ele>1315.0</ele><time>2026-04-19T09:26:08.002Z</time></trkpt><trkpt lat="44.97406370579686" lon="7.287035824245946"><ele>1314.0</ele><time>2026-04-19T09:26:09.002Z</time></trkpt><trkpt lat="44.97400225890337" lon="7.28689551713635"><ele>1313.0</ele><time>2026-04-19T09:26:10.002Z</time></trkpt><trkpt lat="44.97395197328293" lon="7.286750901528961"><ele>1312.0</ele><time>2026-04-19T09:26:11.002Z</time></trkpt><trkpt lat="44.97389421891201" lon="7.286627922246186"><ele>1312.0</ele><time>2026-04-19T09:26:12.002Z</time></trkpt><trkpt lat="44.973840751766886" lon="7.2865227914144945"><ele>1312.0</ele><time>2026-04-19T09:26:13.002Z</time></trkpt><trkpt lat="44.973778483798625" lon="7.286383973136628"><ele>1312.0</ele><time>2026-04-19T09:26:14.002Z</time></trkpt><trkpt lat="44.97372971033031" lon="7.286263733418339"><ele>1312.0</ele><time>2026-04-19T09:26:15.002Z</time></trkpt><trkpt lat="44.97367476890565" lon="7.28614346156353"><ele>1312.0</ele><time>2026-04-19T09:26:16.002Z</time></trkpt><trkpt lat="44.973621933736794" lon="7.286011066660579"><ele>1307.8</ele><time>2026-04-19T09:26:17.002Z</time></trkpt><trkpt lat="44.97357781639827" lon="7.28588579320243"><ele>1303.6</ele><time>2026-04-19T09:26:18.002Z</time></trkpt><trkpt lat="44.973532763675394" lon="7.285764514012127"><ele>1299.3999999999999</ele><time>2026-04-19T09:26:19.002Z</time></trkpt><trkpt lat="44.97349819650303" lon="7.285635267124873"><ele>1295.1999999999998</ele><time>2026-04-19T09:26:20.002Z</time></trkpt><trkpt lat="44.97346180417996" lon="7.285512639362907"><ele>1291.0</ele><time>2026-04-19T09:26:21.002Z</time></trkpt><trkpt lat="44.973435714668994" lon="7.285415445690284"><ele>1288.1666666666665</ele><time>2026-04-19T09:26:22.002Z</time></trkpt><trkpt lat="44.97341554059871" lon="7.285293166836844"><ele>1285.3333333333333</ele><time>2026-04-19T09:26:23.002Z</time></trkpt><trkpt lat="44.97340697708999" lon="7.285168609825989"><ele>1282.5</ele><time>2026-04-19T09:26:24.002Z</time></trkpt><trkpt lat="44.97338920683888" lon="7.285072609057984"><ele>1279.6666666666667</ele><time>2026-04-19T09:26:25.002Z</time></trkpt><trkpt lat="44.9734054010155" lon="7.284963359965437"><ele>1276.8333333333335</ele><time>2026-04-19T09:26:27.002Z</time></trkpt><trkpt lat="44.97347612690671" lon="7.284956809791194"><ele>1274.0</ele><time>2026-04-19T09:26:29.002Z</time></trkpt><trkpt lat="44.97355962434972" lon="7.285083182435526"><ele>1274.0</ele><time>2026-04-19T09:26:31.002Z</time></trkpt><trkpt lat="44.97360104919724" lon="7.2851803516951605"><ele>1274.0</ele><time>2026-04-19T09:26:32.002Z</time></trkpt><trkpt lat="44.97365337227174" lon="7.2852816502788995"><ele>1274.0</ele><time>2026-04-19T09:26:33.002Z</time></trkpt><trkpt lat="44.97372686330643" lon="7.285364724883726"><ele>1274.0</ele><time>2026-04-19T09:26:34.002Z</time></trkpt><trkpt lat="44.97381392947299" lon="7.285443880725788"><ele>1274.0</ele><time>2026-04-19T09:26:35.002Z</time></trkpt><trkpt lat="44.97391994205402" lon="7.2855174826920015"><ele>1274.0</ele><time>2026-04-19T09:26:36.002Z</time></trkpt><trkpt lat="44.97401983121941" lon="7.285589487126712"><ele>1274.0</ele><time>2026-04-19T09:26:37.002Z</time></trkpt><trkpt lat="44.97410724322498" lon="7.285646979067485"><ele>1274.0</ele><time>2026-04-19T09:26:38.002Z</time></trkpt><trkpt lat="44.974216039815076" lon="7.285705617092504"><ele>1274.0</ele><time>2026-04-19T09:26:39Z</time></trkpt><trkpt lat="44.97430279893808" lon="7.2857278252960755"><ele>1274.0</ele><time>2026-04-19T09:26:40Z</time></trkpt><trkpt lat="44.974388216772155" lon="7.285730932053091"><ele>1275.8000000000002</ele><time>2026-04-19T09:26:41Z</time></trkpt><trkpt lat="44.97446771308975" lon="7.285734087489792"><ele>1277.6000000000001</ele><time>2026-04-19T09:26:42Z</time></trkpt><trkpt lat="44.97454863008854" lon="7.2856970540444275"><ele>1279.4</ele><time>2026-04-19T09:26:43Z</time></trkpt><trkpt lat="44.974633769059295" lon="7.285613152977388"><ele>1281.2</ele><time>2026-04-19T09:26:44Z</time></trkpt><trkpt lat="44.97472370614469" lon="7.285529031437124"><ele>1283.0</ele><time>2026-04-19T09:26:45Z</time></trkpt><trkpt lat="44.974805624842425" lon="7.28545024223112"><ele>1277.6000000000001</ele><time>2026-04-19T09:26:46Z</time></trkpt><trkpt lat="44.9749049701411" lon="7.285414094936304"><ele>1272.2</ele><time>2026-04-19T09:26:47Z</time></trkpt><trkpt lat="44.974995121851485" lon="7.285385165676973"><ele>1266.8</ele><time>2026-04-19T09:26:48Z</time></trkpt><trkpt lat="44.975074666994416" lon="7.285379717011052"><ele>1261.4</ele><time>2026-04-19T09:26:49Z</time></trkpt><trkpt lat="44.975165613369136" lon="7.285390910102088"><ele>1256.0</ele><time>2026-04-19T09:26:50Z</time></trkpt><trkpt lat="44.9752719915372" lon="7.285429786512508"><ele>1258.5</ele><time>2026-04-19T09:26:51Z</time></trkpt><trkpt lat="44.97538944867965" lon="7.285481901494364"><ele>1261.0</ele><time>2026-04-19T09:26:52Z</time></trkpt><trkpt lat="44.97551296397766" lon="7.285530814766142"><ele>1263.5</ele><time>2026-04-19T09:26:53Z</time></trkpt><trkpt lat="44.9756297637815" lon="7.285575004064979"><ele>1266.0</ele><time>2026-04-19T09:26:54Z</time></trkpt><trkpt lat="44.97573545280931" lon="7.2856318690097135"><ele>1266.0</ele><time>2026-04-19T09:26:55Z</time></trkpt><trkpt lat="44.97582755565859" lon="7.2856767544757846"><ele>1266.0</ele><time>2026-04-19T09:26:56Z</time></trkpt><trkpt lat="44.97593151901762" lon="7.285727925967775"><ele>1266.0</ele><time>2026-04-19T09:26:57Z</time></trkpt><trkpt lat="44.97603399672981" lon="7.285772151882151"><ele>1266.0</ele><time>2026-04-19T09:26:58Z</time></trkpt><trkpt lat="44.97613119139669" lon="7.285824396206051"><ele>1266.0</ele><time>2026-04-19T09:26:59Z</time></trkpt><trkpt lat="44.976246420332295" lon="7.285869587115761"><ele>1262.2</ele><time>2026-04-19T09:27:00Z</time></trkpt><trkpt lat="44.97635742262351" lon="7.285928895292911"><ele>1258.3999999999999</ele><time>2026-04-19T09:27:01Z</time></trkpt><trkpt lat="44.976454337866606" lon="7.285997231139469"><ele>1254.6</ele><time>2026-04-19T09:27:02Z</time></trkpt><trkpt lat="44.9765333647616" lon="7.2860622490449325"><ele>1250.8</ele><time>2026-04-19T09:27:03Z</time></trkpt><trkpt lat="44.976598864688135" lon="7.2861354536479706"><ele>1247.0</ele><time>2026-04-19T09:27:04Z</time></trkpt><trkpt lat="44.97665599612274" lon="7.286188173987058"><ele>1246.8333333333335</ele><time>2026-04-19T09:27:05Z</time></trkpt><trkpt lat="44.97671114853545" lon="7.286245088872502"><ele>1246.6666666666667</ele><time>2026-04-19T09:27:06Z</time></trkpt><trkpt lat="44.97676579647118" lon="7.286308450408029"><ele>1246.5</ele><time>2026-04-19T09:27:07Z</time></trkpt><trkpt lat="44.97682037437045" lon="7.286376533521842"><ele>1246.3333333333333</ele><time>2026-04-19T09:27:08Z</time></trkpt><trkpt lat="44.97694793347092" lon="7.286396664293093"><ele>1246.1666666666665</ele><time>2026-04-19T09:27:10Z</time></trkpt><trkpt lat="44.976994352462384" lon="7.2863216348301965"><ele>1246.0</ele><time>2026-04-19T09:27:11Z</time></trkpt><trkpt lat="44.977031844059674" lon="7.286223119063569"><ele>1246.0</ele><time>2026-04-19T09:27:12Z</time></trkpt><trkpt lat="44.97705206706532" lon="7.286113884631289"><ele>1246.0</ele><time>2026-04-19T09:27:13Z</time></trkpt><trkpt lat="44.977024048256865" lon="7.286020710087393"><ele>1246.0</ele><time>2026-04-19T09:27:14Z</time></trkpt><trkpt lat="44.976984473734404" lon="7.285924389813958"><ele>1246.0</ele><time>2026-04-19T09:27:15Z</time></trkpt><trkpt lat="44.97694192243012" lon="7.2858244786519935"><ele>1246.0</ele><time>2026-04-19T09:27:16Z</time></trkpt><trkpt lat="44.976889753315625" lon="7.285723684071011"><ele>1246.0</ele><time>2026-04-19T09:27:17Z</time></trkpt><trkpt lat="44.9768328491161" lon="7.285647367146081"><ele>1245.8333333333333</ele><time>2026-04-19T09:27:18Z</time></trkpt><trkpt lat="44.976762536762116" lon="7.285575343246224"><ele>1245.6666666666665</ele><time>2026-04-19T09:27:19Z</time></trkpt><trkpt lat="44.97667931661571" lon="7.285521300831544"><ele>1245.5</ele><time>2026-04-19T09:27:20Z</time></trkpt><trkpt lat="44.97659501964449" lon="7.285468266594655"><ele>1245.3333333333333</ele><time>2026-04-19T09:27:21Z</time></trkpt><trkpt lat="44.976514616505646" lon="7.285413424036522"><ele>1245.1666666666667</ele><time>2026-04-19T09:27:22Z</time></trkpt><trkpt lat="44.97644420331468" lon="7.285347687537186"><ele>1245.0</ele><time>2026-04-19T09:27:23Z</time></trkpt><trkpt lat="44.976371370084934" lon="7.285261078039746"><ele>1243.0</ele><time>2026-04-19T09:27:24Z</time></trkpt><trkpt lat="44.97630208234554" lon="7.285169297311142"><ele>1241.0</ele><time>2026-04-19T09:27:25Z</time></trkpt><trkpt lat="44.97621675901052" lon="7.285088003749273"><ele>1239.0</ele><time>2026-04-19T09:27:26Z</time></trkpt><trkpt lat="44.976127435902264" lon="7.285018059345928"><ele>1237.0</ele><time>2026-04-19T09:27:27Z</time></trkpt><trkpt lat="44.97604166346282" lon="7.284929265279343"><ele>1235.0</ele><time>2026-04-19T09:27:28Z</time></trkpt><trkpt lat="44.97595898975886" lon="7.284831337556619"><ele>1235.5</ele><time>2026-04-19T09:27:29Z</time></trkpt><trkpt lat="44.97587255085181" lon="7.284713274171508"><ele>1236.0</ele><time>2026-04-19T09:27:30Z</time></trkpt><trkpt lat="44.97578021910269" lon="7.284591804687656"><ele>1236.5</ele><time>2026-04-19T09:27:31Z</time></trkpt><trkpt lat="44.97567529785453" lon="7.28448562895377"><ele>1237.0</ele><time>2026-04-19T09:27:32Z</time></trkpt><trkpt lat="44.975571155843625" lon="7.284394137666024"><ele>1233.8</ele><time>2026-04-19T09:27:33Z</time></trkpt><trkpt lat="44.975478282132286" lon="7.284300295071458"><ele>1230.6</ele><time>2026-04-19T09:27:34Z</time></trkpt><trkpt lat="44.97538403363471" lon="7.284207210680612"><ele>1227.3999999999999</ele><time>2026-04-19T09:27:35Z</time></trkpt><trkpt lat="44.97528490118691" lon="7.284173660145842"><ele>1224.2</ele><time>2026-04-19T09:27:36Z</time></trkpt><trkpt lat="44.97519507895386" lon="7.284137773548062"><ele>1221.0</ele><time>2026-04-19T09:27:37Z</time></trkpt><trkpt lat="44.97513235485842" lon="7.284107777275326"><ele>1221.0</ele><time>2026-04-19T09:27:38Z</time></trkpt><trkpt lat="44.975094174956446" lon="7.284009615464292"><ele>1221.0</ele><time>2026-04-19T09:27:40Z</time></trkpt><trkpt lat="44.97509503183132" lon="7.283837627577539"><ele>1221.0</ele><time>2026-04-19T09:27:42Z</time></trkpt><trkpt lat="44.975103826157316" lon="7.283697605468263"><ele>1221.0</ele><time>2026-04-19T09:27:43Z</time></trkpt><trkpt lat="44.97510628199597" lon="7.283552035864192"><ele>1221.0</ele><time>2026-04-19T09:27:44Z</time></trkpt><trkpt lat="44.975090681550476" lon="7.28341745572914"><ele>1218.8</ele><time>2026-04-19T09:27:45Z</time></trkpt><trkpt lat="44.97508884869569" lon="7.283273887465142"><ele>1216.6</ele><time>2026-04-19T09:27:46Z</time></trkpt><trkpt lat="44.97509458310377" lon="7.283112622613939"><ele>1214.4</ele><time>2026-04-19T09:27:47.001Z</time></trkpt><trkpt lat="44.975104587343104" lon="7.282954577145469"><ele>1212.2</ele><time>2026-04-19T09:27:48.001Z</time></trkpt><trkpt lat="44.97509223900772" lon="7.282809908889"><ele>1210.0</ele><time>2026-04-19T09:27:49.001Z</time></trkpt><trkpt lat="44.97504642540014" lon="7.282644694494755"><ele>1210.25</ele><time>2026-04-19T09:27:50.001Z</time></trkpt><trkpt lat="44.974997509339275" lon="7.2824645702763195"><ele>1210.5</ele><time>2026-04-19T09:27:51.001Z</time></trkpt><trkpt lat="44.97495294640924" lon="7.282263007293465"><ele>1210.75</ele><time>2026-04-19T09:27:52.001Z</time></trkpt><trkpt lat="44.97491574868856" lon="7.282056678254419"><ele>1211.0</ele><time>2026-04-19T09:27:53.001Z</time></trkpt><trkpt lat="44.9748669671537" lon="7.281870781303254"><ele>1211.0</ele><time>2026-04-19T09:27:54.001Z</time></trkpt><trkpt lat="44.974794334579855" lon="7.28168241874136"><ele>1211.0</ele><time>2026-04-19T09:27:55.001Z</time></trkpt><trkpt lat="44.97471906790258" lon="7.281481778554733"><ele>1211.0</ele><time>2026-04-19T09:27:56.001Z</time></trkpt><trkpt lat="44.97463439208661" lon="7.281285303340459"><ele>1207.0</ele><time>2026-04-19T09:27:57.001Z</time></trkpt><trkpt lat="44.97455954075698" lon="7.281099294381432"><ele>1203.0</ele><time>2026-04-19T09:27:58.001Z</time></trkpt><trkpt lat="44.97447900277163" lon="7.28092494334574"><ele>1199.0</ele><time>2026-04-19T09:27:59.001Z</time></trkpt><trkpt lat="44.97440497738448" lon="7.280727355210386"><ele>1195.3333333333335</ele><time>2026-04-19T09:28:00.001Z</time></trkpt><trkpt lat="44.97433141967263" lon="7.280529434472579"><ele>1191.6666666666667</ele><time>2026-04-19T09:28:01.001Z</time></trkpt><trkpt lat="44.97425282995883" lon="7.2803333447743475"><ele>1188.0</ele><time>2026-04-19T09:28:02.001Z</time></trkpt><trkpt lat="44.974155345709136" lon="7.2801569271210145"><ele>1194.0</ele><time>2026-04-19T09:28:03.001Z</time></trkpt><trkpt lat="44.9740581737135" lon="7.27997264651936"><ele>1200.0</ele><time>2026-04-19T09:28:04.001Z</time></trkpt><trkpt lat="44.97398113660672" lon="7.279766014798686"><ele>1206.0</ele><time>2026-04-19T09:28:05.001Z</time></trkpt><trkpt lat="44.97391424526389" lon="7.279563112032287"><ele>1206.0</ele><time>2026-04-19T09:28:06.001Z</time></trkpt><trkpt lat="44.97384054338331" lon="7.2793735370462285"><ele>1206.0</ele><time>2026-04-19T09:28:07.001Z</time></trkpt><trkpt lat="44.97375910812997" lon="7.2791916539297965"><ele>1206.0</ele><time>2026-04-19T09:28:08.001Z</time></trkpt><trkpt lat="44.973664726371624" lon="7.279021851501248"><ele>1203.25</ele><time>2026-04-19T09:28:09.001Z</time></trkpt><trkpt lat="44.97357630115294" lon="7.278862057853041"><ele>1200.5</ele><time>2026-04-19T09:28:10.001Z</time></trkpt><trkpt lat="44.973492619355966" lon="7.278706001305724"><ele>1197.75</ele><time>2026-04-19T09:28:11.001Z</time></trkpt><trkpt lat="44.97341094588454" lon="7.278535166380287"><ele>1195.0</ele><time>2026-04-19T09:28:12.001Z</time></trkpt><trkpt lat="44.97332022378153" lon="7.278376199469912"><ele>1197.5</ele><time>2026-04-19T09:28:13.001Z</time></trkpt><trkpt lat="44.973225462621244" lon="7.278229262564857"><ele>1200.0</ele><time>2026-04-19T09:28:14.001Z</time></trkpt><trkpt lat="44.973140329156486" lon="7.2780829937924825"><ele>1202.5</ele><time>2026-04-19T09:28:15.001Z</time></trkpt><trkpt lat="44.97304407011339" lon="7.277940414923786"><ele>1205.0</ele><time>2026-04-19T09:28:16.001Z</time></trkpt><trkpt lat="44.97293874367505" lon="7.27781387792687"><ele>1205.0</ele><time>2026-04-19T09:28:17.001Z</time></trkpt><trkpt lat="44.97282983432512" lon="7.277719346264063"><ele>1205.0</ele><time>2026-04-19T09:28:18.001Z</time></trkpt><trkpt lat="44.97270802178115" lon="7.2776389831104655"><ele>1205.0</ele><time>2026-04-19T09:28:19.001Z</time></trkpt><trkpt lat="44.97259494797852" lon="7.277575808982408"><ele>1205.0</ele><time>2026-04-19T09:28:20.001Z</time></trkpt><trkpt lat="44.97247707354564" lon="7.277491647639752"><ele>1204.4</ele><time>2026-04-19T09:28:21.001Z</time></trkpt><trkpt lat="44.97237305310412" lon="7.277398976845108"><ele>1203.8</ele><time>2026-04-19T09:28:22.001Z</time></trkpt><trkpt lat="44.972275917432434" lon="7.277287974203679"><ele>1203.2</ele><time>2026-04-19T09:28:23.001Z</time></trkpt><trkpt lat="44.97219513725468" lon="7.277206808168149"><ele>1202.6</ele><time>2026-04-19T09:28:24.001Z</time></trkpt><trkpt lat="44.972113528983336" lon="7.277162861535985"><ele>1202.0</ele><time>2026-04-19T09:28:25.001Z</time></trkpt><trkpt lat="44.97203535112345" lon="7.277145213940804"><ele>1202.0</ele><time>2026-04-19T09:28:26.001Z</time></trkpt><trkpt lat="44.971950127494445" lon="7.276997760083175"><ele>1202.0</ele><time>2026-04-19T09:28:28.001Z</time></trkpt><trkpt lat="44.971908457474456" lon="7.27687313751691"><ele>1202.0</ele><time>2026-04-19T09:28:29.001Z</time></trkpt><trkpt lat="44.97186345807104" lon="7.276719863689416"><ele>1202.0</ele><time>2026-04-19T09:28:30.001Z</time></trkpt><trkpt lat="44.97182254306371" lon="7.276571111384012"><ele>1205.6</ele><time>2026-04-19T09:28:31.001Z</time></trkpt><trkpt lat="44.9717783507586" lon="7.2764251314052535"><ele>1209.2</ele><time>2026-04-19T09:28:32.001Z</time></trkpt><trkpt lat="44.97172172778639" lon="7.276297118638299"><ele>1212.8</ele><time>2026-04-19T09:28:33.001Z</time></trkpt><trkpt lat="44.971641043942704" lon="7.276200745554423"><ele>1216.4</ele><time>2026-04-19T09:28:34.001Z</time></trkpt><trkpt lat="44.97155552214107" lon="7.276123044688316"><ele>1220.0</ele><time>2026-04-19T09:28:35.001Z</time></trkpt><trkpt lat="44.97147874377651" lon="7.2760862897308645"><ele>1220.0</ele><time>2026-04-19T09:28:36.001Z</time></trkpt><trkpt lat="44.971395845748496" lon="7.276069581748839"><ele>1220.0</ele><time>2026-04-19T09:28:37.001Z</time></trkpt><trkpt lat="44.971308660647175" lon="7.276093367453332"><ele>1220.0</ele><time>2026-04-19T09:28:38.001Z</time></trkpt><trkpt lat="44.971186711805245" lon="7.27613946828097"><ele>1220.0</ele><time>2026-04-19T09:28:39.001Z</time></trkpt><trkpt lat="44.97106281803852" lon="7.276198949518034"><ele>1220.0</ele><time>2026-04-19T09:28:40.001Z</time></trkpt><trkpt lat="44.97092758361738" lon="7.276252994725968"><ele>1221.0</ele><time>2026-04-19T09:28:41.001Z</time></trkpt><trkpt lat="44.97081352749776" lon="7.276319110324619"><ele>1222.0</ele><time>2026-04-19T09:28:42.001Z</time></trkpt><trkpt lat="44.970732691716535" lon="7.276390145243918"><ele>1223.0</ele><time>2026-04-19T09:28:43.001Z</time></trkpt><trkpt lat="44.97066634303866" lon="7.276526238132581"><ele>1224.0</ele><time>2026-04-19T09:28:44.999Z</time></trkpt><trkpt lat="44.97066138386989" lon="7.276639574703303"><ele>1225.0</ele><time>2026-04-19T09:28:45.999Z</time></trkpt><trkpt lat="44.97065989452282" lon="7.276803343908762"><ele>1225.0</ele><time>2026-04-19T09:28:46.999Z</time></trkpt><trkpt lat="44.970629932921696" lon="7.276960602630203"><ele>1225.0</ele><time>2026-04-19T09:28:47.999Z</time></trkpt><trkpt lat="44.97057664861361" lon="7.277093168756549"><ele>1225.0</ele><time>2026-04-19T09:28:48.999Z</time></trkpt><trkpt lat="44.970505973106086" lon="7.27719466376888"><ele>1225.0</ele><time>2026-04-19T09:28:49.999Z</time></trkpt><trkpt lat="44.97042296722158" lon="7.277289045063902"><ele>1225.0</ele><time>2026-04-19T09:28:50.999Z</time></trkpt><trkpt lat="44.97032528594371" lon="7.277378131042078"><ele>1221.8333333333333</ele><time>2026-04-19T09:28:51.999Z</time></trkpt><trkpt lat="44.97023104120544" lon="7.277444399191367"><ele>1218.6666666666665</ele><time>2026-04-19T09:28:52.999Z</time></trkpt><trkpt lat="44.97015532388649" lon="7.277508191005261"><ele>1215.5</ele><time>2026-04-19T09:28:53.999Z</time></trkpt><trkpt lat="44.97009494139751" lon="7.277588968661603"><ele>1212.3333333333333</ele><time>2026-04-19T09:28:54.999Z</time></trkpt><trkpt lat="44.970060736261246" lon="7.277694725870759"><ele>1209.1666666666667</ele><time>2026-04-19T09:28:55.999Z</time></trkpt><trkpt lat="44.970025323156" lon="7.277801387607234"><ele>1206.0</ele><time>2026-04-19T09:28:56.999Z</time></trkpt><trkpt lat="44.9699639043216" lon="7.277889809302516"><ele>1206.0</ele><time>2026-04-19T09:28:57.999Z</time></trkpt><trkpt lat="44.96989292809816" lon="7.278020152669129"><ele>1206.0</ele><time>2026-04-19T09:28:58.999Z</time></trkpt><trkpt lat="44.96981818759482" lon="7.278120522953567"><ele>1206.0</ele><time>2026-04-19T09:28:59.999Z</time></trkpt><trkpt lat="44.96973424787463" lon="7.27813201598931"><ele>1206.0</ele><time>2026-04-19T09:29:00.999Z</time></trkpt><trkpt lat="44.969649446422814" lon="7.278128906749515"><ele>1206.0</ele><time>2026-04-19T09:29:01.999Z</time></trkpt><trkpt lat="44.96954748237871" lon="7.278129111325777"><ele>1211.1666666666667</ele><time>2026-04-19T09:29:02.999Z</time></trkpt><trkpt lat="44.96948067211118" lon="7.278149413908823"><ele>1216.3333333333333</ele><time>2026-04-19T09:29:03.999Z</time></trkpt><trkpt lat="44.969462514523" lon="7.2782671992318795"><ele>1221.5</ele><time>2026-04-19T09:29:05.999Z</time></trkpt><trkpt lat="44.9694914462228" lon="7.2784562858406"><ele>1226.6666666666665</ele><time>2026-04-19T09:29:07.999Z</time></trkpt><trkpt lat="44.969483967102065" lon="7.278554823573696"><ele>1231.8333333333333</ele><time>2026-04-19T09:29:08.999Z</time></trkpt><trkpt lat="44.96944201612729" lon="7.278623115066149"><ele>1237.0</ele><time>2026-04-19T09:29:10Z</time></trkpt><trkpt lat="44.96938702400029" lon="7.278667273089393"><ele>1237.0</ele><time>2026-04-19T09:29:11Z</time></trkpt><trkpt lat="44.96929845556327" lon="7.27870274591706"><ele>1237.0</ele><time>2026-04-19T09:29:12Z</time></trkpt><trkpt lat="44.969198906837995" lon="7.278736372509515"><ele>1237.0</ele><time>2026-04-19T09:29:13Z</time></trkpt><trkpt lat="44.96909962183084" lon="7.27876563392911"><ele>1237.0</ele><time>2026-04-19T09:29:14Z</time></trkpt><trkpt lat="44.96902997900106" lon="7.278805946471237"><ele>1237.0</ele><time>2026-04-19T09:29:15Z</time></trkpt><trkpt lat="44.96897480702921" lon="7.2788678342046795"><ele>1237.0</ele><time>2026-04-19T09:29:17Z</time></trkpt><trkpt lat="44.96895891660744" lon="7.278979464724301"><ele>1235.6666666666665</ele><time>2026-04-19T09:29:19Z</time></trkpt><trkpt lat="44.968902852102076" lon="7.279053571401778"><ele>1234.3333333333333</ele><time>2026-04-19T09:29:21Z</time></trkpt><trkpt lat="44.968801539846226" lon="7.279143125765553"><ele>1233.0</ele><time>2026-04-19T09:29:23Z</time></trkpt><trkpt lat="44.96874744439787" lon="7.279199228206278"><ele>1231.6666666666667</ele><time>2026-04-19T09:29:24Z</time></trkpt><trkpt lat="44.96867736205102" lon="7.2792615874827735"><ele>1230.3333333333335</ele><time>2026-04-19T09:29:25Z</time></trkpt><trkpt lat="44.968626683591474" lon="7.27933259892007"><ele>1229.0</ele><time>2026-04-19T09:29:26Z</time></trkpt><trkpt lat="44.96858681261338" lon="7.279490489160691"><ele>1229.0</ele><time>2026-04-19T09:29:28Z</time></trkpt><trkpt lat="44.96856567091027" lon="7.279604396448627"><ele>1229.0</ele><time>2026-04-19T09:29:29Z</time></trkpt><trkpt lat="44.96851356282478" lon="7.279733305578585"><ele>1229.0</ele><time>2026-04-19T09:29:31Z</time></trkpt><trkpt lat="44.96842911903984" lon="7.279672771643073"><ele>1229.0</ele><time>2026-04-19T09:29:33Z</time></trkpt><trkpt lat="44.968378251825335" lon="7.279594688360869"><ele>1229.0</ele><time>2026-04-19T09:29:34Z</time></trkpt><trkpt lat="44.968321516557864" lon="7.2795023415133295"><ele>1229.0</ele><time>2026-04-19T09:29:35Z</time></trkpt><trkpt lat="44.96827135914846" lon="7.27942457412309"><ele>1223.6666666666667</ele><time>2026-04-19T09:29:36Z</time></trkpt><trkpt lat="44.96821018277901" lon="7.279360643190616"><ele>1218.3333333333335</ele><time>2026-04-19T09:29:37Z</time></trkpt><trkpt lat="44.968125440554495" lon="7.279292801161607"><ele>1213.0</ele><time>2026-04-19T09:29:38Z</time></trkpt><trkpt lat="44.96804393149181" lon="7.279230517943912"><ele>1207.6666666666667</ele><time>2026-04-19T09:29:39Z</time></trkpt><trkpt lat="44.96795893487957" lon="7.279187266951285"><ele>1202.3333333333333</ele><time>2026-04-19T09:29:40Z</time></trkpt><trkpt lat="44.96788917657978" lon="7.279181871087056"><ele>1197.0</ele><time>2026-04-19T09:29:41Z</time></trkpt><trkpt lat="44.96781234532312" lon="7.279193406156316"><ele>1197.0</ele><time>2026-04-19T09:29:42Z</time></trkpt><trkpt lat="44.967746619863995" lon="7.2791659498575845"><ele>1197.0</ele><time>2026-04-19T09:29:43Z</time></trkpt><trkpt lat="44.96766452562951" lon="7.27909280566433"><ele>1197.0</ele><time>2026-04-19T09:29:44Z</time></trkpt><trkpt lat="44.96759888073529" lon="7.279017694084567"><ele>1197.0</ele><time>2026-04-19T09:29:45Z</time></trkpt><trkpt lat="44.967537629841054" lon="7.278899596225632"><ele>1197.0</ele><time>2026-04-19T09:29:46Z</time></trkpt><trkpt lat="44.967477196042424" lon="7.278791856209266"><ele>1192.6</ele><time>2026-04-19T09:29:47Z</time></trkpt><trkpt lat="44.96742211986495" lon="7.278687260131502"><ele>1188.2</ele><time>2026-04-19T09:29:48Z</time></trkpt><trkpt lat="44.967347163512784" lon="7.278620978205271"><ele>1183.8</ele><time>2026-04-19T09:29:49Z</time></trkpt><trkpt lat="44.96726201889713" lon="7.2785780164215295"><ele>1179.4</ele><time>2026-04-19T09:29:50Z</time></trkpt><trkpt lat="44.96716757294434" lon="7.278506357569128"><ele>1175.0</ele><time>2026-04-19T09:29:51Z</time></trkpt><trkpt lat="44.96710289994306" lon="7.278417653569899"><ele>1175.0</ele><time>2026-04-19T09:29:52.001Z</time></trkpt><trkpt lat="44.96703441735595" lon="7.278303182023014"><ele>1175.0</ele><time>2026-04-19T09:29:53.001Z</time></trkpt><trkpt lat="44.96696863731137" lon="7.278168773863032"><ele>1175.0</ele><time>2026-04-19T09:29:54.001Z</time></trkpt><trkpt lat="44.966895709073825" lon="7.278032250373191"><ele>1175.0</ele><time>2026-04-19T09:29:55.001Z</time></trkpt><trkpt lat="44.96682386631652" lon="7.27790540997264"><ele>1174.6</ele><time>2026-04-19T09:29:56.001Z</time></trkpt><trkpt lat="44.96676862558522" lon="7.277775235652831"><ele>1174.2</ele><time>2026-04-19T09:29:57.001Z</time></trkpt><trkpt lat="44.96672169352149" lon="7.277655634529747"><ele>1173.8</ele><time>2026-04-19T09:29:58.001Z</time></trkpt><trkpt lat="44.966656648278416" lon="7.277557552569449"><ele>1173.4</ele><time>2026-04-19T09:29:59.001Z</time></trkpt><trkpt lat="44.96657857162227" lon="7.27744505338724"><ele>1173.0</ele><time>2026-04-19T09:30:00.001Z</time></trkpt><trkpt lat="44.96649333837064" lon="7.277322763818434"><ele>1166.25</ele><time>2026-04-19T09:30:01.001Z</time></trkpt><trkpt lat="44.96641160272979" lon="7.2772192174812735"><ele>1159.5</ele><time>2026-04-19T09:30:02.001Z</time></trkpt><trkpt lat="44.96629860248182" lon="7.277131507955272"><ele>1152.75</ele><time>2026-04-19T09:30:03.001Z</time></trkpt><trkpt lat="44.96618057725115" lon="7.277041888730371"><ele>1146.0</ele><time>2026-04-19T09:30:04.001Z</time></trkpt><trkpt lat="44.96605789885368" lon="7.276959981518755"><ele>1146.0</ele><time>2026-04-19T09:30:05.001Z</time></trkpt><trkpt lat="44.9659415163703" lon="7.276892789130686"><ele>1146.0</ele><time>2026-04-19T09:30:06.001Z</time></trkpt><trkpt lat="44.96582135868544" lon="7.2768420409174706"><ele>1146.0</ele><time>2026-04-19T09:30:07.001Z</time></trkpt><trkpt lat="44.96570849427944" lon="7.276781966992885"><ele>1146.0</ele><time>2026-04-19T09:30:08.001Z</time></trkpt><trkpt lat="44.965601161632776" lon="7.276701308092855"><ele>1150.25</ele><time>2026-04-19T09:30:09.001Z</time></trkpt><trkpt lat="44.96549526850486" lon="7.27664000216752"><ele>1154.5</ele><time>2026-04-19T09:30:10.001Z</time></trkpt><trkpt lat="44.965390434105714" lon="7.2765917813511525"><ele>1158.75</ele><time>2026-04-19T09:30:11.001Z</time></trkpt><trkpt lat="44.9652640101085" lon="7.276560801023337"><ele>1163.0</ele><time>2026-04-19T09:30:12.001Z</time></trkpt><trkpt lat="44.96512941519384" lon="7.276542060089264"><ele>1164.0</ele><time>2026-04-19T09:30:13.001Z</time></trkpt><trkpt lat="44.96501252987524" lon="7.276532728219949"><ele>1165.0</ele><time>2026-04-19T09:30:14.001Z</time></trkpt><trkpt lat="44.96493452077383" lon="7.276529453311204"><ele>1166.0</ele><time>2026-04-19T09:30:15.001Z</time></trkpt><trkpt lat="44.964873521611906" lon="7.276564907519146"><ele>1167.0</ele><time>2026-04-19T09:30:16.001Z</time></trkpt><trkpt lat="44.96478344371358" lon="7.276692189540534"><ele>1168.0</ele><time>2026-04-19T09:30:18.001Z</time></trkpt><trkpt lat="44.96471472430219" lon="7.276772070743182"><ele>1168.0</ele><time>2026-04-19T09:30:19.001Z</time></trkpt><trkpt lat="44.964562540499166" lon="7.276794184228045"><ele>1168.0</ele><time>2026-04-19T09:30:21.001Z</time></trkpt><trkpt lat="44.964460736986936" lon="7.276836940165398"><ele>1168.0</ele><time>2026-04-19T09:30:22.001Z</time></trkpt><trkpt lat="44.96437288740807" lon="7.276894618498955"><ele>1168.0</ele><time>2026-04-19T09:30:23.001Z</time></trkpt><trkpt lat="44.96428388424209" lon="7.27696758486471"><ele>1168.8</ele><time>2026-04-19T09:30:24.001Z</time></trkpt><trkpt lat="44.96418193931544" lon="7.277035588042425"><ele>1169.6</ele><time>2026-04-19T09:30:25.001Z</time></trkpt><trkpt lat="44.96409255694931" lon="7.277077424591717"><ele>1170.4</ele><time>2026-04-19T09:30:26.001Z</time></trkpt><trkpt lat="44.96400772730451" lon="7.277128031670555"><ele>1171.2</ele><time>2026-04-19T09:30:27.001Z</time></trkpt><trkpt lat="44.96395224856225" lon="7.277225904180569"><ele>1172.0</ele><time>2026-04-19T09:30:28.001Z</time></trkpt><trkpt lat="44.963897341040486" lon="7.277332377538316"><ele>1172.0</ele><time>2026-04-19T09:30:29.001Z</time></trkpt><trkpt lat="44.96383862411105" lon="7.277463093552743"><ele>1172.0</ele><time>2026-04-19T09:30:30.001Z</time></trkpt><trkpt lat="44.96375144953774" lon="7.277589036160713"><ele>1172.0</ele><time>2026-04-19T09:30:31.001Z</time></trkpt><trkpt lat="44.96365108401038" lon="7.277687765806977"><ele>1172.0</ele><time>2026-04-19T09:30:32.001Z</time></trkpt><trkpt lat="44.96355064867069" lon="7.277765450860331"><ele>1172.0</ele><time>2026-04-19T09:30:33.001Z</time></trkpt><trkpt lat="44.96347666759601" lon="7.277827577584539"><ele>1172.0</ele><time>2026-04-19T09:30:34.001Z</time></trkpt><trkpt lat="44.96340939091123" lon="7.277902677234986"><ele>1172.0</ele><time>2026-04-19T09:30:35.001Z</time></trkpt><trkpt lat="44.96336462429174" lon="7.27808351606957"><ele>1172.0</ele><time>2026-04-19T09:30:37.001Z</time></trkpt><trkpt lat="44.96333756856386" lon="7.278242407846861"><ele>1172.0</ele><time>2026-04-19T09:30:38.001Z</time></trkpt><trkpt lat="44.96327372343639" lon="7.278412163176936"><ele>1171.0</ele><time>2026-04-19T09:30:39.001Z</time></trkpt><trkpt lat="44.9632073921574" lon="7.278568907253517"><ele>1170.0</ele><time>2026-04-19T09:30:40.001Z</time></trkpt><trkpt lat="44.96315185111036" lon="7.278706768065979"><ele>1169.0</ele><time>2026-04-19T09:30:41.001Z</time></trkpt><trkpt lat="44.963115339238065" lon="7.278819240468036"><ele>1168.0</ele><time>2026-04-19T09:30:42.001Z</time></trkpt><trkpt lat="44.96306530380886" lon="7.27892480120758"><ele>1167.0</ele><time>2026-04-19T09:30:43.001Z</time></trkpt><trkpt lat="44.96299455540593" lon="7.279028050777165"><ele>1167.0</ele><time>2026-04-19T09:30:44.001Z</time></trkpt><trkpt lat="44.962922618119926" lon="7.2791100048889295"><ele>1167.0</ele><time>2026-04-19T09:30:45.002Z</time></trkpt><trkpt lat="44.96285600734348" lon="7.279148150240052"><ele>1167.0</ele><time>2026-04-19T09:30:46.002Z</time></trkpt><trkpt lat="44.9627563942735" lon="7.279116058546014"><ele>1167.0</ele><time>2026-04-19T09:30:48.002Z</time></trkpt><trkpt lat="44.96267254442869" lon="7.278980698691362"><ele>1167.0</ele><time>2026-04-19T09:30:49.999Z</time></trkpt><trkpt lat="44.96262585077973" lon="7.278890333205801"><ele>1165.5</ele><time>2026-04-19T09:30:50.999Z</time></trkpt><trkpt lat="44.96258384886355" lon="7.278798394366541"><ele>1164.0</ele><time>2026-04-19T09:30:51.999Z</time></trkpt><trkpt lat="44.96254212407535" lon="7.278713454015648"><ele>1162.5</ele><time>2026-04-19T09:30:52.999Z</time></trkpt><trkpt lat="44.9624913928923" lon="7.278605162834762"><ele>1161.0</ele><time>2026-04-19T09:30:53.999Z</time></trkpt><trkpt lat="44.962435367741655" lon="7.278505341670497"><ele>1159.5</ele><time>2026-04-19T09:30:54.999Z</time></trkpt><trkpt lat="44.96236753214393" lon="7.278421448976751"><ele>1158.0</ele><time>2026-04-19T09:30:55.999Z</time></trkpt><trkpt lat="44.962295013205456" lon="7.278351779134279"><ele>1156.6666666666667</ele><time>2026-04-19T09:30:56.999Z</time></trkpt><trkpt lat="44.96222294065777" lon="7.278285785692364"><ele>1155.3333333333333</ele><time>2026-04-19T09:30:57.999Z</time></trkpt><trkpt lat="44.96215481132912" lon="7.278247178009532"><ele>1154.0</ele><time>2026-04-19T09:30:58.999Z</time></trkpt><trkpt lat="44.96209633941559" lon="7.278160468579135"><ele>1152.6666666666665</ele><time>2026-04-19T09:30:59.999Z</time></trkpt><trkpt lat="44.96201021900698" lon="7.278130201732608"><ele>1151.3333333333333</ele><time>2026-04-19T09:31:00.999Z</time></trkpt><trkpt lat="44.961927163718585" lon="7.278123714185634"><ele>1150.0</ele><time>2026-04-19T09:31:01.999Z</time></trkpt><trkpt lat="44.961844957686914" lon="7.278142060288995"><ele>1150.0</ele><time>2026-04-19T09:31:02.999Z</time></trkpt><trkpt lat="44.96177824014181" lon="7.278172361091095"><ele>1150.0</ele><time>2026-04-19T09:31:03.999Z</time></trkpt><trkpt lat="44.961672054813036" lon="7.278227134200341"><ele>1150.0</ele><time>2026-04-19T09:31:05.999Z</time></trkpt><trkpt lat="44.961581298694576" lon="7.278270103088104"><ele>1150.0</ele><time>2026-04-19T09:31:07.999Z</time></trkpt><trkpt lat="44.961503425073445" lon="7.278264458129265"><ele>1150.0</ele><time>2026-04-19T09:31:11Z</time></trkpt><trkpt lat="44.961425609202344" lon="7.278263906967426"><ele>1150.0</ele><time>2026-04-19T09:31:21Z</time></trkpt><trkpt lat="44.96142774371469" lon="7.278116272888631"><ele>1150.3333333333333</ele><time>2026-04-19T09:31:22Z</time></trkpt><trkpt lat="44.96139782350767" lon="7.2780213594584495"><ele>1150.6666666666665</ele><time>2026-04-19T09:31:23Z</time></trkpt><trkpt lat="44.96135392588538" lon="7.277884157167963"><ele>1151.0</ele><time>2026-04-19T09:31:25Z</time></trkpt><trkpt lat="44.96131517171949" lon="7.277759454483451"><ele>1151.3333333333333</ele><time>2026-04-19T09:31:27Z</time></trkpt><trkpt lat="44.961274580537435" lon="7.277680557923119"><ele>1151.6666666666667</ele><time>2026-04-19T09:31:28Z</time></trkpt><trkpt lat="44.961232930204055" lon="7.277598306672738"><ele>1152.0</ele><time>2026-04-19T09:31:29Z</time></trkpt><trkpt lat="44.96113049936585" lon="7.27756140754024"><ele>1152.0</ele><time>2026-04-19T09:31:30Z</time></trkpt><trkpt lat="44.96104410300663" lon="7.277522105792669"><ele>1152.0</ele><time>2026-04-19T09:31:31Z</time></trkpt><trkpt lat="44.9609542209918" lon="7.277500237805686"><ele>1152.0</ele><time>2026-04-19T09:31:32Z</time></trkpt><trkpt lat="44.96087604041019" lon="7.277439702054837"><ele>1152.0</ele><time>2026-04-19T09:31:33Z</time></trkpt><trkpt lat="44.960784078498655" lon="7.2773933776236515"><ele>1152.0</ele><time>2026-04-19T09:31:34Z</time></trkpt><trkpt lat="44.96069342354223" lon="7.277333538805874"><ele>1154.6</ele><time>2026-04-19T09:31:35Z</time></trkpt><trkpt lat="44.96058502977089" lon="7.277287141056727"><ele>1157.2</ele><time>2026-04-19T09:31:36Z</time></trkpt><trkpt lat="44.96047968831167" lon="7.2773011654280735"><ele>1159.8</ele><time>2026-04-19T09:31:37Z</time></trkpt><trkpt lat="44.96036853278006" lon="7.277293234117271"><ele>1162.4</ele><time>2026-04-19T09:31:38Z</time></trkpt><trkpt lat="44.960260405451926" lon="7.277296821742845"><ele>1165.0</ele><time>2026-04-19T09:31:39Z</time></trkpt><trkpt lat="44.96015315802417" lon="7.277270385397387"><ele>1164.4</ele><time>2026-04-19T09:31:40Z</time></trkpt><trkpt lat="44.96005679890186" lon="7.277263043387885"><ele>1163.8</ele><time>2026-04-19T09:31:41Z</time></trkpt><trkpt lat="44.959972239603985" lon="7.277255150064536"><ele>1163.2</ele><time>2026-04-19T09:31:42Z</time></trkpt><trkpt lat="44.95989314185552" lon="7.277248744628954"><ele>1162.6</ele><time>2026-04-19T09:31:43Z</time></trkpt><trkpt lat="44.95980758837824" lon="7.27719563508217"><ele>1162.0</ele><time>2026-04-19T09:31:44Z</time></trkpt><trkpt lat="44.959698946199914" lon="7.277115501356621"><ele>1163.2</ele><time>2026-04-19T09:31:45Z</time></trkpt><trkpt lat="44.95959002572223" lon="7.277059127771012"><ele>1164.4</ele><time>2026-04-19T09:31:46Z</time></trkpt><trkpt lat="44.95948227196122" lon="7.277014988089146"><ele>1165.6</ele><time>2026-04-19T09:31:47.001Z</time></trkpt><trkpt lat="44.9593790302888" lon="7.27695825232251"><ele>1166.8</ele><time>2026-04-19T09:31:48.001Z</time></trkpt><trkpt lat="44.959297645279804" lon="7.276894618637674"><ele>1168.0</ele><time>2026-04-19T09:31:49.001Z</time></trkpt><trkpt lat="44.959227420436754" lon="7.276796279045716"><ele>1167.0</ele><time>2026-04-19T09:31:50.001Z</time></trkpt><trkpt lat="44.959138505778256" lon="7.276727021866693"><ele>1166.0</ele><time>2026-04-19T09:31:51.001Z</time></trkpt><trkpt lat="44.959049941748816" lon="7.276649287535238"><ele>1165.0</ele><time>2026-04-19T09:31:52.001Z</time></trkpt><trkpt lat="44.958949374439925" lon="7.276598996376846"><ele>1164.0</ele><time>2026-04-19T09:31:53.001Z</time></trkpt><trkpt lat="44.95884636557911" lon="7.276591335576336"><ele>1163.0</ele><time>2026-04-19T09:31:54.001Z</time></trkpt><trkpt lat="44.95875016986236" lon="7.2766118583058494"><ele>1163.0</ele><time>2026-04-19T09:31:55.001Z</time></trkpt><trkpt lat="44.958656800164846" lon="7.276632386559471"><ele>1163.0</ele><time>2026-04-19T09:31:56.001Z</time></trkpt><trkpt lat="44.958573946866146" lon="7.276704330311289"><ele>1163.0</ele><time>2026-04-19T09:31:57.001Z</time></trkpt><trkpt lat="44.958498849543346" lon="7.27677911042322"><ele>1163.0</ele><time>2026-04-19T09:31:58.001Z</time></trkpt><trkpt lat="44.958415499990245" lon="7.2768556155459985"><ele>1163.0</ele><time>2026-04-19T09:31:59.001Z</time></trkpt><trkpt lat="44.95832385295799" lon="7.276949888231789"><ele>1160.8</ele><time>2026-04-19T09:32:00.001Z</time></trkpt><trkpt lat="44.958207901814205" lon="7.2769996545188755"><ele>1158.6</ele><time>2026-04-19T09:32:01.001Z</time></trkpt><trkpt lat="44.95809779814126" lon="7.277030977711456"><ele>1156.4</ele><time>2026-04-19T09:32:02.001Z</time></trkpt><trkpt lat="44.95798678631313" lon="7.277031356422805"><ele>1154.2</ele><time>2026-04-19T09:32:03.001Z</time></trkpt><trkpt lat="44.9578963085413" lon="7.276983029435912"><ele>1152.0</ele><time>2026-04-19T09:32:04.001Z</time></trkpt><trkpt lat="44.95780079794207" lon="7.276950700485335"><ele>1152.0</ele><time>2026-04-19T09:32:05.001Z</time></trkpt><trkpt lat="44.957748104324494" lon="7.276859746220072"><ele>1152.0</ele><time>2026-04-19T09:32:06.001Z</time></trkpt><trkpt lat="44.95769177436954" lon="7.276760062287783"><ele>1152.0</ele><time>2026-04-19T09:32:07.001Z</time></trkpt><trkpt lat="44.95763200491836" lon="7.276636518810812"><ele>1152.0</ele><time>2026-04-19T09:32:08.001Z</time></trkpt><trkpt lat="44.957553417898325" lon="7.2765083828478225"><ele>1152.0</ele><time>2026-04-19T09:32:09.001Z</time></trkpt><trkpt lat="44.957475863776104" lon="7.27638973732339"><ele>1152.8</ele><time>2026-04-19T09:32:10.001Z</time></trkpt><trkpt lat="44.957391179903766" lon="7.276254864429516"><ele>1153.6</ele><time>2026-04-19T09:32:11.001Z</time></trkpt><trkpt lat="44.95729686197442" lon="7.276180230657087"><ele>1154.3999999999999</ele><time>2026-04-19T09:32:12.001Z</time></trkpt><trkpt lat="44.95721017838282" lon="7.276152138957722"><ele>1155.2</ele><time>2026-04-19T09:32:13.001Z</time></trkpt><trkpt lat="44.957152273872396" lon="7.276102260166739"><ele>1156.0</ele><time>2026-04-19T09:32:16.001Z</time></trkpt><trkpt lat="44.95709936871237" lon="7.276039248097052"><ele>1156.0</ele><time>2026-04-19T09:32:35.002Z</time></trkpt><trkpt lat="44.95716149174101" lon="7.276111150192101"><ele>1156.0</ele><time>2026-04-19T09:33:10Z</time></trkpt><trkpt lat="44.95723058671211" lon="7.276153316159215"><ele>1156.0</ele><time>2026-04-19T09:33:11Z</time></trkpt><trkpt lat="44.95729407525387" lon="7.276207133835216"><ele>1156.0</ele><time>2026-04-19T09:33:12Z</time></trkpt><trkpt lat="44.95735795373297" lon="7.276268891356313"><ele>1156.0</ele><time>2026-04-19T09:33:13Z</time></trkpt><trkpt lat="44.95742829002754" lon="7.276325605138429"><ele>1156.0</ele><time>2026-04-19T09:33:14Z</time></trkpt><trkpt lat="44.95747495478345" lon="7.276428122466115"><ele>1155.3333333333333</ele><time>2026-04-19T09:33:15Z</time></trkpt><trkpt lat="44.957544148327756" lon="7.2765072201560255"><ele>1154.6666666666665</ele><time>2026-04-19T09:33:16Z</time></trkpt><trkpt lat="44.95759637260382" lon="7.27661725046221"><ele>1154.0</ele><time>2026-04-19T09:33:17Z</time></trkpt><trkpt lat="44.95764491750638" lon="7.276732618797538"><ele>1153.3333333333333</ele><time>2026-04-19T09:33:18Z</time></trkpt><trkpt lat="44.95768005790222" lon="7.2768268052782314"><ele>1152.6666666666667</ele><time>2026-04-19T09:33:19Z</time></trkpt><trkpt lat="44.95771099562407" lon="7.276904412774442"><ele>1152.0</ele><time>2026-04-19T09:33:20Z</time></trkpt><trkpt lat="44.95781765602264" lon="7.276973725752559"><ele>1152.0</ele><time>2026-04-19T09:33:22Z</time></trkpt><trkpt lat="44.95789970157039" lon="7.277019147688587"><ele>1152.0</ele><time>2026-04-19T09:33:23Z</time></trkpt><trkpt lat="44.95798226227453" lon="7.277048289802124"><ele>1152.0</ele><time>2026-04-19T09:33:24Z</time></trkpt><trkpt lat="44.95807386065215" lon="7.2770912009614515"><ele>1152.0</ele><time>2026-04-19T09:33:26Z</time></trkpt><trkpt lat="44.95805032374245" lon="7.2772329638072195"><ele>1152.0</ele><time>2026-04-19T09:33:30Z</time></trkpt><trkpt lat="44.958076888991634" lon="7.277379648186401"><ele>1151.8</ele><time>2026-04-19T09:33:32Z</time></trkpt><trkpt lat="44.95802224582643" lon="7.277486662985472"><ele>1151.6</ele><time>2026-04-19T09:33:33.001Z</time></trkpt><trkpt lat="44.95799553749078" lon="7.2776660387840195"><ele>1151.3999999999999</ele><time>2026-04-19T09:33:35.001Z</time></trkpt><trkpt lat="44.95789799082317" lon="7.277789265874746"><ele>1151.2</ele><time>2026-04-19T09:33:37.001Z</time></trkpt><trkpt lat="44.95786102964164" lon="7.277875452828057"><ele>1151.0</ele><time>2026-04-19T09:33:38.001Z</time></trkpt><trkpt lat="44.95777571041361" lon="7.277914343006894"><ele>1150.9999999999998</ele><time>2026-04-19T09:33:39.001Z</time></trkpt><trkpt lat="44.95770216309281" lon="7.277942713583593"><ele>1151.0</ele><time>2026-04-19T09:33:40.001Z</time></trkpt><trkpt lat="44.95763430368895" lon="7.277976249630895"><ele>1151.0</ele><time>2026-04-19T09:33:41.001Z</time></trkpt><trkpt lat="44.957570249307494" lon="7.278025184651791"><ele>1151.0</ele><time>2026-04-19T09:33:42.001Z</time></trkpt><trkpt lat="44.95750870968503" lon="7.278060761086585"><ele>1151.0</ele><time>2026-04-19T09:33:43.001Z</time></trkpt><trkpt lat="44.95744507329474" lon="7.27807824858204"><ele>1150.9999999999998</ele><time>2026-04-19T09:33:44.001Z</time></trkpt><trkpt lat="44.95735916689111" lon="7.278116576786211"><ele>1151.0</ele><time>2026-04-19T09:33:45.001Z</time></trkpt><trkpt lat="44.95726871974706" lon="7.278135099627053"><ele>1150.8333333333335</ele><time>2026-04-19T09:33:46.001Z</time></trkpt><trkpt lat="44.95717490721735" lon="7.278185952850076"><ele>1150.6666666666667</ele><time>2026-04-19T09:33:47.001Z</time></trkpt><trkpt lat="44.95711248265716" lon="7.278236934538927"><ele>1150.5</ele><time>2026-04-19T09:33:48.001Z</time></trkpt><trkpt lat="44.957043608342424" lon="7.278283626339301"><ele>1150.3333333333333</ele><time>2026-04-19T09:33:49.001Z</time></trkpt><trkpt lat="44.956956476018334" lon="7.278391180565632"><ele>1150.1666666666665</ele><time>2026-04-19T09:33:51.001Z</time></trkpt><trkpt lat="44.95689881627534" lon="7.27845989290116"><ele>1150.0</ele><time>2026-04-19T09:33:52.001Z</time></trkpt><trkpt lat="44.956837604958736" lon="7.278522234519108"><ele>1150.0</ele><time>2026-04-19T09:33:53.001Z</time></trkpt><trkpt lat="44.956776426108654" lon="7.278639313903641"><ele>1150.0</ele><time>2026-04-19T09:33:54.001Z</time></trkpt><trkpt lat="44.956715571127454" lon="7.278690521319326"><ele>1150.0</ele><time>2026-04-19T09:33:55.001Z</time></trkpt><trkpt lat="44.956653940488145" lon="7.278729589565936"><ele>1150.0</ele><time>2026-04-19T09:33:56.001Z</time></trkpt><trkpt lat="44.95659171371287" lon="7.2787616382799625"><ele>1150.0</ele><time>2026-04-19T09:33:57.001Z</time></trkpt><trkpt lat="44.956500167063304" lon="7.278796940484823"><ele>1150.0</ele><time>2026-04-19T09:33:59.001Z</time></trkpt><trkpt lat="44.95657336190633" lon="7.278757779364885"><ele>1150.0</ele><time>2026-04-19T09:34:23.002Z</time></trkpt><trkpt lat="44.956670874245916" lon="7.278707282152099"><ele>1150.0</ele><time>2026-04-19T09:34:25.002Z</time></trkpt><trkpt lat="44.956738912529794" lon="7.278655608621463"><ele>1150.0</ele><time>2026-04-19T09:34:26.002Z</time></trkpt><trkpt lat="44.956799278113735" lon="7.278602920100748"><ele>1150.0</ele><time>2026-04-19T09:34:27.002Z</time></trkpt><trkpt lat="44.9568538088203" lon="7.278553763531887"><ele>1150.0</ele><time>2026-04-19T09:34:28.002Z</time></trkpt><trkpt lat="44.956940224406196" lon="7.278450227293107"><ele>1150.0</ele><time>2026-04-19T09:34:30.002Z</time></trkpt><trkpt lat="44.956989480096205" lon="7.278381759148529"><ele>1150.0</ele><time>2026-04-19T09:34:31.002Z</time></trkpt><trkpt lat="44.957052749368174" lon="7.278335506921012"><ele>1150.0</ele><time>2026-04-19T09:34:32.002Z</time></trkpt><trkpt lat="44.957103401707855" lon="7.2782801816061955"><ele>1150.0</ele><time>2026-04-19T09:34:44.002Z</time></trkpt><trkpt lat="44.95720306997558" lon="7.278187641477937"><ele>1150.0</ele><time>2026-04-19T09:34:46.002Z</time></trkpt><trkpt lat="44.95728363756676" lon="7.278178420403681"><ele>1150.0</ele><time>2026-04-19T09:34:47.002Z</time></trkpt><trkpt lat="44.95737636381398" lon="7.278145635991042"><ele>1150.0</ele><time>2026-04-19T09:34:48.002Z</time></trkpt><trkpt lat="44.95747020670309" lon="7.2781039073164795"><ele>1150.2</ele><time>2026-04-19T09:34:49.002Z</time></trkpt><trkpt lat="44.957565473071924" lon="7.278041610124501"><ele>1150.4</ele><time>2026-04-19T09:34:50.002Z</time></trkpt><trkpt lat="44.957655543020955" lon="7.2780024363355045"><ele>1150.6</ele><time>2026-04-19T09:34:51.002Z</time></trkpt><trkpt lat="44.957717619787964" lon="7.277962998705145"><ele>1150.8</ele><time>2026-04-19T09:34:52.002Z</time></trkpt><trkpt lat="44.95779932388735" lon="7.277941384936994"><ele>1151.0</ele><time>2026-04-19T09:34:53.002Z</time></trkpt><trkpt lat="44.957891130478835" lon="7.277875030237521"><ele>1151.0</ele><time>2026-04-19T09:34:54.002Z</time></trkpt><trkpt lat="44.95797559861321" lon="7.277779249996985"><ele>1151.0</ele><time>2026-04-19T09:34:55.002Z</time></trkpt><trkpt lat="44.95799212915616" lon="7.277617005471507"><ele>1151.0</ele><time>2026-04-19T09:34:56.002Z</time></trkpt><trkpt lat="44.95801820020503" lon="7.2775188173132275"><ele>1151.0</ele><time>2026-04-19T09:34:57.002Z</time></trkpt><trkpt lat="44.95802992659784" lon="7.277413589211624"><ele>1151.0</ele><time>2026-04-19T09:34:58.002Z</time></trkpt><trkpt lat="44.95805333548142" lon="7.277279644945194"><ele>1151.1666666666667</ele><time>2026-04-19T09:34:59.002Z</time></trkpt><trkpt lat="44.95804544169254" lon="7.277175245697441"><ele>1151.3333333333335</ele><time>2026-04-19T09:35:00.002Z</time></trkpt><trkpt lat="44.957987357401606" lon="7.2770958068538905"><ele>1151.5</ele><time>2026-04-19T09:35:02Z</time></trkpt><trkpt lat="44.95793899131516" lon="7.277009528144442"><ele>1151.6666666666667</ele><time>2026-04-19T09:35:04Z</time></trkpt><trkpt lat="44.957852382740306" lon="7.276954591888094"><ele>1151.8333333333333</ele><time>2026-04-19T09:35:05Z</time></trkpt><trkpt lat="44.95777630761909" lon="7.276891145772589"><ele>1152.0</ele><time>2026-04-19T09:35:06Z</time></trkpt><trkpt lat="44.95772664616432" lon="7.276821886440262"><ele>1152.0</ele><time>2026-04-19T09:35:07Z</time></trkpt><trkpt lat="44.957678064572704" lon="7.276736543735896"><ele>1152.0</ele><time>2026-04-19T09:35:08Z</time></trkpt><trkpt lat="44.95762879315965" lon="7.2766344095899615"><ele>1152.0</ele><time>2026-04-19T09:35:09Z</time></trkpt><trkpt lat="44.957556347219914" lon="7.276557297762925"><ele>1152.0</ele><time>2026-04-19T09:35:10Z</time></trkpt><trkpt lat="44.95750576876605" lon="7.276452977170616"><ele>1152.0</ele><time>2026-04-19T09:35:11Z</time></trkpt><trkpt lat="44.957441779802245" lon="7.276350297591927"><ele>1152.0</ele><time>2026-04-19T09:35:12Z</time></trkpt><trkpt lat="44.95736008025347" lon="7.276266572865161"><ele>1153.0</ele><time>2026-04-19T09:35:13Z</time></trkpt><trkpt lat="44.95726359362996" lon="7.276188973119902"><ele>1154.0</ele><time>2026-04-19T09:35:14Z</time></trkpt><trkpt lat="44.95716668732045" lon="7.276109952865042"><ele>1155.0</ele><time>2026-04-19T09:35:15Z</time></trkpt><trkpt lat="44.95704807484487" lon="7.276024733131097"><ele>1156.0</ele><time>2026-04-19T09:35:16Z</time></trkpt><trkpt lat="44.956937553730384" lon="7.275935365325971"><ele>1156.0</ele><time>2026-04-19T09:35:17Z</time></trkpt><trkpt lat="44.956828146413656" lon="7.275855836924995"><ele>1156.0</ele><time>2026-04-19T09:35:18Z</time></trkpt><trkpt lat="44.95672380986235" lon="7.275764642022107"><ele>1156.0</ele><time>2026-04-19T09:35:19Z</time></trkpt><trkpt lat="44.95663733532828" lon="7.27564024548129"><ele>1156.0</ele><time>2026-04-19T09:35:20Z</time></trkpt><trkpt lat="44.95657942515814" lon="7.275501300070209"><ele>1159.0</ele><time>2026-04-19T09:35:21Z</time></trkpt><trkpt lat="44.9565473532424" lon="7.275333700902461"><ele>1162.0</ele><time>2026-04-19T09:35:22Z</time></trkpt><trkpt lat="44.956523425009415" lon="7.2751587030317255"><ele>1165.0</ele><time>2026-04-19T09:35:23Z</time></trkpt><trkpt lat="44.956499096007455" lon="7.274977450165704"><ele>1168.0</ele><time>2026-04-19T09:35:24Z</time></trkpt><trkpt lat="44.9564590904148" lon="7.274792095730824"><ele>1167.75</ele><time>2026-04-19T09:35:25Z</time></trkpt><trkpt lat="44.956423943105676" lon="7.274608974529877"><ele>1167.5</ele><time>2026-04-19T09:35:26Z</time></trkpt><trkpt lat="44.956380794325604" lon="7.274427803688327"><ele>1167.25</ele><time>2026-04-19T09:35:27Z</time></trkpt><trkpt lat="44.95633626120247" lon="7.274242203419146"><ele>1167.0</ele><time>2026-04-19T09:35:28Z</time></trkpt><trkpt lat="44.956304846295076" lon="7.27405267062173"><ele>1167.4</ele><time>2026-04-19T09:35:29Z</time></trkpt><trkpt lat="44.95626512816051" lon="7.2738804524821665"><ele>1167.8000000000002</ele><time>2026-04-19T09:35:30Z</time></trkpt><trkpt lat="44.95620976831371" lon="7.2737625537969395"><ele>1168.2</ele><time>2026-04-19T09:35:31Z</time></trkpt><trkpt lat="44.956124934747564" lon="7.273672809253421"><ele>1168.6000000000001</ele><time>2026-04-19T09:35:32Z</time></trkpt><trkpt lat="44.956023349195476" lon="7.273616287922136"><ele>1169.0</ele><time>2026-04-19T09:35:33Z</time></trkpt><trkpt lat="44.955913759874804" lon="7.27360536307243"><ele>1172.0</ele><time>2026-04-19T09:35:34Z</time></trkpt><trkpt lat="44.9558094159893" lon="7.27362532513351"><ele>1175.0</ele><time>2026-04-19T09:35:35Z</time></trkpt><trkpt lat="44.95570303481571" lon="7.273599326753506"><ele>1178.0</ele><time>2026-04-19T09:35:36Z</time></trkpt><trkpt lat="44.955615167189045" lon="7.27352078859336"><ele>1181.0</ele><time>2026-04-19T09:35:37Z</time></trkpt><trkpt lat="44.9555439995282" lon="7.273397779121765"><ele>1184.0</ele><time>2026-04-19T09:35:38Z</time></trkpt><trkpt lat="44.9554874007827" lon="7.273270203810409"><ele>1184.0</ele><time>2026-04-19T09:35:39.001Z</time></trkpt><trkpt lat="44.95539677242891" lon="7.273163756129289"><ele>1184.0</ele><time>2026-04-19T09:35:40.001Z</time></trkpt><trkpt lat="44.95528614888413" lon="7.273084641266769"><ele>1184.0</ele><time>2026-04-19T09:35:41.001Z</time></trkpt><trkpt lat="44.955184164125406" lon="7.273015153265975"><ele>1184.0</ele><time>2026-04-19T09:35:42.001Z</time></trkpt><trkpt lat="44.955066742077506" lon="7.272955624052157"><ele>1180.5</ele><time>2026-04-19T09:35:43.001Z</time></trkpt><trkpt lat="44.95494924886866" lon="7.272898308160155"><ele>1177.0</ele><time>2026-04-19T09:35:44.001Z</time></trkpt><trkpt lat="44.95485247451201" lon="7.27283804543623"><ele>1173.5</ele><time>2026-04-19T09:35:45.001Z</time></trkpt><trkpt lat="44.954739514857955" lon="7.272764045975728"><ele>1170.0</ele><time>2026-04-19T09:35:46.001Z</time></trkpt><trkpt lat="44.954644252584984" lon="7.272700494840946"><ele>1170.0</ele><time>2026-04-19T09:35:47.001Z</time></trkpt><trkpt lat="44.95454915365203" lon="7.272649445940656"><ele>1170.0</ele><time>2026-04-19T09:35:48.001Z</time></trkpt><trkpt lat="44.95445015327042" lon="7.272629971106163"><ele>1170.0</ele><time>2026-04-19T09:35:49.001Z</time></trkpt><trkpt lat="44.954327329315085" lon="7.272637353061544"><ele>1170.0</ele><time>2026-04-19T09:35:50.001Z</time></trkpt><trkpt lat="44.954204949866686" lon="7.2726492232139615"><ele>1170.0</ele><time>2026-04-19T09:35:51.001Z</time></trkpt><trkpt lat="44.95410272697723" lon="7.272673873068302"><ele>1169.0</ele><time>2026-04-19T09:35:52.001Z</time></trkpt><trkpt lat="44.95399387454619" lon="7.272698289030448"><ele>1168.0</ele><time>2026-04-19T09:35:53.001Z</time></trkpt><trkpt lat="44.95387019069676" lon="7.272728445596882"><ele>1167.0</ele><time>2026-04-19T09:35:54.001Z</time></trkpt><trkpt lat="44.95377213248834" lon="7.272757930311897"><ele>1166.0</ele><time>2026-04-19T09:35:55.001Z</time></trkpt><trkpt lat="44.9536692554665" lon="7.27278925485504"><ele>1165.0</ele><time>2026-04-19T09:35:56.001Z</time></trkpt><trkpt lat="44.95357860123265" lon="7.2728461043156445"><ele>1165.0</ele><time>2026-04-19T09:35:57.001Z</time></trkpt><trkpt lat="44.953473641369776" lon="7.272939035409696"><ele>1165.0</ele><time>2026-04-19T09:35:58.001Z</time></trkpt><trkpt lat="44.953373529729284" lon="7.273059458396171"><ele>1165.0</ele><time>2026-04-19T09:35:59.001Z</time></trkpt><trkpt lat="44.95330281903432" lon="7.273189661400825"><ele>1165.0</ele><time>2026-04-19T09:36:00.001Z</time></trkpt><trkpt lat="44.95322944051472" lon="7.273316885390149"><ele>1164.0</ele><time>2026-04-19T09:36:01.001Z</time></trkpt><trkpt lat="44.953168552548654" lon="7.273438167903609"><ele>1163.0</ele><time>2026-04-19T09:36:02.001Z</time></trkpt><trkpt lat="44.95311050129897" lon="7.273556260528379"><ele>1162.0</ele><time>2026-04-19T09:36:03.001Z</time></trkpt><trkpt lat="44.95302123830949" lon="7.273638714881613"><ele>1161.0</ele><time>2026-04-19T09:36:04.001Z</time></trkpt><trkpt lat="44.95293217879223" lon="7.273656151712838"><ele>1160.0</ele><time>2026-04-19T09:36:05.001Z</time></trkpt><trkpt lat="44.95284912991763" lon="7.273592481805282"><ele>1160.0</ele><time>2026-04-19T09:36:06.001Z</time></trkpt><trkpt lat="44.95277219875706" lon="7.273478728811317"><ele>1160.0</ele><time>2026-04-19T09:36:07.001Z</time></trkpt><trkpt lat="44.95272716892206" lon="7.273309006735949"><ele>1160.0</ele><time>2026-04-19T09:36:08.001Z</time></trkpt><trkpt lat="44.95263144985488" lon="7.273182624602875"><ele>1160.0</ele><time>2026-04-19T09:36:09.001Z</time></trkpt><trkpt lat="44.952535631696755" lon="7.273082040802212"><ele>1156.25</ele><time>2026-04-19T09:36:10.001Z</time></trkpt><trkpt lat="44.95243339076635" lon="7.272991217624498"><ele>1152.5</ele><time>2026-04-19T09:36:11.001Z</time></trkpt><trkpt lat="44.95233902285345" lon="7.272911387122614"><ele>1148.75</ele><time>2026-04-19T09:36:12.001Z</time></trkpt><trkpt lat="44.95223247655812" lon="7.272849820415616"><ele>1145.0</ele><time>2026-04-19T09:36:13.001Z</time></trkpt><trkpt lat="44.95212932097833" lon="7.27281154630999"><ele>1145.0</ele><time>2026-04-19T09:36:14.001Z</time></trkpt><trkpt lat="44.952030274688795" lon="7.272849562397705"><ele>1145.0</ele><time>2026-04-19T09:36:15.001Z</time></trkpt><trkpt lat="44.95195997696628" lon="7.272921820654315"><ele>1145.0</ele><time>2026-04-19T09:36:16.001Z</time></trkpt><trkpt lat="44.95190038877352" lon="7.273007179089629"><ele>1145.0</ele><time>2026-04-19T09:36:17.001Z</time></trkpt><trkpt lat="44.95185679514112" lon="7.273088677533957"><ele>1145.0</ele><time>2026-04-19T09:36:18.001Z</time></trkpt><trkpt lat="44.95179745994496" lon="7.273166909597676"><ele>1145.0</ele><time>2026-04-19T09:36:19.001Z</time></trkpt><trkpt lat="44.951738966633044" lon="7.273289879904874"><ele>1142.0</ele><time>2026-04-19T09:36:20.001Z</time></trkpt><trkpt lat="44.95167760518182" lon="7.273401691171517"><ele>1139.0</ele><time>2026-04-19T09:36:21.001Z</time></trkpt><trkpt lat="44.95163886962516" lon="7.273489006908234"><ele>1136.0</ele><time>2026-04-19T09:36:22.001Z</time></trkpt><trkpt lat="44.95154990929774" lon="7.273561859693908"><ele>1133.0</ele><time>2026-04-19T09:36:24.001Z</time></trkpt><trkpt lat="44.9514846368705" lon="7.273379111224436"><ele>1130.0</ele><time>2026-04-19T09:36:26.002Z</time></trkpt><trkpt lat="44.951429890943494" lon="7.273313095614754"><ele>1130.0</ele><time>2026-04-19T09:36:27.002Z</time></trkpt><trkpt lat="44.9513520355656" lon="7.27324753235145"><ele>1130.0</ele><time>2026-04-19T09:36:28.002Z</time></trkpt><trkpt lat="44.951305778185066" lon="7.273159113779018"><ele>1130.0</ele><time>2026-04-19T09:36:29.002Z</time></trkpt><trkpt lat="44.95122976362499" lon="7.273071384374639"><ele>1130.0</ele><time>2026-04-19T09:36:31.002Z</time></trkpt><trkpt lat="44.95113269757579" lon="7.272965767857933"><ele>1130.0</ele><time>2026-04-19T09:36:33.002Z</time></trkpt><trkpt lat="44.95107022869817" lon="7.272903749556983"><ele>1129.3333333333335</ele><time>2026-04-19T09:36:34.002Z</time></trkpt><trkpt lat="44.950996506728764" lon="7.272837583436277"><ele>1128.6666666666667</ele><time>2026-04-19T09:36:35.002Z</time></trkpt><trkpt lat="44.95093984893109" lon="7.272786330030745"><ele>1128.0</ele><time>2026-04-19T09:36:36.002Z</time></trkpt><trkpt lat="44.95086277248151" lon="7.272715482589684"><ele>1127.3333333333333</ele><time>2026-04-19T09:36:38.002Z</time></trkpt><trkpt lat="44.95080095381501" lon="7.272656086806171"><ele>1126.6666666666665</ele><time>2026-04-19T09:36:41.002Z</time></trkpt><trkpt lat="44.950873095345074" lon="7.272724971440278"><ele>1126.0</ele><time>2026-04-19T09:36:48.002Z</time></trkpt><trkpt lat="44.95093442101027" lon="7.272782135145536"><ele>1126.0</ele><time>2026-04-19T09:36:49.002Z</time></trkpt><trkpt lat="44.95098442553597" lon="7.272851733928247"><ele>1126.0</ele><time>2026-04-19T09:36:50.002Z</time></trkpt><trkpt lat="44.95109306247156" lon="7.272955083827783"><ele>1126.0</ele><time>2026-04-19T09:36:52.002Z</time></trkpt><trkpt lat="44.95118590091005" lon="7.273056869162873"><ele>1126.0</ele><time>2026-04-19T09:36:54.002Z</time></trkpt><trkpt lat="44.95120742336408" lon="7.27315018216275"><ele>1126.0</ele><time>2026-04-19T09:36:56.002Z</time></trkpt><trkpt lat="44.951247190538524" lon="7.273259641595258"><ele>1126.8</ele><time>2026-04-19T09:36:58.002Z</time></trkpt><trkpt lat="44.95124459467129" lon="7.273420030079372"><ele>1127.6</ele><time>2026-04-19T09:37:01.002Z</time></trkpt><trkpt lat="44.951249355509994" lon="7.273533475451295"><ele>1128.4</ele><time>2026-04-19T09:37:03.002Z</time></trkpt><trkpt lat="44.951209479686334" lon="7.273659023235692"><ele>1129.2</ele><time>2026-04-19T09:37:06.002Z</time></trkpt><trkpt lat="44.95113075906038" lon="7.273775161962905"><ele>1130.0</ele><time>2026-04-19T09:37:09Z</time></trkpt><trkpt lat="44.95106172430939" lon="7.273788949313749"><ele>1130.0</ele><time>2026-04-19T09:37:10Z</time></trkpt><trkpt lat="44.95097097754759" lon="7.273830511252648"><ele>1130.0</ele><time>2026-04-19T09:37:11Z</time></trkpt><trkpt lat="44.95089460294002" lon="7.273834939108779"><ele>1130.0</ele><time>2026-04-19T09:37:12Z</time></trkpt><trkpt lat="44.95079972760393" lon="7.273871283125154"><ele>1130.0</ele><time>2026-04-19T09:37:14Z</time></trkpt><trkpt lat="44.95072269266596" lon="7.273874310486506"><ele>1130.0</ele><time>2026-04-19T09:37:15Z</time></trkpt><trkpt lat="44.95063788627684" lon="7.27387323977306"><ele>1130.0</ele><time>2026-04-19T09:37:16Z</time></trkpt><trkpt lat="44.95055076620268" lon="7.2738844115010295"><ele>1129.3333333333335</ele><time>2026-04-19T09:37:17Z</time></trkpt><trkpt lat="44.9504763735447" lon="7.2738737406911325"><ele>1128.6666666666667</ele><time>2026-04-19T09:37:18Z</time></trkpt><trkpt lat="44.950338050413585" lon="7.273899046731263"><ele>1128.0</ele><time>2026-04-19T09:37:20Z</time></trkpt><trkpt lat="44.95027042667392" lon="7.273933688017934"><ele>1127.3333333333333</ele><time>2026-04-19T09:37:21Z</time></trkpt><trkpt lat="44.95022288088498" lon="7.274006203577619"><ele>1126.6666666666665</ele><time>2026-04-19T09:37:22Z</time></trkpt><trkpt lat="44.95016132956572" lon="7.274028538740367"><ele>1126.0</ele><time>2026-04-19T09:37:23Z</time></trkpt><trkpt lat="44.95004783304193" lon="7.27407958741665"><ele>1125.5</ele><time>2026-04-19T09:37:25Z</time></trkpt><trkpt lat="44.94995754323129" lon="7.274019104294687"><ele>1125.0</ele><time>2026-04-19T09:37:41Z</time></trkpt><trkpt lat="44.94989800368513" lon="7.273954990321685"><ele>1124.5</ele><time>2026-04-19T09:37:42Z</time></trkpt><trkpt lat="44.949830244991965" lon="7.273904645049949"><ele>1124.0</ele><time>2026-04-19T09:37:43Z</time></trkpt><trkpt lat="44.949757332786945" lon="7.273885593367157"><ele>1123.5</ele><time>2026-04-19T09:37:44Z</time></trkpt><trkpt lat="44.949694517382596" lon="7.273902524723354"><ele>1123.0</ele><time>2026-04-19T09:37:45Z</time></trkpt><trkpt lat="44.94959820966112" lon="7.273962783668036"><ele>1120.4285714285713</ele><time>2026-04-19T09:37:47Z</time></trkpt><trkpt lat="44.94951429315134" lon="7.273967645234001"><ele>1117.857142857143</ele><time>2026-04-19T09:37:49Z</time></trkpt><trkpt lat="44.94944592310068" lon="7.273969149179605"><ele>1115.2857142857142</ele><time>2026-04-19T09:37:50Z</time></trkpt><trkpt lat="44.94937334754022" lon="7.273972689188033"><ele>1112.7142857142858</ele><time>2026-04-19T09:37:51.001Z</time></trkpt><trkpt lat="44.94930839841476" lon="7.274016308047821"><ele>1110.142857142857</ele><time>2026-04-19T09:37:53.001Z</time></trkpt><trkpt lat="44.94935442488252" lon="7.274088633921611"><ele>1107.5714285714284</ele><time>2026-04-19T09:37:57.001Z</time></trkpt><trkpt lat="44.94943054806452" lon="7.274076618740324"><ele>1105.0</ele><time>2026-04-19T09:38:01.001Z</time></trkpt><trkpt lat="44.949492577180244" lon="7.274003833653625"><ele>1105.0</ele><time>2026-04-19T09:38:06.001Z</time></trkpt><trkpt lat="44.94958840007822" lon="7.273926420657571"><ele>1105.0</ele><time>2026-04-19T09:38:10.001Z</time></trkpt><trkpt lat="44.949692358982176" lon="7.2739149778093095"><ele>1105.0</ele><time>2026-04-19T09:38:11.001Z</time></trkpt><trkpt lat="44.94977551264668" lon="7.273899152223493"><ele>1105.0</ele><time>2026-04-19T09:38:12.001Z</time></trkpt><trkpt lat="44.9498402671611" lon="7.273908411288128"><ele>1105.0</ele><time>2026-04-19T09:38:13.001Z</time></trkpt><trkpt lat="44.949912392238595" lon="7.27397478297876"><ele>1105.0</ele><time>2026-04-19T09:38:14.001Z</time></trkpt><trkpt lat="44.949984244026716" lon="7.274059294616925"><ele>1105.0</ele><time>2026-04-19T09:38:15.001Z</time></trkpt><trkpt lat="44.950043766500166" lon="7.274149940387335"><ele>1105.0</ele><time>2026-04-19T09:38:17.001Z</time></trkpt><trkpt lat="44.950045265147104" lon="7.274320027628972"><ele>1105.0</ele><time>2026-04-19T09:38:19.001Z</time></trkpt><trkpt lat="44.95005976031799" lon="7.274449645566716"><ele>1105.0</ele><time>2026-04-19T09:38:20.001Z</time></trkpt><trkpt lat="44.95005241709491" lon="7.274540104885749"><ele>1105.0</ele><time>2026-04-19T09:38:21.001Z</time></trkpt><trkpt lat="44.94997606201459" lon="7.274650179230663"><ele>1105.0</ele><time>2026-04-19T09:38:23.001Z</time></trkpt><trkpt lat="44.94991136269261" lon="7.274703125459285"><ele>1105.0</ele><time>2026-04-19T09:38:25.001Z</time></trkpt><trkpt lat="44.94980574499461" lon="7.274683862644414"><ele>1105.0</ele><time>2026-04-19T09:38:28.001Z</time></trkpt><trkpt lat="44.9497303917386" lon="7.274711932253423"><ele>1105.0</ele><time>2026-04-19T09:38:29.001Z</time></trkpt><trkpt lat="44.94966955129175" lon="7.274773745958501"><ele>1105.0</ele><time>2026-04-19T09:38:30.001Z</time></trkpt><trkpt lat="44.94961633892459" lon="7.274851603171674"><ele>1104.1666666666665</ele><time>2026-04-19T09:38:31.001Z</time></trkpt><trkpt lat="44.94957823095156" lon="7.2749591441460115"><ele>1103.3333333333333</ele><time>2026-04-19T09:38:33.001Z</time></trkpt><trkpt lat="44.9496053592023" lon="7.275054427410903"><ele>1102.5</ele><time>2026-04-19T09:38:37.002Z</time></trkpt><trkpt lat="44.94959436935063" lon="7.275201561526788"><ele>1101.6666666666667</ele><time>2026-04-19T09:38:48.002Z</time></trkpt><trkpt lat="44.94956113041301" lon="7.275287996232087"><ele>1100.8333333333335</ele><time>2026-04-19T09:38:50.002Z</time></trkpt><trkpt lat="44.94953979049466" lon="7.275384817724853"><ele>1100.0</ele><time>2026-04-19T09:38:52.002Z</time></trkpt><trkpt lat="44.94951696710115" lon="7.275471571280168"><ele>1100.0</ele><time>2026-04-19T09:38:55.002Z</time></trkpt><trkpt lat="44.949468797324364" lon="7.275531173491325"><ele>1100.0</ele><time>2026-04-19T09:38:58.002Z</time></trkpt><trkpt lat="44.94944785749151" lon="7.275623908702707"><ele>1100.0</ele><time>2026-04-19T09:39:02.002Z</time></trkpt><trkpt lat="44.94943239291866" lon="7.275720341203494"><ele>1100.0</ele><time>2026-04-19T09:39:23Z</time></trkpt><trkpt lat="44.94942009642195" lon="7.275818691642179"><ele>1100.0</ele><time>2026-04-19T09:39:33Z</time></trkpt><trkpt lat="44.94937862217017" lon="7.275943856125433"><ele>1100.0</ele><time>2026-04-19T09:39:38Z</time></trkpt><trkpt lat="44.949319873149456" lon="7.275997091287364"><ele>1100.0</ele><time>2026-04-19T09:39:44Z</time></trkpt><trkpt lat="44.9492624047281" lon="7.276072118476472"><ele>1099.857142857143</ele><time>2026-04-19T09:39:52.001Z</time></trkpt><trkpt lat="44.94923009370592" lon="7.276168012474744"><ele>1099.7142857142858</ele><time>2026-04-19T09:39:55.001Z</time></trkpt><trkpt lat="44.94923602680242" lon="7.2762640250028"><ele>1099.5714285714284</ele><time>2026-04-19T09:39:59.001Z</time></trkpt><trkpt lat="44.949217452885364" lon="7.276361689338074"><ele>1099.4285714285716</ele><time>2026-04-19T09:40:06.001Z</time></trkpt><trkpt lat="44.94916499697349" lon="7.2764306557803655"><ele>1099.2857142857142</ele><time>2026-04-19T09:40:17.001Z</time></trkpt><trkpt lat="44.94911739918727" lon="7.276519263364029"><ele>1099.142857142857</ele><time>2026-04-19T09:40:23.001Z</time></trkpt><trkpt lat="44.94909541345381" lon="7.276618750484041"><ele>1099.0</ele><time>2026-04-19T09:40:27.001Z</time></trkpt><trkpt lat="44.94905790722959" lon="7.276695302764114"><ele>1094.5</ele><time>2026-04-19T09:40:40.002Z</time></trkpt><trkpt lat="44.94900832774937" lon="7.276785668220706"><ele>1090.0</ele><time>2026-04-19T09:40:48.002Z</time></trkpt><trkpt lat="44.948936251055294" lon="7.276836854976265"><ele>1085.5</ele><time>2026-04-19T09:40:52.002Z</time></trkpt><trkpt lat="44.94888775701859" lon="7.276937434525764"><ele>1081.0</ele><time>2026-04-19T09:40:55.002Z</time></trkpt><trkpt lat="44.94885902592378" lon="7.277026264468144"><ele>1076.5</ele><time>2026-04-19T09:40:57.002Z</time></trkpt><trkpt lat="44.948830811175554" lon="7.277132208237706"><ele>1072.0</ele><time>2026-04-19T09:40:59.002Z</time></trkpt><trkpt lat="44.94884673621424" lon="7.277254533885148"><ele>1069.3333333333333</ele><time>2026-04-19T09:41:01.002Z</time></trkpt><trkpt lat="44.9488868390627" lon="7.27739327576067"><ele>1066.6666666666665</ele><time>2026-04-19T09:41:03.002Z</time></trkpt><trkpt lat="44.94892096705167" lon="7.277523672366381"><ele>1064.0</ele><time>2026-04-19T09:41:05.002Z</time></trkpt><trkpt lat="44.94889983872786" lon="7.277614783044103"><ele>1061.3333333333333</ele><time>2026-04-19T09:41:07.002Z</time></trkpt><trkpt lat="44.94886437362065" lon="7.277704499880121"><ele>1058.6666666666667</ele><time>2026-04-19T09:41:30Z</time></trkpt><trkpt lat="44.94886280177518" lon="7.277824422828242"><ele>1056.0</ele><time>2026-04-19T09:41:38Z</time></trkpt><trkpt lat="44.948897129475924" lon="7.277920900286642"><ele>1056.0</ele><time>2026-04-19T09:41:40Z</time></trkpt><trkpt lat="44.9488770416279" lon="7.278015746742194"><ele>1056.0</ele><time>2026-04-19T09:41:42Z</time></trkpt><trkpt lat="44.94883664019557" lon="7.278085262250626"><ele>1056.0</ele><time>2026-04-19T09:41:44Z</time></trkpt><trkpt lat="44.94888383894761" lon="7.27815880535037"><ele>1056.0</ele><time>2026-04-19T09:41:48Z</time></trkpt><trkpt lat="44.948972925116884" lon="7.278219320374161"><ele>1056.0</ele><time>2026-04-19T09:41:52Z</time></trkpt><trkpt lat="44.94893499530519" lon="7.278310677836212"><ele>1056.0</ele><time>2026-04-19T09:41:55Z</time></trkpt><trkpt lat="44.94886346567922" lon="7.278349628742603"><ele>1056.0</ele><time>2026-04-19T09:41:57Z</time></trkpt><trkpt lat="44.948807581380734" lon="7.278296070094952"><ele>1056.0</ele><time>2026-04-19T09:42:13.001Z</time></trkpt><trkpt lat="44.9487384349263" lon="7.278232987186022"><ele>1056.0</ele><time>2026-04-19T09:42:15.001Z</time></trkpt><trkpt lat="44.94867331733104" lon="7.278110061669573"><ele>1056.0</ele><time>2026-04-19T09:42:17.001Z</time></trkpt><trkpt lat="44.94864068430451" lon="7.277994983053663"><ele>1056.0</ele><time>2026-04-19T09:42:18.001Z</time></trkpt><trkpt lat="44.948599034161084" lon="7.277872222955939"><ele>1056.0</ele><time>2026-04-19T09:42:19.001Z</time></trkpt><trkpt lat="44.94856146258503" lon="7.277757754208178"><ele>1056.0</ele><time>2026-04-19T09:42:20.001Z</time></trkpt><trkpt lat="44.948539031079704" lon="7.277658449246115"><ele>1056.0</ele><time>2026-04-19T09:42:21.001Z</time></trkpt><trkpt lat="44.948493095926366" lon="7.277592744565997"><ele>1056.0</ele><time>2026-04-19T09:42:22.001Z</time></trkpt><trkpt lat="44.94838803346634" lon="7.277503216233284"><ele>1056.0</ele><time>2026-04-19T09:42:24.001Z</time></trkpt><trkpt lat="44.9483024956481" lon="7.277444747528235"><ele>1056.0</ele><time>2026-04-19T09:42:26.001Z</time></trkpt><trkpt lat="44.94822780618882" lon="7.277348947297422"><ele>1054.1666666666667</ele><time>2026-04-19T09:42:28.001Z</time></trkpt><trkpt lat="44.94815726284562" lon="7.277234562138043"><ele>1052.3333333333333</ele><time>2026-04-19T09:42:30.001Z</time></trkpt><trkpt lat="44.94811463945714" lon="7.277124517158897"><ele>1050.5</ele><time>2026-04-19T09:42:32.001Z</time></trkpt><trkpt lat="44.94808399325364" lon="7.277032370514794"><ele>1048.6666666666665</ele><time>2026-04-19T09:42:34.001Z</time></trkpt><trkpt lat="44.94801919295702" lon="7.276950729434854"><ele>1046.8333333333333</ele><time>2026-04-19T09:42:36.001Z</time></trkpt><trkpt lat="44.94799392789147" lon="7.276861765960866"><ele>1045.0</ele><time>2026-04-19T09:42:37.001Z</time></trkpt><trkpt lat="44.94793248349315" lon="7.276748911531439"><ele>1045.0</ele><time>2026-04-19T09:42:39.001Z</time></trkpt><trkpt lat="44.94782998787499" lon="7.2767301061911605"><ele>1045.0</ele><time>2026-04-19T09:42:41.001Z</time></trkpt><trkpt lat="44.947741751083086" lon="7.2767682089882895"><ele>1045.0</ele><time>2026-04-19T09:42:43.002Z</time></trkpt><trkpt lat="44.947702735640206" lon="7.2769069099592505"><ele>1045.0</ele><time>2026-04-19T09:42:45.002Z</time></trkpt><trkpt lat="44.94764407632097" lon="7.276954649909976"><ele>1045.0</ele><time>2026-04-19T09:42:46.002Z</time></trkpt><trkpt lat="44.94756959712963" lon="7.276999384964599"><ele>1043.1666666666665</ele><time>2026-04-19T09:42:47.002Z</time></trkpt><trkpt lat="44.947501838364786" lon="7.277032965700369"><ele>1041.3333333333333</ele><time>2026-04-19T09:42:48.002Z</time></trkpt><trkpt lat="44.94742748387438" lon="7.277058997904248"><ele>1039.5</ele><time>2026-04-19T09:42:50.002Z</time></trkpt><trkpt lat="44.9473880117365" lon="7.277160765479702"><ele>1037.6666666666667</ele><time>2026-04-19T09:42:53.002Z</time></trkpt><trkpt lat="44.94735476074824" lon="7.277252446034482"><ele>1035.8333333333335</ele><time>2026-04-19T09:42:56.002Z</time></trkpt><trkpt lat="44.94733832399763" lon="7.27734663198481"><ele>1034.0</ele><time>2026-04-19T09:42:59.002Z</time></trkpt><trkpt lat="44.94737165763095" lon="7.27746727103398"><ele>1031.2857142857142</ele><time>2026-04-19T09:43:03.002Z</time></trkpt><trkpt lat="44.947379224064406" lon="7.277556227743326"><ele>1028.5714285714287</ele><time>2026-04-19T09:43:05.002Z</time></trkpt><trkpt lat="44.947359940995085" lon="7.277643156238364"><ele>1025.857142857143</ele><time>2026-04-19T09:43:07.002Z</time></trkpt><trkpt lat="44.94734229798829" lon="7.277735597956871"><ele>1023.1428571428571</ele><time>2026-04-19T09:43:09.002Z</time></trkpt><trkpt lat="44.947319377491716" lon="7.277837509856929"><ele>1020.4285714285714</ele><time>2026-04-19T09:43:11.002Z</time></trkpt><trkpt lat="44.947290510608816" lon="7.277935126802521"><ele>1017.7142857142858</ele><time>2026-04-19T09:43:13.002Z</time></trkpt><trkpt lat="44.94724933649001" lon="7.278035991362319"><ele>1015.0</ele><time>2026-04-19T09:43:15.002Z</time></trkpt><trkpt lat="44.94721430727465" lon="7.278153765873464"><ele>1012.6666666666666</ele><time>2026-04-19T09:43:17.002Z</time></trkpt><trkpt lat="44.947189930589154" lon="7.278299854667862"><ele>1010.3333333333333</ele><time>2026-04-19T09:43:19.002Z</time></trkpt><trkpt lat="44.9471731322953" lon="7.278435948569702"><ele>1008.0</ele><time>2026-04-19T09:43:21.002Z</time></trkpt><trkpt lat="44.94715483317032" lon="7.278522978897228"><ele>1005.6666666666667</ele><time>2026-04-19T09:43:22.002Z</time></trkpt><trkpt lat="44.94712365081048" lon="7.27860713281331"><ele>1003.3333333333334</ele><time>2026-04-19T09:43:23.002Z</time></trkpt><trkpt lat="44.94710327676137" lon="7.278707734790893"><ele>1001.0</ele><time>2026-04-19T09:43:24.003Z</time></trkpt><trkpt lat="44.94707962259348" lon="7.27882293196409"><ele>998.5000000000001</ele><time>2026-04-19T09:43:25.003Z</time></trkpt><trkpt lat="44.94705130222924" lon="7.278936152213187"><ele>996.0</ele><time>2026-04-19T09:43:25.999Z</time></trkpt><trkpt lat="44.947037691928855" lon="7.279078636003719"><ele>993.5</ele><time>2026-04-19T09:43:27.999Z</time></trkpt><trkpt lat="44.94702697889925" lon="7.279217088551538"><ele>991.0</ele><time>2026-04-19T09:43:29.999Z</time></trkpt><trkpt lat="44.94702087603315" lon="7.279322813541891"><ele>988.5000000000001</ele><time>2026-04-19T09:43:30.999Z</time></trkpt><trkpt lat="44.94703554796468" lon="7.279410032896522"><ele>986.0</ele><time>2026-04-19T09:43:31.999Z</time></trkpt><trkpt lat="44.94705578997737" lon="7.279574272810106"><ele>986.0</ele><time>2026-04-19T09:43:33.999Z</time></trkpt><trkpt lat="44.947057910419616" lon="7.279667029587258"><ele>986.0</ele><time>2026-04-19T09:43:34.999Z</time></trkpt><trkpt lat="44.9470601793262" lon="7.279760078940083"><ele>986.0</ele><time>2026-04-19T09:43:35.999Z</time></trkpt><trkpt lat="44.947052448613164" lon="7.27985591721121"><ele>986.0</ele><time>2026-04-19T09:43:36.999Z</time></trkpt><trkpt lat="44.94702942336309" lon="7.279944275750529"><ele>986.0</ele><time>2026-04-19T09:43:37.999Z</time></trkpt><trkpt lat="44.94699707806252" lon="7.28003634682674"><ele>986.0</ele><time>2026-04-19T09:43:38.999Z</time></trkpt><trkpt lat="44.946950881923534" lon="7.280128845769382"><ele>986.0</ele><time>2026-04-19T09:43:39.999Z</time></trkpt><trkpt lat="44.946912650790374" lon="7.280237525620166"><ele>984.3333333333334</ele><time>2026-04-19T09:43:40.999Z</time></trkpt><trkpt lat="44.94690802268526" lon="7.280354374959038"><ele>982.6666666666667</ele><time>2026-04-19T09:43:41.999Z</time></trkpt><trkpt lat="44.946930425124954" lon="7.280474909099663"><ele>981.0</ele><time>2026-04-19T09:43:42.999Z</time></trkpt><trkpt lat="44.946957835621724" lon="7.2805872490462"><ele>979.3333333333333</ele><time>2026-04-19T09:43:43.999Z</time></trkpt><trkpt lat="44.9469927891026" lon="7.280675627687907"><ele>977.6666666666666</ele><time>2026-04-19T09:43:44.999Z</time></trkpt><trkpt lat="44.946989013410835" lon="7.280796633693998"><ele>976.0</ele><time>2026-04-19T09:43:46.999Z</time></trkpt><trkpt lat="44.94695365370511" lon="7.2809168368858455"><ele>976.0</ele><time>2026-04-19T09:43:48.999Z</time></trkpt><trkpt lat="44.94686305733284" lon="7.280941679946497"><ele>975.9999999999999</ele><time>2026-04-19T09:44:22.001Z</time></trkpt><trkpt lat="44.946799705845784" lon="7.280913996173124"><ele>975.9999999999999</ele><time>2026-04-19T09:44:24.001Z</time></trkpt><trkpt lat="44.94675975560032" lon="7.280762262191257"><ele>976.0</ele><time>2026-04-19T09:44:26.001Z</time></trkpt><trkpt lat="44.9467912910861" lon="7.280658618752397"><ele>976.0</ele><time>2026-04-19T09:44:28.001Z</time></trkpt><trkpt lat="44.946749389184156" lon="7.280515773701989"><ele>982.5999999999999</ele><time>2026-04-19T09:44:30.001Z</time></trkpt><trkpt lat="44.946683161433896" lon="7.280405389772382"><ele>989.1999999999999</ele><time>2026-04-19T09:44:32.001Z</time></trkpt><trkpt lat="44.94662592005838" lon="7.280252088273022"><ele>995.8000000000001</ele><time>2026-04-19T09:44:34.001Z</time></trkpt><trkpt lat="44.946576928783095" lon="7.280186710381153"><ele>1002.4000000000001</ele><time>2026-04-19T09:44:35.001Z</time></trkpt><trkpt lat="44.94652292259133" lon="7.280137610461423"><ele>1009.0</ele><time>2026-04-19T09:44:36.001Z</time></trkpt><trkpt lat="44.94643719930553" lon="7.280008596348906"><ele>1009.0</ele><time>2026-04-19T09:44:38.001Z</time></trkpt><trkpt lat="44.94634460258782" lon="7.27989608736536"><ele>1009.0000000000001</ele><time>2026-04-19T09:44:40.001Z</time></trkpt><trkpt lat="44.946238224211754" lon="7.2798702576450935"><ele>1009.0000000000001</ele><time>2026-04-19T09:44:42.001Z</time></trkpt><trkpt lat="44.9461503039021" lon="7.279885752611913"><ele>1009.0</ele><time>2026-04-19T09:44:43.001Z</time></trkpt><trkpt lat="44.946056019139455" lon="7.279915438326901"><ele>1009.0</ele><time>2026-04-19T09:44:44.001Z</time></trkpt><trkpt lat="44.945979916694675" lon="7.279894976421551"><ele>1008.9999999999999</ele><time>2026-04-19T09:44:45.001Z</time></trkpt><trkpt lat="44.94590640443936" lon="7.2798725212323765"><ele>1009.0</ele><time>2026-04-19T09:44:46.001Z</time></trkpt><trkpt lat="44.94580888380046" lon="7.279807664758341"><ele>1009.0</ele><time>2026-04-19T09:44:48.001Z</time></trkpt><trkpt lat="44.945749585449896" lon="7.279732791171439"><ele>1009.0</ele><time>2026-04-19T09:44:49.001Z</time></trkpt><trkpt lat="44.94569892718721" lon="7.279679150848012"><ele>1008.9999999999999</ele><time>2026-04-19T09:44:50.001Z</time></trkpt><trkpt lat="44.94565649093475" lon="7.279590187165801"><ele>1009.0</ele><time>2026-04-19T09:44:51.001Z</time></trkpt><trkpt lat="44.94558882167558" lon="7.279541990075864"><ele>1014.3333333333333</ele><time>2026-04-19T09:44:52.001Z</time></trkpt><trkpt lat="44.94551574705193" lon="7.279416281685983"><ele>1019.6666666666666</ele><time>2026-04-19T09:44:54.001Z</time></trkpt><trkpt lat="44.94543279227085" lon="7.279412498353717"><ele>1025.0</ele><time>2026-04-19T09:44:56.002Z</time></trkpt><trkpt lat="44.94536547741711" lon="7.279438748105304"><ele>1030.3333333333333</ele><time>2026-04-19T09:44:57.002Z</time></trkpt><trkpt lat="44.945314673480375" lon="7.2793845958587"><ele>1035.6666666666667</ele><time>2026-04-19T09:44:58.002Z</time></trkpt><trkpt lat="44.94532121954549" lon="7.279287863447104"><ele>1041.0</ele><time>2026-04-19T09:45:00.002Z</time></trkpt><trkpt lat="44.94543957078776" lon="7.279269667348437"><ele>1041.0</ele><time>2026-04-19T09:45:02.002Z</time></trkpt><trkpt lat="44.94551490318829" lon="7.279267831477324"><ele>1041.0</ele><time>2026-04-19T09:45:03.002Z</time></trkpt><trkpt lat="44.945512887146265" lon="7.279139115508161"><ele>1041.0</ele><time>2026-04-19T09:45:05.002Z</time></trkpt><trkpt lat="44.945402011079594" lon="7.2790910575778645"><ele>1041.0</ele><time>2026-04-19T09:45:07.002Z</time></trkpt><trkpt lat="44.945281721750085" lon="7.279062472485916"><ele>1041.0</ele><time>2026-04-19T09:45:09.002Z</time></trkpt><trkpt lat="44.94521534321262" lon="7.2790029870565665"><ele>1041.0</ele><time>2026-04-19T09:45:10.002Z</time></trkpt><trkpt lat="44.94514303751653" lon="7.278940153164355"><ele>1041.0</ele><time>2026-04-19T09:45:11.002Z</time></trkpt><trkpt lat="44.945072743199056" lon="7.278865607103181"><ele>1041.0</ele><time>2026-04-19T09:45:12.002Z</time></trkpt><trkpt lat="44.94500250693113" lon="7.278808197067633"><ele>1041.0</ele><time>2026-04-19T09:45:13.002Z</time></trkpt><trkpt lat="44.944924330906616" lon="7.278793070364083"><ele>1041.0</ele><time>2026-04-19T09:45:14.002Z</time></trkpt><trkpt lat="44.94482282020766" lon="7.278812490781949"><ele>1041.0</ele><time>2026-04-19T09:45:15.002Z</time></trkpt><trkpt lat="44.94472201700153" lon="7.278809575588334"><ele>1044.6666666666667</ele><time>2026-04-19T09:45:16.002Z</time></trkpt><trkpt lat="44.94464865634285" lon="7.278815425837523"><ele>1048.3333333333333</ele><time>2026-04-19T09:45:17.002Z</time></trkpt><trkpt lat="44.94456907216336" lon="7.278746533271214"><ele>1052.0</ele><time>2026-04-19T09:45:19.002Z</time></trkpt><trkpt lat="44.94446357047812" lon="7.278773615140524"><ele>1055.6666666666665</ele><time>2026-04-19T09:45:21.002Z</time></trkpt><trkpt lat="44.9443958511291" lon="7.27876527813163"><ele>1059.3333333333333</ele><time>2026-04-19T09:45:22.002Z</time></trkpt><trkpt lat="44.944294720450266" lon="7.278717227257626"><ele>1063.0</ele><time>2026-04-19T09:45:23.002Z</time></trkpt><trkpt lat="44.94421769547889" lon="7.278733489041646"><ele>1059.8</ele><time>2026-04-19T09:45:24.002Z</time></trkpt><trkpt lat="44.94413230154409" lon="7.278778968759378"><ele>1056.6</ele><time>2026-04-19T09:45:25.002Z</time></trkpt><trkpt lat="44.94404176652326" lon="7.278756999660671"><ele>1053.4</ele><time>2026-04-19T09:45:27.002Z</time></trkpt><trkpt lat="44.94394693407272" lon="7.278637709143565"><ele>1050.2</ele><time>2026-04-19T09:45:29.002Z</time></trkpt><trkpt lat="44.943899882444086" lon="7.278557279142634"><ele>1047.0</ele><time>2026-04-19T09:45:30.002Z</time></trkpt><trkpt lat="44.94385594759261" lon="7.278480813980023"><ele>1047.0</ele><time>2026-04-19T09:45:31.002Z</time></trkpt><trkpt lat="44.94381644706554" lon="7.2783184406278325"><ele>1047.0</ele><time>2026-04-19T09:45:32.999Z</time></trkpt><trkpt lat="44.943778615891866" lon="7.278200091914593"><ele>1047.0</ele><time>2026-04-19T09:45:34.999Z</time></trkpt><trkpt lat="44.94382333982876" lon="7.278039444131961"><ele>1047.0</ele><time>2026-04-19T09:45:36.999Z</time></trkpt><trkpt lat="44.94386671070487" lon="7.277927490192221"><ele>1047.0</ele><time>2026-04-19T09:45:37.999Z</time></trkpt><trkpt lat="44.94387706971648" lon="7.2778101017702586"><ele>1047.6666666666667</ele><time>2026-04-19T09:45:38.999Z</time></trkpt><trkpt lat="44.94390744608768" lon="7.277718366755818"><ele>1048.3333333333333</ele><time>2026-04-19T09:45:39.999Z</time></trkpt><trkpt lat="44.943920518569435" lon="7.27762407751196"><ele>1049.0</ele><time>2026-04-19T09:45:40.999Z</time></trkpt><trkpt lat="44.94388999874881" lon="7.277448362118467"><ele>1049.6666666666665</ele><time>2026-04-19T09:45:42.999Z</time></trkpt><trkpt lat="44.94384939726587" lon="7.2773369081611"><ele>1050.3333333333333</ele><time>2026-04-19T09:45:44.999Z</time></trkpt><trkpt lat="44.943878826099606" lon="7.277225190410365"><ele>1051.0</ele><time>2026-04-19T09:45:47.999Z</time></trkpt><trkpt lat="44.94390637412575" lon="7.27713069272391"><ele>1052.1666666666665</ele><time>2026-04-19T09:45:49.999Z</time></trkpt><trkpt lat="44.94385964198295" lon="7.2769944770370945"><ele>1053.3333333333333</ele><time>2026-04-19T09:45:52Z</time></trkpt><trkpt lat="44.943810661894204" lon="7.276914618749516"><ele>1054.5</ele><time>2026-04-19T09:45:54Z</time></trkpt><trkpt lat="44.94374983767115" lon="7.276869765462428"><ele>1055.6666666666667</ele><time>2026-04-19T09:45:56Z</time></trkpt><trkpt lat="44.94371689432389" lon="7.276741003704536"><ele>1056.8333333333335</ele><time>2026-04-19T09:45:58Z</time></trkpt><trkpt lat="44.94367142438223" lon="7.2766320782914145"><ele>1058.0</ele><time>2026-04-19T09:46:01Z</time></trkpt><trkpt lat="44.94360963997587" lon="7.276533934932255"><ele>1060.5</ele><time>2026-04-19T09:46:03Z</time></trkpt><trkpt lat="44.94354177367024" lon="7.276429091526684"><ele>1063.0</ele><time>2026-04-19T09:46:05Z</time></trkpt><trkpt lat="44.943488593731054" lon="7.2763343998962675"><ele>1065.5</ele><time>2026-04-19T09:46:07Z</time></trkpt><trkpt lat="44.94343834365197" lon="7.276262069378448"><ele>1068.0</ele><time>2026-04-19T09:46:10Z</time></trkpt><trkpt lat="44.94336541010796" lon="7.276205693446588"><ele>1070.5</ele><time>2026-04-19T09:46:13Z</time></trkpt><trkpt lat="44.94331588529067" lon="7.276114011111718"><ele>1073.0</ele><time>2026-04-19T09:46:15Z</time></trkpt><trkpt lat="44.94324731389349" lon="7.27602899120138"><ele>1066.5</ele><time>2026-04-19T09:46:18.001Z</time></trkpt><trkpt lat="44.943180077674555" lon="7.275980828594119"><ele>1060.0</ele><time>2026-04-19T09:46:21.001Z</time></trkpt><trkpt lat="44.94312553071302" lon="7.275892171762946"><ele>1053.5</ele><time>2026-04-19T09:46:23.001Z</time></trkpt><trkpt lat="44.94305044349342" lon="7.275932208798768"><ele>1047.0</ele><time>2026-04-19T09:46:25.001Z</time></trkpt><trkpt lat="44.94300312606041" lon="7.276019864258536"><ele>1040.5</ele><time>2026-04-19T09:46:28.001Z</time></trkpt><trkpt lat="44.94294642714751" lon="7.27610886242338"><ele>1034.0</ele><time>2026-04-19T09:46:30.001Z</time></trkpt><trkpt lat="44.94290317021756" lon="7.276214656963142"><ele>1034.0</ele><time>2026-04-19T09:46:32.001Z</time></trkpt><trkpt lat="44.94285141615337" lon="7.276338696412747"><ele>1034.0</ele><time>2026-04-19T09:46:35.001Z</time></trkpt><trkpt lat="44.94279650596446" lon="7.276445040858433"><ele>1034.0</ele><time>2026-04-19T09:46:37.001Z</time></trkpt><trkpt lat="44.94273128853423" lon="7.276553057303948"><ele>1034.0</ele><time>2026-04-19T09:46:39.001Z</time></trkpt><trkpt lat="44.94269918459575" lon="7.2766621320759475"><ele>1034.0</ele><time>2026-04-19T09:46:41.001Z</time></trkpt><trkpt lat="44.94265424897446" lon="7.2767309463814165"><ele>1034.0</ele><time>2026-04-19T09:46:43.001Z</time></trkpt><trkpt lat="44.94254227989236" lon="7.276788116030057"><ele>1028.4</ele><time>2026-04-19T09:46:45.001Z</time></trkpt><trkpt lat="44.94247026066727" lon="7.276827446538939"><ele>1022.8000000000001</ele><time>2026-04-19T09:46:46.001Z</time></trkpt><trkpt lat="44.94239367533504" lon="7.276872495242065"><ele>1017.1999999999999</ele><time>2026-04-19T09:46:47.001Z</time></trkpt><trkpt lat="44.942282105222695" lon="7.276931067800225"><ele>1011.5999999999999</ele><time>2026-04-19T09:46:49.001Z</time></trkpt><trkpt lat="44.942192305270424" lon="7.276932837717262"><ele>1006.0</ele><time>2026-04-19T09:46:51.002Z</time></trkpt><trkpt lat="44.942078607246486" lon="7.276983819276956"><ele>1005.9999999999999</ele><time>2026-04-19T09:46:53.002Z</time></trkpt><trkpt lat="44.941968349383565" lon="7.276958362071397"><ele>1006.0</ele><time>2026-04-19T09:46:55.002Z</time></trkpt><trkpt lat="44.94190457088668" lon="7.276935028805337"><ele>1006.0</ele><time>2026-04-19T09:46:56.002Z</time></trkpt><trkpt lat="44.94183224265651" lon="7.276957321791587"><ele>1006.0</ele><time>2026-04-19T09:46:57.002Z</time></trkpt><trkpt lat="44.9417488310265" lon="7.276992109904012"><ele>1005.9999999999999</ele><time>2026-04-19T09:46:58.002Z</time></trkpt><trkpt lat="44.94165649309692" lon="7.277029335639921"><ele>1006.0</ele><time>2026-04-19T09:47:00.002Z</time></trkpt><trkpt lat="44.94155694954944" lon="7.277109326423625"><ele>1007.1999999999999</ele><time>2026-04-19T09:47:02.002Z</time></trkpt><trkpt lat="44.9414721906416" lon="7.27716272913109"><ele>1008.3999999999999</ele><time>2026-04-19T09:47:03.002Z</time></trkpt><trkpt lat="44.941376195504596" lon="7.277199683390599"><ele>1009.6</ele><time>2026-04-19T09:47:09.002Z</time></trkpt><trkpt lat="44.94125264157664" lon="7.277267246945576"><ele>1010.8</ele><time>2026-04-19T09:47:11.002Z</time></trkpt><trkpt lat="44.94118598249913" lon="7.277299074308121"><ele>1012.0</ele><time>2026-04-19T09:47:12.002Z</time></trkpt><trkpt lat="44.941128822419245" lon="7.277381441146024"><ele>1011.9999999999999</ele><time>2026-04-19T09:47:14.002Z</time></trkpt><trkpt lat="44.941030785017595" lon="7.277368004443103"><ele>1012.0</ele><time>2026-04-19T09:47:16.002Z</time></trkpt><trkpt lat="44.94095236106189" lon="7.277304136378489"><ele>1012.0</ele><time>2026-04-19T09:47:17.002Z</time></trkpt><trkpt lat="44.94088829899427" lon="7.277245975130475"><ele>1012.0</ele><time>2026-04-19T09:47:18.002Z</time></trkpt><trkpt lat="44.940835923964045" lon="7.27716733494461"><ele>1011.9999999999999</ele><time>2026-04-19T09:47:19.002Z</time></trkpt><trkpt lat="44.94076690878146" lon="7.277117970666378"><ele>1012.0</ele><time>2026-04-19T09:47:20.002Z</time></trkpt><trkpt lat="44.94068544409539" lon="7.277091758675056"><ele>1012.7142857142858</ele><time>2026-04-19T09:47:21.002Z</time></trkpt><trkpt lat="44.94062226587125" lon="7.2770815515512215"><ele>1013.4285714285714</ele><time>2026-04-19T09:47:22.002Z</time></trkpt><trkpt lat="44.940557634692816" lon="7.277085325136284"><ele>1014.1428571428571</ele><time>2026-04-19T09:47:23.003Z</time></trkpt><trkpt lat="44.94050823176905" lon="7.2771455829233345"><ele>1014.8571428571429</ele><time>2026-04-19T09:47:25.003Z</time></trkpt><trkpt lat="44.940477976348944" lon="7.277226322789975"><ele>1015.5714285714284</ele><time>2026-04-19T09:47:27.003Z</time></trkpt><trkpt lat="44.94044041162428" lon="7.277303988828249"><ele>1016.2857142857142</ele><time>2026-04-19T09:47:28.003Z</time></trkpt><trkpt lat="44.94042905981922" lon="7.277406247958849"><ele>1017.0</ele><time>2026-04-19T09:47:29.003Z</time></trkpt><trkpt lat="44.94038237774746" lon="7.277480425617972"><ele>1013.6666666666666</ele><time>2026-04-19T09:47:30.003Z</time></trkpt><trkpt lat="44.94032813210764" lon="7.27756314423322"><ele>1010.3333333333333</ele><time>2026-04-19T09:47:31.003Z</time></trkpt><trkpt lat="44.94028355826811" lon="7.2776414608332045"><ele>1007.0</ele><time>2026-04-19T09:47:32.003Z</time></trkpt><trkpt lat="44.94024863801474" lon="7.277722170189171"><ele>1003.6666666666666</ele><time>2026-04-19T09:47:33.003Z</time></trkpt><trkpt lat="44.94019819169535" lon="7.277776784458548"><ele>1000.3333333333333</ele><time>2026-04-19T09:47:34.003Z</time></trkpt><trkpt lat="44.94008235369923" lon="7.27779075561575"><ele>997.0</ele><time>2026-04-19T09:47:36.003Z</time></trkpt><trkpt lat="44.939986256617715" lon="7.2777774325061095"><ele>997.0</ele><time>2026-04-19T09:47:37.003Z</time></trkpt><trkpt lat="44.93988166265842" lon="7.277770870840165"><ele>997.0</ele><time>2026-04-19T09:47:37.999Z</time></trkpt><trkpt lat="44.93978909172846" lon="7.2777592735849375"><ele>997.0</ele><time>2026-04-19T09:47:38.999Z</time></trkpt><trkpt lat="44.939710422259665" lon="7.277749614278889"><ele>997.0</ele><time>2026-04-19T09:47:39.999Z</time></trkpt><trkpt lat="44.9396321080709" lon="7.277699057057545"><ele>997.0</ele><time>2026-04-19T09:47:40.999Z</time></trkpt><trkpt lat="44.9394946146811" lon="7.27766729450313"><ele>997.0</ele><time>2026-04-19T09:47:42.999Z</time></trkpt><trkpt lat="44.93943579798027" lon="7.27762694317533"><ele>997.0</ele><time>2026-04-19T09:47:43.999Z</time></trkpt><trkpt lat="44.93932893991256" lon="7.277614817392401"><ele>997.0</ele><time>2026-04-19T09:47:45.999Z</time></trkpt><trkpt lat="44.93925494241415" lon="7.277668000696552"><ele>997.0</ele><time>2026-04-19T09:47:46.999Z</time></trkpt><trkpt lat="44.9391687671327" lon="7.277738056768115"><ele>997.0</ele><time>2026-04-19T09:47:47.999Z</time></trkpt><trkpt lat="44.93907805468977" lon="7.2778054034739235"><ele>997.3333333333333</ele><time>2026-04-19T09:47:49.999Z</time></trkpt><trkpt lat="44.93905727054769" lon="7.277945932971186"><ele>997.6666666666666</ele><time>2026-04-19T09:47:51.999Z</time></trkpt><trkpt lat="44.93901202995349" lon="7.278012209229952"><ele>998.0</ele><time>2026-04-19T09:47:55Z</time></trkpt><trkpt lat="44.93894066328436" lon="7.27810697905841"><ele>998.3333333333333</ele><time>2026-04-19T09:47:59Z</time></trkpt><trkpt lat="44.93891312974268" lon="7.278220555941544"><ele>998.6666666666666</ele><time>2026-04-19T09:48:01Z</time></trkpt><trkpt lat="44.93888136582005" lon="7.2783369513987966"><ele>999.0</ele><time>2026-04-19T09:48:03Z</time></trkpt><trkpt lat="44.938824065699926" lon="7.2784636350945835"><ele>993.8333333333334</ele><time>2026-04-19T09:48:10Z</time></trkpt><trkpt lat="44.938742457876984" lon="7.27852707813338"><ele>988.6666666666667</ele><time>2026-04-19T09:48:11Z</time></trkpt><trkpt lat="44.93867156376381" lon="7.278591472537111"><ele>983.5</ele><time>2026-04-19T09:48:12Z</time></trkpt><trkpt lat="44.93861151288268" lon="7.27868051379401"><ele>978.3333333333334</ele><time>2026-04-19T09:48:13Z</time></trkpt><trkpt lat="44.93859793541101" lon="7.278784971532489"><ele>973.1666666666667</ele><time>2026-04-19T09:48:15Z</time></trkpt><trkpt lat="44.93859369082755" lon="7.278886884573442"><ele>968.0</ele><time>2026-04-19T09:48:18Z</time></trkpt><trkpt lat="44.938572481265645" lon="7.278982788942624"><ele>966.0</ele><time>2026-04-19T09:48:19.001Z</time></trkpt><trkpt lat="44.938483314165744" lon="7.279107113024905"><ele>964.0</ele><time>2026-04-19T09:48:20.001Z</time></trkpt><trkpt lat="44.938407165333594" lon="7.279207496313538"><ele>962.0</ele><time>2026-04-19T09:48:21.001Z</time></trkpt><trkpt lat="44.93834708208736" lon="7.279277435426905"><ele>960.0</ele><time>2026-04-19T09:48:22.001Z</time></trkpt><trkpt lat="44.93828319542076" lon="7.279358974882534"><ele>958.0</ele><time>2026-04-19T09:48:23.001Z</time></trkpt><trkpt lat="44.938168834381756" lon="7.27941006086008"><ele>962.9999999999999</ele><time>2026-04-19T09:48:25.001Z</time></trkpt><trkpt lat="44.938083473986815" lon="7.279390536178011"><ele>968.0</ele><time>2026-04-19T09:48:26.001Z</time></trkpt><trkpt lat="44.938014028487856" lon="7.279367725798925"><ele>973.0</ele><time>2026-04-19T09:48:27.001Z</time></trkpt><trkpt lat="44.937941745846345" lon="7.27930878072793"><ele>978.0</ele><time>2026-04-19T09:48:28.001Z</time></trkpt><trkpt lat="44.937816373827665" lon="7.279276900266006"><ele>982.9999999999999</ele><time>2026-04-19T09:48:30.001Z</time></trkpt><trkpt lat="44.93775215263566" lon="7.279321944146347"><ele>988.0</ele><time>2026-04-19T09:48:31.001Z</time></trkpt><trkpt lat="44.93768168000883" lon="7.279400096943547"><ele>988.0</ele><time>2026-04-19T09:48:32.001Z</time></trkpt><trkpt lat="44.93757163263531" lon="7.279393110957964"><ele>988.0</ele><time>2026-04-19T09:48:34.001Z</time></trkpt><trkpt lat="44.93752956640169" lon="7.279233951552962"><ele>988.0</ele><time>2026-04-19T09:48:36.001Z</time></trkpt><trkpt lat="44.937573137960804" lon="7.279155906296204"><ele>988.0</ele><time>2026-04-19T09:48:37.001Z</time></trkpt><trkpt lat="44.93762367960942" lon="7.2790729217250485"><ele>988.0</ele><time>2026-04-19T09:48:38.001Z</time></trkpt><trkpt lat="44.93761116482394" lon="7.278895926108055"><ele>990.2</ele><time>2026-04-19T09:48:40.001Z</time></trkpt><trkpt lat="44.937581342423414" lon="7.278784459668647"><ele>992.4</ele><time>2026-04-19T09:48:41.001Z</time></trkpt><trkpt lat="44.93753417686285" lon="7.278690219867369"><ele>994.6000000000001</ele><time>2026-04-19T09:48:42.001Z</time></trkpt><trkpt lat="44.93747708970111" lon="7.278525412014888"><ele>996.8000000000001</ele><time>2026-04-19T09:48:44.001Z</time></trkpt><trkpt lat="44.93746413714958" lon="7.278399254973203"><ele>999.0</ele><time>2026-04-19T09:48:45.001Z</time></trkpt><trkpt lat="44.93745783992186" lon="7.27826011789543"><ele>999.0</ele><time>2026-04-19T09:48:46.001Z</time></trkpt><trkpt lat="44.937459626311224" lon="7.278161806815253"><ele>999.0000000000001</ele><time>2026-04-19T09:48:48.001Z</time></trkpt><trkpt lat="44.93742963638307" lon="7.278058673372894"><ele>999.0000000000001</ele><time>2026-04-19T09:48:50.001Z</time></trkpt><trkpt lat="44.93737150461882" lon="7.27792117083687"><ele>999.0</ele><time>2026-04-19T09:48:52.002Z</time></trkpt><trkpt lat="44.93729874257851" lon="7.27781110305396"><ele>999.0</ele><time>2026-04-19T09:48:54.002Z</time></trkpt><trkpt lat="44.93724679534986" lon="7.277636910327894"><ele>1001.1666666666666</ele><time>2026-04-19T09:48:56.002Z</time></trkpt><trkpt lat="44.93721500092229" lon="7.277516370064428"><ele>1003.3333333333333</ele><time>2026-04-19T09:48:57.002Z</time></trkpt><trkpt lat="44.937166276066236" lon="7.277414961557885"><ele>1005.5</ele><time>2026-04-19T09:48:58.002Z</time></trkpt><trkpt lat="44.9371099802129" lon="7.277318023606535"><ele>1007.6666666666666</ele><time>2026-04-19T09:48:59.002Z</time></trkpt><trkpt lat="44.93705209018391" lon="7.277244615225544"><ele>1009.8333333333333</ele><time>2026-04-19T09:49:00.002Z</time></trkpt><trkpt lat="44.9369986523651" lon="7.277192374479447"><ele>1012.0</ele><time>2026-04-19T09:49:01.002Z</time></trkpt><trkpt lat="44.93693237892396" lon="7.277153961195213"><ele>1011.4999999999999</ele><time>2026-04-19T09:49:02.002Z</time></trkpt><trkpt lat="44.93685865198096" lon="7.277105852222608"><ele>1011.0</ele><time>2026-04-19T09:49:03.002Z</time></trkpt><trkpt lat="44.936788276106974" lon="7.277053485951132"><ele>1010.5</ele><time>2026-04-19T09:49:05.002Z</time></trkpt><trkpt lat="44.936710509453356" lon="7.276988950019172"><ele>1010.0</ele><time>2026-04-19T09:49:08.002Z</time></trkpt><trkpt lat="44.936642764450994" lon="7.276908137382129"><ele>1009.4999999999999</ele><time>2026-04-19T09:49:09.002Z</time></trkpt><trkpt lat="44.9365788336274" lon="7.276802375031166"><ele>1009.0</ele><time>2026-04-19T09:49:10.002Z</time></trkpt><trkpt lat="44.936504490981555" lon="7.2767049074198"><ele>1008.9999999999999</ele><time>2026-04-19T09:49:11.002Z</time></trkpt><trkpt lat="44.93643412039668" lon="7.276626055650194"><ele>1009.0</ele><time>2026-04-19T09:49:12.002Z</time></trkpt><trkpt lat="44.93636667195124" lon="7.276518990611645"><ele>1009.0</ele><time>2026-04-19T09:49:13.002Z</time></trkpt><trkpt lat="44.93631423225681" lon="7.276400542385517"><ele>1009.0</ele><time>2026-04-19T09:49:14.002Z</time></trkpt><trkpt lat="44.93629040161208" lon="7.276289399101554"><ele>1008.9999999999999</ele><time>2026-04-19T09:49:15.002Z</time></trkpt><trkpt lat="44.93627512323397" lon="7.2761904005696225"><ele>1009.0</ele><time>2026-04-19T09:49:16.002Z</time></trkpt><trkpt lat="44.93624341441518" lon="7.276085858366875"><ele>1011.6666666666666</ele><time>2026-04-19T09:49:17.002Z</time></trkpt><trkpt lat="44.9362285946244" lon="7.275959117457513"><ele>1014.3333333333333</ele><time>2026-04-19T09:49:18.002Z</time></trkpt><trkpt lat="44.93619605235271" lon="7.275805089857554"><ele>1017.0</ele><time>2026-04-19T09:49:19.002Z</time></trkpt><trkpt lat="44.93618642174349" lon="7.275708340074146"><ele>1019.6666666666667</ele><time>2026-04-19T09:49:20.002Z</time></trkpt><trkpt lat="44.936198823235" lon="7.275582003265713"><ele>1022.3333333333334</ele><time>2026-04-19T09:49:21.002Z</time></trkpt><trkpt lat="44.93622016768333" lon="7.275467992442423"><ele>1025.0</ele><time>2026-04-19T09:49:22.002Z</time></trkpt><trkpt lat="44.936211530527665" lon="7.275329772283361"><ele>1072.0</ele><time>2026-04-19T09:49:23.003Z</time></trkpt><trkpt lat="44.94888775701859" lon="7.276937434525764"><ele>1072.0</ele><time>2026-04-19T09:40:55.002Z</time></trkpt><trkpt lat="44.94885902592378" lon="7.277026264468144"><ele>1072.0</ele><time>2026-04-19T09:40:57.002Z</time></trkpt><trkpt lat="44.948830811175554" lon="7.277132208237706"><ele>1072.0</ele><time>2026-04-19T09:40:59.002Z</time></trkpt><trkpt lat="44.94884673621424" lon="7.277254533885148"><ele>1072.0</ele><time>2026-04-19T09:41:01.002Z</time></trkpt><trkpt lat="44.9488868390627" lon="7.27739327576067"><ele>1072.0</ele><time>2026-04-19T09:41:03.002Z</time></trkpt><trkpt lat="44.94892096705167" lon="7.277523672366381"><ele>1072.0</ele><time>2026-04-19T09:41:05.002Z</time></trkpt><trkpt lat="44.94889983872786" lon="7.277614783044103"><ele>1069.7142857142858</ele><time>2026-04-19T09:41:07.002Z</time></trkpt><trkpt lat="44.94886437362065" lon="7.277704499880121"><ele>1067.4285714285713</ele><time>2026-04-19T09:41:30Z</time></trkpt><trkpt lat="44.94886280177518" lon="7.277824422828242"><ele>1065.142857142857</ele><time>2026-04-19T09:41:38Z</time></trkpt><trkpt lat="44.948897129475924" lon="7.277920900286642"><ele>1062.857142857143</ele><time>2026-04-19T09:41:40Z</time></trkpt><trkpt lat="44.9488770416279" lon="7.278015746742194"><ele>1060.5714285714287</ele><time>2026-04-19T09:41:42Z</time></trkpt><trkpt lat="44.94883664019557" lon="7.278085262250626"><ele>1058.2857142857142</ele><time>2026-04-19T09:41:44Z</time></trkpt><trkpt lat="44.94888383894761" lon="7.27815880535037"><ele>1056.0</ele><time>2026-04-19T09:41:48Z</time></trkpt><trkpt lat="44.948972925116884" lon="7.278219320374161"><ele>1056.0</ele><time>2026-04-19T09:41:52Z</time></trkpt><trkpt lat="44.94893499530519" lon="7.278310677836212"><ele>1056.0</ele><time>2026-04-19T09:41:55Z</time></trkpt><trkpt lat="44.94886346567922" lon="7.278349628742603"><ele>1056.0</ele><time>2026-04-19T09:41:57Z</time></trkpt><trkpt lat="44.948807581380734" lon="7.278296070094952"><ele>1056.0</ele><time>2026-04-19T09:42:13.001Z</time></trkpt><trkpt lat="44.9487384349263" lon="7.278232987186022"><ele>1056.0</ele><time>2026-04-19T09:42:15.001Z</time></trkpt><trkpt lat="44.94867331733104" lon="7.278110061669573"><ele>1056.0</ele><time>2026-04-19T09:42:17.001Z</time></trkpt><trkpt lat="44.94864068430451" lon="7.277994983053663"><ele>1056.0</ele><time>2026-04-19T09:42:18.001Z</time></trkpt><trkpt lat="44.948599034161084" lon="7.277872222955939"><ele>1056.0</ele><time>2026-04-19T09:42:19.001Z</time></trkpt><trkpt lat="44.94856146258503" lon="7.277757754208178"><ele>1056.0</ele><time>2026-04-19T09:42:20.001Z</time></trkpt><trkpt lat="44.948539031079704" lon="7.277658449246115"><ele>1056.0</ele><time>2026-04-19T09:42:21.001Z</time></trkpt><trkpt lat="44.948493095926366" lon="7.277592744565997"><ele>1056.0</ele><time>2026-04-19T09:42:22.001Z</time></trkpt><trkpt lat="44.94838803346634" lon="7.277503216233284"><ele>1056.0</ele><time>2026-04-19T09:42:24.001Z</time></trkpt><trkpt lat="44.9483024956481" lon="7.277444747528235"><ele>1053.8</ele><time>2026-04-19T09:42:26.001Z</time></trkpt><trkpt lat="44.94822780618882" lon="7.277348947297422"><ele>1051.6</ele><time>2026-04-19T09:42:28.001Z</time></trkpt><trkpt lat="44.94815726284562" lon="7.277234562138043"><ele>1049.4</ele><time>2026-04-19T09:42:30.001Z</time></trkpt><trkpt lat="44.94811463945714" lon="7.277124517158897"><ele>1047.2</ele><time>2026-04-19T09:42:32.001Z</time></trkpt><trkpt lat="44.94808399325364" lon="7.277032370514794"><ele>1045.0</ele><time>2026-04-19T09:42:34.001Z</time></trkpt><trkpt lat="44.94801919295702" lon="7.276950729434854"><ele>1045.0</ele><time>2026-04-19T09:42:36.001Z</time></trkpt><trkpt lat="44.94799392789147" lon="7.276861765960866"><ele>1045.0</ele><time>2026-04-19T09:42:37.001Z</time></trkpt><trkpt lat="44.94793248349315" lon="7.276748911531439"><ele>1045.0</ele><time>2026-04-19T09:42:39.001Z</time></trkpt><trkpt lat="44.94782998787499" lon="7.2767301061911605"><ele>1045.0</ele><time>2026-04-19T09:42:41.001Z</time></trkpt><trkpt lat="44.947741751083086" lon="7.2767682089882895"><ele>1045.0</ele><time>2026-04-19T09:42:43.002Z</time></trkpt><trkpt lat="44.947702735640206" lon="7.2769069099592505"><ele>1045.0</ele><time>2026-04-19T09:42:45.002Z</time></trkpt><trkpt lat="44.94764407632097" lon="7.276954649909976"><ele>1045.0</ele><time>2026-04-19T09:42:46.002Z</time></trkpt><trkpt lat="44.94756959712963" lon="7.276999384964599"><ele>1045.0</ele><time>2026-04-19T09:42:47.002Z</time></trkpt><trkpt lat="44.947501838364786" lon="7.277032965700369"><ele>1045.0</ele><time>2026-04-19T09:42:48.002Z</time></trkpt><trkpt lat="44.94742748387438" lon="7.277058997904248"><ele>1045.0</ele><time>2026-04-19T09:42:50.002Z</time></trkpt><trkpt lat="44.9473880117365" lon="7.277160765479702"><ele>1045.0</ele><time>2026-04-19T09:42:53.002Z</time></trkpt><trkpt lat="44.94735476074824" lon="7.277252446034482"><ele>1040.7142857142858</ele><time>2026-04-19T09:42:56.002Z</time></trkpt><trkpt lat="44.94733832399763" lon="7.27734663198481"><ele>1036.4285714285713</ele><time>2026-04-19T09:42:59.002Z</time></trkpt><trkpt lat="44.94737165763095" lon="7.27746727103398"><ele>1032.142857142857</ele><time>2026-04-19T09:43:03.002Z</time></trkpt><trkpt lat="44.947379224064406" lon="7.277556227743326"><ele>1027.857142857143</ele><time>2026-04-19T09:43:05.002Z</time></trkpt><trkpt lat="44.947359940995085" lon="7.277643156238364"><ele>1023.5714285714286</ele><time>2026-04-19T09:43:07.002Z</time></trkpt><trkpt lat="44.94734229798829" lon="7.277735597956871"><ele>1019.2857142857142</ele><time>2026-04-19T09:43:09.002Z</time></trkpt><trkpt lat="44.947319377491716" lon="7.277837509856929"><ele>1015.0</ele><time>2026-04-19T09:43:11.002Z</time></trkpt><trkpt lat="44.947290510608816" lon="7.277935126802521"><ele>1014.9999999999999</ele><time>2026-04-19T09:43:13.002Z</time></trkpt><trkpt lat="44.94724933649001" lon="7.278035991362319"><ele>1015.0</ele><time>2026-04-19T09:43:15.002Z</time></trkpt><trkpt lat="44.94721430727465" lon="7.278153765873464"><ele>1015.0</ele><time>2026-04-19T09:43:17.002Z</time></trkpt><trkpt lat="44.947189930589154" lon="7.278299854667862"><ele>1015.0</ele><time>2026-04-19T09:43:19.002Z</time></trkpt><trkpt lat="44.9471731322953" lon="7.278435948569702"><ele>1014.9999999999999</ele><time>2026-04-19T09:43:21.002Z</time></trkpt><trkpt lat="44.94715483317032" lon="7.278522978897228"><ele>1015.0</ele><time>2026-04-19T09:43:22.002Z</time></trkpt><trkpt lat="44.94712365081048" lon="7.27860713281331"><ele>1012.6666666666666</ele><time>2026-04-19T09:43:23.002Z</time></trkpt><trkpt lat="44.94710327676137" lon="7.278707734790893"><ele>1010.3333333333333</ele><time>2026-04-19T09:43:24.003Z</time></trkpt><trkpt lat="44.94707962259348" lon="7.27882293196409"><ele>1008.0</ele><time>2026-04-19T09:43:25.003Z</time></trkpt><trkpt lat="44.94705130222924" lon="7.278936152213187"><ele>1005.6666666666667</ele><time>2026-04-19T09:43:25.999Z</time></trkpt><trkpt lat="44.947037691928855" lon="7.279078636003719"><ele>1003.3333333333334</ele><time>2026-04-19T09:43:27.999Z</time></trkpt><trkpt lat="44.94702697889925" lon="7.279217088551538"><ele>1001.0</ele><time>2026-04-19T09:43:29.999Z</time></trkpt><trkpt lat="44.94702087603315" lon="7.279322813541891"><ele>998.8571428571429</ele><time>2026-04-19T09:43:30.999Z</time></trkpt><trkpt lat="44.94703554796468" lon="7.279410032896522"><ele>996.7142857142858</ele><time>2026-04-19T09:43:31.999Z</time></trkpt><trkpt lat="44.94705578997737" lon="7.279574272810106"><ele>994.5714285714286</ele><time>2026-04-19T09:43:33.999Z</time></trkpt><trkpt lat="44.947057910419616" lon="7.279667029587258"><ele>992.4285714285714</ele><time>2026-04-19T09:43:34.999Z</time></trkpt><trkpt lat="44.9470601793262" lon="7.279760078940083"><ele>990.2857142857143</ele><time>2026-04-19T09:43:35.999Z</time></trkpt><trkpt lat="44.947052448613164" lon="7.27985591721121"><ele>988.1428571428571</ele><time>2026-04-19T09:43:36.999Z</time></trkpt><trkpt lat="44.94702942336309" lon="7.279944275750529"><ele>986.0</ele><time>2026-04-19T09:43:37.999Z</time></trkpt><trkpt lat="44.94699707806252" lon="7.28003634682674"><ele>984.3333333333334</ele><time>2026-04-19T09:43:38.999Z</time></trkpt><trkpt lat="44.946950881923534" lon="7.280128845769382"><ele>982.6666666666667</ele><time>2026-04-19T09:43:39.999Z</time></trkpt><trkpt lat="44.946912650790374" lon="7.280237525620166"><ele>981.0</ele><time>2026-04-19T09:43:40.999Z</time></trkpt><trkpt lat="44.94690802268526" lon="7.280354374959038"><ele>979.3333333333333</ele><time>2026-04-19T09:43:41.999Z</time></trkpt><trkpt lat="44.946930425124954" lon="7.280474909099663"><ele>977.6666666666666</ele><time>2026-04-19T09:43:42.999Z</time></trkpt><trkpt lat="44.946957835621724" lon="7.2805872490462"><ele>976.0</ele><time>2026-04-19T09:43:43.999Z</time></trkpt><trkpt lat="44.9469927891026" lon="7.280675627687907"><ele>976.0</ele><time>2026-04-19T09:43:44.999Z</time></trkpt><trkpt lat="44.946989013410835" lon="7.280796633693998"><ele>975.9999999999999</ele><time>2026-04-19T09:43:46.999Z</time></trkpt><trkpt lat="44.94695365370511" lon="7.2809168368858455"><ele>975.9999999999999</ele><time>2026-04-19T09:43:48.999Z</time></trkpt><trkpt lat="44.94686305733284" lon="7.280941679946497"><ele>976.0</ele><time>2026-04-19T09:44:22.001Z</time></trkpt><trkpt lat="44.946799705845784" lon="7.280913996173124"><ele>976.0</ele><time>2026-04-19T09:44:24.001Z</time></trkpt><trkpt lat="44.94675975560032" lon="7.280762262191257"><ele>976.0</ele><time>2026-04-19T09:44:26.001Z</time></trkpt><trkpt lat="44.9467912910861" lon="7.280658618752397"><ele>975.9999999999999</ele><time>2026-04-19T09:44:28.001Z</time></trkpt><trkpt lat="44.946749389184156" lon="7.280515773701989"><ele>975.9999999999999</ele><time>2026-04-19T09:44:30.001Z</time></trkpt><trkpt lat="44.946683161433896" lon="7.280405389772382"><ele>976.0</ele><time>2026-04-19T09:44:32.001Z</time></trkpt><trkpt lat="44.94662592005838" lon="7.280252088273022"><ele>976.0</ele><time>2026-04-19T09:44:34.001Z</time></trkpt><trkpt lat="44.946576928783095" lon="7.280186710381153"><ele>982.5999999999999</ele><time>2026-04-19T09:44:35.001Z</time></trkpt><trkpt lat="44.94652292259133" lon="7.280137610461423"><ele>989.1999999999999</ele><time>2026-04-19T09:44:36.001Z</time></trkpt><trkpt lat="44.94643719930553" lon="7.280008596348906"><ele>995.8000000000001</ele><time>2026-04-19T09:44:38.001Z</time></trkpt><trkpt lat="44.94634460258782" lon="7.27989608736536"><ele>1002.4000000000001</ele><time>2026-04-19T09:44:40.001Z</time></trkpt><trkpt lat="44.946238224211754" lon="7.2798702576450935"><ele>1009.0</ele><time>2026-04-19T09:44:42.001Z</time></trkpt><trkpt lat="44.9461503039021" lon="7.279885752611913"><ele>1008.9999999999999</ele><time>2026-04-19T09:44:43.001Z</time></trkpt><trkpt lat="44.946056019139455" lon="7.279915438326901"><ele>1009.0</ele><time>2026-04-19T09:44:44.001Z</time></trkpt><trkpt lat="44.945979916694675" lon="7.279894976421551"><ele>1009.0</ele><time>2026-04-19T09:44:45.001Z</time></trkpt><trkpt lat="44.94590640443936" lon="7.2798725212323765"><ele>1009.0</ele><time>2026-04-19T09:44:46.001Z</time></trkpt><trkpt lat="44.94580888380046" lon="7.279807664758341"><ele>1008.9999999999999</ele><time>2026-04-19T09:44:48.001Z</time></trkpt><trkpt lat="44.945749585449896" lon="7.279732791171439"><ele>1009.0</ele><time>2026-04-19T09:44:49.001Z</time></trkpt><trkpt lat="44.94569892718721" lon="7.279679150848012"><ele>1014.3333333333333</ele><time>2026-04-19T09:44:50.001Z</time></trkpt><trkpt lat="44.94565649093475" lon="7.279590187165801"><ele>1019.6666666666666</ele><time>2026-04-19T09:44:51.001Z</time></trkpt><trkpt lat="44.94558882167558" lon="7.279541990075864"><ele>1025.0</ele><time>2026-04-19T09:44:52.001Z</time></trkpt><trkpt lat="44.94551574705193" lon="7.279416281685983"><ele>1030.3333333333333</ele><time>2026-04-19T09:44:54.001Z</time></trkpt><trkpt lat="44.94543279227085" lon="7.279412498353717"><ele>1035.6666666666667</ele><time>2026-04-19T09:44:56.002Z</time></trkpt><trkpt lat="44.94536547741711" lon="7.279438748105304"><ele>1041.0</ele><time>2026-04-19T09:44:57.002Z</time></trkpt><trkpt lat="44.945314673480375" lon="7.2793845958587"><ele>1041.0</ele><time>2026-04-19T09:44:58.002Z</time></trkpt><trkpt lat="44.94532121954549" lon="7.279287863447104"><ele>1041.0</ele><time>2026-04-19T09:45:00.002Z</time></trkpt><trkpt lat="44.94543957078776" lon="7.279269667348437"><ele>1041.0</ele><time>2026-04-19T09:45:02.002Z</time></trkpt><trkpt lat="44.94551490318829" lon="7.279267831477324"><ele>1041.0</ele><time>2026-04-19T09:45:03.002Z</time></trkpt><trkpt lat="44.945512887146265" lon="7.279139115508161"><ele>1041.0</ele><time>2026-04-19T09:45:05.002Z</time></trkpt><trkpt lat="44.945402011079594" lon="7.2790910575778645"><ele>1041.0</ele><time>2026-04-19T09:45:07.002Z</time></trkpt><trkpt lat="44.945281721750085" lon="7.279062472485916"><ele>1041.0</ele><time>2026-04-19T09:45:09.002Z</time></trkpt><trkpt lat="44.94521534321262" lon="7.2790029870565665"><ele>1041.0</ele><time>2026-04-19T09:45:10.002Z</time></trkpt><trkpt lat="44.94514303751653" lon="7.278940153164355"><ele>1041.0</ele><time>2026-04-19T09:45:11.002Z</time></trkpt><trkpt lat="44.945072743199056" lon="7.278865607103181"><ele>1041.0</ele><time>2026-04-19T09:45:12.002Z</time></trkpt><trkpt lat="44.94500250693113" lon="7.278808197067633"><ele>1044.6666666666667</ele><time>2026-04-19T09:45:13.002Z</time></trkpt><trkpt lat="44.944924330906616" lon="7.278793070364083"><ele>1048.3333333333333</ele><time>2026-04-19T09:45:14.002Z</time></trkpt><trkpt lat="44.94482282020766" lon="7.278812490781949"><ele>1052.0</ele><time>2026-04-19T09:45:15.002Z</time></trkpt><trkpt lat="44.94472201700153" lon="7.278809575588334"><ele>1055.6666666666665</ele><time>2026-04-19T09:45:16.002Z</time></trkpt><trkpt lat="44.94464865634285" lon="7.278815425837523"><ele>1059.3333333333333</ele><time>2026-04-19T09:45:17.002Z</time></trkpt><trkpt lat="44.94456907216336" lon="7.278746533271214"><ele>1063.0</ele><time>2026-04-19T09:45:19.002Z</time></trkpt><trkpt lat="44.94446357047812" lon="7.278773615140524"><ele>1063.0</ele><time>2026-04-19T09:45:21.002Z</time></trkpt><trkpt lat="44.9443958511291" lon="7.27876527813163"><ele>1063.0</ele><time>2026-04-19T09:45:22.002Z</time></trkpt><trkpt lat="44.944294720450266" lon="7.278717227257626"><ele>1063.0</ele><time>2026-04-19T09:45:23.002Z</time></trkpt><trkpt lat="44.94421769547889" lon="7.278733489041646"><ele>1063.0</ele><time>2026-04-19T09:45:24.002Z</time></trkpt><trkpt lat="44.94413230154409" lon="7.278778968759378"><ele>1063.0</ele><time>2026-04-19T09:45:25.002Z</time></trkpt><trkpt lat="44.94404176652326" lon="7.278756999660671"><ele>1063.0</ele><time>2026-04-19T09:45:27.002Z</time></trkpt><trkpt lat="44.94394693407272" lon="7.278637709143565"><ele>1060.6</ele><time>2026-04-19T09:45:29.002Z</time></trkpt><trkpt lat="44.943899882444086" lon="7.278557279142634"><ele>1058.1999999999998</ele><time>2026-04-19T09:45:30.002Z</time></trkpt><trkpt lat="44.94385594759261" lon="7.278480813980023"><ele>1055.8</ele><time>2026-04-19T09:45:31.002Z</time></trkpt><trkpt lat="44.94381644706554" lon="7.2783184406278325"><ele>1053.3999999999999</ele><time>2026-04-19T09:45:32.999Z</time></trkpt><trkpt lat="44.943778615891866" lon="7.278200091914593"><ele>1051.0</ele><time>2026-04-19T09:45:34.999Z</time></trkpt><trkpt lat="44.94382333982876" lon="7.278039444131961"><ele>1051.0</ele><time>2026-04-19T09:45:36.999Z</time></trkpt><trkpt lat="44.94386671070487" lon="7.277927490192221"><ele>1051.0</ele><time>2026-04-19T09:45:37.999Z</time></trkpt><trkpt lat="44.94387706971648" lon="7.2778101017702586"><ele>1051.0</ele><time>2026-04-19T09:45:38.999Z</time></trkpt><trkpt lat="44.94390744608768" lon="7.277718366755818"><ele>1051.0</ele><time>2026-04-19T09:45:39.999Z</time></trkpt><trkpt lat="44.943920518569435" lon="7.27762407751196"><ele>1051.0</ele><time>2026-04-19T09:45:40.999Z</time></trkpt><trkpt lat="44.94388999874881" lon="7.277448362118467"><ele>1051.0</ele><time>2026-04-19T09:45:42.999Z</time></trkpt><trkpt lat="44.94384939726587" lon="7.2773369081611"><ele>1052.1666666666665</ele><time>2026-04-19T09:45:44.999Z</time></trkpt><trkpt lat="44.943878826099606" lon="7.277225190410365"><ele>1053.3333333333333</ele><time>2026-04-19T09:45:47.999Z</time></trkpt><trkpt lat="44.94390637412575" lon="7.27713069272391"><ele>1054.5</ele><time>2026-04-19T09:45:49.999Z</time></trkpt><trkpt lat="44.94385964198295" lon="7.2769944770370945"><ele>1055.6666666666667</ele><time>2026-04-19T09:45:52Z</time></trkpt><trkpt lat="44.943810661894204" lon="7.276914618749516"><ele>1056.8333333333335</ele><time>2026-04-19T09:45:54Z</time></trkpt><trkpt lat="44.94374983767115" lon="7.276869765462428"><ele>1058.0</ele><time>2026-04-19T09:45:56Z</time></trkpt><trkpt lat="44.94371689432389" lon="7.276741003704536"><ele>1058.0</ele><time>2026-04-19T09:45:58Z</time></trkpt><trkpt lat="44.94367142438223" lon="7.2766320782914145"><ele>1058.0</ele><time>2026-04-19T09:46:01Z</time></trkpt><trkpt lat="44.94360963997587" lon="7.276533934932255"><ele>1058.0</ele><time>2026-04-19T09:46:03Z</time></trkpt><trkpt lat="44.94354177367024" lon="7.276429091526684"><ele>1058.0</ele><time>2026-04-19T09:46:05Z</time></trkpt><trkpt lat="44.943488593731054" lon="7.2763343998962675"><ele>1058.0</ele><time>2026-04-19T09:46:07Z</time></trkpt><trkpt lat="44.94343834365197" lon="7.276262069378448"><ele>1058.0</ele><time>2026-04-19T09:46:10Z</time></trkpt><trkpt lat="44.94336541010796" lon="7.276205693446588"><ele>1054.0</ele><time>2026-04-19T09:46:13Z</time></trkpt><trkpt lat="44.94331588529067" lon="7.276114011111718"><ele>1050.0</ele><time>2026-04-19T09:46:15Z</time></trkpt><trkpt lat="44.94324731389349" lon="7.27602899120138"><ele>1046.0</ele><time>2026-04-19T09:46:18.001Z</time></trkpt><trkpt lat="44.943180077674555" lon="7.275980828594119"><ele>1042.0</ele><time>2026-04-19T09:46:21.001Z</time></trkpt><trkpt lat="44.94312553071302" lon="7.275892171762946"><ele>1038.0</ele><time>2026-04-19T09:46:23.001Z</time></trkpt><trkpt lat="44.94305044349342" lon="7.275932208798768"><ele>1034.0</ele><time>2026-04-19T09:46:25.001Z</time></trkpt><trkpt lat="44.94300312606041" lon="7.276019864258536"><ele>1034.0</ele><time>2026-04-19T09:46:28.001Z</time></trkpt><trkpt lat="44.94294642714751" lon="7.27610886242338"><ele>1034.0</ele><time>2026-04-19T09:46:30.001Z</time></trkpt><trkpt lat="44.94290317021756" lon="7.276214656963142"><ele>1034.0</ele><time>2026-04-19T09:46:32.001Z</time></trkpt><trkpt lat="44.94285141615337" lon="7.276338696412747"><ele>1034.0</ele><time>2026-04-19T09:46:35.001Z</time></trkpt><trkpt lat="44.94279650596446" lon="7.276445040858433"><ele>1034.0</ele><time>2026-04-19T09:46:37.001Z</time></trkpt><trkpt lat="44.94273128853423" lon="7.276553057303948"><ele>1031.1666666666667</ele><time>2026-04-19T09:46:39.001Z</time></trkpt><trkpt lat="44.94269918459575" lon="7.2766621320759475"><ele>1028.3333333333335</ele><time>2026-04-19T09:46:41.001Z</time></trkpt><trkpt lat="44.94265424897446" lon="7.2767309463814165"><ele>1025.5</ele><time>2026-04-19T09:46:43.001Z</time></trkpt><trkpt lat="44.94254227989236" lon="7.276788116030057"><ele>1022.6666666666667</ele><time>2026-04-19T09:46:45.001Z</time></trkpt><trkpt lat="44.94247026066727" lon="7.276827446538939"><ele>1019.8333333333334</ele><time>2026-04-19T09:46:46.001Z</time></trkpt><trkpt lat="44.94239367533504" lon="7.276872495242065"><ele>1017.0</ele><time>2026-04-19T09:46:47.001Z</time></trkpt><trkpt lat="44.942282105222695" lon="7.276931067800225"><ele>1014.8</ele><time>2026-04-19T09:46:49.001Z</time></trkpt><trkpt lat="44.942192305270424" lon="7.276932837717262"><ele>1012.6</ele><time>2026-04-19T09:46:51.002Z</time></trkpt><trkpt lat="44.942078607246486" lon="7.276983819276956"><ele>1010.3999999999999</ele><time>2026-04-19T09:46:53.002Z</time></trkpt><trkpt lat="44.941968349383565" lon="7.276958362071397"><ele>1008.1999999999999</ele><time>2026-04-19T09:46:55.002Z</time></trkpt><trkpt lat="44.94190457088668" lon="7.276935028805337"><ele>1006.0</ele><time>2026-04-19T09:46:56.002Z</time></trkpt><trkpt lat="44.94183224265651" lon="7.276957321791587"><ele>1006.0</ele><time>2026-04-19T09:46:57.002Z</time></trkpt><trkpt lat="44.9417488310265" lon="7.276992109904012"><ele>1005.9999999999999</ele><time>2026-04-19T09:46:58.002Z</time></trkpt><trkpt lat="44.94165649309692" lon="7.277029335639921"><ele>1005.9999999999999</ele><time>2026-04-19T09:47:00.002Z</time></trkpt><trkpt lat="44.94155694954944" lon="7.277109326423625"><ele>1006.0</ele><time>2026-04-19T09:47:02.002Z</time></trkpt><trkpt lat="44.9414721906416" lon="7.27716272913109"><ele>1006.0</ele><time>2026-04-19T09:47:03.002Z</time></trkpt><trkpt lat="44.941376195504596" lon="7.277199683390599"><ele>1007.1999999999999</ele><time>2026-04-19T09:47:09.002Z</time></trkpt><trkpt lat="44.94125264157664" lon="7.277267246945576"><ele>1008.3999999999999</ele><time>2026-04-19T09:47:11.002Z</time></trkpt><trkpt lat="44.94118598249913" lon="7.277299074308121"><ele>1009.6</ele><time>2026-04-19T09:47:12.002Z</time></trkpt><trkpt lat="44.941128822419245" lon="7.277381441146024"><ele>1010.8</ele><time>2026-04-19T09:47:14.002Z</time></trkpt><trkpt lat="44.941030785017595" lon="7.277368004443103"><ele>1012.0</ele><time>2026-04-19T09:47:16.002Z</time></trkpt><trkpt lat="44.94095236106189" lon="7.277304136378489"><ele>1012.0000000000001</ele><time>2026-04-19T09:47:17.002Z</time></trkpt><trkpt lat="44.94088829899427" lon="7.277245975130475"><ele>1012.0</ele><time>2026-04-19T09:47:18.002Z</time></trkpt><trkpt lat="44.940835923964045" lon="7.27716733494461"><ele>1012.0000000000001</ele><time>2026-04-19T09:47:19.002Z</time></trkpt><trkpt lat="44.94076690878146" lon="7.277117970666378"><ele>1012.0000000000001</ele><time>2026-04-19T09:47:20.002Z</time></trkpt><trkpt lat="44.94068544409539" lon="7.277091758675056"><ele>1012.0</ele><time>2026-04-19T09:47:21.002Z</time></trkpt><trkpt lat="44.94062226587125" lon="7.2770815515512215"><ele>1012.0000000000001</ele><time>2026-04-19T09:47:22.002Z</time></trkpt><trkpt lat="44.940557634692816" lon="7.277085325136284"><ele>1012.0000000000001</ele><time>2026-04-19T09:47:23.003Z</time></trkpt><trkpt lat="44.94050823176905" lon="7.2771455829233345"><ele>1012.7142857142858</ele><time>2026-04-19T09:47:25.003Z</time></trkpt><trkpt lat="44.940477976348944" lon="7.277226322789975"><ele>1013.4285714285714</ele><time>2026-04-19T09:47:27.003Z</time></trkpt><trkpt lat="44.94044041162428" lon="7.277303988828249"><ele>1014.1428571428571</ele><time>2026-04-19T09:47:28.003Z</time></trkpt><trkpt lat="44.94042905981922" lon="7.277406247958849"><ele>1014.8571428571429</ele><time>2026-04-19T09:47:29.003Z</time></trkpt><trkpt lat="44.94038237774746" lon="7.277480425617972"><ele>1015.5714285714284</ele><time>2026-04-19T09:47:30.003Z</time></trkpt><trkpt lat="44.94032813210764" lon="7.27756314423322"><ele>1016.2857142857142</ele><time>2026-04-19T09:47:31.003Z</time></trkpt><trkpt lat="44.94028355826811" lon="7.2776414608332045"><ele>1017.0</ele><time>2026-04-19T09:47:32.003Z</time></trkpt><trkpt lat="44.94024863801474" lon="7.277722170189171"><ele>1013.0</ele><time>2026-04-19T09:47:33.003Z</time></trkpt><trkpt lat="44.94019819169535" lon="7.277776784458548"><ele>1009.0</ele><time>2026-04-19T09:47:34.003Z</time></trkpt><trkpt lat="44.94008235369923" lon="7.27779075561575"><ele>1005.0</ele><time>2026-04-19T09:47:36.003Z</time></trkpt><trkpt lat="44.939986256617715" lon="7.2777774325061095"><ele>1001.0</ele><time>2026-04-19T09:47:37.003Z</time></trkpt><trkpt lat="44.93988166265842" lon="7.277770870840165"><ele>997.0</ele><time>2026-04-19T09:47:37.999Z</time></trkpt><trkpt lat="44.93978909172846" lon="7.2777592735849375"><ele>997.0</ele><time>2026-04-19T09:47:38.999Z</time></trkpt><trkpt lat="44.939710422259665" lon="7.277749614278889"><ele>997.0</ele><time>2026-04-19T09:47:39.999Z</time></trkpt><trkpt lat="44.9396321080709" lon="7.277699057057545"><ele>997.0</ele><time>2026-04-19T09:47:40.999Z</time></trkpt><trkpt lat="44.9394946146811" lon="7.27766729450313"><ele>997.0</ele><time>2026-04-19T09:47:42.999Z</time></trkpt><trkpt lat="44.93943579798027" lon="7.27762694317533"><ele>997.0</ele><time>2026-04-19T09:47:43.999Z</time></trkpt><trkpt lat="44.93932893991256" lon="7.277614817392401"><ele>997.0</ele><time>2026-04-19T09:47:45.999Z</time></trkpt><trkpt lat="44.93925494241415" lon="7.277668000696552"><ele>997.0</ele><time>2026-04-19T09:47:46.999Z</time></trkpt><trkpt lat="44.9391687671327" lon="7.277738056768115"><ele>997.0</ele><time>2026-04-19T09:47:47.999Z</time></trkpt><trkpt lat="44.93907805468977" lon="7.2778054034739235"><ele>997.0</ele><time>2026-04-19T09:47:49.999Z</time></trkpt><trkpt lat="44.93905727054769" lon="7.277945932971186"><ele>997.0</ele><time>2026-04-19T09:47:51.999Z</time></trkpt><trkpt lat="44.93901202995349" lon="7.278012209229952"><ele>991.2</ele><time>2026-04-19T09:47:55Z</time></trkpt><trkpt lat="44.93894066328436" lon="7.27810697905841"><ele>985.4000000000001</ele><time>2026-04-19T09:47:59Z</time></trkpt><trkpt lat="44.93891312974268" lon="7.278220555941544"><ele>979.5999999999999</ele><time>2026-04-19T09:48:01Z</time></trkpt><trkpt lat="44.93888136582005" lon="7.2783369513987966"><ele>973.8</ele><time>2026-04-19T09:48:03Z</time></trkpt><trkpt lat="44.938824065699926" lon="7.2784636350945835"><ele>968.0</ele><time>2026-04-19T09:48:10Z</time></trkpt><trkpt lat="44.938742457876984" lon="7.27852707813338"><ele>968.0000000000001</ele><time>2026-04-19T09:48:11Z</time></trkpt><trkpt lat="44.93867156376381" lon="7.278591472537111"><ele>968.0</ele><time>2026-04-19T09:48:12Z</time></trkpt><trkpt lat="44.93861151288268" lon="7.27868051379401"><ele>968.0</ele><time>2026-04-19T09:48:13Z</time></trkpt><trkpt lat="44.93859793541101" lon="7.278784971532489"><ele>968.0</ele><time>2026-04-19T09:48:15Z</time></trkpt><trkpt lat="44.93859369082755" lon="7.278886884573442"><ele>968.0000000000001</ele><time>2026-04-19T09:48:18Z</time></trkpt><trkpt lat="44.938572481265645" lon="7.278982788942624"><ele>968.0</ele><time>2026-04-19T09:48:19.001Z</time></trkpt><trkpt lat="44.938483314165744" lon="7.279107113024905"><ele>966.0</ele><time>2026-04-19T09:48:20.001Z</time></trkpt><trkpt lat="44.938407165333594" lon="7.279207496313538"><ele>964.0</ele><time>2026-04-19T09:48:21.001Z</time></trkpt><trkpt lat="44.93834708208736" lon="7.279277435426905"><ele>962.0</ele><time>2026-04-19T09:48:22.001Z</time></trkpt><trkpt lat="44.93828319542076" lon="7.279358974882534"><ele>960.0</ele><time>2026-04-19T09:48:23.001Z</time></trkpt><trkpt lat="44.938168834381756" lon="7.27941006086008"><ele>958.0</ele><time>2026-04-19T09:48:25.001Z</time></trkpt><trkpt lat="44.938083473986815" lon="7.279390536178011"><ele>962.9999999999999</ele><time>2026-04-19T09:48:26.001Z</time></trkpt><trkpt lat="44.938014028487856" lon="7.279367725798925"><ele>968.0</ele><time>2026-04-19T09:48:27.001Z</time></trkpt><trkpt lat="44.937941745846345" lon="7.27930878072793"><ele>973.0</ele><time>2026-04-19T09:48:28.001Z</time></trkpt><trkpt lat="44.937816373827665" lon="7.279276900266006"><ele>978.0</ele><time>2026-04-19T09:48:30.001Z</time></trkpt><trkpt lat="44.93775215263566" lon="7.279321944146347"><ele>982.9999999999999</ele><time>2026-04-19T09:48:31.001Z</time></trkpt><trkpt lat="44.93768168000883" lon="7.279400096943547"><ele>988.0</ele><time>2026-04-19T09:48:32.001Z</time></trkpt><trkpt lat="44.93757163263531" lon="7.279393110957964"><ele>988.0</ele><time>2026-04-19T09:48:34.001Z</time></trkpt><trkpt lat="44.93752956640169" lon="7.279233951552962"><ele>988.0</ele><time>2026-04-19T09:48:36.001Z</time></trkpt><trkpt lat="44.937573137960804" lon="7.279155906296204"><ele>988.0</ele><time>2026-04-19T09:48:37.001Z</time></trkpt><trkpt lat="44.93762367960942" lon="7.2790729217250485"><ele>988.0</ele><time>2026-04-19T09:48:38.001Z</time></trkpt><trkpt lat="44.93761116482394" lon="7.278895926108055"><ele>988.0</ele><time>2026-04-19T09:48:40.001Z</time></trkpt><trkpt lat="44.937581342423414" lon="7.278784459668647"><ele>990.2</ele><time>2026-04-19T09:48:41.001Z</time></trkpt><trkpt lat="44.93753417686285" lon="7.278690219867369"><ele>992.4</ele><time>2026-04-19T09:48:42.001Z</time></trkpt><trkpt lat="44.93747708970111" lon="7.278525412014888"><ele>994.6000000000001</ele><time>2026-04-19T09:48:44.001Z</time></trkpt><trkpt lat="44.93746413714958" lon="7.278399254973203"><ele>996.8000000000001</ele><time>2026-04-19T09:48:45.001Z</time></trkpt><trkpt lat="44.93745783992186" lon="7.27826011789543"><ele>999.0</ele><time>2026-04-19T09:48:46.001Z</time></trkpt><trkpt lat="44.937459626311224" lon="7.278161806815253"><ele>1001.6</ele><time>2026-04-19T09:48:48.001Z</time></trkpt><trkpt lat="44.93742963638307" lon="7.278058673372894"><ele>1004.2</ele><time>2026-04-19T09:48:50.001Z</time></trkpt><trkpt lat="44.93737150461882" lon="7.27792117083687"><ele>1006.8000000000001</ele><time>2026-04-19T09:48:52.002Z</time></trkpt><trkpt lat="44.93729874257851" lon="7.27781110305396"><ele>1009.4000000000001</ele><time>2026-04-19T09:48:54.002Z</time></trkpt><trkpt lat="44.93724679534986" lon="7.277636910327894"><ele>1012.0</ele><time>2026-04-19T09:48:56.002Z</time></trkpt><trkpt lat="44.93721500092229" lon="7.277516370064428"><ele>1011.9999999999999</ele><time>2026-04-19T09:48:57.002Z</time></trkpt><trkpt lat="44.937166276066236" lon="7.277414961557885"><ele>1012.0</ele><time>2026-04-19T09:48:58.002Z</time></trkpt><trkpt lat="44.9371099802129" lon="7.277318023606535"><ele>1012.0</ele><time>2026-04-19T09:48:59.002Z</time></trkpt><trkpt lat="44.93705209018391" lon="7.277244615225544"><ele>1012.0</ele><time>2026-04-19T09:49:00.002Z</time></trkpt><trkpt lat="44.9369986523651" lon="7.277192374479447"><ele>1011.9999999999999</ele><time>2026-04-19T09:49:01.002Z</time></trkpt><trkpt lat="44.93693237892396" lon="7.277153961195213"><ele>1012.0</ele><time>2026-04-19T09:49:02.002Z</time></trkpt><trkpt lat="44.93685865198096" lon="7.277105852222608"><ele>1011.4000000000001</ele><time>2026-04-19T09:49:03.002Z</time></trkpt><trkpt lat="44.936788276106974" lon="7.277053485951132"><ele>1010.8000000000001</ele><time>2026-04-19T09:49:05.002Z</time></trkpt><trkpt lat="44.936710509453356" lon="7.276988950019172"><ele>1010.2</ele><time>2026-04-19T09:49:08.002Z</time></trkpt><trkpt lat="44.936642764450994" lon="7.276908137382129"><ele>1009.6</ele><time>2026-04-19T09:49:09.002Z</time></trkpt><trkpt lat="44.9365788336274" lon="7.276802375031166"><ele>1009.0</ele><time>2026-04-19T09:49:10.002Z</time></trkpt><trkpt lat="44.936504490981555" lon="7.2767049074198"><ele>1008.9999999999999</ele><time>2026-04-19T09:49:11.002Z</time></trkpt><trkpt lat="44.93643412039668" lon="7.276626055650194"><ele>1009.0</ele><time>2026-04-19T09:49:12.002Z</time></trkpt><trkpt lat="44.93636667195124" lon="7.276518990611645"><ele>1009.0</ele><time>2026-04-19T09:49:13.002Z</time></trkpt><trkpt lat="44.93631423225681" lon="7.276400542385517"><ele>1009.0</ele><time>2026-04-19T09:49:14.002Z</time></trkpt><trkpt lat="44.93629040161208" lon="7.276289399101554"><ele>1008.9999999999999</ele><time>2026-04-19T09:49:15.002Z</time></trkpt><trkpt lat="44.93627512323397" lon="7.2761904005696225"><ele>1009.0</ele><time>2026-04-19T09:49:16.002Z</time></trkpt><trkpt lat="44.93624341441518" lon="7.276085858366875"><ele>1011.6666666666666</ele><time>2026-04-19T09:49:17.002Z</time></trkpt><trkpt lat="44.9362285946244" lon="7.275959117457513"><ele>1014.3333333333333</ele><time>2026-04-19T09:49:18.002Z</time></trkpt><trkpt lat="44.93619605235271" lon="7.275805089857554"><ele>1017.0</ele><time>2026-04-19T09:49:19.002Z</time></trkpt><trkpt lat="44.93618642174349" lon="7.275708340074146"><ele>1019.6666666666667</ele><time>2026-04-19T09:49:20.002Z</time></trkpt><trkpt lat="44.936198823235" lon="7.275582003265713"><ele>1022.3333333333334</ele><time>2026-04-19T09:49:21.002Z</time></trkpt><trkpt lat="44.93622016768333" lon="7.275467992442423"><ele>1025.0</ele><time>2026-04-19T09:49:22.002Z</time></trkpt><trkpt lat="44.936211530527665" lon="7.275329772283361"><ele>1025.0</ele><time>2026-04-19T09:49:23.003Z</time></trkpt><trkpt lat="44.93619471936589" lon="7.275217372408859"><ele>1025.0</ele><time>2026-04-19T09:49:25.003Z</time></trkpt><trkpt lat="44.93627494908029" lon="7.2752360507485445"><ele>1025.0</ele><time>2026-04-19T09:49:27.003Z</time></trkpt><trkpt lat="44.93631844531523" lon="7.275327272780866"><ele>1025.0</ele><time>2026-04-19T09:49:28.003Z</time></trkpt><trkpt lat="44.93634253978269" lon="7.275451725418852"><ele>1025.0</ele><time>2026-04-19T09:49:29.003Z</time></trkpt><trkpt lat="44.936387154662455" lon="7.275582067981518"><ele>1025.0</ele><time>2026-04-19T09:49:30.003Z</time></trkpt><trkpt lat="44.93642342600794" lon="7.275691127063924"><ele>1025.0</ele><time>2026-04-19T09:49:31.003Z</time></trkpt><trkpt lat="44.93649374540114" lon="7.275686417906228"><ele>1025.0</ele><time>2026-04-19T09:49:33.003Z</time></trkpt><trkpt lat="44.936491036059316" lon="7.275535422130133"><ele>1025.0</ele><time>2026-04-19T09:49:35.003Z</time></trkpt><trkpt lat="44.9364603518252" lon="7.275396984456789"><ele>1025.0</ele><time>2026-04-19T09:49:36.003Z</time></trkpt><trkpt lat="44.93644672374343" lon="7.27530780154592"><ele>1025.0</ele><time>2026-04-19T09:49:37.003Z</time></trkpt><trkpt lat="44.93644433722092" lon="7.275218739411856"><ele>1025.0</ele><time>2026-04-19T09:49:38.003Z</time></trkpt><trkpt lat="44.93644793144827" lon="7.275121617621234"><ele>1028.2</ele><time>2026-04-19T09:49:39.003Z</time></trkpt><trkpt lat="44.93646490220218" lon="7.274987153744735"><ele>1031.4</ele><time>2026-04-19T09:49:40.003Z</time></trkpt><trkpt lat="44.936445301275604" lon="7.274849279670656"><ele>1034.6</ele><time>2026-04-19T09:49:41.003Z</time></trkpt><trkpt lat="44.93642897608972" lon="7.274735039911813"><ele>1037.8</ele><time>2026-04-19T09:49:42.003Z</time></trkpt><trkpt lat="44.93639914812282" lon="7.2746073614407125"><ele>1041.0</ele><time>2026-04-19T09:49:43.003Z</time></trkpt><trkpt lat="44.93637867897695" lon="7.274503960666626"><ele>1045.3999999999999</ele><time>2026-04-19T09:49:44Z</time></trkpt><trkpt lat="44.93636141449328" lon="7.27438833315108"><ele>1049.8</ele><time>2026-04-19T09:49:45Z</time></trkpt><trkpt lat="44.93627646910362" lon="7.2743233916303"><ele>1054.1999999999998</ele><time>2026-04-19T09:49:47Z</time></trkpt><trkpt lat="44.936182478591334" lon="7.27434111470183"><ele>1058.6</ele><time>2026-04-19T09:49:48Z</time></trkpt><trkpt lat="44.93609336670757" lon="7.274357609970668"><ele>1063.0</ele><time>2026-04-19T09:49:49Z</time></trkpt><trkpt lat="44.93601119794671" lon="7.274395387847111"><ele>1063.0</ele><time>2026-04-19T09:49:50Z</time></trkpt><trkpt lat="44.93593929401895" lon="7.27441650648617"><ele>1063.0</ele><time>2026-04-19T09:49:51Z</time></trkpt><trkpt lat="44.93579767404286" lon="7.274339772191598"><ele>1063.0</ele><time>2026-04-19T09:49:53Z</time></trkpt><trkpt lat="44.93570229790727" lon="7.274280350102499"><ele>1063.0</ele><time>2026-04-19T09:49:54Z</time></trkpt><trkpt lat="44.93559748408628" lon="7.27424640798023"><ele>1063.0</ele><time>2026-04-19T09:49:55Z</time></trkpt><trkpt lat="44.93549527713825" lon="7.274219192518907"><ele>1060.0</ele><time>2026-04-19T09:49:56Z</time></trkpt><trkpt lat="44.93538708040225" lon="7.274233643165849"><ele>1057.0</ele><time>2026-04-19T09:49:57Z</time></trkpt><trkpt lat="44.93526325073966" lon="7.274175043684457"><ele>1054.0</ele><time>2026-04-19T09:49:58Z</time></trkpt><trkpt lat="44.935156946201374" lon="7.2741521388253"><ele>1051.0</ele><time>2026-04-19T09:49:59Z</time></trkpt><trkpt lat="44.93505221510641" lon="7.274115252249022"><ele>1050.6</ele><time>2026-04-19T09:50:00Z</time></trkpt><trkpt lat="44.93495759148063" lon="7.274051245593493"><ele>1050.1999999999998</ele><time>2026-04-19T09:50:01Z</time></trkpt><trkpt lat="44.934860495136796" lon="7.273992746161131"><ele>1049.8000000000002</ele><time>2026-04-19T09:50:02Z</time></trkpt><trkpt lat="44.93471936638158" lon="7.273973173554244"><ele>1049.4</ele><time>2026-04-19T09:50:03Z</time></trkpt><trkpt lat="44.9346428554894" lon="7.273987297632956"><ele>1049.0</ele><time>2026-04-19T09:50:04Z</time></trkpt><trkpt lat="44.93455150311957" lon="7.274011462016708"><ele>1049.0</ele><time>2026-04-19T09:50:05Z</time></trkpt><trkpt lat="44.93445543166739" lon="7.27401342510678"><ele>1049.0</ele><time>2026-04-19T09:50:06Z</time></trkpt><trkpt lat="44.93437185059245" lon="7.274002966495127"><ele>1049.0</ele><time>2026-04-19T09:50:07Z</time></trkpt><trkpt lat="44.93428212126771" lon="7.274011518863496"><ele>1049.0</ele><time>2026-04-19T09:50:08Z</time></trkpt><trkpt lat="44.93418071470678" lon="7.2740097012275555"><ele>1049.0</ele><time>2026-04-19T09:50:09Z</time></trkpt><trkpt lat="44.93408541130559" lon="7.274006014441536"><ele>1050.1666666666667</ele><time>2026-04-19T09:50:10Z</time></trkpt><trkpt lat="44.934000148803946" lon="7.2740172181631895"><ele>1051.3333333333335</ele><time>2026-04-19T09:50:11Z</time></trkpt><trkpt lat="44.93393199339149" lon="7.274014153354631"><ele>1052.5</ele><time>2026-04-19T09:50:13Z</time></trkpt><trkpt lat="44.933824167916576" lon="7.274047130724662"><ele>1053.6666666666667</ele><time>2026-04-19T09:50:15.001Z</time></trkpt><trkpt lat="44.933762452835666" lon="7.274093343061294"><ele>1054.8333333333333</ele><time>2026-04-19T09:50:16.001Z</time></trkpt><trkpt lat="44.933706585925904" lon="7.274175000852508"><ele>1056.0</ele><time>2026-04-19T09:50:17.001Z</time></trkpt><trkpt lat="44.933620520976824" lon="7.2742280325104565"><ele>1056.0</ele><time>2026-04-19T09:50:18.001Z</time></trkpt><trkpt lat="44.93353174636339" lon="7.274265923964447"><ele>1056.0</ele><time>2026-04-19T09:50:19.001Z</time></trkpt><trkpt lat="44.93344751825199" lon="7.2743228049482145"><ele>1056.0</ele><time>2026-04-19T09:50:20.001Z</time></trkpt><trkpt lat="44.9333404444145" lon="7.274403408363328"><ele>1056.0</ele><time>2026-04-19T09:50:21.001Z</time></trkpt><trkpt lat="44.93325110464581" lon="7.274457483133098"><ele>1056.0</ele><time>2026-04-19T09:50:22.001Z</time></trkpt><trkpt lat="44.9331589431613" lon="7.274476773101093"><ele>1057.2</ele><time>2026-04-19T09:50:23.001Z</time></trkpt><trkpt lat="44.93307594645932" lon="7.274500841267917"><ele>1058.3999999999999</ele><time>2026-04-19T09:50:24.001Z</time></trkpt><trkpt lat="44.932992248895594" lon="7.27452304490421"><ele>1059.6</ele><time>2026-04-19T09:50:25.001Z</time></trkpt><trkpt lat="44.93290991907141" lon="7.27453736404659"><ele>1060.8</ele><time>2026-04-19T09:50:26.001Z</time></trkpt><trkpt lat="44.93282881223982" lon="7.274497675113647"><ele>1062.0</ele><time>2026-04-19T09:50:27.001Z</time></trkpt><trkpt lat="44.932725070345775" lon="7.274422990566069"><ele>1062.0</ele><time>2026-04-19T09:50:29.001Z</time></trkpt><trkpt lat="44.93266203649959" lon="7.274329043006545"><ele>1062.0</ele><time>2026-04-19T09:50:30.001Z</time></trkpt><trkpt lat="44.93259082543599" lon="7.27422026274262"><ele>1062.0</ele><time>2026-04-19T09:50:31.001Z</time></trkpt><trkpt lat="44.9325487198023" lon="7.274073834926722"><ele>1062.0</ele><time>2026-04-19T09:50:32.001Z</time></trkpt><trkpt lat="44.93249871478" lon="7.273967272955467"><ele>1062.0</ele><time>2026-04-19T09:50:33.001Z</time></trkpt><trkpt lat="44.93245948201272" lon="7.273878151917626"><ele>1060.6</ele><time>2026-04-19T09:50:34.001Z</time></trkpt><trkpt lat="44.932404495760075" lon="7.2737650353802765"><ele>1059.2</ele><time>2026-04-19T09:50:35.001Z</time></trkpt><trkpt lat="44.932357400425225" lon="7.2736796892266415"><ele>1057.8</ele><time>2026-04-19T09:50:36.001Z</time></trkpt><trkpt lat="44.93231451264945" lon="7.273607155139312"><ele>1056.4</ele><time>2026-04-19T09:50:37.001Z</time></trkpt><trkpt lat="44.93218770433816" lon="7.273649075195921"><ele>1055.0</ele><time>2026-04-19T09:50:39.001Z</time></trkpt><trkpt lat="44.93213402802356" lon="7.273744530241673"><ele>1055.0</ele><time>2026-04-19T09:50:40.001Z</time></trkpt><trkpt lat="44.93207477430887" lon="7.273863658012073"><ele>1055.0</ele><time>2026-04-19T09:50:41.001Z</time></trkpt><trkpt lat="44.931993283555535" lon="7.273978663114805"><ele>1055.0</ele><time>2026-04-19T09:50:42.001Z</time></trkpt><trkpt lat="44.93191019296337" lon="7.274025314388202"><ele>1055.0</ele><time>2026-04-19T09:50:43.001Z</time></trkpt><trkpt lat="44.931831036981016" lon="7.27409177908984"><ele>1055.0</ele><time>2026-04-19T09:50:44.001Z</time></trkpt><trkpt lat="44.93174326548292" lon="7.274161288217636"><ele>1051.4</ele><time>2026-04-19T09:50:45.001Z</time></trkpt><trkpt lat="44.93164887100877" lon="7.274250278935081"><ele>1047.8</ele><time>2026-04-19T09:50:46.001Z</time></trkpt><trkpt lat="44.93158011949951" lon="7.274326469351701"><ele>1044.2</ele><time>2026-04-19T09:50:47.002Z</time></trkpt><trkpt lat="44.93151101523714" lon="7.274418842298166"><ele>1040.6</ele><time>2026-04-19T09:50:48.002Z</time></trkpt><trkpt lat="44.93144747316583" lon="7.2745420642808005"><ele>1037.0</ele><time>2026-04-19T09:50:49.002Z</time></trkpt><trkpt lat="44.93139077090091" lon="7.274644427763906"><ele>1037.0</ele><time>2026-04-19T09:50:50.002Z</time></trkpt><trkpt lat="44.931343856423936" lon="7.274747908567111"><ele>1037.0</ele><time>2026-04-19T09:50:51.002Z</time></trkpt><trkpt lat="44.93127827529155" lon="7.274801561538071"><ele>1037.0</ele><time>2026-04-19T09:50:52.002Z</time></trkpt><trkpt lat="44.9312104400371" lon="7.274818803271587"><ele>1037.0</ele><time>2026-04-19T09:50:53.002Z</time></trkpt><trkpt lat="44.9311212907581" lon="7.2748092361266465"><ele>1037.0</ele><time>2026-04-19T09:50:54.002Z</time></trkpt><trkpt lat="44.93101812670396" lon="7.274766796780582"><ele>1037.0</ele><time>2026-04-19T09:50:55.002Z</time></trkpt><trkpt lat="44.93092969613898" lon="7.2747161709190555"><ele>1033.0</ele><time>2026-04-19T09:50:56.002Z</time></trkpt><trkpt lat="44.930826619538074" lon="7.274699588781296"><ele>1029.0</ele><time>2026-04-19T09:50:57.002Z</time></trkpt><trkpt lat="44.93071785957674" lon="7.274721972520226"><ele>1025.0</ele><time>2026-04-19T09:50:58.002Z</time></trkpt><trkpt lat="44.93058952894827" lon="7.274768647940015"><ele>1021.0</ele><time>2026-04-19T09:50:59.002Z</time></trkpt><trkpt lat="44.930456548765264" lon="7.274805668630674"><ele>1020.5</ele><time>2026-04-19T09:51:00.002Z</time></trkpt><trkpt lat="44.93032432096718" lon="7.274836421511746"><ele>1020.0</ele><time>2026-04-19T09:51:01.002Z</time></trkpt><trkpt lat="44.9302075469673" lon="7.274894356971043"><ele>1019.5</ele><time>2026-04-19T09:51:02.002Z</time></trkpt><trkpt lat="44.93010387760527" lon="7.274952734077011"><ele>1019.0</ele><time>2026-04-19T09:51:03.002Z</time></trkpt><trkpt lat="44.930010639441036" lon="7.274992711930385"><ele>1019.0000000000001</ele><time>2026-04-19T09:51:04.002Z</time></trkpt><trkpt lat="44.92992714408498" lon="7.2749833147504175"><ele>1019.0</ele><time>2026-04-19T09:51:05.002Z</time></trkpt><trkpt lat="44.92985051329695" lon="7.274925882327738"><ele>1019.0</ele><time>2026-04-19T09:51:06.002Z</time></trkpt><trkpt lat="44.92978851071345" lon="7.274841428220909"><ele>1019.0</ele><time>2026-04-19T09:51:07.002Z</time></trkpt><trkpt lat="44.92972893084761" lon="7.274764533394814"><ele>1019.0000000000001</ele><time>2026-04-19T09:51:08.002Z</time></trkpt><trkpt lat="44.92965619924906" lon="7.274703362939736"><ele>1019.0</ele><time>2026-04-19T09:51:09.002Z</time></trkpt><trkpt lat="44.929589747136966" lon="7.274624368578824"><ele>1019.0000000000001</ele><time>2026-04-19T09:51:10.002Z</time></trkpt><trkpt lat="44.929505807125324" lon="7.274535763157166"><ele>1019.0</ele><time>2026-04-19T09:51:11.002Z</time></trkpt><trkpt lat="44.92943748436676" lon="7.2744594140437995"><ele>1019.0</ele><time>2026-04-19T09:51:12.002Z</time></trkpt><trkpt lat="44.92937042140674" lon="7.274376806696092"><ele>1019.0</ele><time>2026-04-19T09:51:13.002Z</time></trkpt><trkpt lat="44.92929640223484" lon="7.274316380719047"><ele>1019.0000000000001</ele><time>2026-04-19T09:51:14.002Z</time></trkpt><trkpt lat="44.929243597194876" lon="7.274258819475701"><ele>1019.0</ele><time>2026-04-19T09:51:15.002Z</time></trkpt><trkpt lat="44.92921120150994" lon="7.274140661473457"><ele>1021.0</ele><time>2026-04-19T09:51:36.003Z</time></trkpt><trkpt lat="44.92914487380727" lon="7.274065215595209"><ele>1023.0000000000001</ele><time>2026-04-19T09:51:37.003Z</time></trkpt><trkpt lat="44.92905776996552" lon="7.274011481991821"><ele>1025.0</ele><time>2026-04-19T09:51:38.003Z</time></trkpt><trkpt lat="44.9289661212334" lon="7.273974501190569"><ele>1027.0</ele><time>2026-04-19T09:51:39.003Z</time></trkpt><trkpt lat="44.92886913566502" lon="7.27395357856754"><ele>1029.0</ele><time>2026-04-19T09:51:40.003Z</time></trkpt><trkpt lat="44.92876629242112" lon="7.2739575656610285"><ele>1029.0</ele><time>2026-04-19T09:51:41.003Z</time></trkpt><trkpt lat="44.92870215439074" lon="7.274006067863141"><ele>1029.0</ele><time>2026-04-19T09:51:42.003Z</time></trkpt><trkpt lat="44.928647043041934" lon="7.274093665112333"><ele>1029.0</ele><time>2026-04-19T09:51:43.003Z</time></trkpt><trkpt lat="44.92857219367965" lon="7.274204227810224"><ele>1029.0</ele><time>2026-04-19T09:51:44.003Z</time></trkpt><trkpt lat="44.928497705290035" lon="7.274314952746812"><ele>1029.0</ele><time>2026-04-19T09:51:45.003Z</time></trkpt><trkpt lat="44.928411152497766" lon="7.2744050226519"><ele>1028.8</ele><time>2026-04-19T09:51:46.003Z</time></trkpt><trkpt lat="44.92830724314021" lon="7.2744490912370585"><ele>1028.6000000000001</ele><time>2026-04-19T09:51:47.003Z</time></trkpt><trkpt lat="44.92820891180517" lon="7.274500439766895"><ele>1028.4</ele><time>2026-04-19T09:51:48.003Z</time></trkpt><trkpt lat="44.928103998398996" lon="7.2745345432659825"><ele>1028.2</ele><time>2026-04-19T09:51:49.003Z</time></trkpt><trkpt lat="44.92801125786578" lon="7.274559044279099"><ele>1028.0</ele><time>2026-04-19T09:51:50Z</time></trkpt><trkpt lat="44.927925396345245" lon="7.27456647675806"><ele>1028.0</ele><time>2026-04-19T09:51:51Z</time></trkpt><trkpt lat="44.92784167479936" lon="7.274553532462341"><ele>1028.0</ele><time>2026-04-19T09:51:52Z</time></trkpt><trkpt lat="44.92773721472225" lon="7.274529986080843"><ele>1028.0</ele><time>2026-04-19T09:51:53Z</time></trkpt><trkpt lat="44.92762925355427" lon="7.274504921705872"><ele>1028.0</ele><time>2026-04-19T09:51:54Z</time></trkpt><trkpt lat="44.92752957696841" lon="7.274487674100307"><ele>1028.0</ele><time>2026-04-19T09:51:55Z</time></trkpt><trkpt lat="44.92744900459667" lon="7.274424387456918"><ele>1027.3333333333335</ele><time>2026-04-19T09:51:57Z</time></trkpt><trkpt lat="44.92737759074876" lon="7.27434884895482"><ele>1026.6666666666667</ele><time>2026-04-19T09:52:03Z</time></trkpt><trkpt lat="44.92733574793959" lon="7.274229619431428"><ele>1026.0</ele><time>2026-04-19T09:52:05Z</time></trkpt><trkpt lat="44.92732139041332" lon="7.274117749659133"><ele>1025.3333333333333</ele><time>2026-04-19T09:52:07Z</time></trkpt><trkpt lat="44.9272635778838" lon="7.274044214549438"><ele>1024.6666666666665</ele><time>2026-04-19T09:52:11Z</time></trkpt><trkpt lat="44.92719795052829" lon="7.274005502799137"><ele>1024.0</ele><time>2026-04-19T09:52:14Z</time></trkpt><trkpt lat="44.92711224351705" lon="7.274007247535745"><ele>1023.9999999999999</ele><time>2026-04-19T09:52:17Z</time></trkpt><trkpt lat="44.92701538116783" lon="7.273965225155149"><ele>1024.0</ele><time>2026-04-19T09:52:21.001Z</time></trkpt><trkpt lat="44.926938749195656" lon="7.2739081039204585"><ele>1024.0</ele><time>2026-04-19T09:52:24.001Z</time></trkpt><trkpt lat="44.92686484816219" lon="7.273916172471564"><ele>1024.0</ele><time>2026-04-19T09:52:26.001Z</time></trkpt><trkpt lat="44.92679904971087" lon="7.273965017979286"><ele>1023.9999999999999</ele><time>2026-04-19T09:52:29.001Z</time></trkpt><trkpt lat="44.92671573662378" lon="7.274011218027207"><ele>1024.0</ele><time>2026-04-19T09:52:31.001Z</time></trkpt><trkpt lat="44.92665544022208" lon="7.27405292037991"><ele>1021.3333333333333</ele><time>2026-04-19T09:52:33.001Z</time></trkpt><trkpt lat="44.92657245309923" lon="7.2741032005397"><ele>1018.6666666666666</ele><time>2026-04-19T09:52:35.001Z</time></trkpt><trkpt lat="44.92650383561399" lon="7.274163033450494"><ele>1016.0</ele><time>2026-04-19T09:52:37.001Z</time></trkpt><trkpt lat="44.92644172359562" lon="7.2742678366896865"><ele>1013.3333333333333</ele><time>2026-04-19T09:52:39.001Z</time></trkpt><trkpt lat="44.92638369480668" lon="7.274339876349194"><ele>1010.6666666666666</ele><time>2026-04-19T09:52:41.001Z</time></trkpt><trkpt lat="44.92632856001231" lon="7.2744128831679165"><ele>1008.0</ele><time>2026-04-19T09:52:43.001Z</time></trkpt><trkpt lat="44.926264797241714" lon="7.274500450308785"><ele>1008.0</ele><time>2026-04-19T09:52:45.001Z</time></trkpt><trkpt lat="44.92619131591793" lon="7.274495866075679"><ele>1008.0</ele><time>2026-04-19T09:52:47.001Z</time></trkpt><trkpt lat="44.92610341556495" lon="7.274494580242531"><ele>1008.0</ele><time>2026-04-19T09:52:49.001Z</time></trkpt><trkpt lat="44.926011965943346" lon="7.274510170417275"><ele>1008.0</ele><time>2026-04-19T09:52:51.001Z</time></trkpt><trkpt lat="44.925936067775716" lon="7.274503221695044"><ele>1008.0</ele><time>2026-04-19T09:52:53.001Z</time></trkpt><trkpt lat="44.92584666458719" lon="7.274480476618373"><ele>1008.0</ele><time>2026-04-19T09:52:55.002Z</time></trkpt><trkpt lat="44.92578504502573" lon="7.274528800919004"><ele>1003.4</ele><time>2026-04-19T09:52:57.002Z</time></trkpt><trkpt lat="44.92580122769726" lon="7.2746338902057595"><ele>998.8</ele><time>2026-04-19T09:52:59.002Z</time></trkpt><trkpt lat="44.92578188943146" lon="7.2747838141909495"><ele>994.2</ele><time>2026-04-19T09:53:01.002Z</time></trkpt><trkpt lat="44.92578902118182" lon="7.2749707232549525"><ele>989.6</ele><time>2026-04-19T09:53:03.002Z</time></trkpt><trkpt lat="44.925822532632914" lon="7.275071345020001"><ele>985.0</ele><time>2026-04-19T09:53:04.002Z</time></trkpt><trkpt lat="44.925871398010706" lon="7.275182111869774"><ele>989.4</ele><time>2026-04-19T09:53:05.002Z</time></trkpt><trkpt lat="44.92593679553879" lon="7.275273170371572"><ele>993.8</ele><time>2026-04-19T09:53:06.002Z</time></trkpt><trkpt lat="44.9260069511704" lon="7.275337924346079"><ele>998.2</ele><time>2026-04-19T09:53:07.002Z</time></trkpt><trkpt lat="44.92609613493652" lon="7.275396343968872"><ele>1002.6</ele><time>2026-04-19T09:53:08.002Z</time></trkpt><trkpt lat="44.92619526182888" lon="7.275436707486667"><ele>1007.0</ele><time>2026-04-19T09:53:09.002Z</time></trkpt><trkpt lat="44.9262955353732" lon="7.27548707698373"><ele>1007.0</ele><time>2026-04-19T09:53:10.002Z</time></trkpt><trkpt lat="44.92635891193918" lon="7.27557435852887"><ele>1007.0</ele><time>2026-04-19T09:53:11.002Z</time></trkpt><trkpt lat="44.92641091140718" lon="7.27567389212166"><ele>1007.0</ele><time>2026-04-19T09:53:12.002Z</time></trkpt><trkpt lat="44.9264498212006" lon="7.275827591685923"><ele>1007.0</ele><time>2026-04-19T09:53:13.002Z</time></trkpt><trkpt lat="44.92648667208995" lon="7.275970054167308"><ele>1007.0</ele><time>2026-04-19T09:53:14.002Z</time></trkpt><trkpt lat="44.92650928739357" lon="7.276100847734667"><ele>1004.0000000000001</ele><time>2026-04-19T09:53:15.002Z</time></trkpt><trkpt lat="44.926479425629076" lon="7.276239103295765"><ele>1001.0</ele><time>2026-04-19T09:53:17.002Z</time></trkpt><trkpt lat="44.926407330095394" lon="7.276288459084945"><ele>998.0</ele><time>2026-04-19T09:53:18.002Z</time></trkpt><trkpt lat="44.92633897467242" lon="7.276295366983184"><ele>995.0</ele><time>2026-04-19T09:53:19.002Z</time></trkpt><trkpt lat="44.926262286071776" lon="7.276310375646541"><ele>992.0000000000001</ele><time>2026-04-19T09:53:20.002Z</time></trkpt><trkpt lat="44.92618262542015" lon="7.276343295353533"><ele>989.0</ele><time>2026-04-19T09:53:21.002Z</time></trkpt><trkpt lat="44.92611118851098" lon="7.276396286087462"><ele>988.2</ele><time>2026-04-19T09:53:22.002Z</time></trkpt><trkpt lat="44.92604127983231" lon="7.276461709419652"><ele>987.4000000000001</ele><time>2026-04-19T09:53:23.002Z</time></trkpt><trkpt lat="44.92594809111415" lon="7.276529374502237"><ele>986.6</ele><time>2026-04-19T09:53:24.002Z</time></trkpt><trkpt lat="44.925856901258385" lon="7.276585424902714"><ele>985.8</ele><time>2026-04-19T09:53:25.002Z</time></trkpt><trkpt lat="44.92577127755668" lon="7.2766643921725915"><ele>985.0</ele><time>2026-04-19T09:53:26.002Z</time></trkpt><trkpt lat="44.92570058555869" lon="7.276746981943535"><ele>981.6666666666666</ele><time>2026-04-19T09:53:27.003Z</time></trkpt><trkpt lat="44.92562143233094" lon="7.276808325267943"><ele>978.3333333333333</ele><time>2026-04-19T09:53:28.003Z</time></trkpt><trkpt lat="44.925538652951374" lon="7.276866531055656"><ele>975.0</ele><time>2026-04-19T09:53:29.003Z</time></trkpt><trkpt lat="44.92545684016524" lon="7.276915790226023"><ele>971.6666666666667</ele><time>2026-04-19T09:53:30.003Z</time></trkpt><trkpt lat="44.925392074597696" lon="7.276981575650993"><ele>968.3333333333334</ele><time>2026-04-19T09:53:31.003Z</time></trkpt><trkpt lat="44.92531893475131" lon="7.277033039704121"><ele>965.0</ele><time>2026-04-19T09:53:32.003Z</time></trkpt><trkpt lat="44.925238916751304" lon="7.277079055445144"><ele>965.0000000000001</ele><time>2026-04-19T09:53:33.003Z</time></trkpt><trkpt lat="44.92517250281028" lon="7.277114958140184"><ele>965.0</ele><time>2026-04-19T09:53:34.003Z</time></trkpt><trkpt lat="44.925103462596255" lon="7.277142006542332"><ele>965.0</ele><time>2026-04-19T09:53:35.003Z</time></trkpt><trkpt lat="44.92501961119578" lon="7.277135502370628"><ele>965.0</ele><time>2026-04-19T09:53:36.003Z</time></trkpt><trkpt lat="44.92492332065626" lon="7.277145927459047"><ele>965.0000000000001</ele><time>2026-04-19T09:53:37.003Z</time></trkpt><trkpt lat="44.9248137926554" lon="7.277144416286949"><ele>965.0</ele><time>2026-04-19T09:53:38.003Z</time></trkpt><trkpt lat="44.924715588311486" lon="7.277085426316999"><ele>961.8</ele><time>2026-04-19T09:53:39.003Z</time></trkpt><trkpt lat="44.92462434242534" lon="7.276992491118178"><ele>958.6</ele><time>2026-04-19T09:53:40.003Z</time></trkpt><trkpt lat="44.92451426315648" lon="7.276943533544739"><ele>955.4000000000001</ele><time>2026-04-19T09:53:41.003Z</time></trkpt><trkpt lat="44.92440699770682" lon="7.276901703818233"><ele>952.2</ele><time>2026-04-19T09:53:42.003Z</time></trkpt><trkpt lat="44.92431275238215" lon="7.276841405203552"><ele>949.0</ele><time>2026-04-19T09:53:43.003Z</time></trkpt><trkpt lat="44.92422679495518" lon="7.276799553922295"><ele>948.9999999999999</ele><time>2026-04-19T09:53:44.003Z</time></trkpt><trkpt lat="44.924150111753555" lon="7.276801581074542"><ele>949.0</ele><time>2026-04-19T09:53:45.003Z</time></trkpt><trkpt lat="44.92401899475466" lon="7.276819809021564"><ele>949.0</ele><time>2026-04-19T09:53:47.003Z</time></trkpt><trkpt lat="44.92393648616833" lon="7.276837835121296"><ele>949.0</ele><time>2026-04-19T09:53:48.003Z</time></trkpt><trkpt lat="44.92388778415421" lon="7.276917447073503"><ele>948.9999999999999</ele><time>2026-04-19T09:53:49.003Z</time></trkpt><trkpt lat="44.92384642123079" lon="7.277005897902708"><ele>949.0</ele><time>2026-04-19T09:53:50.003Z</time></trkpt><trkpt lat="44.923765583245604" lon="7.27708567413389"><ele>949.0</ele><time>2026-04-19T09:53:51.003Z</time></trkpt><trkpt lat="44.92369609593867" lon="7.277187585245774"><ele>949.0000000000001</ele><time>2026-04-19T09:53:52.003Z</time></trkpt><trkpt lat="44.92363938518362" lon="7.277303269208376"><ele>949.0000000000001</ele><time>2026-04-19T09:53:53.003Z</time></trkpt><trkpt lat="44.92358427046645" lon="7.277435125021222"><ele>949.0</ele><time>2026-04-19T09:53:54.003Z</time></trkpt><trkpt lat="44.92354688187859" lon="7.277557403337295"><ele>949.0</ele><time>2026-04-19T09:53:55.003Z</time></trkpt><trkpt lat="44.923515307143454" lon="7.277664322509733"><ele>948.4000000000001</ele><time>2026-04-19T09:53:56Z</time></trkpt><trkpt lat="44.92342476413307" lon="7.277750346107968"><ele>947.8000000000001</ele><time>2026-04-19T09:53:57Z</time></trkpt><trkpt lat="44.92333832591859" lon="7.277813928744838"><ele>947.1999999999999</ele><time>2026-04-19T09:53:58Z</time></trkpt><trkpt lat="44.92324296379824" lon="7.2778979868419595"><ele>946.5999999999999</ele><time>2026-04-19T09:53:59Z</time></trkpt><trkpt lat="44.92315054522038" lon="7.277954775554841"><ele>946.0</ele><time>2026-04-19T09:54:00Z</time></trkpt><trkpt lat="44.923062782405204" lon="7.278019575103809"><ele>946.0</ele><time>2026-04-19T09:54:01Z</time></trkpt><trkpt lat="44.922963544521" lon="7.27804130870436"><ele>945.9999999999999</ele><time>2026-04-19T09:54:02Z</time></trkpt><trkpt lat="44.922869643288564" lon="7.278068219574483"><ele>945.9999999999999</ele><time>2026-04-19T09:54:03Z</time></trkpt><trkpt lat="44.92277214358158" lon="7.278048154935832"><ele>946.0</ele><time>2026-04-19T09:54:04Z</time></trkpt><trkpt lat="44.92268363060593" lon="7.27802581700682"><ele>946.0</ele><time>2026-04-19T09:54:05Z</time></trkpt><trkpt lat="44.92261673969313" lon="7.2780197770262856"><ele>945.1999999999999</ele><time>2026-04-19T09:54:06Z</time></trkpt><trkpt lat="44.922526233388844" lon="7.278026958778117"><ele>944.3999999999999</ele><time>2026-04-19T09:54:07Z</time></trkpt><trkpt lat="44.92245455377013" lon="7.27803862123445"><ele>943.6</ele><time>2026-04-19T09:54:08Z</time></trkpt><trkpt lat="44.92234311303" lon="7.27800753885218"><ele>942.8</ele><time>2026-04-19T09:54:10Z</time></trkpt><trkpt lat="44.922218500387814" lon="7.277980002115042"><ele>942.0</ele><time>2026-04-19T09:54:12Z</time></trkpt><trkpt lat="44.9221561725853" lon="7.277993879591048"><ele>942.0</ele><time>2026-04-19T09:54:13Z</time></trkpt><trkpt lat="44.922061709404225" lon="7.277928867389134"><ele>942.0</ele><time>2026-04-19T09:54:15Z</time></trkpt><trkpt lat="44.92194530785943" lon="7.277853026629561"><ele>942.0</ele><time>2026-04-19T09:54:17Z</time></trkpt><trkpt lat="44.921877724303606" lon="7.27785389791652"><ele>942.0</ele><time>2026-04-19T09:54:18Z</time></trkpt><trkpt lat="44.9217898751425" lon="7.277835030869468"><ele>942.0</ele><time>2026-04-19T09:54:19Z</time></trkpt><trkpt lat="44.92169088102915" lon="7.277825300763003"><ele>943.0</ele><time>2026-04-19T09:54:20Z</time></trkpt><trkpt lat="44.921608832519496" lon="7.2777968001753415"><ele>944.0</ele><time>2026-04-19T09:54:21Z</time></trkpt><trkpt lat="44.9215456677101" lon="7.277788954643717"><ele>945.0</ele><time>2026-04-19T09:54:22Z</time></trkpt><trkpt lat="44.92145664494276" lon="7.277810940594064"><ele>946.0</ele><time>2026-04-19T09:54:24.001Z</time></trkpt><trkpt lat="44.921407311822115" lon="7.277739101689979"><ele>947.0</ele><time>2026-04-19T09:54:58.002Z</time></trkpt><trkpt lat="44.9213377311342" lon="7.277731203504949"><ele>948.0</ele><time>2026-04-19T09:55:05.002Z</time></trkpt><trkpt lat="44.92126526302071" lon="7.277791288630019"><ele>948.0</ele><time>2026-04-19T09:55:10.002Z</time></trkpt><trkpt lat="44.921197400699235" lon="7.277801430712625"><ele>948.0</ele><time>2026-04-19T09:55:29.002Z</time></trkpt><trkpt lat="44.921122892098836" lon="7.277818377009388"><ele>948.0</ele><time>2026-04-19T09:55:31.003Z</time></trkpt><trkpt lat="44.921041267091184" lon="7.27784172157347"><ele>948.0</ele><time>2026-04-19T09:55:33.003Z</time></trkpt><trkpt lat="44.92096604063401" lon="7.277896426994968"><ele>948.0</ele><time>2026-04-19T09:55:35.003Z</time></trkpt><trkpt lat="44.92085006372736" lon="7.277939583597729"><ele>948.0</ele><time>2026-04-19T09:55:37.003Z</time></trkpt><trkpt lat="44.92074575791367" lon="7.277958733774776"><ele>948.2</ele><time>2026-04-19T09:55:39.003Z</time></trkpt><trkpt lat="44.92064335627792" lon="7.27803362266541"><ele>948.4</ele><time>2026-04-19T09:55:41.003Z</time></trkpt><trkpt lat="44.92054296569362" lon="7.278102592177418"><ele>948.6000000000001</ele><time>2026-04-19T09:55:43.003Z</time></trkpt><trkpt lat="44.92042686495837" lon="7.278206670558676"><ele>948.8000000000001</ele><time>2026-04-19T09:55:45.003Z</time></trkpt><trkpt lat="44.920365886418224" lon="7.278253927236706"><ele>949.0</ele><time>2026-04-19T09:55:46.003Z</time></trkpt><trkpt lat="44.92030768088863" lon="7.2782878194215614"><ele>949.9999999999999</ele><time>2026-04-19T09:55:47.003Z</time></trkpt><trkpt lat="44.920234647559106" lon="7.278313385131396"><ele>951.0</ele><time>2026-04-19T09:55:48.003Z</time></trkpt><trkpt lat="44.920155895763536" lon="7.2783245170776185"><ele>952.0</ele><time>2026-04-19T09:55:49.003Z</time></trkpt><trkpt lat="44.920087000425255" lon="7.278325510602757"><ele>953.0</ele><time>2026-04-19T09:55:50.003Z</time></trkpt><trkpt lat="44.91997886954409" lon="7.278326840044287"><ele>953.9999999999999</ele><time>2026-04-19T09:55:52.003Z</time></trkpt><trkpt lat="44.91990811031441" lon="7.27833491076501"><ele>955.0</ele><time>2026-04-19T09:55:54.003Z</time></trkpt><trkpt lat="44.91984320337604" lon="7.278343532478936"><ele>954.9999999999999</ele><time>2026-04-19T09:56:02Z</time></trkpt><trkpt lat="44.91978043478294" lon="7.27836018157324"><ele>955.0</ele><time>2026-04-19T09:56:05Z</time></trkpt><trkpt lat="44.91971436344755" lon="7.2783695489257845"><ele>955.0</ele><time>2026-04-19T09:56:07Z</time></trkpt><trkpt lat="44.919637296293644" lon="7.278432556124936"><ele>955.0</ele><time>2026-04-19T09:56:10Z</time></trkpt><trkpt lat="44.91953369545966" lon="7.278461999113656"><ele>954.9999999999999</ele><time>2026-04-19T09:56:12Z</time></trkpt><trkpt lat="44.919470474356714" lon="7.278491447909143"><ele>955.0</ele><time>2026-04-19T09:56:13Z</time></trkpt><trkpt lat="44.91940182697804" lon="7.27853797317083"><ele>955.0</ele><time>2026-04-19T09:56:14Z</time></trkpt><trkpt lat="44.91933793097355" lon="7.278606625005141"><ele>955.0</ele><time>2026-04-19T09:56:15Z</time></trkpt><trkpt lat="44.91924538480443" lon="7.278655484571871"><ele>955.0</ele><time>2026-04-19T09:56:16Z</time></trkpt><trkpt lat="44.919181808511354" lon="7.278743014056044"><ele>955.0</ele><time>2026-04-19T09:56:17Z</time></trkpt><trkpt lat="44.91911944949576" lon="7.278852471795661"><ele>955.0</ele><time>2026-04-19T09:56:18Z</time></trkpt><trkpt lat="44.91906444260867" lon="7.278978620480751"><ele>955.2</ele><time>2026-04-19T09:56:19Z</time></trkpt><trkpt lat="44.91902551845162" lon="7.27912374585063"><ele>955.4</ele><time>2026-04-19T09:56:20Z</time></trkpt><trkpt lat="44.91896479364109" lon="7.279265604188922"><ele>955.5999999999999</ele><time>2026-04-19T09:56:21Z</time></trkpt><trkpt lat="44.91889080414579" lon="7.279381613490217"><ele>955.8</ele><time>2026-04-19T09:56:22Z</time></trkpt><trkpt lat="44.918834656837376" lon="7.279492837266295"><ele>956.0</ele><time>2026-04-19T09:56:23Z</time></trkpt><trkpt lat="44.91877702968383" lon="7.279582899198298"><ele>956.0</ele><time>2026-04-19T09:56:24Z</time></trkpt><trkpt lat="44.91871391461242" lon="7.2796661301417265"><ele>955.9999999999999</ele><time>2026-04-19T09:56:25Z</time></trkpt><trkpt lat="44.91860025258365" lon="7.279659160445141"><ele>955.9999999999999</ele><time>2026-04-19T09:56:27Z</time></trkpt><trkpt lat="44.918509247019216" lon="7.2795989258379565"><ele>956.0</ele><time>2026-04-19T09:56:29Z</time></trkpt><trkpt lat="44.91843107131535" lon="7.279551609895882"><ele>956.0</ele><time>2026-04-19T09:56:30.001Z</time></trkpt><trkpt lat="44.918341115562384" lon="7.279485694230259"><ele>956.5999999999999</ele><time>2026-04-19T09:56:31.001Z</time></trkpt><trkpt lat="44.918260076138516" lon="7.279421279101294"><ele>957.1999999999999</ele><time>2026-04-19T09:56:32.001Z</time></trkpt><trkpt lat="44.91817787902497" lon="7.279343914565195"><ele>957.8000000000001</ele><time>2026-04-19T09:56:33.001Z</time></trkpt><trkpt lat="44.91805088454977" lon="7.279321473690614"><ele>958.4000000000001</ele><time>2026-04-19T09:56:34.001Z</time></trkpt><trkpt lat="44.91797504627439" lon="7.2792275912338305"><ele>959.0</ele><time>2026-04-19T09:56:35.001Z</time></trkpt><trkpt lat="44.91792071245189" lon="7.279114909852731"><ele>959.0</ele><time>2026-04-19T09:56:36.001Z</time></trkpt><trkpt lat="44.91786220454677" lon="7.27897368534775"><ele>959.0000000000001</ele><time>2026-04-19T09:56:37.001Z</time></trkpt><trkpt lat="44.91780420945874" lon="7.278870483605309"><ele>959.0000000000001</ele><time>2026-04-19T09:56:38.001Z</time></trkpt><trkpt lat="44.91771382045676" lon="7.278804124595228"><ele>959.0</ele><time>2026-04-19T09:56:39.001Z</time></trkpt><trkpt lat="44.91761952093347" lon="7.278737952450266"><ele>959.0</ele><time>2026-04-19T09:56:40.001Z</time></trkpt><trkpt lat="44.917516352880405" lon="7.278676720717508"><ele>957.25</ele><time>2026-04-19T09:56:41.001Z</time></trkpt><trkpt lat="44.917410282135535" lon="7.278634053405051"><ele>955.5</ele><time>2026-04-19T09:56:42.001Z</time></trkpt><trkpt lat="44.91730766445977" lon="7.278615136659436"><ele>953.75</ele><time>2026-04-19T09:56:43.001Z</time></trkpt><trkpt lat="44.917201574688356" lon="7.278638161533421"><ele>952.0</ele><time>2026-04-19T09:56:44.001Z</time></trkpt><trkpt lat="44.917079194693585" lon="7.278709377818675"><ele>952.0</ele><time>2026-04-19T09:56:45.001Z</time></trkpt><trkpt lat="44.91695705509028" lon="7.278752240933862"><ele>952.0</ele><time>2026-04-19T09:56:46.001Z</time></trkpt><trkpt lat="44.91682814024441" lon="7.278770008495436"><ele>952.0</ele><time>2026-04-19T09:56:47.001Z</time></trkpt><trkpt lat="44.91672333531841" lon="7.278764748027803"><ele>952.0</ele><time>2026-04-19T09:56:48.001Z</time></trkpt><trkpt lat="44.91660084231228" lon="7.278780087763089"><ele>950.75</ele><time>2026-04-19T09:56:49.001Z</time></trkpt><trkpt lat="44.91647455297759" lon="7.278822714276458"><ele>949.5</ele><time>2026-04-19T09:56:50.001Z</time></trkpt><trkpt lat="44.91635191727544" lon="7.278866020087971"><ele>948.25</ele><time>2026-04-19T09:56:51.001Z</time></trkpt><trkpt lat="44.916232825475376" lon="7.278913129327374"><ele>947.0</ele><time>2026-04-19T09:56:52.001Z</time></trkpt><trkpt lat="44.91612355045964" lon="7.2789638377570425"><ele>946.8</ele><time>2026-04-19T09:56:53.001Z</time></trkpt><trkpt lat="44.91602357137022" lon="7.279004825090669"><ele>946.6</ele><time>2026-04-19T09:56:54.001Z</time></trkpt><trkpt lat="44.91594554914505" lon="7.279027946824713"><ele>946.3999999999999</ele><time>2026-04-19T09:56:55.001Z</time></trkpt><trkpt lat="44.91588222215889" lon="7.279003923047456"><ele>946.1999999999999</ele><time>2026-04-19T09:56:56.001Z</time></trkpt><trkpt lat="44.915794026078785" lon="7.2789190379315745"><ele>946.0</ele><time>2026-04-19T09:56:58.001Z</time></trkpt><trkpt lat="44.91569586883095" lon="7.278846454731315"><ele>945.4999999999999</ele><time>2026-04-19T09:57:00.001Z</time></trkpt><trkpt lat="44.91560515210884" lon="7.278808177873738"><ele>945.0</ele><time>2026-04-19T09:57:02.001Z</time></trkpt><trkpt lat="44.91550657214185" lon="7.2787281433881015"><ele>944.5</ele><time>2026-04-19T09:57:04.001Z</time></trkpt><trkpt lat="44.91544534157018" lon="7.278679315168585"><ele>944.0</ele><time>2026-04-19T09:57:05.001Z</time></trkpt><trkpt lat="44.91537329743903" lon="7.278620207864032"><ele>943.4999999999999</ele><time>2026-04-19T09:57:06.001Z</time></trkpt><trkpt lat="44.915304685639754" lon="7.278576200089852"><ele>943.0</ele><time>2026-04-19T09:57:07.001Z</time></trkpt><trkpt lat="44.91523345367464" lon="7.278531855367528"><ele>942.9999999999999</ele><time>2026-04-19T09:57:08.001Z</time></trkpt><trkpt lat="44.9151683596301" lon="7.278489817985465"><ele>943.0</ele><time>2026-04-19T09:57:09.002Z</time></trkpt><trkpt lat="44.91509411832078" lon="7.278442633634083"><ele>943.0</ele><time>2026-04-19T09:57:10.002Z</time></trkpt><trkpt lat="44.91502972244729" lon="7.278399097109286"><ele>943.0</ele><time>2026-04-19T09:57:11.002Z</time></trkpt><trkpt lat="44.914958464440815" lon="7.278356532000157"><ele>942.9999999999999</ele><time>2026-04-19T09:57:12.002Z</time></trkpt><trkpt lat="44.91487246306245" lon="7.278302074902951"><ele>943.0</ele><time>2026-04-19T09:57:13.002Z</time></trkpt><trkpt lat="44.914789729782264" lon="7.278238534016854"><ele>939.8</ele><time>2026-04-19T09:57:14.002Z</time></trkpt><trkpt lat="44.91469469650584" lon="7.278169003319133"><ele>936.5999999999999</ele><time>2026-04-19T09:57:15.002Z</time></trkpt><trkpt lat="44.91461438146548" lon="7.278093684173396"><ele>933.4000000000001</ele><time>2026-04-19T09:57:16.002Z</time></trkpt><trkpt lat="44.91454257083478" lon="7.27801784087304"><ele>930.2</ele><time>2026-04-19T09:57:17.002Z</time></trkpt><trkpt lat="44.914474200773576" lon="7.277948019589457"><ele>927.0</ele><time>2026-04-19T09:57:18.002Z</time></trkpt><trkpt lat="44.91441034383794" lon="7.277878762492799"><ele>927.0</ele><time>2026-04-19T09:57:19.002Z</time></trkpt><trkpt lat="44.914349647536426" lon="7.277812052805745"><ele>927.0</ele><time>2026-04-19T09:57:20.002Z</time></trkpt><trkpt lat="44.914273549735476" lon="7.277728723743346"><ele>927.0</ele><time>2026-04-19T09:57:21.002Z</time></trkpt><trkpt lat="44.91420288286262" lon="7.277683247421583"><ele>927.0</ele><time>2026-04-19T09:57:22.002Z</time></trkpt><trkpt lat="44.91414176517017" lon="7.277657359171468"><ele>927.0</ele><time>2026-04-19T09:57:23.002Z</time></trkpt><trkpt lat="44.91405433444256" lon="7.27765877343111"><ele>927.0</ele><time>2026-04-19T09:57:25.002Z</time></trkpt><trkpt lat="44.91397789859364" lon="7.277674059471685"><ele>917.0</ele><time>2026-04-19T09:57:28.002Z</time></trkpt><trkpt lat="44.913928851702366" lon="7.277589249886125"><ele>917.0</ele><time>2026-04-19T09:57:34.002Z</time></trkpt></trkseg><trkseg><trkpt lat="44.91394920793201" lon="7.277772758997634"><ele>917.0</ele><time>2026-04-19T10:08:51.002Z</time></trkpt><trkpt lat="44.91384235683199" lon="7.277875436341018"><ele>917.0</ele><time>2026-04-19T10:08:53.002Z</time></trkpt><trkpt lat="44.913763971724926" lon="7.2779090206763986"><ele>917.0</ele><time>2026-04-19T10:08:54.002Z</time></trkpt><trkpt lat="44.913683358305285" lon="7.277939919714943"><ele>917.0</ele><time>2026-04-19T10:08:55.002Z</time></trkpt><trkpt lat="44.913596823877235" lon="7.2779827844955145"><ele>917.0</ele><time>2026-04-19T10:08:56.002Z</time></trkpt><trkpt lat="44.9135097860064" lon="7.27803947654831"><ele>915.6</ele><time>2026-04-19T10:08:57.002Z</time></trkpt><trkpt lat="44.913430149248924" lon="7.278112702429283"><ele>914.2</ele><time>2026-04-19T10:08:58.002Z</time></trkpt><trkpt lat="44.913373169469835" lon="7.2781724075516445"><ele>912.8</ele><time>2026-04-19T10:08:59.002Z</time></trkpt><trkpt lat="44.91331705112082" lon="7.27827123601558"><ele>911.4</ele><time>2026-04-19T10:09:01Z</time></trkpt><trkpt lat="44.913255285488624" lon="7.278428945635387"><ele>910.0</ele><time>2026-04-19T10:09:03Z</time></trkpt><trkpt lat="44.91321559458906" lon="7.278528777171043"><ele>913.2</ele><time>2026-04-19T10:09:04Z</time></trkpt><trkpt lat="44.91317612554299" lon="7.278640616568436"><ele>916.4</ele><time>2026-04-19T10:09:05Z</time></trkpt><trkpt lat="44.91313595897109" lon="7.278759981005449"><ele>919.5999999999999</ele><time>2026-04-19T10:09:06Z</time></trkpt><trkpt lat="44.91310166916092" lon="7.278874420352794"><ele>922.8</ele><time>2026-04-19T10:09:07Z</time></trkpt><trkpt lat="44.91306872661368" lon="7.279003186540633"><ele>926.0</ele><time>2026-04-19T10:09:08Z</time></trkpt><trkpt lat="44.913042746622715" lon="7.279129448918405"><ele>926.0</ele><time>2026-04-19T10:09:09Z</time></trkpt><trkpt lat="44.9130195699727" lon="7.279267441236852"><ele>926.0</ele><time>2026-04-19T10:09:10Z</time></trkpt><trkpt lat="44.91300466105694" lon="7.279384904857793"><ele>926.0</ele><time>2026-04-19T10:09:11Z</time></trkpt><trkpt lat="44.91298111653592" lon="7.279591484153683"><ele>926.0</ele><time>2026-04-19T10:09:13Z</time></trkpt><trkpt lat="44.91242438628454" lon="7.2798447401903"><ele>929.5999999999999</ele><time>2026-04-19T10:09:15Z</time></trkpt><trkpt lat="44.91237949629684" lon="7.279988303500093"><ele>933.1999999999999</ele><time>2026-04-19T10:09:16Z</time></trkpt><trkpt lat="44.91234585093972" lon="7.2800881917439355"><ele>936.8000000000001</ele><time>2026-04-19T10:09:17Z</time></trkpt><trkpt lat="44.91223979894504" lon="7.280128596271436"><ele>940.4000000000001</ele><time>2026-04-19T10:09:19Z</time></trkpt><trkpt lat="44.912166492783044" lon="7.280011541702452"><ele>944.0</ele><time>2026-04-19T10:09:21Z</time></trkpt><trkpt lat="44.912091841499155" lon="7.279978960601849"><ele>944.0</ele><time>2026-04-19T10:09:22Z</time></trkpt><trkpt lat="44.91199768501631" lon="7.279933035676768"><ele>944.0000000000001</ele><time>2026-04-19T10:09:23Z</time></trkpt><trkpt lat="44.91190562875594" lon="7.279895329475279"><ele>944.0000000000001</ele><time>2026-04-19T10:09:24Z</time></trkpt><trkpt lat="44.911810941922326" lon="7.279877688519705"><ele>944.0</ele><time>2026-04-19T10:09:25Z</time></trkpt><trkpt lat="44.911717207585845" lon="7.2798702540750355"><ele>944.0</ele><time>2026-04-19T10:09:26Z</time></trkpt><trkpt lat="44.911618441952974" lon="7.279859320936125"><ele>945.4000000000001</ele><time>2026-04-19T10:09:27Z</time></trkpt><trkpt lat="44.91151297346515" lon="7.279852498291275"><ele>946.8000000000001</ele><time>2026-04-19T10:09:28Z</time></trkpt><trkpt lat="44.9114083228501" lon="7.279822899274322"><ele>948.1999999999999</ele><time>2026-04-19T10:09:29Z</time></trkpt><trkpt lat="44.911299147794935" lon="7.279788061217803"><ele>949.5999999999999</ele><time>2026-04-19T10:09:30Z</time></trkpt><trkpt lat="44.91118249446992" lon="7.279764553499772"><ele>951.0</ele><time>2026-04-19T10:09:31Z</time></trkpt><trkpt lat="44.91105353317859" lon="7.279767742855671"><ele>951.0</ele><time>2026-04-19T10:09:32Z</time></trkpt><trkpt lat="44.91092844889784" lon="7.279810366937149"><ele>951.0</ele><time>2026-04-19T10:09:33Z</time></trkpt><trkpt lat="44.91081021280699" lon="7.279874234066753"><ele>951.0</ele><time>2026-04-19T10:09:34Z</time></trkpt><trkpt lat="44.910709631355274" lon="7.279946780882922"><ele>951.0</ele><time>2026-04-19T10:09:35Z</time></trkpt><trkpt lat="44.910617473299524" lon="7.28002637628873"><ele>952.4</ele><time>2026-04-19T10:09:36Z</time></trkpt><trkpt lat="44.91052474252882" lon="7.28009442014229"><ele>953.8</ele><time>2026-04-19T10:09:37Z</time></trkpt><trkpt lat="44.9104242472198" lon="7.280142198428249"><ele>955.1999999999999</ele><time>2026-04-19T10:09:38Z</time></trkpt><trkpt lat="44.91034797376881" lon="7.280151808418968"><ele>956.5999999999999</ele><time>2026-04-19T10:09:39Z</time></trkpt><trkpt lat="44.910265047067035" lon="7.2801387357292615"><ele>958.0</ele><time>2026-04-19T10:09:40Z</time></trkpt><trkpt lat="44.910168173677654" lon="7.280101301808852"><ele>959.5</ele><time>2026-04-19T10:09:41Z</time></trkpt><trkpt lat="44.91005806167238" lon="7.2801021225942035"><ele>961.0</ele><time>2026-04-19T10:09:42Z</time></trkpt><trkpt lat="44.90994714091624" lon="7.280153400564479"><ele>962.5</ele><time>2026-04-19T10:09:43Z</time></trkpt><trkpt lat="44.909845332704165" lon="7.280221632234326"><ele>964.0</ele><time>2026-04-19T10:09:44Z</time></trkpt><trkpt lat="44.90974075921971" lon="7.280274687981484"><ele>964.0</ele><time>2026-04-19T10:09:45Z</time></trkpt><trkpt lat="44.909632472947145" lon="7.280330317400293"><ele>964.0000000000001</ele><time>2026-04-19T10:09:46Z</time></trkpt><trkpt lat="44.909551807881286" lon="7.280342055543648"><ele>964.0000000000001</ele><time>2026-04-19T10:09:47Z</time></trkpt><trkpt lat="44.909476783747365" lon="7.280316705542765"><ele>964.0</ele><time>2026-04-19T10:09:48Z</time></trkpt><trkpt lat="44.90941373519691" lon="7.280316498671348"><ele>964.0</ele><time>2026-04-19T10:09:49Z</time></trkpt><trkpt lat="44.90928704564531" lon="7.280367284187565"><ele>964.2</ele><time>2026-04-19T10:09:51Z</time></trkpt><trkpt lat="44.909206097488045" lon="7.280449895393246"><ele>964.4000000000001</ele><time>2026-04-19T10:09:52Z</time></trkpt><trkpt lat="44.90912722277752" lon="7.280552229650686"><ele>964.6</ele><time>2026-04-19T10:09:53Z</time></trkpt><trkpt lat="44.909048689928305" lon="7.280656896778789"><ele>964.8</ele><time>2026-04-19T10:09:54Z</time></trkpt><trkpt lat="44.90897297377551" lon="7.280763288481061"><ele>965.0</ele><time>2026-04-19T10:09:55.001Z</time></trkpt><trkpt lat="44.90892224780256" lon="7.280883113857601"><ele>965.0</ele><time>2026-04-19T10:09:56.001Z</time></trkpt><trkpt lat="44.908885944654436" lon="7.28100965406997"><ele>965.0</ele><time>2026-04-19T10:09:57.001Z</time></trkpt><trkpt lat="44.908820913442874" lon="7.281138513676183"><ele>965.0</ele><time>2026-04-19T10:09:58.001Z</time></trkpt><trkpt lat="44.90876923490003" lon="7.281268387674095"><ele>965.0</ele><time>2026-04-19T10:09:59.001Z</time></trkpt><trkpt lat="44.908711524353414" lon="7.28138920138247"><ele>965.0</ele><time>2026-04-19T10:10:00.001Z</time></trkpt><trkpt lat="44.90866121299491" lon="7.281516083113761"><ele>965.4</ele><time>2026-04-19T10:10:01.001Z</time></trkpt><trkpt lat="44.908645927138565" lon="7.281664668441071"><ele>965.8</ele><time>2026-04-19T10:10:02.001Z</time></trkpt><trkpt lat="44.90866542487661" lon="7.281772846283661"><ele>966.2</ele><time>2026-04-19T10:10:03.001Z</time></trkpt><trkpt lat="44.90870825761703" lon="7.281894867550974"><ele>966.6</ele><time>2026-04-19T10:10:04.001Z</time></trkpt><trkpt lat="44.90875638566112" lon="7.282002889951417"><ele>967.0</ele><time>2026-04-19T10:10:05.001Z</time></trkpt><trkpt lat="44.90882689409316" lon="7.282134356907513"><ele>967.0</ele><time>2026-04-19T10:10:06.001Z</time></trkpt><trkpt lat="44.90890220696721" lon="7.282220585468575"><ele>967.0</ele><time>2026-04-19T10:10:07.001Z</time></trkpt><trkpt lat="44.908935884141066" lon="7.282326702513268"><ele>967.0</ele><time>2026-04-19T10:10:09.001Z</time></trkpt><trkpt lat="44.90885997822528" lon="7.282383397766524"><ele>967.0</ele><time>2026-04-19T10:10:11.001Z</time></trkpt><trkpt lat="44.90876544029592" lon="7.282293465649411"><ele>967.0</ele><time>2026-04-19T10:10:13.001Z</time></trkpt><trkpt lat="44.90869876438134" lon="7.282223787396052"><ele>967.0</ele><time>2026-04-19T10:10:14.001Z</time></trkpt><trkpt lat="44.90861353188235" lon="7.282157195757793"><ele>967.0</ele><time>2026-04-19T10:10:15.001Z</time></trkpt><trkpt lat="44.90853057568343" lon="7.28208356365375"><ele>967.0</ele><time>2026-04-19T10:10:16.001Z</time></trkpt><trkpt lat="44.908437641733755" lon="7.282017329559735"><ele>967.0</ele><time>2026-04-19T10:10:17.001Z</time></trkpt><trkpt lat="44.908339699870886" lon="7.2819670562114505"><ele>967.0</ele><time>2026-04-19T10:10:18.001Z</time></trkpt><trkpt lat="44.908247018225744" lon="7.281932369944492"><ele>971.25</ele><time>2026-04-19T10:10:19.001Z</time></trkpt><trkpt lat="44.908128726418326" lon="7.281893835452553"><ele>975.5</ele><time>2026-04-19T10:10:20.001Z</time></trkpt><trkpt lat="44.90799694221198" lon="7.281844320855343"><ele>979.75</ele><time>2026-04-19T10:10:21.001Z</time></trkpt><trkpt lat="44.90788042715071" lon="7.281782914979048"><ele>984.0</ele><time>2026-04-19T10:10:22.001Z</time></trkpt><trkpt lat="44.907773803050105" lon="7.2817131184130295"><ele>984.0</ele><time>2026-04-19T10:10:23.001Z</time></trkpt><trkpt lat="44.90767417077391" lon="7.2816276587720425"><ele>984.0000000000001</ele><time>2026-04-19T10:10:24.001Z</time></trkpt><trkpt lat="44.90760277817431" lon="7.2815757402315375"><ele>984.0000000000001</ele><time>2026-04-19T10:10:25.001Z</time></trkpt><trkpt lat="44.907519777269755" lon="7.281519827298555"><ele>984.0</ele><time>2026-04-19T10:10:27.001Z</time></trkpt><trkpt lat="44.907399152782965" lon="7.2813934875398"><ele>984.0</ele><time>2026-04-19T10:10:29.001Z</time></trkpt><trkpt lat="44.90729809810597" lon="7.281327738884452"><ele>986.8333333333334</ele><time>2026-04-19T10:10:30.001Z</time></trkpt><trkpt lat="44.90723440463724" lon="7.281258745580952"><ele>989.6666666666667</ele><time>2026-04-19T10:10:31.001Z</time></trkpt><trkpt lat="44.90715407898298" lon="7.2811791470416125"><ele>992.5</ele><time>2026-04-19T10:10:32.001Z</time></trkpt><trkpt lat="44.907069331288575" lon="7.281136710033014"><ele>995.3333333333334</ele><time>2026-04-19T10:10:34.001Z</time></trkpt><trkpt lat="44.90701510007375" lon="7.281037004824877"><ele>998.1666666666667</ele><time>2026-04-19T10:10:36.001Z</time></trkpt><trkpt lat="44.9069630739037" lon="7.280972514399556"><ele>1001.0</ele><time>2026-04-19T10:10:38.001Z</time></trkpt><trkpt lat="44.90693126451098" lon="7.2808817334328975"><ele>1001.0000000000001</ele><time>2026-04-19T10:10:48.001Z</time></trkpt><trkpt lat="44.90688581050424" lon="7.280782336783553"><ele>1001.0</ele><time>2026-04-19T10:10:50.001Z</time></trkpt><trkpt lat="44.90684113538295" lon="7.280707867962241"><ele>1001.0</ele><time>2026-04-19T10:10:52.001Z</time></trkpt><trkpt lat="44.90689222778171" lon="7.280762662440746"><ele>1001.0</ele><time>2026-04-19T10:11:19.999Z</time></trkpt><trkpt lat="44.90693801867187" lon="7.280848265397956"><ele>1001.0000000000001</ele><time>2026-04-19T10:11:21.999Z</time></trkpt><trkpt lat="44.906991107759936" lon="7.280957948414641"><ele>1001.0</ele><time>2026-04-19T10:11:23.999Z</time></trkpt><trkpt lat="44.907066426576726" lon="7.281073404568151"><ele>1001.0000000000001</ele><time>2026-04-19T10:11:25.999Z</time></trkpt><trkpt lat="44.9071192929994" lon="7.281136343957027"><ele>1001.0</ele><time>2026-04-19T10:11:26.999Z</time></trkpt><trkpt lat="44.907196681814334" lon="7.28123698659905"><ele>1001.0</ele><time>2026-04-19T10:11:28.999Z</time></trkpt><trkpt lat="44.9072645278719" lon="7.281293086242513"><ele>1001.0</ele><time>2026-04-19T10:11:30.999Z</time></trkpt><trkpt lat="44.9073229538174" lon="7.281346894655691"><ele>1001.0000000000001</ele><time>2026-04-19T10:11:31.999Z</time></trkpt><trkpt lat="44.90739578717767" lon="7.28140447672993"><ele>1001.0</ele><time>2026-04-19T10:11:32.999Z</time></trkpt><trkpt lat="44.90745133577314" lon="7.281455726845878"><ele>999.5000000000001</ele><time>2026-04-19T10:11:33.999Z</time></trkpt><trkpt lat="44.90746950295758" lon="7.281573243550705"><ele>998.0</ele><time>2026-04-19T10:11:35.999Z</time></trkpt><trkpt lat="44.9073887782248" lon="7.281643601624126"><ele>996.5</ele><time>2026-04-19T10:11:37.999Z</time></trkpt><trkpt lat="44.907320790896144" lon="7.281666415779333"><ele>995.0</ele><time>2026-04-19T10:11:38.999Z</time></trkpt><trkpt lat="44.90725695221031" lon="7.2816885771484205"><ele>993.5000000000001</ele><time>2026-04-19T10:11:39.999Z</time></trkpt><trkpt lat="44.90716821545041" lon="7.281708284580141"><ele>992.0</ele><time>2026-04-19T10:11:40.999Z</time></trkpt><trkpt lat="44.90708047826317" lon="7.281743828285929"><ele>992.0</ele><time>2026-04-19T10:11:41.999Z</time></trkpt><trkpt lat="44.90700313215475" lon="7.281788582039068"><ele>992.0</ele><time>2026-04-19T10:11:43Z</time></trkpt><trkpt lat="44.906911870736906" lon="7.281866992837823"><ele>992.0</ele><time>2026-04-19T10:11:44Z</time></trkpt><trkpt lat="44.90677783514244" lon="7.28198687690851"><ele>992.0</ele><time>2026-04-19T10:11:46Z</time></trkpt><trkpt lat="44.90666975276623" lon="7.2820601994897345"><ele>991.6666666666667</ele><time>2026-04-19T10:11:47Z</time></trkpt><trkpt lat="44.906588485411596" lon="7.282116920745655"><ele>991.3333333333334</ele><time>2026-04-19T10:11:48Z</time></trkpt><trkpt lat="44.90652051670506" lon="7.282133106100866"><ele>991.0</ele><time>2026-04-19T10:11:49Z</time></trkpt><trkpt lat="44.90644454954185" lon="7.282119618349499"><ele>990.6666666666667</ele><time>2026-04-19T10:11:50Z</time></trkpt><trkpt lat="44.90637640795803" lon="7.282091985215627"><ele>990.3333333333334</ele><time>2026-04-19T10:11:51Z</time></trkpt><trkpt lat="44.90630574779205" lon="7.282032119094672"><ele>990.0</ele><time>2026-04-19T10:11:52Z</time></trkpt><trkpt lat="44.906232813261234" lon="7.281952928349042"><ele>990.0</ele><time>2026-04-19T10:11:53Z</time></trkpt><trkpt lat="44.90614442160052" lon="7.281849053258149"><ele>990.0</ele><time>2026-04-19T10:11:54Z</time></trkpt><trkpt lat="44.90603142777355" lon="7.2817016556209255"><ele>990.0</ele><time>2026-04-19T10:11:55Z</time></trkpt><trkpt lat="44.905966145978255" lon="7.281608837433007"><ele>990.0</ele><time>2026-04-19T10:11:56Z</time></trkpt><trkpt lat="44.90588866129579" lon="7.281555018735136"><ele>990.0</ele><time>2026-04-19T10:11:57Z</time></trkpt><trkpt lat="44.905777930442994" lon="7.281473923207381"><ele>989.1666666666666</ele><time>2026-04-19T10:11:58Z</time></trkpt><trkpt lat="44.905710611453905" lon="7.281439925255177"><ele>988.3333333333333</ele><time>2026-04-19T10:11:59Z</time></trkpt><trkpt lat="44.905638540454454" lon="7.281379647360667"><ele>987.5</ele><time>2026-04-19T10:12:00Z</time></trkpt><trkpt lat="44.90558236665343" lon="7.2813194481971415"><ele>986.6666666666666</ele><time>2026-04-19T10:12:01Z</time></trkpt><trkpt lat="44.90550240518685" lon="7.2812533088836"><ele>985.8333333333333</ele><time>2026-04-19T10:12:02Z</time></trkpt><trkpt lat="44.90542373412246" lon="7.281163643849515"><ele>985.0</ele><time>2026-04-19T10:12:03Z</time></trkpt><trkpt lat="44.905344568548095" lon="7.281082793196844"><ele>985.0</ele><time>2026-04-19T10:12:04Z</time></trkpt><trkpt lat="44.90525208255189" lon="7.2810532559369046"><ele>985.0</ele><time>2026-04-19T10:12:05Z</time></trkpt><trkpt lat="44.90512563213204" lon="7.281007300129789"><ele>985.0</ele><time>2026-04-19T10:12:06Z</time></trkpt><trkpt lat="44.905021887572026" lon="7.280957115687004"><ele>985.0</ele><time>2026-04-19T10:12:07Z</time></trkpt><trkpt lat="44.90493676506005" lon="7.280902359481056"><ele>985.0</ele><time>2026-04-19T10:12:08Z</time></trkpt><trkpt lat="44.904857565884654" lon="7.280854279828691"><ele>982.3333333333333</ele><time>2026-04-19T10:12:09Z</time></trkpt><trkpt lat="44.90477985719487" lon="7.280815643289734"><ele>979.6666666666666</ele><time>2026-04-19T10:12:10Z</time></trkpt><trkpt lat="44.904705418354055" lon="7.28081568046315"><ele>977.0</ele><time>2026-04-19T10:12:11Z</time></trkpt><trkpt lat="44.904617621640845" lon="7.280815270526321"><ele>974.3333333333333</ele><time>2026-04-19T10:12:12Z</time></trkpt><trkpt lat="44.9045385550476" lon="7.280807258401784"><ele>971.6666666666666</ele><time>2026-04-19T10:12:13Z</time></trkpt><trkpt lat="44.90443535064703" lon="7.2807921078055"><ele>969.0</ele><time>2026-04-19T10:12:14Z</time></trkpt><trkpt lat="44.904339940088086" lon="7.280783781796275"><ele>965.25</ele><time>2026-04-19T10:12:15Z</time></trkpt><trkpt lat="44.90422088697927" lon="7.28078698314969"><ele>961.5</ele><time>2026-04-19T10:12:16Z</time></trkpt><trkpt lat="44.90409012963205" lon="7.28081419253998"><ele>957.75</ele><time>2026-04-19T10:12:17Z</time></trkpt><trkpt lat="44.90398565089473" lon="7.2808767682402635"><ele>954.0</ele><time>2026-04-19T10:12:18Z</time></trkpt><trkpt lat="44.90387545566272" lon="7.2808749214718995"><ele>954.0</ele><time>2026-04-19T10:12:19Z</time></trkpt><trkpt lat="44.90378168462809" lon="7.280870267258676"><ele>954.0</ele><time>2026-04-19T10:12:20Z</time></trkpt><trkpt lat="44.90366994241545" lon="7.280862916589368"><ele>954.0</ele><time>2026-04-19T10:12:21Z</time></trkpt><trkpt lat="44.90360694417697" lon="7.280895921254668"><ele>954.0</ele><time>2026-04-19T10:12:22Z</time></trkpt><trkpt lat="44.903544963163675" lon="7.280953341852551"><ele>954.0</ele><time>2026-04-19T10:12:23Z</time></trkpt><trkpt lat="44.90347324836746" lon="7.280974884487104"><ele>954.0</ele><time>2026-04-19T10:12:24Z</time></trkpt><trkpt lat="44.903398031505596" lon="7.280978636096887"><ele>952.5</ele><time>2026-04-19T10:12:25Z</time></trkpt><trkpt lat="44.90332308957902" lon="7.280956498300457"><ele>951.0</ele><time>2026-04-19T10:12:26Z</time></trkpt><trkpt lat="44.90325549026044" lon="7.280953771750709"><ele>949.5</ele><time>2026-04-19T10:12:27Z</time></trkpt><trkpt lat="44.903191220580965" lon="7.281083677697075"><ele>948.0</ele><time>2026-04-19T10:12:29Z</time></trkpt><trkpt lat="44.90314566717299" lon="7.281177263873591"><ele>946.5</ele><time>2026-04-19T10:12:30Z</time></trkpt><trkpt lat="44.90310522120783" lon="7.281251002572275"><ele>945.0</ele><time>2026-04-19T10:12:31Z</time></trkpt><trkpt lat="44.903003073564165" lon="7.281356792669072"><ele>944.4</ele><time>2026-04-19T10:12:33Z</time></trkpt><trkpt lat="44.90294347602319" lon="7.281477122782125"><ele>943.8</ele><time>2026-04-19T10:12:35Z</time></trkpt><trkpt lat="44.90287274295329" lon="7.2816067209859865"><ele>943.2</ele><time>2026-04-19T10:12:37.001Z</time></trkpt><trkpt lat="44.902834843320456" lon="7.281764356715833"><ele>942.6</ele><time>2026-04-19T10:12:39.001Z</time></trkpt><trkpt lat="44.90284739319841" lon="7.2818956849450025"><ele>942.0</ele><time>2026-04-19T10:12:41.001Z</time></trkpt><trkpt lat="44.90290689315704" lon="7.282035441370558"><ele>942.0</ele><time>2026-04-19T10:12:43.001Z</time></trkpt><trkpt lat="44.90293884227748" lon="7.282126633108683"><ele>942.0</ele><time>2026-04-19T10:12:44.001Z</time></trkpt><trkpt lat="44.90293923332107" lon="7.282235626203533"><ele>942.0</ele><time>2026-04-19T10:12:46.001Z</time></trkpt><trkpt lat="44.902852380513046" lon="7.282287832927574"><ele>942.0</ele><time>2026-04-19T10:12:48.001Z</time></trkpt><trkpt lat="44.90275754554586" lon="7.282282174456066"><ele>942.0</ele><time>2026-04-19T10:12:50.001Z</time></trkpt><trkpt lat="44.902615571857986" lon="7.282273478906353"><ele>939.8333333333334</ele><time>2026-04-19T10:12:52.001Z</time></trkpt><trkpt lat="44.90253165478139" lon="7.282289222659259"><ele>937.6666666666667</ele><time>2026-04-19T10:12:53.001Z</time></trkpt><trkpt lat="44.902437907683115" lon="7.282297609797186"><ele>935.5</ele><time>2026-04-19T10:12:54.001Z</time></trkpt><trkpt lat="44.90234469002118" lon="7.282301146620431"><ele>933.3333333333334</ele><time>2026-04-19T10:12:55.001Z</time></trkpt><trkpt lat="44.90225328620484" lon="7.282275972470016"><ele>931.1666666666667</ele><time>2026-04-19T10:12:56.001Z</time></trkpt><trkpt lat="44.902183053778884" lon="7.282233010609444"><ele>929.0</ele><time>2026-04-19T10:12:57.001Z</time></trkpt><trkpt lat="44.902106702580106" lon="7.282205446568125"><ele>929.0000000000001</ele><time>2026-04-19T10:12:58.001Z</time></trkpt><trkpt lat="44.90204216652551" lon="7.282181785816461"><ele>929.0</ele><time>2026-04-19T10:12:59.001Z</time></trkpt><trkpt lat="44.90198293833184" lon="7.282116900832604"><ele>929.0</ele><time>2026-04-19T10:13:00.001Z</time></trkpt><trkpt lat="44.9019182061992" lon="7.2820334700372955"><ele>929.0</ele><time>2026-04-19T10:13:01.001Z</time></trkpt><trkpt lat="44.901834250624084" lon="7.28195308617008"><ele>929.0000000000001</ele><time>2026-04-19T10:13:02.001Z</time></trkpt><trkpt lat="44.901744214594636" lon="7.281906924081457"><ele>929.0</ele><time>2026-04-19T10:13:03.001Z</time></trkpt><trkpt lat="44.90167728448015" lon="7.281885765630543"><ele>926.5000000000001</ele><time>2026-04-19T10:13:04.001Z</time></trkpt><trkpt lat="44.901589854544305" lon="7.281843242683921"><ele>924.0</ele><time>2026-04-19T10:13:05.001Z</time></trkpt><trkpt lat="44.90151417093994" lon="7.281835375047523"><ele>921.5</ele><time>2026-04-19T10:13:06.001Z</time></trkpt><trkpt lat="44.901425871317045" lon="7.281850828908905"><ele>919.0</ele><time>2026-04-19T10:13:07.001Z</time></trkpt><trkpt lat="44.90135473699953" lon="7.2818859082419145"><ele>916.5000000000001</ele><time>2026-04-19T10:13:08.001Z</time></trkpt><trkpt lat="44.901285173492404" lon="7.2819026095920885"><ele>914.0</ele><time>2026-04-19T10:13:09.001Z</time></trkpt><trkpt lat="44.901217337170024" lon="7.281923943347728"><ele>914.0000000000001</ele><time>2026-04-19T10:13:10.001Z</time></trkpt><trkpt lat="44.90112829696878" lon="7.281934060904588"><ele>914.0</ele><time>2026-04-19T10:13:11.001Z</time></trkpt><trkpt lat="44.90105963613268" lon="7.281924782662541"><ele>914.0</ele><time>2026-04-19T10:13:11.998Z</time></trkpt><trkpt lat="44.900974120714494" lon="7.281932128162712"><ele>914.0</ele><time>2026-04-19T10:13:12.998Z</time></trkpt><trkpt lat="44.90089250050926" lon="7.281948449048158"><ele>914.0000000000001</ele><time>2026-04-19T10:13:13.998Z</time></trkpt><trkpt lat="44.900770416203976" lon="7.2819708021642"><ele>914.0</ele><time>2026-04-19T10:13:15.998Z</time></trkpt><trkpt lat="44.90066629998732" lon="7.282056233439865"><ele>911.2</ele><time>2026-04-19T10:13:17.998Z</time></trkpt><trkpt lat="44.900534295305405" lon="7.28212490449126"><ele>908.4000000000001</ele><time>2026-04-19T10:13:19.998Z</time></trkpt><trkpt lat="44.9004538110047" lon="7.2821525593780345"><ele>905.6</ele><time>2026-04-19T10:13:20.998Z</time></trkpt><trkpt lat="44.90036705096373" lon="7.2821856607009146"><ele>902.8</ele><time>2026-04-19T10:13:21.998Z</time></trkpt><trkpt lat="44.90029454672595" lon="7.28220836645739"><ele>900.0</ele><time>2026-04-19T10:13:22.998Z</time></trkpt><trkpt lat="44.90021807306652" lon="7.282203548904333"><ele>900.0000000000001</ele><time>2026-04-19T10:13:23.998Z</time></trkpt><trkpt lat="44.900155385250194" lon="7.28216482401293"><ele>900.0</ele><time>2026-04-19T10:13:24.998Z</time></trkpt><trkpt lat="44.900095200845186" lon="7.28210512433751"><ele>900.0000000000001</ele><time>2026-04-19T10:13:25.998Z</time></trkpt><trkpt lat="44.90004865855389" lon="7.282036157876921"><ele>900.0000000000001</ele><time>2026-04-19T10:13:26.998Z</time></trkpt><trkpt lat="44.899998406868114" lon="7.281966423742475"><ele>900.0</ele><time>2026-04-19T10:13:27.999Z</time></trkpt><trkpt lat="44.89992104354639" lon="7.2818865009224085"><ele>900.0000000000001</ele><time>2026-04-19T10:13:28.999Z</time></trkpt><trkpt lat="44.89988038669069" lon="7.281811224736445"><ele>900.0000000000001</ele><time>2026-04-19T10:13:29.999Z</time></trkpt><trkpt lat="44.8998176835454" lon="7.2816598945851965"><ele>897.6</ele><time>2026-04-19T10:13:31.999Z</time></trkpt><trkpt lat="44.89981820332075" lon="7.281545435107708"><ele>895.2</ele><time>2026-04-19T10:13:32.999Z</time></trkpt><trkpt lat="44.89982767591327" lon="7.281428042275727"><ele>892.8</ele><time>2026-04-19T10:13:33.999Z</time></trkpt><trkpt lat="44.89986375696248" lon="7.2813032911895315"><ele>890.4</ele><time>2026-04-19T10:13:34.999Z</time></trkpt><trkpt lat="44.89990849272082" lon="7.28118522013007"><ele>888.0</ele><time>2026-04-19T10:13:35.999Z</time></trkpt><trkpt lat="44.89995677492932" lon="7.281049136000243"><ele>888.0</ele><time>2026-04-19T10:13:36.999Z</time></trkpt><trkpt lat="44.89999162179754" lon="7.280910052665445"><ele>888.0</ele><time>2026-04-19T10:13:37.999Z</time></trkpt><trkpt lat="44.90001726094367" lon="7.2807738341333"><ele>888.0</ele><time>2026-04-19T10:13:38.999Z</time></trkpt><trkpt lat="44.90005084074241" lon="7.280619454673238"><ele>888.0</ele><time>2026-04-19T10:13:39.999Z</time></trkpt><trkpt lat="44.900091030373844" lon="7.280454012132593"><ele>888.0</ele><time>2026-04-19T10:13:40.999Z</time></trkpt><trkpt lat="44.90011245127953" lon="7.280311742684519"><ele>888.0</ele><time>2026-04-19T10:13:41.999Z</time></trkpt><trkpt lat="44.900129868383665" lon="7.280176138804187"><ele>888.0</ele><time>2026-04-19T10:13:42.999Z</time></trkpt><trkpt lat="44.90013647989635" lon="7.2800538305380185"><ele>888.0</ele><time>2026-04-19T10:13:43.999Z</time></trkpt><trkpt lat="44.90016768261672" lon="7.279920240242012"><ele>888.0</ele><time>2026-04-19T10:13:44.999Z</time></trkpt><trkpt lat="44.900192988012314" lon="7.279802921296006"><ele>888.0</ele><time>2026-04-19T10:13:45.999Z</time></trkpt><trkpt lat="44.900214813526865" lon="7.279670084039726"><ele>886.0</ele><time>2026-04-19T10:13:46.999Z</time></trkpt><trkpt lat="44.90024038822439" lon="7.279520768536937"><ele>884.0</ele><time>2026-04-19T10:13:47.999Z</time></trkpt><trkpt lat="44.90026970409596" lon="7.279361161940458"><ele>882.0</ele><time>2026-04-19T10:13:48.999Z</time></trkpt><trkpt lat="44.900302460651815" lon="7.279209284497467"><ele>880.0</ele><time>2026-04-19T10:13:50Z</time></trkpt><trkpt lat="44.90035919434179" lon="7.279076164391752"><ele>878.0</ele><time>2026-04-19T10:13:51Z</time></trkpt><trkpt lat="44.90042028795574" lon="7.278959389422968"><ele>875.6666666666667</ele><time>2026-04-19T10:13:52Z</time></trkpt><trkpt lat="44.900467945922706" lon="7.278873118936297"><ele>873.3333333333334</ele><time>2026-04-19T10:13:53Z</time></trkpt><trkpt lat="44.90053062788596" lon="7.278804391523002"><ele>871.0</ele><time>2026-04-19T10:13:54Z</time></trkpt><trkpt lat="44.90059798214862" lon="7.278766747389178"><ele>868.6666666666667</ele><time>2026-04-19T10:13:55Z</time></trkpt><trkpt lat="44.900634124489585" lon="7.278660691279245"><ele>866.3333333333334</ele><time>2026-04-19T10:13:57Z</time></trkpt><trkpt lat="44.90051995628776" lon="7.27864138138736"><ele>864.0</ele><time>2026-04-19T10:13:59Z</time></trkpt><trkpt lat="44.900441422762285" lon="7.278668720287398"><ele>864.0</ele><time>2026-04-19T10:14:00Z</time></trkpt><trkpt lat="44.90034594377238" lon="7.27870019466929"><ele>864.0000000000001</ele><time>2026-04-19T10:14:01Z</time></trkpt><trkpt lat="44.900252838089415" lon="7.278726482233688"><ele>864.0000000000001</ele><time>2026-04-19T10:14:02Z</time></trkpt><trkpt lat="44.90016524988731" lon="7.27874159257944"><ele>864.0</ele><time>2026-04-19T10:14:03Z</time></trkpt><trkpt lat="44.90006219022424" lon="7.278778606258783"><ele>864.0</ele><time>2026-04-19T10:14:04Z</time></trkpt><trkpt lat="44.89996974859873" lon="7.278840209913236"><ele>863.3333333333334</ele><time>2026-04-19T10:14:05Z</time></trkpt><trkpt lat="44.899887855932825" lon="7.278903683338495"><ele>862.6666666666667</ele><time>2026-04-19T10:14:06Z</time></trkpt><trkpt lat="44.8998418539114" lon="7.278988222243588"><ele>862.0</ele><time>2026-04-19T10:14:07Z</time></trkpt><trkpt lat="44.89980022466899" lon="7.27910502556812"><ele>861.3333333333334</ele><time>2026-04-19T10:14:08Z</time></trkpt><trkpt lat="44.89976596944263" lon="7.279232915934217"><ele>860.6666666666667</ele><time>2026-04-19T10:14:09Z</time></trkpt><trkpt lat="44.89971953704701" lon="7.279322777987136"><ele>860.0</ele><time>2026-04-19T10:14:10Z</time></trkpt><trkpt lat="44.899649156257695" lon="7.279395376582971"><ele>860.0</ele><time>2026-04-19T10:14:11Z</time></trkpt><trkpt lat="44.89955300538599" lon="7.279444045540321"><ele>860.0</ele><time>2026-04-19T10:14:12Z</time></trkpt><trkpt lat="44.89944413002674" lon="7.27946830591814"><ele>860.0</ele><time>2026-04-19T10:14:13Z</time></trkpt><trkpt lat="44.89933148743323" lon="7.279493006579498"><ele>860.0</ele><time>2026-04-19T10:14:14Z</time></trkpt><trkpt lat="44.89923757161328" lon="7.279483102801524"><ele>860.0</ele><time>2026-04-19T10:14:15Z</time></trkpt><trkpt lat="44.89913018631681" lon="7.279460516980031"><ele>855.75</ele><time>2026-04-19T10:14:16Z</time></trkpt><trkpt lat="44.89900905027681" lon="7.279436417825235"><ele>851.5</ele><time>2026-04-19T10:14:17Z</time></trkpt><trkpt lat="44.898890897729125" lon="7.279411173187415"><ele>847.25</ele><time>2026-04-19T10:14:18Z</time></trkpt><trkpt lat="44.89877732001105" lon="7.279365738602921"><ele>843.0</ele><time>2026-04-19T10:14:19Z</time></trkpt><trkpt lat="44.89868573036071" lon="7.279323101861273"><ele>843.0</ele><time>2026-04-19T10:14:20Z</time></trkpt><trkpt lat="44.89858954692476" lon="7.279264496057081"><ele>843.0</ele><time>2026-04-19T10:14:21Z</time></trkpt><trkpt lat="44.89850222080992" lon="7.2792165960585296"><ele>843.0</ele><time>2026-04-19T10:14:22Z</time></trkpt><trkpt lat="44.89841098700581" lon="7.279192972120951"><ele>843.0</ele><time>2026-04-19T10:14:23Z</time></trkpt><trkpt lat="44.898317289593564" lon="7.279306672136958"><ele>843.0</ele><time>2026-04-19T10:14:25Z</time></trkpt><trkpt lat="44.89829802805434" lon="7.279416722476936"><ele>841.8333333333334</ele><time>2026-04-19T10:14:26Z</time></trkpt><trkpt lat="44.89829526121476" lon="7.279533748152217"><ele>840.6666666666667</ele><time>2026-04-19T10:14:27Z</time></trkpt><trkpt lat="44.898308003729504" lon="7.279664742502401"><ele>839.5</ele><time>2026-04-19T10:14:28Z</time></trkpt><trkpt lat="44.8983089810216" lon="7.279799300341948"><ele>838.3333333333334</ele><time>2026-04-19T10:14:29.001Z</time></trkpt><trkpt lat="44.898320412150156" lon="7.279924818434419"><ele>837.1666666666667</ele><time>2026-04-19T10:14:30.001Z</time></trkpt><trkpt lat="44.898343047557304" lon="7.280037362294349"><ele>836.0</ele><time>2026-04-19T10:14:31.001Z</time></trkpt><trkpt lat="44.89834619022406" lon="7.280131443641252"><ele>836.0</ele><time>2026-04-19T10:14:32.001Z</time></trkpt><trkpt lat="44.89831973215279" lon="7.28021390712695"><ele>836.0</ele><time>2026-04-19T10:14:33.001Z</time></trkpt><trkpt lat="44.89825295543747" lon="7.280318069077109"><ele>836.0</ele><time>2026-04-19T10:14:34.001Z</time></trkpt><trkpt lat="44.89816555175133" lon="7.2803825690173705"><ele>836.0</ele><time>2026-04-19T10:14:35.001Z</time></trkpt><trkpt lat="44.8980562035445" lon="7.280452016185485"><ele>836.0</ele><time>2026-04-19T10:14:36.001Z</time></trkpt><trkpt lat="44.89796058746564" lon="7.2805365683931695"><ele>836.8</ele><time>2026-04-19T10:14:37.001Z</time></trkpt><trkpt lat="44.897863567901815" lon="7.280618959597795"><ele>837.5999999999999</ele><time>2026-04-19T10:14:38.001Z</time></trkpt><trkpt lat="44.89776687445138" lon="7.28069147172966"><ele>838.4</ele><time>2026-04-19T10:14:39.001Z</time></trkpt><trkpt lat="44.89767166195459" lon="7.2807526269134"><ele>839.2</ele><time>2026-04-19T10:14:40.001Z</time></trkpt><trkpt lat="44.89757769376031" lon="7.280813641645266"><ele>840.0</ele><time>2026-04-19T10:14:41.001Z</time></trkpt><trkpt lat="44.89749081272219" lon="7.2808694294328795"><ele>836.0</ele><time>2026-04-19T10:14:42.001Z</time></trkpt><trkpt lat="44.897397814925064" lon="7.2809049301333575"><ele>832.0</ele><time>2026-04-19T10:14:43.001Z</time></trkpt><trkpt lat="44.897304896375026" lon="7.28090646333276"><ele>828.0</ele><time>2026-04-19T10:14:44.001Z</time></trkpt><trkpt lat="44.89721409385138" lon="7.2809043182567095"><ele>824.0</ele><time>2026-04-19T10:14:45.001Z</time></trkpt><trkpt lat="44.89714450698141" lon="7.28089806848366"><ele>820.0</ele><time>2026-04-19T10:14:46.001Z</time></trkpt><trkpt lat="44.89708209571284" lon="7.2807755273060994"><ele>817.6</ele><time>2026-04-19T10:14:48.001Z</time></trkpt><trkpt lat="44.89715868935442" lon="7.280598355587911"><ele>815.2</ele><time>2026-04-19T10:14:50.001Z</time></trkpt><trkpt lat="44.897243571259935" lon="7.28048879523734"><ele>812.8</ele><time>2026-04-19T10:14:51.001Z</time></trkpt><trkpt lat="44.89729632916675" lon="7.280379494935728"><ele>810.4</ele><time>2026-04-19T10:14:52.001Z</time></trkpt><trkpt lat="44.89731628582247" lon="7.280269656742997"><ele>808.0</ele><time>2026-04-19T10:14:53.001Z</time></trkpt><trkpt lat="44.89732168548659" lon="7.280152639612138"><ele>807.9999999999999</ele><time>2026-04-19T10:14:54.001Z</time></trkpt><trkpt lat="44.89733829749269" lon="7.280023022634731"><ele>808.0</ele><time>2026-04-19T10:14:55.001Z</time></trkpt><trkpt lat="44.89736293251506" lon="7.279909975011642"><ele>808.0</ele><time>2026-04-19T10:14:56.001Z</time></trkpt><trkpt lat="44.89740161515567" lon="7.279804253735421"><ele>808.0</ele><time>2026-04-19T10:14:57.001Z</time></trkpt><trkpt lat="44.89744468572893" lon="7.279735477097396"><ele>807.9999999999999</ele><time>2026-04-19T10:14:58.001Z</time></trkpt><trkpt lat="44.89744314189739" lon="7.279621559270682"><ele>808.0</ele><time>2026-04-19T10:15:00.001Z</time></trkpt><trkpt lat="44.89733935082161" lon="7.2796159017824795"><ele>807.8</ele><time>2026-04-19T10:15:02.001Z</time></trkpt><trkpt lat="44.8972516242552" lon="7.2796367980971635"><ele>807.5999999999999</ele><time>2026-04-19T10:15:03.001Z</time></trkpt><trkpt lat="44.89715306547344" lon="7.279677603974542"><ele>807.4000000000001</ele><time>2026-04-19T10:15:04.001Z</time></trkpt><trkpt lat="44.89706868267454" lon="7.279696779972239"><ele>807.2</ele><time>2026-04-19T10:15:05.001Z</time></trkpt><trkpt lat="44.896983725472815" lon="7.279721922173936"><ele>807.0</ele><time>2026-04-19T10:15:06.001Z</time></trkpt><trkpt lat="44.89688779390927" lon="7.279755364990479"><ele>807.2</ele><time>2026-04-19T10:15:07.001Z</time></trkpt><trkpt lat="44.89682181179976" lon="7.279815176051533"><ele>807.4000000000001</ele><time>2026-04-19T10:15:08.001Z</time></trkpt><trkpt lat="44.89671841776211" lon="7.279872162197041"><ele>807.5999999999999</ele><time>2026-04-19T10:15:09.001Z</time></trkpt><trkpt lat="44.89661732583862" lon="7.279922762768951"><ele>807.8</ele><time>2026-04-19T10:15:10.001Z</time></trkpt><trkpt lat="44.89651634152765" lon="7.279953250421597"><ele>808.0</ele><time>2026-04-19T10:15:11.001Z</time></trkpt><trkpt lat="44.89642354319379" lon="7.279990972502234"><ele>805.6666666666666</ele><time>2026-04-19T10:15:12.001Z</time></trkpt><trkpt lat="44.89634051949588" lon="7.280047341123439"><ele>803.3333333333333</ele><time>2026-04-19T10:15:13.001Z</time></trkpt><trkpt lat="44.89627193503" lon="7.28010671738462"><ele>801.0</ele><time>2026-04-19T10:15:14.001Z</time></trkpt><trkpt lat="44.89620205412307" lon="7.280192041557308"><ele>798.6666666666667</ele><time>2026-04-19T10:15:15.002Z</time></trkpt><trkpt lat="44.89614579362347" lon="7.2802754286967035"><ele>796.3333333333334</ele><time>2026-04-19T10:15:16.002Z</time></trkpt><trkpt lat="44.8960850806768" lon="7.280355849240722"><ele>794.0</ele><time>2026-04-19T10:15:17.002Z</time></trkpt><trkpt lat="44.896048632095074" lon="7.280446865598065"><ele>794.0</ele><time>2026-04-19T10:15:17.998Z</time></trkpt><trkpt lat="44.895990626135344" lon="7.2805450222136985"><ele>794.0</ele><time>2026-04-19T10:15:18.998Z</time></trkpt><trkpt lat="44.8959284857707" lon="7.280669801980332"><ele>794.0</ele><time>2026-04-19T10:15:19.999Z</time></trkpt><trkpt lat="44.895867679542775" lon="7.280805289548411"><ele>794.0</ele><time>2026-04-19T10:15:20.999Z</time></trkpt><trkpt lat="44.89581408170999" lon="7.280930044782392"><ele>794.0</ele><time>2026-04-19T10:15:21.999Z</time></trkpt><trkpt lat="44.89577283696766" lon="7.281051546532485"><ele>792.8333333333334</ele><time>2026-04-19T10:15:22.999Z</time></trkpt><trkpt lat="44.89573038269717" lon="7.28113249683961"><ele>791.6666666666667</ele><time>2026-04-19T10:15:23.999Z</time></trkpt><trkpt lat="44.89570174481257" lon="7.281235575203071"><ele>790.5</ele><time>2026-04-19T10:15:24.999Z</time></trkpt><trkpt lat="44.89566110704541" lon="7.281368635845661"><ele>789.3333333333333</ele><time>2026-04-19T10:15:25.999Z</time></trkpt><trkpt lat="44.89563519243457" lon="7.28148934915248"><ele>788.1666666666666</ele><time>2026-04-19T10:15:26.999Z</time></trkpt><trkpt lat="44.89560550407349" lon="7.28160661311382"><ele>787.0</ele><time>2026-04-19T10:15:27.999Z</time></trkpt><trkpt lat="44.89557940511957" lon="7.28175956139724"><ele>787.0</ele><time>2026-04-19T10:15:29.999Z</time></trkpt><trkpt lat="44.89549872164703" lon="7.281728177195666"><ele>787.0</ele><time>2026-04-19T10:15:31.999Z</time></trkpt><trkpt lat="44.89549974329954" lon="7.281545486467791"><ele>787.0</ele><time>2026-04-19T10:15:33.999Z</time></trkpt><trkpt lat="44.89551883603762" lon="7.2814062246845035"><ele>787.0</ele><time>2026-04-19T10:15:34.999Z</time></trkpt><trkpt lat="44.89550925858613" lon="7.281227314410441"><ele>787.0</ele><time>2026-04-19T10:15:35.999Z</time></trkpt><trkpt lat="44.895521711406566" lon="7.281008950068705"><ele>785.8</ele><time>2026-04-19T10:15:36.999Z</time></trkpt><trkpt lat="44.89552021599127" lon="7.280857460571045"><ele>784.6</ele><time>2026-04-19T10:15:37.999Z</time></trkpt><trkpt lat="44.89549620587133" lon="7.280760085263659"><ele>783.4</ele><time>2026-04-19T10:15:38.999Z</time></trkpt><trkpt lat="44.89543889545662" lon="7.280655204151419"><ele>782.1999999999999</ele><time>2026-04-19T10:15:39.999Z</time></trkpt><trkpt lat="44.895355473639725" lon="7.280526952387148"><ele>781.0</ele><time>2026-04-19T10:15:40.999Z</time></trkpt><trkpt lat="44.89528275671177" lon="7.28038360973253"><ele>779.25</ele><time>2026-04-19T10:15:41.999Z</time></trkpt><trkpt lat="44.89521753813436" lon="7.280250953908934"><ele>777.5</ele><time>2026-04-19T10:15:42.999Z</time></trkpt><trkpt lat="44.895170293716916" lon="7.280109828177034"><ele>775.75</ele><time>2026-04-19T10:15:43.999Z</time></trkpt><trkpt lat="44.89514472808135" lon="7.279953988881064"><ele>774.0</ele><time>2026-04-19T10:15:45Z</time></trkpt><trkpt lat="44.89510834083973" lon="7.279779946799465"><ele>772.8000000000001</ele><time>2026-04-19T10:15:46Z</time></trkpt><trkpt lat="44.89509183800842" lon="7.279607972392629"><ele>771.6</ele><time>2026-04-19T10:15:47Z</time></trkpt><trkpt lat="44.89508513031903" lon="7.2794639134189465"><ele>770.4</ele><time>2026-04-19T10:15:48Z</time></trkpt><trkpt lat="44.89507038332004" lon="7.279325063062548"><ele>769.2</ele><time>2026-04-19T10:15:49Z</time></trkpt><trkpt lat="44.895032845780605" lon="7.2792100120804015"><ele>768.0</ele><time>2026-04-19T10:15:50Z</time></trkpt><trkpt lat="44.894960013653794" lon="7.279138990013277"><ele>754.0</ele><time>2026-04-19T10:15:51Z</time></trkpt></trkseg></trk></gpx>